<?xml version="1.0" encoding="UTF-8" standalone="no" ?>
<gpx xmlns="http://www.topografix.com/GPX/1/1" xmlns:xsi="http://www.w3.org/2001/XMLSchema-instance" xsi:schemaLocation="http://www.topografix.com/GPX/1/1 http://www.topografix.com/GPX/1/1/gpx.xsd" version="1.1" creator="VisuGPX - https://www.visugpx.com">
  <metadata>
    <name>2020-07-23-01 Ambel</name>
    <desc><![CDATA[Fond d'urgence + ambel]]></desc>
  </metadata>
  <trk>
    <name><![CDATA[2020-07-23-01 Ambel]]></name>
    <extensions>
      <line xmlns="http://www.topografix.com/GPX/gpx_style/0/2">
        <color>0000FF</color>
        <width>4</width>
      </line>
    </extensions>
    <trkseg>
      <trkpt lat="44.89808" lon="5.32171">
        <ele>1445</ele>
        <time>2020-07-23T07:50:00.000Z</time>
      </trkpt>
      <trkpt lat="44.89809" lon="5.3217">
        <ele>1445</ele>
        <time>2020-07-23T07:50:01.000Z</time>
      </trkpt>
      <trkpt lat="44.89803" lon="5.3218">
        <ele>1447.9</ele>
        <time>2020-07-23T08:08:51.000Z</time>
      </trkpt>
      <trkpt lat="44.89812" lon="5.32174">
        <ele>1448</ele>
        <time>2020-07-23T08:10:49.000Z</time>
      </trkpt>
      <trkpt lat="44.89819" lon="5.32166">
        <ele>1448</ele>
        <time>2020-07-23T08:10:56.000Z</time>
      </trkpt>
      <trkpt lat="44.89822" lon="5.32154">
        <ele>1448</ele>
        <time>2020-07-23T08:11:04.000Z</time>
      </trkpt>
      <trkpt lat="44.8982" lon="5.3214">
        <ele>1447.9</ele>
        <time>2020-07-23T08:11:13.000Z</time>
      </trkpt>
      <trkpt lat="44.89819" lon="5.32127">
        <ele>1448</ele>
        <time>2020-07-23T08:11:21.000Z</time>
      </trkpt>
      <trkpt lat="44.89819" lon="5.32114">
        <ele>1448.2</ele>
        <time>2020-07-23T08:11:29.000Z</time>
      </trkpt>
      <trkpt lat="44.8982" lon="5.321">
        <ele>1448.4</ele>
        <time>2020-07-23T08:11:38.000Z</time>
      </trkpt>
      <trkpt lat="44.8983" lon="5.32099">
        <ele>1448.3</ele>
        <time>2020-07-23T08:11:55.000Z</time>
      </trkpt>
      <trkpt lat="44.89839" lon="5.321">
        <ele>1447.9</ele>
        <time>2020-07-23T08:12:07.000Z</time>
      </trkpt>
      <trkpt lat="44.89845" lon="5.3211">
        <ele>1447.7</ele>
        <time>2020-07-23T08:12:16.000Z</time>
      </trkpt>
      <trkpt lat="44.89855" lon="5.32106">
        <ele>1447.3</ele>
        <time>2020-07-23T08:12:23.000Z</time>
      </trkpt>
      <trkpt lat="44.89864" lon="5.32102">
        <ele>1447</ele>
        <time>2020-07-23T08:12:31.000Z</time>
      </trkpt>
      <trkpt lat="44.89874" lon="5.321">
        <ele>1447</ele>
        <time>2020-07-23T08:12:39.000Z</time>
      </trkpt>
      <trkpt lat="44.89879" lon="5.32088">
        <ele>1447.2</ele>
        <time>2020-07-23T08:12:48.000Z</time>
      </trkpt>
      <trkpt lat="44.89888" lon="5.32088">
        <ele>1447</ele>
        <time>2020-07-23T08:13:41.000Z</time>
      </trkpt>
      <trkpt lat="44.89892" lon="5.32076">
        <ele>1446.9</ele>
        <time>2020-07-23T08:13:49.000Z</time>
      </trkpt>
      <trkpt lat="44.89896" lon="5.32063">
        <ele>1446.9</ele>
        <time>2020-07-23T08:13:59.000Z</time>
      </trkpt>
      <trkpt lat="44.89903" lon="5.32053">
        <ele>1446.8</ele>
        <time>2020-07-23T08:14:07.000Z</time>
      </trkpt>
      <trkpt lat="44.89911" lon="5.32047">
        <ele>1447.1</ele>
        <time>2020-07-23T08:14:15.000Z</time>
      </trkpt>
      <trkpt lat="44.89921" lon="5.32045">
        <ele>1447.2</ele>
        <time>2020-07-23T08:14:25.000Z</time>
      </trkpt>
      <trkpt lat="44.89931" lon="5.32044">
        <ele>1446.9</ele>
        <time>2020-07-23T08:14:35.000Z</time>
      </trkpt>
      <trkpt lat="44.8994" lon="5.3204">
        <ele>1446.6</ele>
        <time>2020-07-23T08:14:43.000Z</time>
      </trkpt>
      <trkpt lat="44.89949" lon="5.32035">
        <ele>1446.2</ele>
        <time>2020-07-23T08:14:52.000Z</time>
      </trkpt>
      <trkpt lat="44.89958" lon="5.32036">
        <ele>1446</ele>
        <time>2020-07-23T08:15:01.000Z</time>
      </trkpt>
      <trkpt lat="44.89968" lon="5.32038">
        <ele>1445.7</ele>
        <time>2020-07-23T08:15:10.000Z</time>
      </trkpt>
      <trkpt lat="44.89977" lon="5.32039">
        <ele>1445.1</ele>
        <time>2020-07-23T08:15:18.000Z</time>
      </trkpt>
      <trkpt lat="44.89986" lon="5.32045">
        <ele>1444.9</ele>
        <time>2020-07-23T08:15:27.000Z</time>
      </trkpt>
      <trkpt lat="44.89993" lon="5.32055">
        <ele>1445.9</ele>
        <time>2020-07-23T08:15:41.000Z</time>
      </trkpt>
      <trkpt lat="44.9" lon="5.32064">
        <ele>1446.3</ele>
        <time>2020-07-23T08:15:47.000Z</time>
      </trkpt>
      <trkpt lat="44.90007" lon="5.32074">
        <ele>1447.1</ele>
        <time>2020-07-23T08:15:55.000Z</time>
      </trkpt>
      <trkpt lat="44.90015" lon="5.3208">
        <ele>1448</ele>
        <time>2020-07-23T08:16:04.000Z</time>
      </trkpt>
      <trkpt lat="44.90024" lon="5.32086">
        <ele>1449.1</ele>
        <time>2020-07-23T08:16:14.000Z</time>
      </trkpt>
      <trkpt lat="44.90031" lon="5.32095">
        <ele>1450.4</ele>
        <time>2020-07-23T08:16:22.000Z</time>
      </trkpt>
      <trkpt lat="44.90036" lon="5.32108">
        <ele>1451.7</ele>
        <time>2020-07-23T08:16:30.000Z</time>
      </trkpt>
      <trkpt lat="44.90044" lon="5.32113">
        <ele>1454.1</ele>
        <time>2020-07-23T08:16:40.000Z</time>
      </trkpt>
      <trkpt lat="44.90052" lon="5.32121">
        <ele>1459.1</ele>
        <time>2020-07-23T08:17:24.000Z</time>
      </trkpt>
      <trkpt lat="44.90062" lon="5.32125">
        <ele>1459.5</ele>
        <time>2020-07-23T08:17:34.000Z</time>
      </trkpt>
      <trkpt lat="44.90071" lon="5.32125">
        <ele>1461</ele>
        <time>2020-07-23T08:17:43.000Z</time>
      </trkpt>
      <trkpt lat="44.90079" lon="5.32118">
        <ele>1463.8</ele>
        <time>2020-07-23T08:18:18.000Z</time>
      </trkpt>
      <trkpt lat="44.90079" lon="5.32105">
        <ele>1463.9</ele>
        <time>2020-07-23T08:18:41.000Z</time>
      </trkpt>
      <trkpt lat="44.90083" lon="5.32093">
        <ele>1464.9</ele>
        <time>2020-07-23T08:18:52.000Z</time>
      </trkpt>
      <trkpt lat="44.90088" lon="5.32082">
        <ele>1467.1</ele>
        <time>2020-07-23T08:19:04.000Z</time>
      </trkpt>
      <trkpt lat="44.90095" lon="5.32073">
        <ele>1469.3</ele>
        <time>2020-07-23T08:19:15.000Z</time>
      </trkpt>
      <trkpt lat="44.90094" lon="5.3206">
        <ele>1471.3</ele>
        <time>2020-07-23T08:19:25.000Z</time>
      </trkpt>
      <trkpt lat="44.9009" lon="5.32048">
        <ele>1473.2</ele>
        <time>2020-07-23T08:19:38.000Z</time>
      </trkpt>
      <trkpt lat="44.90088" lon="5.32035">
        <ele>1474.4</ele>
        <time>2020-07-23T08:19:47.000Z</time>
      </trkpt>
      <trkpt lat="44.90086" lon="5.32021">
        <ele>1475.5</ele>
        <time>2020-07-23T08:19:57.000Z</time>
      </trkpt>
      <trkpt lat="44.90085" lon="5.32008">
        <ele>1476.4</ele>
        <time>2020-07-23T08:20:06.000Z</time>
      </trkpt>
      <trkpt lat="44.9009" lon="5.31996">
        <ele>1478.2</ele>
        <time>2020-07-23T08:20:18.000Z</time>
      </trkpt>
      <trkpt lat="44.90094" lon="5.31983">
        <ele>1480.3</ele>
        <time>2020-07-23T08:20:29.000Z</time>
      </trkpt>
      <trkpt lat="44.90092" lon="5.31969">
        <ele>1481.4</ele>
        <time>2020-07-23T08:20:38.000Z</time>
      </trkpt>
      <trkpt lat="44.9009" lon="5.31957">
        <ele>1482.3</ele>
        <time>2020-07-23T08:20:47.000Z</time>
      </trkpt>
      <trkpt lat="44.90085" lon="5.31945">
        <ele>1483.2</ele>
        <time>2020-07-23T08:20:55.000Z</time>
      </trkpt>
      <trkpt lat="44.90083" lon="5.31932">
        <ele>1484.2</ele>
        <time>2020-07-23T08:21:04.000Z</time>
      </trkpt>
      <trkpt lat="44.90084" lon="5.31918">
        <ele>1485.6</ele>
        <time>2020-07-23T08:21:14.000Z</time>
      </trkpt>
      <trkpt lat="44.90081" lon="5.31906">
        <ele>1487.7</ele>
        <time>2020-07-23T08:21:55.000Z</time>
      </trkpt>
      <trkpt lat="44.90081" lon="5.31892">
        <ele>1488.2</ele>
        <time>2020-07-23T08:22:55.000Z</time>
      </trkpt>
      <trkpt lat="44.90077" lon="5.3188">
        <ele>1488.9</ele>
        <time>2020-07-23T08:23:03.000Z</time>
      </trkpt>
      <trkpt lat="44.90075" lon="5.31867">
        <ele>1490.2</ele>
        <time>2020-07-23T08:23:17.000Z</time>
      </trkpt>
      <trkpt lat="44.90071" lon="5.31855">
        <ele>1491.1</ele>
        <time>2020-07-23T08:23:25.000Z</time>
      </trkpt>
      <trkpt lat="44.90068" lon="5.31843">
        <ele>1492.7</ele>
        <time>2020-07-23T08:23:34.000Z</time>
      </trkpt>
      <trkpt lat="44.90066" lon="5.3183">
        <ele>1494.3</ele>
        <time>2020-07-23T08:23:43.000Z</time>
      </trkpt>
      <trkpt lat="44.90062" lon="5.31817">
        <ele>1495.9</ele>
        <time>2020-07-23T08:23:52.000Z</time>
      </trkpt>
      <trkpt lat="44.90059" lon="5.31805">
        <ele>1498.5</ele>
        <time>2020-07-23T08:24:02.000Z</time>
      </trkpt>
      <trkpt lat="44.90055" lon="5.31793">
        <ele>1500.1</ele>
        <time>2020-07-23T08:24:10.000Z</time>
      </trkpt>
      <trkpt lat="44.90051" lon="5.3178">
        <ele>1502.7</ele>
        <time>2020-07-23T08:24:20.000Z</time>
      </trkpt>
      <trkpt lat="44.9005" lon="5.31768">
        <ele>1505.2</ele>
        <time>2020-07-23T08:24:30.000Z</time>
      </trkpt>
      <trkpt lat="44.90047" lon="5.31754">
        <ele>1507.4</ele>
        <time>2020-07-23T08:24:40.000Z</time>
      </trkpt>
      <trkpt lat="44.90042" lon="5.31743">
        <ele>1509.4</ele>
        <time>2020-07-23T08:24:49.000Z</time>
      </trkpt>
      <trkpt lat="44.90036" lon="5.31732">
        <ele>1511.7</ele>
        <time>2020-07-23T08:24:59.000Z</time>
      </trkpt>
      <trkpt lat="44.9003" lon="5.31721">
        <ele>1513.7</ele>
        <time>2020-07-23T08:25:09.000Z</time>
      </trkpt>
      <trkpt lat="44.90027" lon="5.31708">
        <ele>1516.7</ele>
        <time>2020-07-23T08:25:34.000Z</time>
      </trkpt>
      <trkpt lat="44.90021" lon="5.31698">
        <ele>1517.7</ele>
        <time>2020-07-23T08:25:43.000Z</time>
      </trkpt>
      <trkpt lat="44.90016" lon="5.31687">
        <ele>1519.4</ele>
        <time>2020-07-23T08:25:53.000Z</time>
      </trkpt>
      <trkpt lat="44.90015" lon="5.31673">
        <ele>1521.1</ele>
        <time>2020-07-23T08:26:03.000Z</time>
      </trkpt>
      <trkpt lat="44.90013" lon="5.3166">
        <ele>1522.8</ele>
        <time>2020-07-23T08:26:13.000Z</time>
      </trkpt>
      <trkpt lat="44.90013" lon="5.31647">
        <ele>1524.8</ele>
        <time>2020-07-23T08:26:22.000Z</time>
      </trkpt>
      <trkpt lat="44.9001" lon="5.31634">
        <ele>1526.5</ele>
        <time>2020-07-23T08:26:31.000Z</time>
      </trkpt>
      <trkpt lat="44.90012" lon="5.31622">
        <ele>1528.5</ele>
        <time>2020-07-23T08:26:40.000Z</time>
      </trkpt>
      <trkpt lat="44.90009" lon="5.31609">
        <ele>1531.1</ele>
        <time>2020-07-23T08:26:51.000Z</time>
      </trkpt>
      <trkpt lat="44.90008" lon="5.31595">
        <ele>1533.1</ele>
        <time>2020-07-23T08:27:01.000Z</time>
      </trkpt>
      <trkpt lat="44.90004" lon="5.31584">
        <ele>1535.9</ele>
        <time>2020-07-23T08:27:38.000Z</time>
      </trkpt>
      <trkpt lat="44.90002" lon="5.3157">
        <ele>1536.1</ele>
        <time>2020-07-23T08:27:48.000Z</time>
      </trkpt>
      <trkpt lat="44.9" lon="5.31557">
        <ele>1537.2</ele>
        <time>2020-07-23T08:27:58.000Z</time>
      </trkpt>
      <trkpt lat="44.89997" lon="5.31544">
        <ele>1538.7</ele>
        <time>2020-07-23T08:28:08.000Z</time>
      </trkpt>
      <trkpt lat="44.89997" lon="5.3153">
        <ele>1540.3</ele>
        <time>2020-07-23T08:28:18.000Z</time>
      </trkpt>
      <trkpt lat="44.89996" lon="5.31517">
        <ele>1541.8</ele>
        <time>2020-07-23T08:28:27.000Z</time>
      </trkpt>
      <trkpt lat="44.89995" lon="5.31504">
        <ele>1543.5</ele>
        <time>2020-07-23T08:28:36.000Z</time>
      </trkpt>
      <trkpt lat="44.89991" lon="5.31493">
        <ele>1545.4</ele>
        <time>2020-07-23T08:28:45.000Z</time>
      </trkpt>
      <trkpt lat="44.89986" lon="5.31482">
        <ele>1547.3</ele>
        <time>2020-07-23T08:28:55.000Z</time>
      </trkpt>
      <trkpt lat="44.89982" lon="5.31471">
        <ele>1548.8</ele>
        <time>2020-07-23T08:29:05.000Z</time>
      </trkpt>
      <trkpt lat="44.89979" lon="5.31457">
        <ele>1550.6</ele>
        <time>2020-07-23T08:29:15.000Z</time>
      </trkpt>
      <trkpt lat="44.8997" lon="5.31451">
        <ele>1551.9</ele>
        <time>2020-07-23T08:29:24.000Z</time>
      </trkpt>
      <trkpt lat="44.89964" lon="5.31441">
        <ele>1552.9</ele>
        <time>2020-07-23T08:29:34.000Z</time>
      </trkpt>
      <trkpt lat="44.89964" lon="5.31427">
        <ele>1554.1</ele>
        <time>2020-07-23T08:29:45.000Z</time>
      </trkpt>
      <trkpt lat="44.89971" lon="5.31417">
        <ele>1555.1</ele>
        <time>2020-07-23T08:29:54.000Z</time>
      </trkpt>
      <trkpt lat="44.89979" lon="5.31411">
        <ele>1555.7</ele>
        <time>2020-07-23T08:30:02.000Z</time>
      </trkpt>
      <trkpt lat="44.89988" lon="5.31406">
        <ele>1556.1</ele>
        <time>2020-07-23T08:30:12.000Z</time>
      </trkpt>
      <trkpt lat="44.89998" lon="5.31403">
        <ele>1557.2</ele>
        <time>2020-07-23T08:30:23.000Z</time>
      </trkpt>
      <trkpt lat="44.90004" lon="5.31393">
        <ele>1558.2</ele>
        <time>2020-07-23T08:30:32.000Z</time>
      </trkpt>
      <trkpt lat="44.90006" lon="5.31381">
        <ele>1560.1</ele>
        <time>2020-07-23T08:30:59.000Z</time>
      </trkpt>
      <trkpt lat="44.90007" lon="5.31367">
        <ele>1560.3</ele>
        <time>2020-07-23T08:31:08.000Z</time>
      </trkpt>
      <trkpt lat="44.9001" lon="5.31355">
        <ele>1560.9</ele>
        <time>2020-07-23T08:31:20.000Z</time>
      </trkpt>
      <trkpt lat="44.90015" lon="5.31343">
        <ele>1561.2</ele>
        <time>2020-07-23T08:31:32.000Z</time>
      </trkpt>
      <trkpt lat="44.90018" lon="5.31331">
        <ele>1561.5</ele>
        <time>2020-07-23T08:31:40.000Z</time>
      </trkpt>
      <trkpt lat="44.90022" lon="5.31319">
        <ele>1562.1</ele>
        <time>2020-07-23T08:31:49.000Z</time>
      </trkpt>
      <trkpt lat="44.90025" lon="5.31305">
        <ele>1562.6</ele>
        <time>2020-07-23T08:31:58.000Z</time>
      </trkpt>
      <trkpt lat="44.90027" lon="5.31292">
        <ele>1563.3</ele>
        <time>2020-07-23T08:32:08.000Z</time>
      </trkpt>
      <trkpt lat="44.90027" lon="5.31278">
        <ele>1564</ele>
        <time>2020-07-23T08:32:18.000Z</time>
      </trkpt>
      <trkpt lat="44.9003" lon="5.31265">
        <ele>1565.1</ele>
        <time>2020-07-23T08:32:45.000Z</time>
      </trkpt>
      <trkpt lat="44.90032" lon="5.31253">
        <ele>1565.1</ele>
        <time>2020-07-23T08:32:53.000Z</time>
      </trkpt>
      <trkpt lat="44.90031" lon="5.31239">
        <ele>1565.1</ele>
        <time>2020-07-23T08:33:02.000Z</time>
      </trkpt>
      <trkpt lat="44.90033" lon="5.31225">
        <ele>1565.4</ele>
        <time>2020-07-23T08:33:11.000Z</time>
      </trkpt>
      <trkpt lat="44.90032" lon="5.31212">
        <ele>1565.7</ele>
        <time>2020-07-23T08:33:19.000Z</time>
      </trkpt>
      <trkpt lat="44.90031" lon="5.31199">
        <ele>1566.1</ele>
        <time>2020-07-23T08:33:27.000Z</time>
      </trkpt>
      <trkpt lat="44.90032" lon="5.31185">
        <ele>1567.1</ele>
        <time>2020-07-23T08:33:35.000Z</time>
      </trkpt>
      <trkpt lat="44.90032" lon="5.31171">
        <ele>1568.6</ele>
        <time>2020-07-23T08:33:42.000Z</time>
      </trkpt>
      <trkpt lat="44.90031" lon="5.31156">
        <ele>1571.6</ele>
        <time>2020-07-23T08:33:52.000Z</time>
      </trkpt>
      <trkpt lat="44.90032" lon="5.31143">
        <ele>1573.6</ele>
        <time>2020-07-23T08:34:00.000Z</time>
      </trkpt>
      <trkpt lat="44.90036" lon="5.31131">
        <ele>1575.3</ele>
        <time>2020-07-23T08:34:08.000Z</time>
      </trkpt>
      <trkpt lat="44.90038" lon="5.31117">
        <ele>1576.5</ele>
        <time>2020-07-23T08:34:16.000Z</time>
      </trkpt>
      <trkpt lat="44.9004" lon="5.31105">
        <ele>1577.5</ele>
        <time>2020-07-23T08:34:24.000Z</time>
      </trkpt>
      <trkpt lat="44.90041" lon="5.31092">
        <ele>1578.4</ele>
        <time>2020-07-23T08:34:32.000Z</time>
      </trkpt>
      <trkpt lat="44.90042" lon="5.31078">
        <ele>1579.3</ele>
        <time>2020-07-23T08:34:40.000Z</time>
      </trkpt>
      <trkpt lat="44.90045" lon="5.31065">
        <ele>1580.1</ele>
        <time>2020-07-23T08:34:48.000Z</time>
      </trkpt>
      <trkpt lat="44.90051" lon="5.31055">
        <ele>1580.6</ele>
        <time>2020-07-23T08:34:57.000Z</time>
      </trkpt>
      <trkpt lat="44.90057" lon="5.31044">
        <ele>1581.6</ele>
        <time>2020-07-23T08:35:06.000Z</time>
      </trkpt>
      <trkpt lat="44.90062" lon="5.31032">
        <ele>1583</ele>
        <time>2020-07-23T08:35:15.000Z</time>
      </trkpt>
      <trkpt lat="44.90066" lon="5.31021">
        <ele>1583.9</ele>
        <time>2020-07-23T08:35:21.000Z</time>
      </trkpt>
      <trkpt lat="44.90074" lon="5.31012">
        <ele>1585.8</ele>
        <time>2020-07-23T08:35:29.000Z</time>
      </trkpt>
      <trkpt lat="44.90083" lon="5.31006">
        <ele>1587.5</ele>
        <time>2020-07-23T08:35:34.000Z</time>
      </trkpt>
      <trkpt lat="44.90092" lon="5.30998">
        <ele>1590.9</ele>
        <time>2020-07-23T08:35:42.000Z</time>
      </trkpt>
      <trkpt lat="44.90098" lon="5.30986">
        <ele>1594.2</ele>
        <time>2020-07-23T08:35:51.000Z</time>
      </trkpt>
      <trkpt lat="44.90098" lon="5.30973">
        <ele>1597.7</ele>
        <time>2020-07-23T08:36:04.000Z</time>
      </trkpt>
      <trkpt lat="44.90097" lon="5.3096">
        <ele>1600.4</ele>
        <time>2020-07-23T08:36:49.000Z</time>
      </trkpt>
      <trkpt lat="44.90094" lon="5.30948">
        <ele>1601.3</ele>
        <time>2020-07-23T08:36:59.000Z</time>
      </trkpt>
      <trkpt lat="44.90089" lon="5.30936">
        <ele>1603</ele>
        <time>2020-07-23T08:37:09.000Z</time>
      </trkpt>
      <trkpt lat="44.90089" lon="5.30922">
        <ele>1604.9</ele>
        <time>2020-07-23T08:37:20.000Z</time>
      </trkpt>
      <trkpt lat="44.90096" lon="5.30914">
        <ele>1606.1</ele>
        <time>2020-07-23T08:37:30.000Z</time>
      </trkpt>
      <trkpt lat="44.90104" lon="5.30906">
        <ele>1607.7</ele>
        <time>2020-07-23T08:37:39.000Z</time>
      </trkpt>
      <trkpt lat="44.90107" lon="5.30895">
        <ele>1609.2</ele>
        <time>2020-07-23T08:37:47.000Z</time>
      </trkpt>
      <trkpt lat="44.90109" lon="5.30882">
        <ele>1610.5</ele>
        <time>2020-07-23T08:37:54.000Z</time>
      </trkpt>
      <trkpt lat="44.90112" lon="5.30869">
        <ele>1613.2</ele>
        <time>2020-07-23T08:38:03.000Z</time>
      </trkpt>
      <trkpt lat="44.90115" lon="5.30856">
        <ele>1616.5</ele>
        <time>2020-07-23T08:38:11.000Z</time>
      </trkpt>
      <trkpt lat="44.90113" lon="5.30843">
        <ele>1620.5</ele>
        <time>2020-07-23T08:38:21.000Z</time>
      </trkpt>
      <trkpt lat="44.90111" lon="5.3083">
        <ele>1624.1</ele>
        <time>2020-07-23T08:39:35.000Z</time>
      </trkpt>
      <trkpt lat="44.90118" lon="5.3082">
        <ele>1624.9</ele>
        <time>2020-07-23T08:39:47.000Z</time>
      </trkpt>
      <trkpt lat="44.90125" lon="5.30812">
        <ele>1625.1</ele>
        <time>2020-07-23T08:39:56.000Z</time>
      </trkpt>
      <trkpt lat="44.90134" lon="5.30806">
        <ele>1625.1</ele>
        <time>2020-07-23T08:40:05.000Z</time>
      </trkpt>
      <trkpt lat="44.90142" lon="5.30798">
        <ele>1624.6</ele>
        <time>2020-07-23T08:40:16.000Z</time>
      </trkpt>
      <trkpt lat="44.90151" lon="5.30794">
        <ele>1624.3</ele>
        <time>2020-07-23T08:40:24.000Z</time>
      </trkpt>
      <trkpt lat="44.90159" lon="5.30788">
        <ele>1624</ele>
        <time>2020-07-23T08:40:33.000Z</time>
      </trkpt>
      <trkpt lat="44.90168" lon="5.30781">
        <ele>1624</ele>
        <time>2020-07-23T08:40:42.000Z</time>
      </trkpt>
      <trkpt lat="44.90177" lon="5.30776">
        <ele>1624.4</ele>
        <time>2020-07-23T08:40:52.000Z</time>
      </trkpt>
      <trkpt lat="44.90187" lon="5.30772">
        <ele>1624.6</ele>
        <time>2020-07-23T08:41:01.000Z</time>
      </trkpt>
      <trkpt lat="44.90195" lon="5.30765">
        <ele>1624.6</ele>
        <time>2020-07-23T08:41:10.000Z</time>
      </trkpt>
      <trkpt lat="44.90203" lon="5.30758">
        <ele>1624.6</ele>
        <time>2020-07-23T08:41:18.000Z</time>
      </trkpt>
      <trkpt lat="44.90211" lon="5.30752">
        <ele>1624.7</ele>
        <time>2020-07-23T08:41:27.000Z</time>
      </trkpt>
      <trkpt lat="44.90219" lon="5.30745">
        <ele>1624.6</ele>
        <time>2020-07-23T08:41:36.000Z</time>
      </trkpt>
      <trkpt lat="44.90226" lon="5.30737">
        <ele>1624.4</ele>
        <time>2020-07-23T08:41:45.000Z</time>
      </trkpt>
      <trkpt lat="44.90234" lon="5.30729">
        <ele>1624.1</ele>
        <time>2020-07-23T08:41:55.000Z</time>
      </trkpt>
      <trkpt lat="44.90241" lon="5.30719">
        <ele>1624</ele>
        <time>2020-07-23T08:42:03.000Z</time>
      </trkpt>
      <trkpt lat="44.90244" lon="5.30707">
        <ele>1623.5</ele>
        <time>2020-07-23T08:43:35.000Z</time>
      </trkpt>
      <trkpt lat="44.90249" lon="5.30696">
        <ele>1623.5</ele>
        <time>2020-07-23T08:43:44.000Z</time>
      </trkpt>
      <trkpt lat="44.90254" lon="5.30685">
        <ele>1623.2</ele>
        <time>2020-07-23T08:43:53.000Z</time>
      </trkpt>
      <trkpt lat="44.9026" lon="5.30673">
        <ele>1622.7</ele>
        <time>2020-07-23T08:44:02.000Z</time>
      </trkpt>
      <trkpt lat="44.90266" lon="5.30663">
        <ele>1622.2</ele>
        <time>2020-07-23T08:44:11.000Z</time>
      </trkpt>
      <trkpt lat="44.90269" lon="5.3065">
        <ele>1621.8</ele>
        <time>2020-07-23T08:44:20.000Z</time>
      </trkpt>
      <trkpt lat="44.90272" lon="5.30637">
        <ele>1621.5</ele>
        <time>2020-07-23T08:44:29.000Z</time>
      </trkpt>
      <trkpt lat="44.90276" lon="5.30625">
        <ele>1621.2</ele>
        <time>2020-07-23T08:44:38.000Z</time>
      </trkpt>
      <trkpt lat="44.90284" lon="5.30617">
        <ele>1620.8</ele>
        <time>2020-07-23T08:44:46.000Z</time>
      </trkpt>
      <trkpt lat="44.90293" lon="5.30611">
        <ele>1620.4</ele>
        <time>2020-07-23T08:44:55.000Z</time>
      </trkpt>
      <trkpt lat="44.90299" lon="5.30601">
        <ele>1620.3</ele>
        <time>2020-07-23T08:45:03.000Z</time>
      </trkpt>
      <trkpt lat="44.90304" lon="5.30591">
        <ele>1620.3</ele>
        <time>2020-07-23T08:45:11.000Z</time>
      </trkpt>
      <trkpt lat="44.9031" lon="5.3058">
        <ele>1620.2</ele>
        <time>2020-07-23T08:45:19.000Z</time>
      </trkpt>
      <trkpt lat="44.90313" lon="5.30567">
        <ele>1620.2</ele>
        <time>2020-07-23T08:45:27.000Z</time>
      </trkpt>
      <trkpt lat="44.90317" lon="5.30554">
        <ele>1621</ele>
        <time>2020-07-23T08:45:36.000Z</time>
      </trkpt>
      <trkpt lat="44.90322" lon="5.30541">
        <ele>1621.9</ele>
        <time>2020-07-23T08:45:45.000Z</time>
      </trkpt>
      <trkpt lat="44.90326" lon="5.30529">
        <ele>1622.6</ele>
        <time>2020-07-23T08:45:53.000Z</time>
      </trkpt>
      <trkpt lat="44.90331" lon="5.30518">
        <ele>1623.6</ele>
        <time>2020-07-23T08:46:03.000Z</time>
      </trkpt>
      <trkpt lat="44.90336" lon="5.30506">
        <ele>1624.4</ele>
        <time>2020-07-23T08:46:12.000Z</time>
      </trkpt>
      <trkpt lat="44.9034" lon="5.30494">
        <ele>1625.2</ele>
        <time>2020-07-23T08:46:20.000Z</time>
      </trkpt>
      <trkpt lat="44.90344" lon="5.30483">
        <ele>1626.2</ele>
        <time>2020-07-23T08:46:30.000Z</time>
      </trkpt>
      <trkpt lat="44.9035" lon="5.30473">
        <ele>1627.1</ele>
        <time>2020-07-23T08:46:39.000Z</time>
      </trkpt>
      <trkpt lat="44.90353" lon="5.3046">
        <ele>1628.3</ele>
        <time>2020-07-23T08:46:56.000Z</time>
      </trkpt>
      <trkpt lat="44.90358" lon="5.30449">
        <ele>1630.1</ele>
        <time>2020-07-23T08:48:14.000Z</time>
      </trkpt>
      <trkpt lat="44.9036" lon="5.30436">
        <ele>1630.3</ele>
        <time>2020-07-23T08:48:23.000Z</time>
      </trkpt>
      <trkpt lat="44.90365" lon="5.30425">
        <ele>1632</ele>
        <time>2020-07-23T08:50:15.000Z</time>
      </trkpt>
      <trkpt lat="44.90372" lon="5.30417">
        <ele>1631.9</ele>
        <time>2020-07-23T08:50:22.000Z</time>
      </trkpt>
      <trkpt lat="44.9038" lon="5.30407">
        <ele>1631.9</ele>
        <time>2020-07-23T08:50:34.000Z</time>
      </trkpt>
      <trkpt lat="44.90385" lon="5.30397">
        <ele>1631.8</ele>
        <time>2020-07-23T08:50:43.000Z</time>
      </trkpt>
      <trkpt lat="44.90392" lon="5.30388">
        <ele>1632.3</ele>
        <time>2020-07-23T08:50:53.000Z</time>
      </trkpt>
      <trkpt lat="44.90401" lon="5.30382">
        <ele>1632.9</ele>
        <time>2020-07-23T08:51:02.000Z</time>
      </trkpt>
      <trkpt lat="44.9041" lon="5.30379">
        <ele>1634</ele>
        <time>2020-07-23T08:51:13.000Z</time>
      </trkpt>
      <trkpt lat="44.90419" lon="5.3038">
        <ele>1635.3</ele>
        <time>2020-07-23T08:51:24.000Z</time>
      </trkpt>
      <trkpt lat="44.90429" lon="5.30381">
        <ele>1636.3</ele>
        <time>2020-07-23T08:51:32.000Z</time>
      </trkpt>
      <trkpt lat="44.90439" lon="5.3038">
        <ele>1637.4</ele>
        <time>2020-07-23T08:51:41.000Z</time>
      </trkpt>
      <trkpt lat="44.90448" lon="5.30379">
        <ele>1639.1</ele>
        <time>2020-07-23T08:52:02.000Z</time>
      </trkpt>
      <trkpt lat="44.90458" lon="5.30377">
        <ele>1639.7</ele>
        <time>2020-07-23T08:52:11.000Z</time>
      </trkpt>
      <trkpt lat="44.90467" lon="5.30374">
        <ele>1640.6</ele>
        <time>2020-07-23T08:52:20.000Z</time>
      </trkpt>
      <trkpt lat="44.90476" lon="5.30371">
        <ele>1641.8</ele>
        <time>2020-07-23T08:52:30.000Z</time>
      </trkpt>
      <trkpt lat="44.90485" lon="5.30368">
        <ele>1642.6</ele>
        <time>2020-07-23T08:52:44.000Z</time>
      </trkpt>
      <trkpt lat="44.90493" lon="5.30362">
        <ele>1643</ele>
        <time>2020-07-23T08:52:53.000Z</time>
      </trkpt>
      <trkpt lat="44.90502" lon="5.30356">
        <ele>1643.8</ele>
        <time>2020-07-23T08:53:02.000Z</time>
      </trkpt>
      <trkpt lat="44.90511" lon="5.30351">
        <ele>1644.7</ele>
        <time>2020-07-23T08:53:11.000Z</time>
      </trkpt>
      <trkpt lat="44.90519" lon="5.30344">
        <ele>1645.8</ele>
        <time>2020-07-23T08:53:20.000Z</time>
      </trkpt>
      <trkpt lat="44.90527" lon="5.30337">
        <ele>1646.9</ele>
        <time>2020-07-23T08:53:29.000Z</time>
      </trkpt>
      <trkpt lat="44.90536" lon="5.3033">
        <ele>1648</ele>
        <time>2020-07-23T08:53:38.000Z</time>
      </trkpt>
      <trkpt lat="44.90544" lon="5.30323">
        <ele>1649.2</ele>
        <time>2020-07-23T08:53:48.000Z</time>
      </trkpt>
      <trkpt lat="44.90552" lon="5.30318">
        <ele>1650</ele>
        <time>2020-07-23T08:53:57.000Z</time>
      </trkpt>
      <trkpt lat="44.9056" lon="5.3031">
        <ele>1650.7</ele>
        <time>2020-07-23T08:54:07.000Z</time>
      </trkpt>
      <trkpt lat="44.90567" lon="5.303">
        <ele>1651.6</ele>
        <time>2020-07-23T08:54:17.000Z</time>
      </trkpt>
      <trkpt lat="44.90573" lon="5.30289">
        <ele>1652.6</ele>
        <time>2020-07-23T08:54:27.000Z</time>
      </trkpt>
      <trkpt lat="44.90575" lon="5.30276">
        <ele>1654.3</ele>
        <time>2020-07-23T08:55:07.000Z</time>
      </trkpt>
      <trkpt lat="44.90579" lon="5.30263">
        <ele>1654.6</ele>
        <time>2020-07-23T08:55:16.000Z</time>
      </trkpt>
      <trkpt lat="44.90581" lon="5.30251">
        <ele>1655.2</ele>
        <time>2020-07-23T08:55:25.000Z</time>
      </trkpt>
      <trkpt lat="44.90583" lon="5.30238">
        <ele>1655.8</ele>
        <time>2020-07-23T08:55:33.000Z</time>
      </trkpt>
      <trkpt lat="44.90584" lon="5.30225">
        <ele>1656.5</ele>
        <time>2020-07-23T08:55:42.000Z</time>
      </trkpt>
      <trkpt lat="44.90582" lon="5.30212">
        <ele>1657.4</ele>
        <time>2020-07-23T08:55:52.000Z</time>
      </trkpt>
      <trkpt lat="44.90586" lon="5.30199">
        <ele>1658.4</ele>
        <time>2020-07-23T08:56:01.000Z</time>
      </trkpt>
      <trkpt lat="44.90589" lon="5.30187">
        <ele>1659.1</ele>
        <time>2020-07-23T08:56:10.000Z</time>
      </trkpt>
      <trkpt lat="44.9059" lon="5.30174">
        <ele>1659.5</ele>
        <time>2020-07-23T08:56:40.000Z</time>
      </trkpt>
      <trkpt lat="44.90581" lon="5.30173">
        <ele>1659.5</ele>
        <time>2020-07-23T09:00:30.000Z</time>
      </trkpt>
      <trkpt lat="44.90573" lon="5.30167">
        <ele>1659.2</ele>
        <time>2020-07-23T09:00:41.000Z</time>
      </trkpt>
      <trkpt lat="44.90567" lon="5.30156">
        <ele>1658.2</ele>
        <time>2020-07-23T09:00:53.000Z</time>
      </trkpt>
      <trkpt lat="44.9056" lon="5.30148">
        <ele>1656.9</ele>
        <time>2020-07-23T09:01:03.000Z</time>
      </trkpt>
      <trkpt lat="44.90553" lon="5.30139">
        <ele>1655.7</ele>
        <time>2020-07-23T09:01:12.000Z</time>
      </trkpt>
      <trkpt lat="44.90544" lon="5.30133">
        <ele>1654.7</ele>
        <time>2020-07-23T09:01:21.000Z</time>
      </trkpt>
      <trkpt lat="44.90535" lon="5.30129">
        <ele>1654.1</ele>
        <time>2020-07-23T09:01:31.000Z</time>
      </trkpt>
      <trkpt lat="44.90528" lon="5.3012">
        <ele>1653.2</ele>
        <time>2020-07-23T09:01:42.000Z</time>
      </trkpt>
      <trkpt lat="44.9052" lon="5.30114">
        <ele>1652.5</ele>
        <time>2020-07-23T09:01:50.000Z</time>
      </trkpt>
      <trkpt lat="44.9051" lon="5.3011">
        <ele>1651.6</ele>
        <time>2020-07-23T09:01:59.000Z</time>
      </trkpt>
      <trkpt lat="44.90501" lon="5.30105">
        <ele>1651.1</ele>
        <time>2020-07-23T09:02:09.000Z</time>
      </trkpt>
      <trkpt lat="44.90492" lon="5.30101">
        <ele>1650.5</ele>
        <time>2020-07-23T09:02:23.000Z</time>
      </trkpt>
      <trkpt lat="44.90483" lon="5.30095">
        <ele>1650</ele>
        <time>2020-07-23T09:02:35.000Z</time>
      </trkpt>
      <trkpt lat="44.90475" lon="5.30088">
        <ele>1648.8</ele>
        <time>2020-07-23T09:03:05.000Z</time>
      </trkpt>
      <trkpt lat="44.90466" lon="5.30082">
        <ele>1648</ele>
        <time>2020-07-23T09:03:18.000Z</time>
      </trkpt>
      <trkpt lat="44.90457" lon="5.30079">
        <ele>1647</ele>
        <time>2020-07-23T09:03:27.000Z</time>
      </trkpt>
      <trkpt lat="44.90448" lon="5.30075">
        <ele>1646</ele>
        <time>2020-07-23T09:03:38.000Z</time>
      </trkpt>
      <trkpt lat="44.90439" lon="5.30073">
        <ele>1645.3</ele>
        <time>2020-07-23T09:03:47.000Z</time>
      </trkpt>
      <trkpt lat="44.9043" lon="5.30068">
        <ele>1644.3</ele>
        <time>2020-07-23T09:04:00.000Z</time>
      </trkpt>
      <trkpt lat="44.90421" lon="5.30063">
        <ele>1643.4</ele>
        <time>2020-07-23T09:04:11.000Z</time>
      </trkpt>
      <trkpt lat="44.90412" lon="5.30061">
        <ele>1642.6</ele>
        <time>2020-07-23T09:04:20.000Z</time>
      </trkpt>
      <trkpt lat="44.90403" lon="5.30059">
        <ele>1642</ele>
        <time>2020-07-23T09:04:30.000Z</time>
      </trkpt>
      <trkpt lat="44.90394" lon="5.30057">
        <ele>1641.4</ele>
        <time>2020-07-23T09:04:39.000Z</time>
      </trkpt>
      <trkpt lat="44.90384" lon="5.30055">
        <ele>1640.5</ele>
        <time>2020-07-23T09:04:50.000Z</time>
      </trkpt>
      <trkpt lat="44.90375" lon="5.30053">
        <ele>1640</ele>
        <time>2020-07-23T09:04:59.000Z</time>
      </trkpt>
      <trkpt lat="44.90365" lon="5.30051">
        <ele>1639.1</ele>
        <time>2020-07-23T09:05:10.000Z</time>
      </trkpt>
      <trkpt lat="44.90356" lon="5.30051">
        <ele>1637.7</ele>
        <time>2020-07-23T09:05:25.000Z</time>
      </trkpt>
      <trkpt lat="44.90347" lon="5.3005">
        <ele>1637.1</ele>
        <time>2020-07-23T09:05:35.000Z</time>
      </trkpt>
      <trkpt lat="44.90339" lon="5.30045">
        <ele>1636.1</ele>
        <time>2020-07-23T09:05:48.000Z</time>
      </trkpt>
      <trkpt lat="44.90332" lon="5.30035">
        <ele>1634.5</ele>
        <time>2020-07-23T09:06:00.000Z</time>
      </trkpt>
      <trkpt lat="44.90323" lon="5.30033">
        <ele>1633.1</ele>
        <time>2020-07-23T09:06:44.000Z</time>
      </trkpt>
      <trkpt lat="44.90317" lon="5.30022">
        <ele>1630.7</ele>
        <time>2020-07-23T09:07:18.000Z</time>
      </trkpt>
      <trkpt lat="44.9031" lon="5.30013">
        <ele>1628.7</ele>
        <time>2020-07-23T09:07:33.000Z</time>
      </trkpt>
      <trkpt lat="44.90303" lon="5.30004">
        <ele>1627.4</ele>
        <time>2020-07-23T09:07:42.000Z</time>
      </trkpt>
      <trkpt lat="44.90294" lon="5.30001">
        <ele>1625.6</ele>
        <time>2020-07-23T09:08:02.000Z</time>
      </trkpt>
      <trkpt lat="44.90287" lon="5.29992">
        <ele>1623.7</ele>
        <time>2020-07-23T09:08:41.000Z</time>
      </trkpt>
      <trkpt lat="44.90282" lon="5.29981">
        <ele>1622.4</ele>
        <time>2020-07-23T09:08:55.000Z</time>
      </trkpt>
      <trkpt lat="44.90275" lon="5.2997">
        <ele>1620.8</ele>
        <time>2020-07-23T09:09:06.000Z</time>
      </trkpt>
      <trkpt lat="44.90269" lon="5.29961">
        <ele>1619.4</ele>
        <time>2020-07-23T09:09:15.000Z</time>
      </trkpt>
      <trkpt lat="44.90263" lon="5.2995">
        <ele>1617.9</ele>
        <time>2020-07-23T09:09:26.000Z</time>
      </trkpt>
      <trkpt lat="44.90255" lon="5.29941">
        <ele>1616.3</ele>
        <time>2020-07-23T09:10:17.000Z</time>
      </trkpt>
      <trkpt lat="44.90248" lon="5.29933">
        <ele>1616.2</ele>
        <time>2020-07-23T09:10:26.000Z</time>
      </trkpt>
      <trkpt lat="44.90241" lon="5.29923">
        <ele>1616.2</ele>
        <time>2020-07-23T09:10:35.000Z</time>
      </trkpt>
      <trkpt lat="44.90235" lon="5.29913">
        <ele>1616.3</ele>
        <time>2020-07-23T09:10:51.000Z</time>
      </trkpt>
      <trkpt lat="44.90226" lon="5.29916">
        <ele>1617.2</ele>
        <time>2020-07-23T09:12:33.000Z</time>
      </trkpt>
      <trkpt lat="44.90217" lon="5.2991">
        <ele>1617.7</ele>
        <time>2020-07-23T09:12:44.000Z</time>
      </trkpt>
      <trkpt lat="44.9021" lon="5.29901">
        <ele>1617.9</ele>
        <time>2020-07-23T09:12:59.000Z</time>
      </trkpt>
      <trkpt lat="44.90204" lon="5.2989">
        <ele>1616.8</ele>
        <time>2020-07-23T09:13:17.000Z</time>
      </trkpt>
      <trkpt lat="44.90199" lon="5.29879">
        <ele>1615.2</ele>
        <time>2020-07-23T09:13:34.000Z</time>
      </trkpt>
      <trkpt lat="44.90194" lon="5.29868">
        <ele>1613.4</ele>
        <time>2020-07-23T09:13:50.000Z</time>
      </trkpt>
      <trkpt lat="44.90188" lon="5.29857">
        <ele>1611.5</ele>
        <time>2020-07-23T09:14:03.000Z</time>
      </trkpt>
      <trkpt lat="44.90184" lon="5.29846">
        <ele>1609.8</ele>
        <time>2020-07-23T09:14:14.000Z</time>
      </trkpt>
      <trkpt lat="44.90177" lon="5.29835">
        <ele>1608.6</ele>
        <time>2020-07-23T09:14:22.000Z</time>
      </trkpt>
      <trkpt lat="44.90171" lon="5.29825">
        <ele>1607.7</ele>
        <time>2020-07-23T09:14:31.000Z</time>
      </trkpt>
      <trkpt lat="44.90164" lon="5.29816">
        <ele>1606.8</ele>
        <time>2020-07-23T09:14:40.000Z</time>
      </trkpt>
      <trkpt lat="44.90157" lon="5.29808">
        <ele>1606.2</ele>
        <time>2020-07-23T09:14:49.000Z</time>
      </trkpt>
      <trkpt lat="44.9015" lon="5.29798">
        <ele>1605</ele>
        <time>2020-07-23T09:15:00.000Z</time>
      </trkpt>
      <trkpt lat="44.90142" lon="5.29792">
        <ele>1604.3</ele>
        <time>2020-07-23T09:15:08.000Z</time>
      </trkpt>
      <trkpt lat="44.90135" lon="5.29783">
        <ele>1603.4</ele>
        <time>2020-07-23T09:15:18.000Z</time>
      </trkpt>
      <trkpt lat="44.90129" lon="5.29774">
        <ele>1602.6</ele>
        <time>2020-07-23T09:15:27.000Z</time>
      </trkpt>
      <trkpt lat="44.90122" lon="5.29763">
        <ele>1601.6</ele>
        <time>2020-07-23T09:15:36.000Z</time>
      </trkpt>
      <trkpt lat="44.90116" lon="5.29754">
        <ele>1600.6</ele>
        <time>2020-07-23T09:15:45.000Z</time>
      </trkpt>
      <trkpt lat="44.90112" lon="5.29742">
        <ele>1598.9</ele>
        <time>2020-07-23T09:15:56.000Z</time>
      </trkpt>
      <trkpt lat="44.90106" lon="5.29731">
        <ele>1597.4</ele>
        <time>2020-07-23T09:16:05.000Z</time>
      </trkpt>
      <trkpt lat="44.90101" lon="5.29721">
        <ele>1595.4</ele>
        <time>2020-07-23T09:16:19.000Z</time>
      </trkpt>
      <trkpt lat="44.90093" lon="5.29713">
        <ele>1594.7</ele>
        <time>2020-07-23T09:16:27.000Z</time>
      </trkpt>
      <trkpt lat="44.90085" lon="5.29707">
        <ele>1594</ele>
        <time>2020-07-23T09:16:35.000Z</time>
      </trkpt>
      <trkpt lat="44.90078" lon="5.29698">
        <ele>1592.9</ele>
        <time>2020-07-23T09:16:45.000Z</time>
      </trkpt>
      <trkpt lat="44.90071" lon="5.2969">
        <ele>1591.4</ele>
        <time>2020-07-23T09:17:12.000Z</time>
      </trkpt>
      <trkpt lat="44.90064" lon="5.29681">
        <ele>1590.4</ele>
        <time>2020-07-23T09:17:23.000Z</time>
      </trkpt>
      <trkpt lat="44.9006" lon="5.29669">
        <ele>1588.1</ele>
        <time>2020-07-23T09:17:51.000Z</time>
      </trkpt>
      <trkpt lat="44.90053" lon="5.29659">
        <ele>1587</ele>
        <time>2020-07-23T09:18:07.000Z</time>
      </trkpt>
      <trkpt lat="44.90046" lon="5.2965">
        <ele>1586.3</ele>
        <time>2020-07-23T09:18:16.000Z</time>
      </trkpt>
      <trkpt lat="44.90038" lon="5.29642">
        <ele>1585.3</ele>
        <time>2020-07-23T09:18:25.000Z</time>
      </trkpt>
      <trkpt lat="44.9003" lon="5.29634">
        <ele>1584.4</ele>
        <time>2020-07-23T09:18:33.000Z</time>
      </trkpt>
      <trkpt lat="44.90022" lon="5.29625">
        <ele>1583.7</ele>
        <time>2020-07-23T09:18:42.000Z</time>
      </trkpt>
      <trkpt lat="44.90016" lon="5.29616">
        <ele>1582.5</ele>
        <time>2020-07-23T09:18:50.000Z</time>
      </trkpt>
      <trkpt lat="44.90009" lon="5.29606">
        <ele>1581.1</ele>
        <time>2020-07-23T09:18:59.000Z</time>
      </trkpt>
      <trkpt lat="44.9" lon="5.296">
        <ele>1579.9</ele>
        <time>2020-07-23T09:19:07.000Z</time>
      </trkpt>
      <trkpt lat="44.89993" lon="5.29592">
        <ele>1578.9</ele>
        <time>2020-07-23T09:19:16.000Z</time>
      </trkpt>
      <trkpt lat="44.89985" lon="5.29583">
        <ele>1577.9</ele>
        <time>2020-07-23T09:19:26.000Z</time>
      </trkpt>
      <trkpt lat="44.89978" lon="5.29575">
        <ele>1576.8</ele>
        <time>2020-07-23T09:19:35.000Z</time>
      </trkpt>
      <trkpt lat="44.8997" lon="5.29567">
        <ele>1575.7</ele>
        <time>2020-07-23T09:19:48.000Z</time>
      </trkpt>
      <trkpt lat="44.89962" lon="5.2956">
        <ele>1574.6</ele>
        <time>2020-07-23T09:19:58.000Z</time>
      </trkpt>
      <trkpt lat="44.89955" lon="5.29552">
        <ele>1573.8</ele>
        <time>2020-07-23T09:20:08.000Z</time>
      </trkpt>
      <trkpt lat="44.89946" lon="5.29546">
        <ele>1572.7</ele>
        <time>2020-07-23T09:20:18.000Z</time>
      </trkpt>
      <trkpt lat="44.89938" lon="5.29539">
        <ele>1571.6</ele>
        <time>2020-07-23T09:20:28.000Z</time>
      </trkpt>
      <trkpt lat="44.89939" lon="5.29526">
        <ele>1568.5</ele>
        <time>2020-07-23T09:24:03.000Z</time>
      </trkpt>
      <trkpt lat="44.89948" lon="5.2953">
        <ele>1567.3</ele>
        <time>2020-07-23T09:24:18.000Z</time>
      </trkpt>
      <trkpt lat="44.89945" lon="5.29519">
        <ele>1565</ele>
        <time>2020-07-23T09:24:56.000Z</time>
      </trkpt>
      <trkpt lat="44.89937" lon="5.2951">
        <ele>1563.6</ele>
        <time>2020-07-23T09:25:07.000Z</time>
      </trkpt>
      <trkpt lat="44.89929" lon="5.29502">
        <ele>1562</ele>
        <time>2020-07-23T09:25:18.000Z</time>
      </trkpt>
      <trkpt lat="44.89921" lon="5.29495">
        <ele>1560.4</ele>
        <time>2020-07-23T09:25:28.000Z</time>
      </trkpt>
      <trkpt lat="44.89912" lon="5.2949">
        <ele>1558.6</ele>
        <time>2020-07-23T09:25:39.000Z</time>
      </trkpt>
      <trkpt lat="44.89905" lon="5.29481">
        <ele>1556.2</ele>
        <time>2020-07-23T09:25:52.000Z</time>
      </trkpt>
      <trkpt lat="44.89898" lon="5.29473">
        <ele>1553.8</ele>
        <time>2020-07-23T09:26:06.000Z</time>
      </trkpt>
      <trkpt lat="44.8989" lon="5.29464">
        <ele>1551.5</ele>
        <time>2020-07-23T09:26:20.000Z</time>
      </trkpt>
      <trkpt lat="44.89883" lon="5.29456">
        <ele>1549.1</ele>
        <time>2020-07-23T09:26:34.000Z</time>
      </trkpt>
      <trkpt lat="44.89875" lon="5.29448">
        <ele>1547.2</ele>
        <time>2020-07-23T09:26:44.000Z</time>
      </trkpt>
      <trkpt lat="44.89866" lon="5.29441">
        <ele>1545.4</ele>
        <time>2020-07-23T09:26:53.000Z</time>
      </trkpt>
      <trkpt lat="44.89858" lon="5.29434">
        <ele>1543.9</ele>
        <time>2020-07-23T09:27:02.000Z</time>
      </trkpt>
      <trkpt lat="44.89848" lon="5.2943">
        <ele>1542.3</ele>
        <time>2020-07-23T09:27:12.000Z</time>
      </trkpt>
      <trkpt lat="44.89839" lon="5.29427">
        <ele>1541.1</ele>
        <time>2020-07-23T09:27:21.000Z</time>
      </trkpt>
      <trkpt lat="44.89832" lon="5.29419">
        <ele>1539.2</ele>
        <time>2020-07-23T09:27:33.000Z</time>
      </trkpt>
      <trkpt lat="44.89824" lon="5.29413">
        <ele>1537.5</ele>
        <time>2020-07-23T09:27:43.000Z</time>
      </trkpt>
      <trkpt lat="44.89816" lon="5.29409">
        <ele>1535.8</ele>
        <time>2020-07-23T09:27:51.000Z</time>
      </trkpt>
      <trkpt lat="44.89806" lon="5.29406">
        <ele>1534.4</ele>
        <time>2020-07-23T09:28:00.000Z</time>
      </trkpt>
      <trkpt lat="44.89796" lon="5.29404">
        <ele>1533.1</ele>
        <time>2020-07-23T09:28:09.000Z</time>
      </trkpt>
      <trkpt lat="44.89788" lon="5.29399">
        <ele>1532.1</ele>
        <time>2020-07-23T09:28:19.000Z</time>
      </trkpt>
      <trkpt lat="44.89779" lon="5.29396">
        <ele>1531.1</ele>
        <time>2020-07-23T09:28:27.000Z</time>
      </trkpt>
      <trkpt lat="44.89769" lon="5.29395">
        <ele>1530.3</ele>
        <time>2020-07-23T09:28:36.000Z</time>
      </trkpt>
      <trkpt lat="44.8976" lon="5.29395">
        <ele>1529.3</ele>
        <time>2020-07-23T09:29:18.000Z</time>
      </trkpt>
      <trkpt lat="44.89751" lon="5.29397">
        <ele>1529.7</ele>
        <time>2020-07-23T09:31:30.000Z</time>
      </trkpt>
      <trkpt lat="44.89742" lon="5.29397">
        <ele>1528.2</ele>
        <time>2020-07-23T09:32:51.000Z</time>
      </trkpt>
      <trkpt lat="44.89733" lon="5.29396">
        <ele>1527.8</ele>
        <time>2020-07-23T09:33:11.000Z</time>
      </trkpt>
      <trkpt lat="44.89723" lon="5.29395">
        <ele>1527.4</ele>
        <time>2020-07-23T09:33:24.000Z</time>
      </trkpt>
      <trkpt lat="44.89714" lon="5.29393">
        <ele>1526.1</ele>
        <time>2020-07-23T09:33:34.000Z</time>
      </trkpt>
      <trkpt lat="44.89704" lon="5.29393">
        <ele>1523.4</ele>
        <time>2020-07-23T09:34:27.000Z</time>
      </trkpt>
      <trkpt lat="44.89696" lon="5.29399">
        <ele>1523.8</ele>
        <time>2020-07-23T09:36:13.000Z</time>
      </trkpt>
      <trkpt lat="44.89691" lon="5.29388">
        <ele>1521.4</ele>
        <time>2020-07-23T09:36:52.000Z</time>
      </trkpt>
      <trkpt lat="44.89682" lon="5.29388">
        <ele>1519.2</ele>
        <time>2020-07-23T09:37:13.000Z</time>
      </trkpt>
      <trkpt lat="44.89674" lon="5.2938">
        <ele>1516.7</ele>
        <time>2020-07-23T09:37:32.000Z</time>
      </trkpt>
      <trkpt lat="44.89666" lon="5.29375">
        <ele>1514.4</ele>
        <time>2020-07-23T09:37:45.000Z</time>
      </trkpt>
      <trkpt lat="44.89657" lon="5.2937">
        <ele>1512.5</ele>
        <time>2020-07-23T09:37:54.000Z</time>
      </trkpt>
      <trkpt lat="44.89647" lon="5.29366">
        <ele>1510.7</ele>
        <time>2020-07-23T09:38:02.000Z</time>
      </trkpt>
      <trkpt lat="44.89639" lon="5.29363">
        <ele>1507.3</ele>
        <time>2020-07-23T09:41:44.000Z</time>
      </trkpt>
      <trkpt lat="44.8963" lon="5.29359">
        <ele>1506.4</ele>
        <time>2020-07-23T09:41:55.000Z</time>
      </trkpt>
      <trkpt lat="44.8962" lon="5.29354">
        <ele>1504.7</ele>
        <time>2020-07-23T09:42:06.000Z</time>
      </trkpt>
      <trkpt lat="44.89611" lon="5.29352">
        <ele>1503.1</ele>
        <time>2020-07-23T09:42:15.000Z</time>
      </trkpt>
      <trkpt lat="44.89601" lon="5.29355">
        <ele>1502.1</ele>
        <time>2020-07-23T09:42:24.000Z</time>
      </trkpt>
      <trkpt lat="44.89592" lon="5.29357">
        <ele>1501.4</ele>
        <time>2020-07-23T09:42:32.000Z</time>
      </trkpt>
      <trkpt lat="44.89583" lon="5.29356">
        <ele>1500.8</ele>
        <time>2020-07-23T09:42:42.000Z</time>
      </trkpt>
      <trkpt lat="44.89573" lon="5.29358">
        <ele>1499.9</ele>
        <time>2020-07-23T09:42:54.000Z</time>
      </trkpt>
      <trkpt lat="44.89564" lon="5.29359">
        <ele>1499</ele>
        <time>2020-07-23T09:43:03.000Z</time>
      </trkpt>
      <trkpt lat="44.89555" lon="5.29362">
        <ele>1498.2</ele>
        <time>2020-07-23T09:43:14.000Z</time>
      </trkpt>
      <trkpt lat="44.89546" lon="5.2936">
        <ele>1496.6</ele>
        <time>2020-07-23T09:43:27.000Z</time>
      </trkpt>
      <trkpt lat="44.89536" lon="5.29358">
        <ele>1495.2</ele>
        <time>2020-07-23T09:43:37.000Z</time>
      </trkpt>
      <trkpt lat="44.89527" lon="5.29359">
        <ele>1493.9</ele>
        <time>2020-07-23T09:43:48.000Z</time>
      </trkpt>
      <trkpt lat="44.8952" lon="5.2935">
        <ele>1491.2</ele>
        <time>2020-07-23T09:44:21.000Z</time>
      </trkpt>
      <trkpt lat="44.89511" lon="5.29349">
        <ele>1489.2</ele>
        <time>2020-07-23T09:44:39.000Z</time>
      </trkpt>
      <trkpt lat="44.89501" lon="5.29344">
        <ele>1487.4</ele>
        <time>2020-07-23T09:44:58.000Z</time>
      </trkpt>
      <trkpt lat="44.89492" lon="5.29347">
        <ele>1486.4</ele>
        <time>2020-07-23T09:45:07.000Z</time>
      </trkpt>
      <trkpt lat="44.89483" lon="5.29347">
        <ele>1485.2</ele>
        <time>2020-07-23T09:45:18.000Z</time>
      </trkpt>
      <trkpt lat="44.89474" lon="5.29343">
        <ele>1482.8</ele>
        <time>2020-07-23T09:45:36.000Z</time>
      </trkpt>
      <trkpt lat="44.89465" lon="5.29341">
        <ele>1481.4</ele>
        <time>2020-07-23T09:45:49.000Z</time>
      </trkpt>
      <trkpt lat="44.89458" lon="5.29331">
        <ele>1478.8</ele>
        <time>2020-07-23T09:46:04.000Z</time>
      </trkpt>
      <trkpt lat="44.89452" lon="5.29322">
        <ele>1476.6</ele>
        <time>2020-07-23T09:46:15.000Z</time>
      </trkpt>
      <trkpt lat="44.89443" lon="5.29315">
        <ele>1473.8</ele>
        <time>2020-07-23T09:46:25.000Z</time>
      </trkpt>
      <trkpt lat="44.89436" lon="5.29308">
        <ele>1471.5</ele>
        <time>2020-07-23T09:46:34.000Z</time>
      </trkpt>
      <trkpt lat="44.89429" lon="5.29299">
        <ele>1467.4</ele>
        <time>2020-07-23T09:48:45.000Z</time>
      </trkpt>
      <trkpt lat="44.89426" lon="5.29287">
        <ele>1466.7</ele>
        <time>2020-07-23T09:48:56.000Z</time>
      </trkpt>
      <trkpt lat="44.89424" lon="5.29274">
        <ele>1465.7</ele>
        <time>2020-07-23T09:49:06.000Z</time>
      </trkpt>
      <trkpt lat="44.89424" lon="5.2926">
        <ele>1464.4</ele>
        <time>2020-07-23T09:49:16.000Z</time>
      </trkpt>
      <trkpt lat="44.89422" lon="5.29248">
        <ele>1463.1</ele>
        <time>2020-07-23T09:49:27.000Z</time>
      </trkpt>
      <trkpt lat="44.89418" lon="5.29234">
        <ele>1461.7</ele>
        <time>2020-07-23T09:49:40.000Z</time>
      </trkpt>
      <trkpt lat="44.89413" lon="5.29223">
        <ele>1460.7</ele>
        <time>2020-07-23T09:49:51.000Z</time>
      </trkpt>
      <trkpt lat="44.89406" lon="5.29215">
        <ele>1460.7</ele>
        <time>2020-07-23T09:50:11.000Z</time>
      </trkpt>
      <trkpt lat="44.89397" lon="5.29208">
        <ele>1461</ele>
        <time>2020-07-23T09:54:57.000Z</time>
      </trkpt>
      <trkpt lat="44.89388" lon="5.29209">
        <ele>1461.7</ele>
        <time>2020-07-23T09:55:10.000Z</time>
      </trkpt>
      <trkpt lat="44.89378" lon="5.29205">
        <ele>1462.7</ele>
        <time>2020-07-23T09:55:20.000Z</time>
      </trkpt>
      <trkpt lat="44.8937" lon="5.29198">
        <ele>1463.7</ele>
        <time>2020-07-23T09:55:29.000Z</time>
      </trkpt>
      <trkpt lat="44.89363" lon="5.29188">
        <ele>1464.5</ele>
        <time>2020-07-23T09:55:38.000Z</time>
      </trkpt>
      <trkpt lat="44.89355" lon="5.2918">
        <ele>1464.9</ele>
        <time>2020-07-23T09:55:46.000Z</time>
      </trkpt>
      <trkpt lat="44.89348" lon="5.29172">
        <ele>1465</ele>
        <time>2020-07-23T09:55:53.000Z</time>
      </trkpt>
      <trkpt lat="44.89339" lon="5.29166">
        <ele>1465.4</ele>
        <time>2020-07-23T09:56:01.000Z</time>
      </trkpt>
      <trkpt lat="44.89331" lon="5.29159">
        <ele>1465.7</ele>
        <time>2020-07-23T09:56:09.000Z</time>
      </trkpt>
      <trkpt lat="44.89322" lon="5.29151">
        <ele>1466.3</ele>
        <time>2020-07-23T09:56:17.000Z</time>
      </trkpt>
      <trkpt lat="44.89313" lon="5.29145">
        <ele>1467</ele>
        <time>2020-07-23T09:56:25.000Z</time>
      </trkpt>
      <trkpt lat="44.89305" lon="5.29138">
        <ele>1467.4</ele>
        <time>2020-07-23T09:56:33.000Z</time>
      </trkpt>
      <trkpt lat="44.89297" lon="5.2913">
        <ele>1467.9</ele>
        <time>2020-07-23T09:56:41.000Z</time>
      </trkpt>
      <trkpt lat="44.89289" lon="5.29122">
        <ele>1468.4</ele>
        <time>2020-07-23T09:56:49.000Z</time>
      </trkpt>
      <trkpt lat="44.89281" lon="5.29115">
        <ele>1468.9</ele>
        <time>2020-07-23T09:56:57.000Z</time>
      </trkpt>
      <trkpt lat="44.89272" lon="5.29108">
        <ele>1469.4</ele>
        <time>2020-07-23T09:57:06.000Z</time>
      </trkpt>
      <trkpt lat="44.89265" lon="5.291">
        <ele>1469.7</ele>
        <time>2020-07-23T09:57:14.000Z</time>
      </trkpt>
      <trkpt lat="44.89258" lon="5.2909">
        <ele>1470.2</ele>
        <time>2020-07-23T09:57:21.000Z</time>
      </trkpt>
      <trkpt lat="44.89252" lon="5.29081">
        <ele>1470.7</ele>
        <time>2020-07-23T09:57:28.000Z</time>
      </trkpt>
      <trkpt lat="44.89245" lon="5.29071">
        <ele>1470.9</ele>
        <time>2020-07-23T09:57:36.000Z</time>
      </trkpt>
      <trkpt lat="44.89238" lon="5.29061">
        <ele>1470.9</ele>
        <time>2020-07-23T09:57:44.000Z</time>
      </trkpt>
      <trkpt lat="44.89232" lon="5.29051">
        <ele>1470.7</ele>
        <time>2020-07-23T09:57:52.000Z</time>
      </trkpt>
      <trkpt lat="44.89226" lon="5.2904">
        <ele>1470.4</ele>
        <time>2020-07-23T09:58:00.000Z</time>
      </trkpt>
      <trkpt lat="44.89218" lon="5.29031">
        <ele>1469.9</ele>
        <time>2020-07-23T09:58:08.000Z</time>
      </trkpt>
      <trkpt lat="44.8921" lon="5.29025">
        <ele>1469.5</ele>
        <time>2020-07-23T09:58:15.000Z</time>
      </trkpt>
      <trkpt lat="44.89201" lon="5.2902">
        <ele>1469.3</ele>
        <time>2020-07-23T09:58:22.000Z</time>
      </trkpt>
      <trkpt lat="44.89192" lon="5.29017">
        <ele>1469.1</ele>
        <time>2020-07-23T09:58:29.000Z</time>
      </trkpt>
      <trkpt lat="44.89183" lon="5.29013">
        <ele>1468.9</ele>
        <time>2020-07-23T09:58:37.000Z</time>
      </trkpt>
      <trkpt lat="44.89173" lon="5.29011">
        <ele>1468.6</ele>
        <time>2020-07-23T09:58:45.000Z</time>
      </trkpt>
      <trkpt lat="44.89163" lon="5.2901">
        <ele>1468.5</ele>
        <time>2020-07-23T09:58:53.000Z</time>
      </trkpt>
      <trkpt lat="44.89153" lon="5.29007">
        <ele>1468.5</ele>
        <time>2020-07-23T09:59:01.000Z</time>
      </trkpt>
      <trkpt lat="44.89145" lon="5.29003">
        <ele>1468.6</ele>
        <time>2020-07-23T09:59:10.000Z</time>
      </trkpt>
      <trkpt lat="44.89135" lon="5.29003">
        <ele>1468.3</ele>
        <time>2020-07-23T09:59:18.000Z</time>
      </trkpt>
      <trkpt lat="44.89125" lon="5.29">
        <ele>1467.6</ele>
        <time>2020-07-23T09:59:27.000Z</time>
      </trkpt>
      <trkpt lat="44.89116" lon="5.28995">
        <ele>1466.6</ele>
        <time>2020-07-23T09:59:35.000Z</time>
      </trkpt>
      <trkpt lat="44.89106" lon="5.28991">
        <ele>1465.4</ele>
        <time>2020-07-23T09:59:43.000Z</time>
      </trkpt>
      <trkpt lat="44.89097" lon="5.28987">
        <ele>1464.3</ele>
        <time>2020-07-23T09:59:51.000Z</time>
      </trkpt>
      <trkpt lat="44.89087" lon="5.28983">
        <ele>1463.3</ele>
        <time>2020-07-23T09:59:58.000Z</time>
      </trkpt>
      <trkpt lat="44.89079" lon="5.28977">
        <ele>1462.2</ele>
        <time>2020-07-23T10:00:06.000Z</time>
      </trkpt>
      <trkpt lat="44.8907" lon="5.28969">
        <ele>1461.3</ele>
        <time>2020-07-23T10:00:14.000Z</time>
      </trkpt>
      <trkpt lat="44.89062" lon="5.28961">
        <ele>1460.3</ele>
        <time>2020-07-23T10:00:22.000Z</time>
      </trkpt>
      <trkpt lat="44.89054" lon="5.28952">
        <ele>1459.2</ele>
        <time>2020-07-23T10:00:30.000Z</time>
      </trkpt>
      <trkpt lat="44.89047" lon="5.28943">
        <ele>1458.6</ele>
        <time>2020-07-23T10:00:38.000Z</time>
      </trkpt>
      <trkpt lat="44.89039" lon="5.28935">
        <ele>1458.4</ele>
        <time>2020-07-23T10:00:46.000Z</time>
      </trkpt>
      <trkpt lat="44.89032" lon="5.28926">
        <ele>1458.2</ele>
        <time>2020-07-23T10:00:53.000Z</time>
      </trkpt>
      <trkpt lat="44.89026" lon="5.28916">
        <ele>1458</ele>
        <time>2020-07-23T10:01:00.000Z</time>
      </trkpt>
      <trkpt lat="44.89021" lon="5.28906">
        <ele>1458.1</ele>
        <time>2020-07-23T10:01:07.000Z</time>
      </trkpt>
      <trkpt lat="44.89017" lon="5.28894">
        <ele>1458.7</ele>
        <time>2020-07-23T10:01:15.000Z</time>
      </trkpt>
      <trkpt lat="44.89014" lon="5.28881">
        <ele>1459.1</ele>
        <time>2020-07-23T10:01:23.000Z</time>
      </trkpt>
      <trkpt lat="44.89008" lon="5.2887">
        <ele>1459.7</ele>
        <time>2020-07-23T10:01:55.000Z</time>
      </trkpt>
      <trkpt lat="44.89003" lon="5.28858">
        <ele>1460.3</ele>
        <time>2020-07-23T10:02:04.000Z</time>
      </trkpt>
      <trkpt lat="44.88998" lon="5.28846">
        <ele>1460.9</ele>
        <time>2020-07-23T10:02:13.000Z</time>
      </trkpt>
      <trkpt lat="44.88994" lon="5.28834">
        <ele>1461.3</ele>
        <time>2020-07-23T10:02:21.000Z</time>
      </trkpt>
      <trkpt lat="44.88991" lon="5.28821">
        <ele>1461.8</ele>
        <time>2020-07-23T10:02:31.000Z</time>
      </trkpt>
      <trkpt lat="44.88989" lon="5.28808">
        <ele>1461.8</ele>
        <time>2020-07-23T10:02:38.000Z</time>
      </trkpt>
      <trkpt lat="44.88986" lon="5.28797">
        <ele>1461.5</ele>
        <time>2020-07-23T10:02:47.000Z</time>
      </trkpt>
      <trkpt lat="44.88981" lon="5.28786">
        <ele>1461</ele>
        <time>2020-07-23T10:02:55.000Z</time>
      </trkpt>
      <trkpt lat="44.88976" lon="5.28776">
        <ele>1460.7</ele>
        <time>2020-07-23T10:03:03.000Z</time>
      </trkpt>
      <trkpt lat="44.88969" lon="5.28766">
        <ele>1460.7</ele>
        <time>2020-07-23T10:03:11.000Z</time>
      </trkpt>
      <trkpt lat="44.88964" lon="5.28755">
        <ele>1460.8</ele>
        <time>2020-07-23T10:03:19.000Z</time>
      </trkpt>
      <trkpt lat="44.88957" lon="5.28746">
        <ele>1460.7</ele>
        <time>2020-07-23T10:03:28.000Z</time>
      </trkpt>
      <trkpt lat="44.88949" lon="5.28737">
        <ele>1461.1</ele>
        <time>2020-07-23T10:03:37.000Z</time>
      </trkpt>
      <trkpt lat="44.88942" lon="5.28729">
        <ele>1461.4</ele>
        <time>2020-07-23T10:03:45.000Z</time>
      </trkpt>
      <trkpt lat="44.88936" lon="5.28719">
        <ele>1461.6</ele>
        <time>2020-07-23T10:03:53.000Z</time>
      </trkpt>
      <trkpt lat="44.88929" lon="5.28709">
        <ele>1461.7</ele>
        <time>2020-07-23T10:04:01.000Z</time>
      </trkpt>
      <trkpt lat="44.88923" lon="5.287">
        <ele>1461.7</ele>
        <time>2020-07-23T10:04:09.000Z</time>
      </trkpt>
      <trkpt lat="44.88916" lon="5.2869">
        <ele>1461.4</ele>
        <time>2020-07-23T10:04:17.000Z</time>
      </trkpt>
      <trkpt lat="44.88909" lon="5.28681">
        <ele>1461.1</ele>
        <time>2020-07-23T10:04:25.000Z</time>
      </trkpt>
      <trkpt lat="44.88903" lon="5.28672">
        <ele>1460.9</ele>
        <time>2020-07-23T10:04:33.000Z</time>
      </trkpt>
      <trkpt lat="44.88895" lon="5.28664">
        <ele>1460.8</ele>
        <time>2020-07-23T10:04:42.000Z</time>
      </trkpt>
      <trkpt lat="44.88888" lon="5.28654">
        <ele>1460.6</ele>
        <time>2020-07-23T10:04:51.000Z</time>
      </trkpt>
      <trkpt lat="44.8888" lon="5.28645">
        <ele>1460.5</ele>
        <time>2020-07-23T10:04:59.000Z</time>
      </trkpt>
      <trkpt lat="44.88873" lon="5.28636">
        <ele>1460.5</ele>
        <time>2020-07-23T10:05:07.000Z</time>
      </trkpt>
      <trkpt lat="44.88867" lon="5.28627">
        <ele>1460.5</ele>
        <time>2020-07-23T10:05:15.000Z</time>
      </trkpt>
      <trkpt lat="44.8886" lon="5.28616">
        <ele>1460.5</ele>
        <time>2020-07-23T10:05:23.000Z</time>
      </trkpt>
      <trkpt lat="44.88854" lon="5.28606">
        <ele>1460.4</ele>
        <time>2020-07-23T10:05:31.000Z</time>
      </trkpt>
      <trkpt lat="44.88846" lon="5.28597">
        <ele>1460.2</ele>
        <time>2020-07-23T10:05:39.000Z</time>
      </trkpt>
      <trkpt lat="44.8884" lon="5.28587">
        <ele>1459.7</ele>
        <time>2020-07-23T10:05:47.000Z</time>
      </trkpt>
      <trkpt lat="44.88833" lon="5.28578">
        <ele>1459.4</ele>
        <time>2020-07-23T10:05:53.000Z</time>
      </trkpt>
      <trkpt lat="44.88826" lon="5.28569">
        <ele>1459.4</ele>
        <time>2020-07-23T10:05:57.000Z</time>
      </trkpt>
      <trkpt lat="44.88819" lon="5.2856">
        <ele>1459.5</ele>
        <time>2020-07-23T10:06:01.000Z</time>
      </trkpt>
      <trkpt lat="44.88811" lon="5.2855">
        <ele>1459.5</ele>
        <time>2020-07-23T10:06:05.000Z</time>
      </trkpt>
      <trkpt lat="44.88804" lon="5.28542">
        <ele>1459.4</ele>
        <time>2020-07-23T10:06:09.000Z</time>
      </trkpt>
      <trkpt lat="44.88797" lon="5.28531">
        <ele>1459.4</ele>
        <time>2020-07-23T10:06:17.000Z</time>
      </trkpt>
      <trkpt lat="44.8879" lon="5.28521">
        <ele>1459.1</ele>
        <time>2020-07-23T10:06:25.000Z</time>
      </trkpt>
      <trkpt lat="44.88783" lon="5.28513">
        <ele>1459</ele>
        <time>2020-07-23T10:06:33.000Z</time>
      </trkpt>
      <trkpt lat="44.88776" lon="5.28503">
        <ele>1458.9</ele>
        <time>2020-07-23T10:06:41.000Z</time>
      </trkpt>
      <trkpt lat="44.88769" lon="5.28494">
        <ele>1458.9</ele>
        <time>2020-07-23T10:06:48.000Z</time>
      </trkpt>
      <trkpt lat="44.88761" lon="5.28484">
        <ele>1458.7</ele>
        <time>2020-07-23T10:06:55.000Z</time>
      </trkpt>
      <trkpt lat="44.88753" lon="5.28475">
        <ele>1458.4</ele>
        <time>2020-07-23T10:06:59.000Z</time>
      </trkpt>
      <trkpt lat="44.88745" lon="5.28468">
        <ele>1458.1</ele>
        <time>2020-07-23T10:07:02.000Z</time>
      </trkpt>
      <trkpt lat="44.88736" lon="5.28461">
        <ele>1457.9</ele>
        <time>2020-07-23T10:07:06.000Z</time>
      </trkpt>
      <trkpt lat="44.88727" lon="5.28454">
        <ele>1457.6</ele>
        <time>2020-07-23T10:07:10.000Z</time>
      </trkpt>
      <trkpt lat="44.88717" lon="5.28446">
        <ele>1457.3</ele>
        <time>2020-07-23T10:07:14.000Z</time>
      </trkpt>
      <trkpt lat="44.88706" lon="5.28439">
        <ele>1456.9</ele>
        <time>2020-07-23T10:07:18.000Z</time>
      </trkpt>
      <trkpt lat="44.88698" lon="5.28433">
        <ele>1456.6</ele>
        <time>2020-07-23T10:07:21.000Z</time>
      </trkpt>
      <trkpt lat="44.8869" lon="5.28428">
        <ele>1456.4</ele>
        <time>2020-07-23T10:07:24.000Z</time>
      </trkpt>
      <trkpt lat="44.88682" lon="5.28422">
        <ele>1456.3</ele>
        <time>2020-07-23T10:07:27.000Z</time>
      </trkpt>
      <trkpt lat="44.88671" lon="5.28414">
        <ele>1456.1</ele>
        <time>2020-07-23T10:07:31.000Z</time>
      </trkpt>
      <trkpt lat="44.88663" lon="5.2841">
        <ele>1455.8</ele>
        <time>2020-07-23T10:07:34.000Z</time>
      </trkpt>
      <trkpt lat="44.88654" lon="5.28403">
        <ele>1455.6</ele>
        <time>2020-07-23T10:07:38.000Z</time>
      </trkpt>
      <trkpt lat="44.88646" lon="5.28399">
        <ele>1455.3</ele>
        <time>2020-07-23T10:07:46.000Z</time>
      </trkpt>
      <trkpt lat="44.88636" lon="5.28397">
        <ele>1455</ele>
        <time>2020-07-23T10:07:54.000Z</time>
      </trkpt>
      <trkpt lat="44.88627" lon="5.28394">
        <ele>1454.4</ele>
        <time>2020-07-23T10:08:02.000Z</time>
      </trkpt>
      <trkpt lat="44.88618" lon="5.28389">
        <ele>1453.7</ele>
        <time>2020-07-23T10:08:11.000Z</time>
      </trkpt>
      <trkpt lat="44.88609" lon="5.28382">
        <ele>1453</ele>
        <time>2020-07-23T10:08:19.000Z</time>
      </trkpt>
      <trkpt lat="44.88602" lon="5.28373">
        <ele>1453</ele>
        <time>2020-07-23T10:08:28.000Z</time>
      </trkpt>
      <trkpt lat="44.88592" lon="5.2837">
        <ele>1453.5</ele>
        <time>2020-07-23T10:08:36.000Z</time>
      </trkpt>
      <trkpt lat="44.88585" lon="5.28362">
        <ele>1453.9</ele>
        <time>2020-07-23T10:08:44.000Z</time>
      </trkpt>
      <trkpt lat="44.88576" lon="5.28356">
        <ele>1454.2</ele>
        <time>2020-07-23T10:08:52.000Z</time>
      </trkpt>
      <trkpt lat="44.88567" lon="5.28353">
        <ele>1454.5</ele>
        <time>2020-07-23T10:08:59.000Z</time>
      </trkpt>
      <trkpt lat="44.88557" lon="5.28351">
        <ele>1454.8</ele>
        <time>2020-07-23T10:09:06.000Z</time>
      </trkpt>
      <trkpt lat="44.88549" lon="5.28347">
        <ele>1454.9</ele>
        <time>2020-07-23T10:09:13.000Z</time>
      </trkpt>
      <trkpt lat="44.8854" lon="5.28343">
        <ele>1455</ele>
        <time>2020-07-23T10:09:20.000Z</time>
      </trkpt>
      <trkpt lat="44.88531" lon="5.28337">
        <ele>1455.3</ele>
        <time>2020-07-23T10:09:28.000Z</time>
      </trkpt>
      <trkpt lat="44.88523" lon="5.2833">
        <ele>1455.5</ele>
        <time>2020-07-23T10:09:36.000Z</time>
      </trkpt>
      <trkpt lat="44.88514" lon="5.28324">
        <ele>1455.3</ele>
        <time>2020-07-23T10:09:43.000Z</time>
      </trkpt>
      <trkpt lat="44.88505" lon="5.2832">
        <ele>1455.2</ele>
        <time>2020-07-23T10:09:51.000Z</time>
      </trkpt>
      <trkpt lat="44.88497" lon="5.28312">
        <ele>1455.2</ele>
        <time>2020-07-23T10:09:58.000Z</time>
      </trkpt>
      <trkpt lat="44.88488" lon="5.28307">
        <ele>1455.1</ele>
        <time>2020-07-23T10:10:06.000Z</time>
      </trkpt>
      <trkpt lat="44.8848" lon="5.283">
        <ele>1454.9</ele>
        <time>2020-07-23T10:10:14.000Z</time>
      </trkpt>
      <trkpt lat="44.88472" lon="5.28293">
        <ele>1454.8</ele>
        <time>2020-07-23T10:10:21.000Z</time>
      </trkpt>
      <trkpt lat="44.88464" lon="5.28285">
        <ele>1454.6</ele>
        <time>2020-07-23T10:10:29.000Z</time>
      </trkpt>
      <trkpt lat="44.88455" lon="5.28277">
        <ele>1454.4</ele>
        <time>2020-07-23T10:10:35.000Z</time>
      </trkpt>
      <trkpt lat="44.88447" lon="5.28269">
        <ele>1454.2</ele>
        <time>2020-07-23T10:10:39.000Z</time>
      </trkpt>
      <trkpt lat="44.88439" lon="5.28261">
        <ele>1454.1</ele>
        <time>2020-07-23T10:10:43.000Z</time>
      </trkpt>
      <trkpt lat="44.88432" lon="5.28253">
        <ele>1453.8</ele>
        <time>2020-07-23T10:10:47.000Z</time>
      </trkpt>
      <trkpt lat="44.88425" lon="5.28245">
        <ele>1453.5</ele>
        <time>2020-07-23T10:10:51.000Z</time>
      </trkpt>
      <trkpt lat="44.88417" lon="5.28238">
        <ele>1453.1</ele>
        <time>2020-07-23T10:10:55.000Z</time>
      </trkpt>
      <trkpt lat="44.88409" lon="5.2823">
        <ele>1452.8</ele>
        <time>2020-07-23T10:10:59.000Z</time>
      </trkpt>
      <trkpt lat="44.884" lon="5.28221">
        <ele>1452.4</ele>
        <time>2020-07-23T10:11:03.000Z</time>
      </trkpt>
      <trkpt lat="44.88391" lon="5.28213">
        <ele>1452</ele>
        <time>2020-07-23T10:11:07.000Z</time>
      </trkpt>
      <trkpt lat="44.88382" lon="5.28205">
        <ele>1451.6</ele>
        <time>2020-07-23T10:11:11.000Z</time>
      </trkpt>
      <trkpt lat="44.88374" lon="5.28198">
        <ele>1451.2</ele>
        <time>2020-07-23T10:11:15.000Z</time>
      </trkpt>
      <trkpt lat="44.88365" lon="5.28193">
        <ele>1450.5</ele>
        <time>2020-07-23T10:11:21.000Z</time>
      </trkpt>
      <trkpt lat="44.88356" lon="5.28188">
        <ele>1449.5</ele>
        <time>2020-07-23T10:11:29.000Z</time>
      </trkpt>
      <trkpt lat="44.88347" lon="5.28185">
        <ele>1448.4</ele>
        <time>2020-07-23T10:11:36.000Z</time>
      </trkpt>
      <trkpt lat="44.88337" lon="5.28182">
        <ele>1447.1</ele>
        <time>2020-07-23T10:11:43.000Z</time>
      </trkpt>
      <trkpt lat="44.88327" lon="5.28179">
        <ele>1446</ele>
        <time>2020-07-23T10:11:51.000Z</time>
      </trkpt>
      <trkpt lat="44.88319" lon="5.28176">
        <ele>1445.2</ele>
        <time>2020-07-23T10:11:59.000Z</time>
      </trkpt>
      <trkpt lat="44.8831" lon="5.28172">
        <ele>1442.7</ele>
        <time>2020-07-23T10:13:07.000Z</time>
      </trkpt>
      <trkpt lat="44.883" lon="5.2817">
        <ele>1442.4</ele>
        <time>2020-07-23T10:13:53.000Z</time>
      </trkpt>
      <trkpt lat="44.88291" lon="5.2817">
        <ele>1441.9</ele>
        <time>2020-07-23T10:14:00.000Z</time>
      </trkpt>
      <trkpt lat="44.88281" lon="5.28171">
        <ele>1441.2</ele>
        <time>2020-07-23T10:14:08.000Z</time>
      </trkpt>
      <trkpt lat="44.88272" lon="5.28171">
        <ele>1440.1</ele>
        <time>2020-07-23T10:14:17.000Z</time>
      </trkpt>
      <trkpt lat="44.88262" lon="5.28171">
        <ele>1439.1</ele>
        <time>2020-07-23T10:14:25.000Z</time>
      </trkpt>
      <trkpt lat="44.88252" lon="5.28171">
        <ele>1438.1</ele>
        <time>2020-07-23T10:14:33.000Z</time>
      </trkpt>
      <trkpt lat="44.88243" lon="5.28169">
        <ele>1437.3</ele>
        <time>2020-07-23T10:14:40.000Z</time>
      </trkpt>
      <trkpt lat="44.88234" lon="5.28166">
        <ele>1436.5</ele>
        <time>2020-07-23T10:14:47.000Z</time>
      </trkpt>
      <trkpt lat="44.88224" lon="5.28162">
        <ele>1435.6</ele>
        <time>2020-07-23T10:14:53.000Z</time>
      </trkpt>
      <trkpt lat="44.88214" lon="5.2816">
        <ele>1435</ele>
        <time>2020-07-23T10:14:57.000Z</time>
      </trkpt>
      <trkpt lat="44.88202" lon="5.28158">
        <ele>1434.6</ele>
        <time>2020-07-23T10:15:00.000Z</time>
      </trkpt>
      <trkpt lat="44.88193" lon="5.28156">
        <ele>1434.3</ele>
        <time>2020-07-23T10:15:02.000Z</time>
      </trkpt>
      <trkpt lat="44.88183" lon="5.28152">
        <ele>1434.1</ele>
        <time>2020-07-23T10:15:04.000Z</time>
      </trkpt>
      <trkpt lat="44.88174" lon="5.28145">
        <ele>1433.9</ele>
        <time>2020-07-23T10:15:06.000Z</time>
      </trkpt>
      <trkpt lat="44.88165" lon="5.28138">
        <ele>1433.8</ele>
        <time>2020-07-23T10:15:08.000Z</time>
      </trkpt>
      <trkpt lat="44.88156" lon="5.28131">
        <ele>1433.6</ele>
        <time>2020-07-23T10:15:10.000Z</time>
      </trkpt>
      <trkpt lat="44.88148" lon="5.28124">
        <ele>1433.4</ele>
        <time>2020-07-23T10:15:12.000Z</time>
      </trkpt>
      <trkpt lat="44.88137" lon="5.28117">
        <ele>1433.1</ele>
        <time>2020-07-23T10:15:15.000Z</time>
      </trkpt>
      <trkpt lat="44.88128" lon="5.28111">
        <ele>1432.9</ele>
        <time>2020-07-23T10:15:18.000Z</time>
      </trkpt>
      <trkpt lat="44.88119" lon="5.28103">
        <ele>1432.6</ele>
        <time>2020-07-23T10:15:21.000Z</time>
      </trkpt>
      <trkpt lat="44.88111" lon="5.28093">
        <ele>1432.4</ele>
        <time>2020-07-23T10:15:24.000Z</time>
      </trkpt>
      <trkpt lat="44.88102" lon="5.28082">
        <ele>1432.4</ele>
        <time>2020-07-23T10:15:27.000Z</time>
      </trkpt>
      <trkpt lat="44.88093" lon="5.28072">
        <ele>1432.4</ele>
        <time>2020-07-23T10:15:30.000Z</time>
      </trkpt>
      <trkpt lat="44.88084" lon="5.28064">
        <ele>1432.4</ele>
        <time>2020-07-23T10:15:33.000Z</time>
      </trkpt>
      <trkpt lat="44.88076" lon="5.28058">
        <ele>1432.4</ele>
        <time>2020-07-23T10:15:35.000Z</time>
      </trkpt>
      <trkpt lat="44.88067" lon="5.28052">
        <ele>1432.6</ele>
        <time>2020-07-23T10:15:37.000Z</time>
      </trkpt>
      <trkpt lat="44.88058" lon="5.28046">
        <ele>1432.6</ele>
        <time>2020-07-23T10:15:39.000Z</time>
      </trkpt>
      <trkpt lat="44.88049" lon="5.28039">
        <ele>1432.7</ele>
        <time>2020-07-23T10:15:41.000Z</time>
      </trkpt>
      <trkpt lat="44.8804" lon="5.28033">
        <ele>1432.8</ele>
        <time>2020-07-23T10:15:43.000Z</time>
      </trkpt>
      <trkpt lat="44.88031" lon="5.28026">
        <ele>1433</ele>
        <time>2020-07-23T10:15:45.000Z</time>
      </trkpt>
      <trkpt lat="44.88024" lon="5.28019">
        <ele>1433.3</ele>
        <time>2020-07-23T10:15:47.000Z</time>
      </trkpt>
      <trkpt lat="44.88014" lon="5.2801">
        <ele>1433.5</ele>
        <time>2020-07-23T10:15:50.000Z</time>
      </trkpt>
      <trkpt lat="44.88005" lon="5.28004">
        <ele>1433.8</ele>
        <time>2020-07-23T10:15:55.000Z</time>
      </trkpt>
      <trkpt lat="44.87998" lon="5.27994">
        <ele>1434.3</ele>
        <time>2020-07-23T10:16:03.000Z</time>
      </trkpt>
      <trkpt lat="44.8799" lon="5.27987">
        <ele>1434.6</ele>
        <time>2020-07-23T10:16:10.000Z</time>
      </trkpt>
      <trkpt lat="44.87981" lon="5.27979">
        <ele>1434.9</ele>
        <time>2020-07-23T10:16:18.000Z</time>
      </trkpt>
      <trkpt lat="44.87972" lon="5.27974">
        <ele>1435.4</ele>
        <time>2020-07-23T10:16:26.000Z</time>
      </trkpt>
      <trkpt lat="44.87964" lon="5.27968">
        <ele>1436</ele>
        <time>2020-07-23T10:16:34.000Z</time>
      </trkpt>
      <trkpt lat="44.87956" lon="5.2796">
        <ele>1436.5</ele>
        <time>2020-07-23T10:16:42.000Z</time>
      </trkpt>
      <trkpt lat="44.87948" lon="5.27954">
        <ele>1436.7</ele>
        <time>2020-07-23T10:16:50.000Z</time>
      </trkpt>
      <trkpt lat="44.87938" lon="5.2795">
        <ele>1436.8</ele>
        <time>2020-07-23T10:16:58.000Z</time>
      </trkpt>
      <trkpt lat="44.87929" lon="5.27945">
        <ele>1436.8</ele>
        <time>2020-07-23T10:17:06.000Z</time>
      </trkpt>
      <trkpt lat="44.8792" lon="5.27939">
        <ele>1436.9</ele>
        <time>2020-07-23T10:17:14.000Z</time>
      </trkpt>
      <trkpt lat="44.87911" lon="5.27935">
        <ele>1437</ele>
        <time>2020-07-23T10:17:22.000Z</time>
      </trkpt>
      <trkpt lat="44.87901" lon="5.27931">
        <ele>1436.9</ele>
        <time>2020-07-23T10:17:30.000Z</time>
      </trkpt>
      <trkpt lat="44.87892" lon="5.27929">
        <ele>1436.8</ele>
        <time>2020-07-23T10:17:38.000Z</time>
      </trkpt>
      <trkpt lat="44.87883" lon="5.27926">
        <ele>1436.8</ele>
        <time>2020-07-23T10:17:46.000Z</time>
      </trkpt>
      <trkpt lat="44.87874" lon="5.27924">
        <ele>1436.8</ele>
        <time>2020-07-23T10:17:54.000Z</time>
      </trkpt>
      <trkpt lat="44.87864" lon="5.27921">
        <ele>1436.7</ele>
        <time>2020-07-23T10:18:02.000Z</time>
      </trkpt>
      <trkpt lat="44.87856" lon="5.27916">
        <ele>1436.7</ele>
        <time>2020-07-23T10:18:10.000Z</time>
      </trkpt>
      <trkpt lat="44.87846" lon="5.27912">
        <ele>1436.6</ele>
        <time>2020-07-23T10:18:18.000Z</time>
      </trkpt>
      <trkpt lat="44.87837" lon="5.27909">
        <ele>1436.4</ele>
        <time>2020-07-23T10:18:26.000Z</time>
      </trkpt>
      <trkpt lat="44.87829" lon="5.27904">
        <ele>1436.2</ele>
        <time>2020-07-23T10:18:34.000Z</time>
      </trkpt>
      <trkpt lat="44.8782" lon="5.27899">
        <ele>1436</ele>
        <time>2020-07-23T10:18:41.000Z</time>
      </trkpt>
      <trkpt lat="44.87811" lon="5.27894">
        <ele>1435.5</ele>
        <time>2020-07-23T10:18:49.000Z</time>
      </trkpt>
      <trkpt lat="44.87802" lon="5.2789">
        <ele>1435.2</ele>
        <time>2020-07-23T10:18:58.000Z</time>
      </trkpt>
      <trkpt lat="44.87793" lon="5.27887">
        <ele>1435</ele>
        <time>2020-07-23T10:19:06.000Z</time>
      </trkpt>
      <trkpt lat="44.87784" lon="5.27882">
        <ele>1434.7</ele>
        <time>2020-07-23T10:19:14.000Z</time>
      </trkpt>
      <trkpt lat="44.87774" lon="5.27879">
        <ele>1434.3</ele>
        <time>2020-07-23T10:19:22.000Z</time>
      </trkpt>
      <trkpt lat="44.87765" lon="5.27876">
        <ele>1434.1</ele>
        <time>2020-07-23T10:19:30.000Z</time>
      </trkpt>
      <trkpt lat="44.87756" lon="5.2787">
        <ele>1433.6</ele>
        <time>2020-07-23T10:19:39.000Z</time>
      </trkpt>
      <trkpt lat="44.87748" lon="5.27866">
        <ele>1432.8</ele>
        <time>2020-07-23T10:19:47.000Z</time>
      </trkpt>
      <trkpt lat="44.87738" lon="5.27862">
        <ele>1432</ele>
        <time>2020-07-23T10:19:55.000Z</time>
      </trkpt>
      <trkpt lat="44.87729" lon="5.27859">
        <ele>1431.4</ele>
        <time>2020-07-23T10:20:02.000Z</time>
      </trkpt>
      <trkpt lat="44.8772" lon="5.27853">
        <ele>1430.6</ele>
        <time>2020-07-23T10:20:10.000Z</time>
      </trkpt>
      <trkpt lat="44.87712" lon="5.27844">
        <ele>1430.3</ele>
        <time>2020-07-23T10:20:18.000Z</time>
      </trkpt>
      <trkpt lat="44.87706" lon="5.27833">
        <ele>1429.8</ele>
        <time>2020-07-23T10:20:25.000Z</time>
      </trkpt>
      <trkpt lat="44.87698" lon="5.27825">
        <ele>1428.8</ele>
        <time>2020-07-23T10:20:33.000Z</time>
      </trkpt>
      <trkpt lat="44.87692" lon="5.27816">
        <ele>1428.2</ele>
        <time>2020-07-23T10:20:41.000Z</time>
      </trkpt>
      <trkpt lat="44.87684" lon="5.27809">
        <ele>1427.6</ele>
        <time>2020-07-23T10:20:49.000Z</time>
      </trkpt>
      <trkpt lat="44.87677" lon="5.278">
        <ele>1427.4</ele>
        <time>2020-07-23T10:20:57.000Z</time>
      </trkpt>
      <trkpt lat="44.87668" lon="5.27792">
        <ele>1427.2</ele>
        <time>2020-07-23T10:21:18.000Z</time>
      </trkpt>
      <trkpt lat="44.87661" lon="5.27784">
        <ele>1426.8</ele>
        <time>2020-07-23T10:21:26.000Z</time>
      </trkpt>
      <trkpt lat="44.87654" lon="5.27776">
        <ele>1426.6</ele>
        <time>2020-07-23T10:21:34.000Z</time>
      </trkpt>
      <trkpt lat="44.87646" lon="5.27767">
        <ele>1426.6</ele>
        <time>2020-07-23T10:21:42.000Z</time>
      </trkpt>
      <trkpt lat="44.8764" lon="5.27758">
        <ele>1426.7</ele>
        <time>2020-07-23T10:21:49.000Z</time>
      </trkpt>
      <trkpt lat="44.87633" lon="5.27749">
        <ele>1426.7</ele>
        <time>2020-07-23T10:21:56.000Z</time>
      </trkpt>
      <trkpt lat="44.87625" lon="5.27741">
        <ele>1426.6</ele>
        <time>2020-07-23T10:22:04.000Z</time>
      </trkpt>
      <trkpt lat="44.87618" lon="5.27733">
        <ele>1426.6</ele>
        <time>2020-07-23T10:22:12.000Z</time>
      </trkpt>
      <trkpt lat="44.87611" lon="5.27725">
        <ele>1426.7</ele>
        <time>2020-07-23T10:22:20.000Z</time>
      </trkpt>
      <trkpt lat="44.87603" lon="5.27717">
        <ele>1426.9</ele>
        <time>2020-07-23T10:22:28.000Z</time>
      </trkpt>
      <trkpt lat="44.87596" lon="5.2771">
        <ele>1426.8</ele>
        <time>2020-07-23T10:22:36.000Z</time>
      </trkpt>
      <trkpt lat="44.87588" lon="5.27703">
        <ele>1426.6</ele>
        <time>2020-07-23T10:22:44.000Z</time>
      </trkpt>
      <trkpt lat="44.87579" lon="5.27696">
        <ele>1426.6</ele>
        <time>2020-07-23T10:22:53.000Z</time>
      </trkpt>
      <trkpt lat="44.87571" lon="5.27688">
        <ele>1426.5</ele>
        <time>2020-07-23T10:23:02.000Z</time>
      </trkpt>
      <trkpt lat="44.87564" lon="5.2768">
        <ele>1426.2</ele>
        <time>2020-07-23T10:23:10.000Z</time>
      </trkpt>
      <trkpt lat="44.87556" lon="5.27673">
        <ele>1425.5</ele>
        <time>2020-07-23T10:23:18.000Z</time>
      </trkpt>
      <trkpt lat="44.87549" lon="5.27665">
        <ele>1425.1</ele>
        <time>2020-07-23T10:23:26.000Z</time>
      </trkpt>
      <trkpt lat="44.87542" lon="5.27656">
        <ele>1424.6</ele>
        <time>2020-07-23T10:23:34.000Z</time>
      </trkpt>
      <trkpt lat="44.87534" lon="5.27648">
        <ele>1424.1</ele>
        <time>2020-07-23T10:23:42.000Z</time>
      </trkpt>
      <trkpt lat="44.87526" lon="5.27642">
        <ele>1423.8</ele>
        <time>2020-07-23T10:23:51.000Z</time>
      </trkpt>
      <trkpt lat="44.87517" lon="5.27637">
        <ele>1423.7</ele>
        <time>2020-07-23T10:23:59.000Z</time>
      </trkpt>
      <trkpt lat="44.87507" lon="5.27636">
        <ele>1423.8</ele>
        <time>2020-07-23T10:24:09.000Z</time>
      </trkpt>
      <trkpt lat="44.87498" lon="5.27637">
        <ele>1423.9</ele>
        <time>2020-07-23T10:24:18.000Z</time>
      </trkpt>
      <trkpt lat="44.87488" lon="5.27636">
        <ele>1424.1</ele>
        <time>2020-07-23T10:24:27.000Z</time>
      </trkpt>
      <trkpt lat="44.87479" lon="5.27631">
        <ele>1424.2</ele>
        <time>2020-07-23T10:24:35.000Z</time>
      </trkpt>
      <trkpt lat="44.8747" lon="5.27629">
        <ele>1424</ele>
        <time>2020-07-23T10:24:43.000Z</time>
      </trkpt>
      <trkpt lat="44.8746" lon="5.27626">
        <ele>1424.1</ele>
        <time>2020-07-23T10:24:51.000Z</time>
      </trkpt>
      <trkpt lat="44.87451" lon="5.27623">
        <ele>1424.4</ele>
        <time>2020-07-23T10:24:59.000Z</time>
      </trkpt>
      <trkpt lat="44.87442" lon="5.27619">
        <ele>1424.8</ele>
        <time>2020-07-23T10:25:07.000Z</time>
      </trkpt>
      <trkpt lat="44.87433" lon="5.27617">
        <ele>1425</ele>
        <time>2020-07-23T10:25:15.000Z</time>
      </trkpt>
      <trkpt lat="44.87424" lon="5.27615">
        <ele>1425.2</ele>
        <time>2020-07-23T10:25:23.000Z</time>
      </trkpt>
      <trkpt lat="44.87415" lon="5.27608">
        <ele>1428.5</ele>
        <time>2020-07-23T10:27:29.000Z</time>
      </trkpt>
      <trkpt lat="44.87406" lon="5.27604">
        <ele>1427.1</ele>
        <time>2020-07-23T10:27:37.000Z</time>
      </trkpt>
      <trkpt lat="44.87397" lon="5.27601">
        <ele>1426.3</ele>
        <time>2020-07-23T10:27:45.000Z</time>
      </trkpt>
      <trkpt lat="44.87388" lon="5.27599">
        <ele>1425.7</ele>
        <time>2020-07-23T10:27:53.000Z</time>
      </trkpt>
      <trkpt lat="44.87378" lon="5.27597">
        <ele>1425.4</ele>
        <time>2020-07-23T10:28:00.000Z</time>
      </trkpt>
      <trkpt lat="44.87369" lon="5.27595">
        <ele>1425</ele>
        <time>2020-07-23T10:28:08.000Z</time>
      </trkpt>
      <trkpt lat="44.87359" lon="5.27595">
        <ele>1424.2</ele>
        <time>2020-07-23T10:28:16.000Z</time>
      </trkpt>
      <trkpt lat="44.8735" lon="5.27599">
        <ele>1423.6</ele>
        <time>2020-07-23T10:28:25.000Z</time>
      </trkpt>
      <trkpt lat="44.8734" lon="5.27604">
        <ele>1423</ele>
        <time>2020-07-23T10:28:33.000Z</time>
      </trkpt>
      <trkpt lat="44.87332" lon="5.27608">
        <ele>1422.2</ele>
        <time>2020-07-23T10:28:41.000Z</time>
      </trkpt>
      <trkpt lat="44.87323" lon="5.27612">
        <ele>1421.3</ele>
        <time>2020-07-23T10:28:50.000Z</time>
      </trkpt>
      <trkpt lat="44.87313" lon="5.27617">
        <ele>1420.8</ele>
        <time>2020-07-23T10:28:58.000Z</time>
      </trkpt>
      <trkpt lat="44.87305" lon="5.27622">
        <ele>1420.1</ele>
        <time>2020-07-23T10:29:06.000Z</time>
      </trkpt>
      <trkpt lat="44.87295" lon="5.27626">
        <ele>1419.3</ele>
        <time>2020-07-23T10:29:15.000Z</time>
      </trkpt>
      <trkpt lat="44.87286" lon="5.27628">
        <ele>1418.2</ele>
        <time>2020-07-23T10:29:23.000Z</time>
      </trkpt>
      <trkpt lat="44.87276" lon="5.27629">
        <ele>1417</ele>
        <time>2020-07-23T10:29:31.000Z</time>
      </trkpt>
      <trkpt lat="44.87267" lon="5.27629">
        <ele>1416.1</ele>
        <time>2020-07-23T10:29:38.000Z</time>
      </trkpt>
      <trkpt lat="44.87257" lon="5.27626">
        <ele>1414.7</ele>
        <time>2020-07-23T10:29:45.000Z</time>
      </trkpt>
      <trkpt lat="44.87249" lon="5.27618">
        <ele>1413.4</ele>
        <time>2020-07-23T10:29:53.000Z</time>
      </trkpt>
      <trkpt lat="44.87243" lon="5.27609">
        <ele>1410.9</ele>
        <time>2020-07-23T10:30:31.000Z</time>
      </trkpt>
      <trkpt lat="44.87233" lon="5.27604">
        <ele>1409.2</ele>
        <time>2020-07-23T10:30:41.000Z</time>
      </trkpt>
      <trkpt lat="44.87225" lon="5.27598">
        <ele>1406.6</ele>
        <time>2020-07-23T10:30:56.000Z</time>
      </trkpt>
      <trkpt lat="44.87216" lon="5.27594">
        <ele>1404.8</ele>
        <time>2020-07-23T10:31:06.000Z</time>
      </trkpt>
      <trkpt lat="44.87207" lon="5.2759">
        <ele>1403.4</ele>
        <time>2020-07-23T10:31:15.000Z</time>
      </trkpt>
      <trkpt lat="44.87198" lon="5.27583">
        <ele>1402.4</ele>
        <time>2020-07-23T10:31:23.000Z</time>
      </trkpt>
      <trkpt lat="44.8719" lon="5.27577">
        <ele>1401.2</ele>
        <time>2020-07-23T10:31:31.000Z</time>
      </trkpt>
      <trkpt lat="44.87183" lon="5.27567">
        <ele>1400.1</ele>
        <time>2020-07-23T10:31:39.000Z</time>
      </trkpt>
      <trkpt lat="44.87179" lon="5.27555">
        <ele>1398.7</ele>
        <time>2020-07-23T10:31:47.000Z</time>
      </trkpt>
      <trkpt lat="44.87174" lon="5.27543">
        <ele>1397.4</ele>
        <time>2020-07-23T10:31:55.000Z</time>
      </trkpt>
      <trkpt lat="44.8717" lon="5.27531">
        <ele>1396.4</ele>
        <time>2020-07-23T10:32:02.000Z</time>
      </trkpt>
      <trkpt lat="44.87164" lon="5.27521">
        <ele>1395</ele>
        <time>2020-07-23T10:32:10.000Z</time>
      </trkpt>
      <trkpt lat="44.87159" lon="5.27509">
        <ele>1394.1</ele>
        <time>2020-07-23T10:32:19.000Z</time>
      </trkpt>
      <trkpt lat="44.87151" lon="5.27503">
        <ele>1392.2</ele>
        <time>2020-07-23T10:36:55.000Z</time>
      </trkpt>
      <trkpt lat="44.87142" lon="5.27509">
        <ele>1392.6</ele>
        <time>2020-07-23T10:37:04.000Z</time>
      </trkpt>
      <trkpt lat="44.87133" lon="5.27513">
        <ele>1393.3</ele>
        <time>2020-07-23T10:37:12.000Z</time>
      </trkpt>
      <trkpt lat="44.87124" lon="5.27515">
        <ele>1393.9</ele>
        <time>2020-07-23T10:37:20.000Z</time>
      </trkpt>
      <trkpt lat="44.87115" lon="5.27515">
        <ele>1394.4</ele>
        <time>2020-07-23T10:37:28.000Z</time>
      </trkpt>
      <trkpt lat="44.87106" lon="5.27511">
        <ele>1394.8</ele>
        <time>2020-07-23T10:37:36.000Z</time>
      </trkpt>
      <trkpt lat="44.87098" lon="5.27504">
        <ele>1395.1</ele>
        <time>2020-07-23T10:37:44.000Z</time>
      </trkpt>
      <trkpt lat="44.87089" lon="5.27499">
        <ele>1394.9</ele>
        <time>2020-07-23T10:38:01.000Z</time>
      </trkpt>
      <trkpt lat="44.87081" lon="5.27493">
        <ele>1394.4</ele>
        <time>2020-07-23T10:38:08.000Z</time>
      </trkpt>
      <trkpt lat="44.87073" lon="5.27486">
        <ele>1393.6</ele>
        <time>2020-07-23T10:38:16.000Z</time>
      </trkpt>
      <trkpt lat="44.87064" lon="5.2748">
        <ele>1392.8</ele>
        <time>2020-07-23T10:38:23.000Z</time>
      </trkpt>
      <trkpt lat="44.87054" lon="5.27472">
        <ele>1392</ele>
        <time>2020-07-23T10:38:28.000Z</time>
      </trkpt>
      <trkpt lat="44.87047" lon="5.27465">
        <ele>1391.7</ele>
        <time>2020-07-23T10:38:31.000Z</time>
      </trkpt>
      <trkpt lat="44.87037" lon="5.27457">
        <ele>1391.3</ele>
        <time>2020-07-23T10:38:35.000Z</time>
      </trkpt>
      <trkpt lat="44.87027" lon="5.2745">
        <ele>1390.9</ele>
        <time>2020-07-23T10:38:39.000Z</time>
      </trkpt>
      <trkpt lat="44.87018" lon="5.27443">
        <ele>1390.9</ele>
        <time>2020-07-23T10:38:42.000Z</time>
      </trkpt>
      <trkpt lat="44.87009" lon="5.27435">
        <ele>1391</ele>
        <time>2020-07-23T10:38:45.000Z</time>
      </trkpt>
      <trkpt lat="44.86998" lon="5.27426">
        <ele>1391.1</ele>
        <time>2020-07-23T10:38:48.000Z</time>
      </trkpt>
      <trkpt lat="44.86989" lon="5.27421">
        <ele>1391.2</ele>
        <time>2020-07-23T10:38:50.000Z</time>
      </trkpt>
      <trkpt lat="44.86981" lon="5.27414">
        <ele>1391.6</ele>
        <time>2020-07-23T10:38:52.000Z</time>
      </trkpt>
      <trkpt lat="44.86972" lon="5.27405">
        <ele>1392.1</ele>
        <time>2020-07-23T10:38:55.000Z</time>
      </trkpt>
      <trkpt lat="44.86962" lon="5.27399">
        <ele>1392.5</ele>
        <time>2020-07-23T10:38:59.000Z</time>
      </trkpt>
      <trkpt lat="44.86953" lon="5.27394">
        <ele>1393.4</ele>
        <time>2020-07-23T10:39:05.000Z</time>
      </trkpt>
      <trkpt lat="44.86944" lon="5.2739">
        <ele>1394</ele>
        <time>2020-07-23T10:39:13.000Z</time>
      </trkpt>
      <trkpt lat="44.86935" lon="5.27383">
        <ele>1393.7</ele>
        <time>2020-07-23T10:39:21.000Z</time>
      </trkpt>
      <trkpt lat="44.86926" lon="5.27376">
        <ele>1393</ele>
        <time>2020-07-23T10:39:29.000Z</time>
      </trkpt>
      <trkpt lat="44.86918" lon="5.2737">
        <ele>1392.1</ele>
        <time>2020-07-23T10:39:36.000Z</time>
      </trkpt>
      <trkpt lat="44.8691" lon="5.27364">
        <ele>1391.5</ele>
        <time>2020-07-23T10:39:43.000Z</time>
      </trkpt>
      <trkpt lat="44.86901" lon="5.27356">
        <ele>1391</ele>
        <time>2020-07-23T10:39:49.000Z</time>
      </trkpt>
      <trkpt lat="44.86892" lon="5.27349">
        <ele>1390.8</ele>
        <time>2020-07-23T10:39:53.000Z</time>
      </trkpt>
      <trkpt lat="44.86883" lon="5.27342">
        <ele>1390.3</ele>
        <time>2020-07-23T10:39:57.000Z</time>
      </trkpt>
      <trkpt lat="44.86873" lon="5.27335">
        <ele>1389.9</ele>
        <time>2020-07-23T10:40:01.000Z</time>
      </trkpt>
      <trkpt lat="44.86865" lon="5.27328">
        <ele>1389.5</ele>
        <time>2020-07-23T10:40:04.000Z</time>
      </trkpt>
      <trkpt lat="44.86856" lon="5.27322">
        <ele>1389.1</ele>
        <time>2020-07-23T10:40:07.000Z</time>
      </trkpt>
      <trkpt lat="44.86847" lon="5.27314">
        <ele>1388.8</ele>
        <time>2020-07-23T10:40:10.000Z</time>
      </trkpt>
      <trkpt lat="44.86839" lon="5.27307">
        <ele>1388.4</ele>
        <time>2020-07-23T10:40:13.000Z</time>
      </trkpt>
      <trkpt lat="44.86829" lon="5.27301">
        <ele>1388.3</ele>
        <time>2020-07-23T10:40:16.000Z</time>
      </trkpt>
      <trkpt lat="44.86819" lon="5.27291">
        <ele>1388.3</ele>
        <time>2020-07-23T10:40:19.000Z</time>
      </trkpt>
      <trkpt lat="44.86809" lon="5.27284">
        <ele>1388.3</ele>
        <time>2020-07-23T10:40:21.000Z</time>
      </trkpt>
      <trkpt lat="44.86798" lon="5.27277">
        <ele>1388.4</ele>
        <time>2020-07-23T10:40:23.000Z</time>
      </trkpt>
      <trkpt lat="44.86788" lon="5.2727">
        <ele>1388.5</ele>
        <time>2020-07-23T10:40:25.000Z</time>
      </trkpt>
      <trkpt lat="44.86778" lon="5.27262">
        <ele>1388.9</ele>
        <time>2020-07-23T10:40:27.000Z</time>
      </trkpt>
      <trkpt lat="44.86768" lon="5.27254">
        <ele>1389.2</ele>
        <time>2020-07-23T10:40:29.000Z</time>
      </trkpt>
      <trkpt lat="44.86759" lon="5.27245">
        <ele>1389.9</ele>
        <time>2020-07-23T10:40:31.000Z</time>
      </trkpt>
      <trkpt lat="44.8675" lon="5.27237">
        <ele>1390.5</ele>
        <time>2020-07-23T10:40:33.000Z</time>
      </trkpt>
      <trkpt lat="44.86741" lon="5.27229">
        <ele>1391.3</ele>
        <time>2020-07-23T10:40:35.000Z</time>
      </trkpt>
      <trkpt lat="44.86731" lon="5.27222">
        <ele>1392.3</ele>
        <time>2020-07-23T10:40:37.000Z</time>
      </trkpt>
      <trkpt lat="44.86722" lon="5.27216">
        <ele>1393.4</ele>
        <time>2020-07-23T10:40:39.000Z</time>
      </trkpt>
      <trkpt lat="44.86713" lon="5.27209">
        <ele>1394.4</ele>
        <time>2020-07-23T10:40:41.000Z</time>
      </trkpt>
      <trkpt lat="44.86703" lon="5.27202">
        <ele>1396.1</ele>
        <time>2020-07-23T10:40:44.000Z</time>
      </trkpt>
      <trkpt lat="44.86695" lon="5.27194">
        <ele>1398.5</ele>
        <time>2020-07-23T10:40:49.000Z</time>
      </trkpt>
      <trkpt lat="44.86693" lon="5.27181">
        <ele>1403.9</ele>
        <time>2020-07-23T10:41:36.000Z</time>
      </trkpt>
      <trkpt lat="44.86684" lon="5.27174">
        <ele>1404.1</ele>
        <time>2020-07-23T10:41:51.000Z</time>
      </trkpt>
      <trkpt lat="44.86675" lon="5.27168">
        <ele>1404.3</ele>
        <time>2020-07-23T10:42:00.000Z</time>
      </trkpt>
      <trkpt lat="44.86666" lon="5.27162">
        <ele>1404.8</ele>
        <time>2020-07-23T10:42:09.000Z</time>
      </trkpt>
      <trkpt lat="44.86657" lon="5.27158">
        <ele>1405.2</ele>
        <time>2020-07-23T10:42:18.000Z</time>
      </trkpt>
      <trkpt lat="44.86648" lon="5.27154">
        <ele>1405.1</ele>
        <time>2020-07-23T10:42:25.000Z</time>
      </trkpt>
      <trkpt lat="44.8664" lon="5.27151">
        <ele>1404.7</ele>
        <time>2020-07-23T10:42:32.000Z</time>
      </trkpt>
      <trkpt lat="44.86631" lon="5.27148">
        <ele>1404.7</ele>
        <time>2020-07-23T10:42:40.000Z</time>
      </trkpt>
      <trkpt lat="44.86621" lon="5.27147">
        <ele>1405.5</ele>
        <time>2020-07-23T10:42:55.000Z</time>
      </trkpt>
      <trkpt lat="44.86612" lon="5.27147">
        <ele>1405.7</ele>
        <time>2020-07-23T10:43:03.000Z</time>
      </trkpt>
      <trkpt lat="44.86602" lon="5.27146">
        <ele>1405.8</ele>
        <time>2020-07-23T10:43:12.000Z</time>
      </trkpt>
      <trkpt lat="44.86593" lon="5.27145">
        <ele>1405.8</ele>
        <time>2020-07-23T10:43:19.000Z</time>
      </trkpt>
      <trkpt lat="44.86584" lon="5.27143">
        <ele>1405.5</ele>
        <time>2020-07-23T10:43:26.000Z</time>
      </trkpt>
      <trkpt lat="44.86575" lon="5.27139">
        <ele>1405.1</ele>
        <time>2020-07-23T10:43:33.000Z</time>
      </trkpt>
      <trkpt lat="44.86567" lon="5.27133">
        <ele>1404.7</ele>
        <time>2020-07-23T10:43:40.000Z</time>
      </trkpt>
      <trkpt lat="44.86557" lon="5.27129">
        <ele>1404.3</ele>
        <time>2020-07-23T10:43:48.000Z</time>
      </trkpt>
      <trkpt lat="44.86548" lon="5.27124">
        <ele>1403.9</ele>
        <time>2020-07-23T10:43:57.000Z</time>
      </trkpt>
      <trkpt lat="44.86539" lon="5.27119">
        <ele>1404</ele>
        <time>2020-07-23T10:44:05.000Z</time>
      </trkpt>
      <trkpt lat="44.86531" lon="5.27113">
        <ele>1404.2</ele>
        <time>2020-07-23T10:44:13.000Z</time>
      </trkpt>
      <trkpt lat="44.86522" lon="5.27107">
        <ele>1404.2</ele>
        <time>2020-07-23T10:44:21.000Z</time>
      </trkpt>
      <trkpt lat="44.86512" lon="5.27102">
        <ele>1404.2</ele>
        <time>2020-07-23T10:44:29.000Z</time>
      </trkpt>
      <trkpt lat="44.86504" lon="5.27097">
        <ele>1404.3</ele>
        <time>2020-07-23T10:44:36.000Z</time>
      </trkpt>
      <trkpt lat="44.86495" lon="5.27094">
        <ele>1404.4</ele>
        <time>2020-07-23T10:44:43.000Z</time>
      </trkpt>
      <trkpt lat="44.86485" lon="5.2709">
        <ele>1404.9</ele>
        <time>2020-07-23T10:44:51.000Z</time>
      </trkpt>
      <trkpt lat="44.86476" lon="5.27087">
        <ele>1405.5</ele>
        <time>2020-07-23T10:44:59.000Z</time>
      </trkpt>
      <trkpt lat="44.86467" lon="5.27086">
        <ele>1406.6</ele>
        <time>2020-07-23T10:45:07.000Z</time>
      </trkpt>
      <trkpt lat="44.86457" lon="5.27084">
        <ele>1407.5</ele>
        <time>2020-07-23T10:45:15.000Z</time>
      </trkpt>
      <trkpt lat="44.86448" lon="5.27081">
        <ele>1408.3</ele>
        <time>2020-07-23T10:45:23.000Z</time>
      </trkpt>
      <trkpt lat="44.86438" lon="5.27077">
        <ele>1409.4</ele>
        <time>2020-07-23T10:45:34.000Z</time>
      </trkpt>
      <trkpt lat="44.86429" lon="5.27073">
        <ele>1410</ele>
        <time>2020-07-23T10:45:42.000Z</time>
      </trkpt>
      <trkpt lat="44.86421" lon="5.27069">
        <ele>1410.5</ele>
        <time>2020-07-23T10:45:50.000Z</time>
      </trkpt>
      <trkpt lat="44.86411" lon="5.27067">
        <ele>1411.1</ele>
        <time>2020-07-23T10:45:58.000Z</time>
      </trkpt>
      <trkpt lat="44.86402" lon="5.27071">
        <ele>1411.9</ele>
        <time>2020-07-23T10:46:06.000Z</time>
      </trkpt>
      <trkpt lat="44.86393" lon="5.27075">
        <ele>1413.8</ele>
        <time>2020-07-23T10:46:37.000Z</time>
      </trkpt>
      <trkpt lat="44.86384" lon="5.2708">
        <ele>1414.2</ele>
        <time>2020-07-23T10:46:46.000Z</time>
      </trkpt>
      <trkpt lat="44.86375" lon="5.27086">
        <ele>1414.9</ele>
        <time>2020-07-23T10:46:54.000Z</time>
      </trkpt>
      <trkpt lat="44.86367" lon="5.27091">
        <ele>1415.9</ele>
        <time>2020-07-23T10:47:02.000Z</time>
      </trkpt>
      <trkpt lat="44.86357" lon="5.27095">
        <ele>1416.9</ele>
        <time>2020-07-23T10:47:11.000Z</time>
      </trkpt>
      <trkpt lat="44.86348" lon="5.27099">
        <ele>1417.7</ele>
        <time>2020-07-23T10:47:20.000Z</time>
      </trkpt>
      <trkpt lat="44.86338" lon="5.271">
        <ele>1418.7</ele>
        <time>2020-07-23T10:47:29.000Z</time>
      </trkpt>
      <trkpt lat="44.8633" lon="5.27106">
        <ele>1419.6</ele>
        <time>2020-07-23T10:47:37.000Z</time>
      </trkpt>
      <trkpt lat="44.86323" lon="5.27116">
        <ele>1420.4</ele>
        <time>2020-07-23T10:47:46.000Z</time>
      </trkpt>
      <trkpt lat="44.86316" lon="5.27125">
        <ele>1421.4</ele>
        <time>2020-07-23T10:47:56.000Z</time>
      </trkpt>
      <trkpt lat="44.86307" lon="5.27126">
        <ele>1422.5</ele>
        <time>2020-07-23T10:48:08.000Z</time>
      </trkpt>
      <trkpt lat="44.86298" lon="5.27125">
        <ele>1422.9</ele>
        <time>2020-07-23T10:48:16.000Z</time>
      </trkpt>
      <trkpt lat="44.86288" lon="5.27122">
        <ele>1423.6</ele>
        <time>2020-07-23T10:48:25.000Z</time>
      </trkpt>
      <trkpt lat="44.86279" lon="5.27118">
        <ele>1424.2</ele>
        <time>2020-07-23T10:48:33.000Z</time>
      </trkpt>
      <trkpt lat="44.8627" lon="5.27115">
        <ele>1424.9</ele>
        <time>2020-07-23T10:48:41.000Z</time>
      </trkpt>
      <trkpt lat="44.86262" lon="5.27112">
        <ele>1425.6</ele>
        <time>2020-07-23T10:48:49.000Z</time>
      </trkpt>
      <trkpt lat="44.86253" lon="5.27108">
        <ele>1426.5</ele>
        <time>2020-07-23T10:48:57.000Z</time>
      </trkpt>
      <trkpt lat="44.86244" lon="5.27105">
        <ele>1427.4</ele>
        <time>2020-07-23T10:49:05.000Z</time>
      </trkpt>
      <trkpt lat="44.86235" lon="5.27101">
        <ele>1428.1</ele>
        <time>2020-07-23T10:49:13.000Z</time>
      </trkpt>
      <trkpt lat="44.86226" lon="5.27098">
        <ele>1429.1</ele>
        <time>2020-07-23T10:49:22.000Z</time>
      </trkpt>
      <trkpt lat="44.86217" lon="5.27094">
        <ele>1429.9</ele>
        <time>2020-07-23T10:49:30.000Z</time>
      </trkpt>
      <trkpt lat="44.86208" lon="5.2709">
        <ele>1430.8</ele>
        <time>2020-07-23T10:49:38.000Z</time>
      </trkpt>
      <trkpt lat="44.86198" lon="5.27088">
        <ele>1431.6</ele>
        <time>2020-07-23T10:49:47.000Z</time>
      </trkpt>
      <trkpt lat="44.86189" lon="5.27084">
        <ele>1432.6</ele>
        <time>2020-07-23T10:49:56.000Z</time>
      </trkpt>
      <trkpt lat="44.8618" lon="5.27081">
        <ele>1433.6</ele>
        <time>2020-07-23T10:50:05.000Z</time>
      </trkpt>
      <trkpt lat="44.8617" lon="5.27077">
        <ele>1434.5</ele>
        <time>2020-07-23T10:50:14.000Z</time>
      </trkpt>
      <trkpt lat="44.86161" lon="5.27073">
        <ele>1435.1</ele>
        <time>2020-07-23T10:50:22.000Z</time>
      </trkpt>
      <trkpt lat="44.86152" lon="5.27069">
        <ele>1435.7</ele>
        <time>2020-07-23T10:50:30.000Z</time>
      </trkpt>
      <trkpt lat="44.86144" lon="5.27067">
        <ele>1436.4</ele>
        <time>2020-07-23T10:50:38.000Z</time>
      </trkpt>
      <trkpt lat="44.86134" lon="5.27063">
        <ele>1437.3</ele>
        <time>2020-07-23T10:50:47.000Z</time>
      </trkpt>
      <trkpt lat="44.86125" lon="5.2706">
        <ele>1438.1</ele>
        <time>2020-07-23T10:50:55.000Z</time>
      </trkpt>
      <trkpt lat="44.86116" lon="5.27055">
        <ele>1439</ele>
        <time>2020-07-23T10:51:04.000Z</time>
      </trkpt>
      <trkpt lat="44.86107" lon="5.27052">
        <ele>1439.8</ele>
        <time>2020-07-23T10:51:12.000Z</time>
      </trkpt>
      <trkpt lat="44.86097" lon="5.27049">
        <ele>1440.7</ele>
        <time>2020-07-23T10:51:21.000Z</time>
      </trkpt>
      <trkpt lat="44.86088" lon="5.27045">
        <ele>1441.5</ele>
        <time>2020-07-23T10:51:29.000Z</time>
      </trkpt>
      <trkpt lat="44.86079" lon="5.27041">
        <ele>1442.6</ele>
        <time>2020-07-23T10:51:38.000Z</time>
      </trkpt>
      <trkpt lat="44.8607" lon="5.27037">
        <ele>1443.6</ele>
        <time>2020-07-23T10:51:47.000Z</time>
      </trkpt>
      <trkpt lat="44.86061" lon="5.27034">
        <ele>1444.6</ele>
        <time>2020-07-23T10:51:56.000Z</time>
      </trkpt>
      <trkpt lat="44.86051" lon="5.2703">
        <ele>1445.8</ele>
        <time>2020-07-23T10:52:05.000Z</time>
      </trkpt>
      <trkpt lat="44.86042" lon="5.27027">
        <ele>1447.1</ele>
        <time>2020-07-23T10:52:14.000Z</time>
      </trkpt>
      <trkpt lat="44.86032" lon="5.27023">
        <ele>1448.2</ele>
        <time>2020-07-23T10:52:23.000Z</time>
      </trkpt>
      <trkpt lat="44.86023" lon="5.27019">
        <ele>1449.5</ele>
        <time>2020-07-23T10:52:32.000Z</time>
      </trkpt>
      <trkpt lat="44.86014" lon="5.27014">
        <ele>1451.2</ele>
        <time>2020-07-23T10:52:43.000Z</time>
      </trkpt>
      <trkpt lat="44.86008" lon="5.27004">
        <ele>1452.6</ele>
        <time>2020-07-23T10:52:52.000Z</time>
      </trkpt>
      <trkpt lat="44.86002" lon="5.26993">
        <ele>1453.1</ele>
        <time>2020-07-23T10:53:00.000Z</time>
      </trkpt>
      <trkpt lat="44.85996" lon="5.26983">
        <ele>1453.3</ele>
        <time>2020-07-23T10:53:08.000Z</time>
      </trkpt>
      <trkpt lat="44.8599" lon="5.26973">
        <ele>1453.1</ele>
        <time>2020-07-23T10:53:16.000Z</time>
      </trkpt>
      <trkpt lat="44.85985" lon="5.26962">
        <ele>1452.4</ele>
        <time>2020-07-23T10:53:24.000Z</time>
      </trkpt>
      <trkpt lat="44.85979" lon="5.26952">
        <ele>1451.9</ele>
        <time>2020-07-23T10:53:33.000Z</time>
      </trkpt>
      <trkpt lat="44.85974" lon="5.26941">
        <ele>1451.7</ele>
        <time>2020-07-23T10:53:41.000Z</time>
      </trkpt>
      <trkpt lat="44.85968" lon="5.2693">
        <ele>1451.3</ele>
        <time>2020-07-23T10:53:49.000Z</time>
      </trkpt>
      <trkpt lat="44.85962" lon="5.26918">
        <ele>1451</ele>
        <time>2020-07-23T10:53:58.000Z</time>
      </trkpt>
      <trkpt lat="44.85956" lon="5.26908">
        <ele>1450.5</ele>
        <time>2020-07-23T10:54:06.000Z</time>
      </trkpt>
      <trkpt lat="44.85951" lon="5.26897">
        <ele>1450.1</ele>
        <time>2020-07-23T10:54:14.000Z</time>
      </trkpt>
      <trkpt lat="44.85945" lon="5.26886">
        <ele>1449.9</ele>
        <time>2020-07-23T10:54:22.000Z</time>
      </trkpt>
      <trkpt lat="44.85939" lon="5.26875">
        <ele>1450.4</ele>
        <time>2020-07-23T10:54:31.000Z</time>
      </trkpt>
      <trkpt lat="44.85933" lon="5.26864">
        <ele>1450.7</ele>
        <time>2020-07-23T10:54:40.000Z</time>
      </trkpt>
      <trkpt lat="44.85928" lon="5.26854">
        <ele>1450.9</ele>
        <time>2020-07-23T10:54:48.000Z</time>
      </trkpt>
      <trkpt lat="44.85922" lon="5.26842">
        <ele>1450.5</ele>
        <time>2020-07-23T10:54:56.000Z</time>
      </trkpt>
      <trkpt lat="44.85916" lon="5.26832">
        <ele>1450</ele>
        <time>2020-07-23T10:55:04.000Z</time>
      </trkpt>
      <trkpt lat="44.8591" lon="5.26821">
        <ele>1449.5</ele>
        <time>2020-07-23T10:55:12.000Z</time>
      </trkpt>
      <trkpt lat="44.85904" lon="5.26809">
        <ele>1449.2</ele>
        <time>2020-07-23T10:55:21.000Z</time>
      </trkpt>
      <trkpt lat="44.85899" lon="5.26799">
        <ele>1449.5</ele>
        <time>2020-07-23T10:55:29.000Z</time>
      </trkpt>
      <trkpt lat="44.85893" lon="5.26788">
        <ele>1450.4</ele>
        <time>2020-07-23T10:55:38.000Z</time>
      </trkpt>
      <trkpt lat="44.85887" lon="5.26776">
        <ele>1451.2</ele>
        <time>2020-07-23T10:55:47.000Z</time>
      </trkpt>
      <trkpt lat="44.85881" lon="5.26765">
        <ele>1452</ele>
        <time>2020-07-23T10:55:56.000Z</time>
      </trkpt>
      <trkpt lat="44.85876" lon="5.26753">
        <ele>1452.3</ele>
        <time>2020-07-23T10:56:05.000Z</time>
      </trkpt>
      <trkpt lat="44.85871" lon="5.26743">
        <ele>1452.9</ele>
        <time>2020-07-23T10:56:13.000Z</time>
      </trkpt>
      <trkpt lat="44.85866" lon="5.26731">
        <ele>1453.1</ele>
        <time>2020-07-23T10:56:22.000Z</time>
      </trkpt>
      <trkpt lat="44.85861" lon="5.26721">
        <ele>1453.5</ele>
        <time>2020-07-23T10:56:43.000Z</time>
      </trkpt>
      <trkpt lat="44.85856" lon="5.26709">
        <ele>1453.7</ele>
        <time>2020-07-23T10:56:53.000Z</time>
      </trkpt>
      <trkpt lat="44.8585" lon="5.26698">
        <ele>1453.7</ele>
        <time>2020-07-23T10:57:04.000Z</time>
      </trkpt>
      <trkpt lat="44.85845" lon="5.26686">
        <ele>1453.1</ele>
        <time>2020-07-23T10:57:14.000Z</time>
      </trkpt>
      <trkpt lat="44.85841" lon="5.26674">
        <ele>1451.7</ele>
        <time>2020-07-23T10:57:42.000Z</time>
      </trkpt>
      <trkpt lat="44.85835" lon="5.26664">
        <ele>1451.7</ele>
        <time>2020-07-23T10:57:51.000Z</time>
      </trkpt>
      <trkpt lat="44.8583" lon="5.26653">
        <ele>1451.2</ele>
        <time>2020-07-23T10:58:00.000Z</time>
      </trkpt>
      <trkpt lat="44.85825" lon="5.26641">
        <ele>1450.3</ele>
        <time>2020-07-23T10:58:09.000Z</time>
      </trkpt>
      <trkpt lat="44.85819" lon="5.26631">
        <ele>1449.2</ele>
        <time>2020-07-23T10:58:17.000Z</time>
      </trkpt>
      <trkpt lat="44.85814" lon="5.26619">
        <ele>1447.7</ele>
        <time>2020-07-23T10:58:25.000Z</time>
      </trkpt>
      <trkpt lat="44.85807" lon="5.26607">
        <ele>1445.7</ele>
        <time>2020-07-23T10:58:34.000Z</time>
      </trkpt>
      <trkpt lat="44.85802" lon="5.26596">
        <ele>1444.1</ele>
        <time>2020-07-23T10:58:42.000Z</time>
      </trkpt>
      <trkpt lat="44.85797" lon="5.26585">
        <ele>1442.5</ele>
        <time>2020-07-23T10:58:50.000Z</time>
      </trkpt>
      <trkpt lat="44.85793" lon="5.26573">
        <ele>1441</ele>
        <time>2020-07-23T10:58:58.000Z</time>
      </trkpt>
      <trkpt lat="44.85788" lon="5.26562">
        <ele>1439.7</ele>
        <time>2020-07-23T10:59:06.000Z</time>
      </trkpt>
      <trkpt lat="44.85783" lon="5.26551">
        <ele>1438.3</ele>
        <time>2020-07-23T10:59:14.000Z</time>
      </trkpt>
      <trkpt lat="44.85776" lon="5.26539">
        <ele>1437.2</ele>
        <time>2020-07-23T10:59:22.000Z</time>
      </trkpt>
      <trkpt lat="44.85771" lon="5.26528">
        <ele>1435.8</ele>
        <time>2020-07-23T10:59:30.000Z</time>
      </trkpt>
      <trkpt lat="44.85766" lon="5.26517">
        <ele>1434.7</ele>
        <time>2020-07-23T10:59:39.000Z</time>
      </trkpt>
      <trkpt lat="44.85762" lon="5.26503">
        <ele>1433.3</ele>
        <time>2020-07-23T10:59:49.000Z</time>
      </trkpt>
      <trkpt lat="44.85758" lon="5.26491">
        <ele>1431.7</ele>
        <time>2020-07-23T11:00:01.000Z</time>
      </trkpt>
      <trkpt lat="44.85754" lon="5.26479">
        <ele>1430.9</ele>
        <time>2020-07-23T11:00:10.000Z</time>
      </trkpt>
      <trkpt lat="44.8575" lon="5.26466">
        <ele>1429.6</ele>
        <time>2020-07-23T11:00:18.000Z</time>
      </trkpt>
      <trkpt lat="44.85746" lon="5.26454">
        <ele>1428.5</ele>
        <time>2020-07-23T11:00:27.000Z</time>
      </trkpt>
      <trkpt lat="44.85742" lon="5.26442">
        <ele>1427.2</ele>
        <time>2020-07-23T11:00:35.000Z</time>
      </trkpt>
      <trkpt lat="44.85739" lon="5.2643">
        <ele>1426.1</ele>
        <time>2020-07-23T11:00:43.000Z</time>
      </trkpt>
      <trkpt lat="44.85735" lon="5.26418">
        <ele>1424.7</ele>
        <time>2020-07-23T11:00:52.000Z</time>
      </trkpt>
      <trkpt lat="44.85732" lon="5.26405">
        <ele>1423.5</ele>
        <time>2020-07-23T11:01:00.000Z</time>
      </trkpt>
      <trkpt lat="44.85728" lon="5.26392">
        <ele>1422</ele>
        <time>2020-07-23T11:01:08.000Z</time>
      </trkpt>
      <trkpt lat="44.85722" lon="5.2638">
        <ele>1420.8</ele>
        <time>2020-07-23T11:01:16.000Z</time>
      </trkpt>
      <trkpt lat="44.85719" lon="5.26368">
        <ele>1419.6</ele>
        <time>2020-07-23T11:01:24.000Z</time>
      </trkpt>
      <trkpt lat="44.85716" lon="5.26356">
        <ele>1418.8</ele>
        <time>2020-07-23T11:01:31.000Z</time>
      </trkpt>
      <trkpt lat="44.85712" lon="5.26343">
        <ele>1417.8</ele>
        <time>2020-07-23T11:01:39.000Z</time>
      </trkpt>
      <trkpt lat="44.85708" lon="5.26331">
        <ele>1416.5</ele>
        <time>2020-07-23T11:02:21.000Z</time>
      </trkpt>
      <trkpt lat="44.857" lon="5.26328">
        <ele>1415.6</ele>
        <time>2020-07-23T11:14:24.000Z</time>
      </trkpt>
      <trkpt lat="44.85703" lon="5.26315">
        <ele>1416.3</ele>
        <time>2020-07-23T11:42:06.000Z</time>
      </trkpt>
      <trkpt lat="44.857" lon="5.26302">
        <ele>1415.9</ele>
        <time>2020-07-23T11:42:17.000Z</time>
      </trkpt>
      <trkpt lat="44.85698" lon="5.26289">
        <ele>1415.5</ele>
        <time>2020-07-23T11:42:26.000Z</time>
      </trkpt>
      <trkpt lat="44.85694" lon="5.26277">
        <ele>1415.4</ele>
        <time>2020-07-23T11:42:35.000Z</time>
      </trkpt>
      <trkpt lat="44.8569" lon="5.26264">
        <ele>1415.8</ele>
        <time>2020-07-23T11:42:45.000Z</time>
      </trkpt>
      <trkpt lat="44.85686" lon="5.26252">
        <ele>1416.5</ele>
        <time>2020-07-23T11:42:54.000Z</time>
      </trkpt>
      <trkpt lat="44.85682" lon="5.2624">
        <ele>1417.4</ele>
        <time>2020-07-23T11:43:03.000Z</time>
      </trkpt>
      <trkpt lat="44.85678" lon="5.26228">
        <ele>1417.8</ele>
        <time>2020-07-23T11:43:12.000Z</time>
      </trkpt>
      <trkpt lat="44.85674" lon="5.26216">
        <ele>1417.8</ele>
        <time>2020-07-23T11:43:21.000Z</time>
      </trkpt>
      <trkpt lat="44.85672" lon="5.26204">
        <ele>1417.4</ele>
        <time>2020-07-23T11:43:31.000Z</time>
      </trkpt>
      <trkpt lat="44.85667" lon="5.26193">
        <ele>1416</ele>
        <time>2020-07-23T11:43:43.000Z</time>
      </trkpt>
      <trkpt lat="44.85664" lon="5.2618">
        <ele>1413.9</ele>
        <time>2020-07-23T11:43:55.000Z</time>
      </trkpt>
      <trkpt lat="44.8566" lon="5.26168">
        <ele>1412.2</ele>
        <time>2020-07-23T11:44:03.000Z</time>
      </trkpt>
      <trkpt lat="44.85656" lon="5.26155">
        <ele>1410.9</ele>
        <time>2020-07-23T11:44:11.000Z</time>
      </trkpt>
      <trkpt lat="44.85652" lon="5.26143">
        <ele>1410.4</ele>
        <time>2020-07-23T11:44:18.000Z</time>
      </trkpt>
      <trkpt lat="44.85648" lon="5.2613">
        <ele>1409.8</ele>
        <time>2020-07-23T11:44:26.000Z</time>
      </trkpt>
      <trkpt lat="44.85645" lon="5.26118">
        <ele>1409</ele>
        <time>2020-07-23T11:44:34.000Z</time>
      </trkpt>
      <trkpt lat="44.8564" lon="5.26106">
        <ele>1408.7</ele>
        <time>2020-07-23T11:44:42.000Z</time>
      </trkpt>
      <trkpt lat="44.85636" lon="5.26094">
        <ele>1408.7</ele>
        <time>2020-07-23T11:44:50.000Z</time>
      </trkpt>
      <trkpt lat="44.85632" lon="5.26083">
        <ele>1409.4</ele>
        <time>2020-07-23T11:44:58.000Z</time>
      </trkpt>
      <trkpt lat="44.85628" lon="5.26072">
        <ele>1410.1</ele>
        <time>2020-07-23T11:45:06.000Z</time>
      </trkpt>
      <trkpt lat="44.8562" lon="5.26063">
        <ele>1411.2</ele>
        <time>2020-07-23T11:45:16.000Z</time>
      </trkpt>
      <trkpt lat="44.85612" lon="5.26055">
        <ele>1412.5</ele>
        <time>2020-07-23T11:45:26.000Z</time>
      </trkpt>
      <trkpt lat="44.85604" lon="5.26048">
        <ele>1413.9</ele>
        <time>2020-07-23T11:45:35.000Z</time>
      </trkpt>
      <trkpt lat="44.85596" lon="5.2604">
        <ele>1415.2</ele>
        <time>2020-07-23T11:45:44.000Z</time>
      </trkpt>
      <trkpt lat="44.85588" lon="5.26034">
        <ele>1416.3</ele>
        <time>2020-07-23T11:45:53.000Z</time>
      </trkpt>
      <trkpt lat="44.8558" lon="5.26025">
        <ele>1417</ele>
        <time>2020-07-23T11:46:02.000Z</time>
      </trkpt>
      <trkpt lat="44.85574" lon="5.26016">
        <ele>1417.6</ele>
        <time>2020-07-23T11:46:11.000Z</time>
      </trkpt>
      <trkpt lat="44.85566" lon="5.26007">
        <ele>1417.6</ele>
        <time>2020-07-23T11:46:20.000Z</time>
      </trkpt>
      <trkpt lat="44.85559" lon="5.26">
        <ele>1417.4</ele>
        <time>2020-07-23T11:46:28.000Z</time>
      </trkpt>
      <trkpt lat="44.85551" lon="5.25993">
        <ele>1416.7</ele>
        <time>2020-07-23T11:46:39.000Z</time>
      </trkpt>
      <trkpt lat="44.85547" lon="5.25981">
        <ele>1416.5</ele>
        <time>2020-07-23T11:47:58.000Z</time>
      </trkpt>
      <trkpt lat="44.8554" lon="5.25972">
        <ele>1415.7</ele>
        <time>2020-07-23T11:48:06.000Z</time>
      </trkpt>
      <trkpt lat="44.85532" lon="5.25965">
        <ele>1415.3</ele>
        <time>2020-07-23T11:48:14.000Z</time>
      </trkpt>
      <trkpt lat="44.85524" lon="5.2596">
        <ele>1415</ele>
        <time>2020-07-23T11:48:22.000Z</time>
      </trkpt>
      <trkpt lat="44.85515" lon="5.25954">
        <ele>1415.3</ele>
        <time>2020-07-23T11:48:30.000Z</time>
      </trkpt>
      <trkpt lat="44.85507" lon="5.25947">
        <ele>1415.5</ele>
        <time>2020-07-23T11:48:38.000Z</time>
      </trkpt>
      <trkpt lat="44.85499" lon="5.25942">
        <ele>1415.5</ele>
        <time>2020-07-23T11:48:46.000Z</time>
      </trkpt>
      <trkpt lat="44.8549" lon="5.25936">
        <ele>1415.5</ele>
        <time>2020-07-23T11:48:54.000Z</time>
      </trkpt>
      <trkpt lat="44.85482" lon="5.25929">
        <ele>1415.9</ele>
        <time>2020-07-23T11:49:03.000Z</time>
      </trkpt>
      <trkpt lat="44.85474" lon="5.25923">
        <ele>1416.1</ele>
        <time>2020-07-23T11:49:11.000Z</time>
      </trkpt>
      <trkpt lat="44.85465" lon="5.25916">
        <ele>1416.6</ele>
        <time>2020-07-23T11:49:19.000Z</time>
      </trkpt>
      <trkpt lat="44.85457" lon="5.2591">
        <ele>1416.9</ele>
        <time>2020-07-23T11:49:27.000Z</time>
      </trkpt>
      <trkpt lat="44.8545" lon="5.25903">
        <ele>1417.4</ele>
        <time>2020-07-23T11:49:35.000Z</time>
      </trkpt>
      <trkpt lat="44.85441" lon="5.25896">
        <ele>1418.3</ele>
        <time>2020-07-23T11:49:44.000Z</time>
      </trkpt>
      <trkpt lat="44.85432" lon="5.25889">
        <ele>1419</ele>
        <time>2020-07-23T11:49:53.000Z</time>
      </trkpt>
      <trkpt lat="44.85424" lon="5.25882">
        <ele>1419.5</ele>
        <time>2020-07-23T11:50:02.000Z</time>
      </trkpt>
      <trkpt lat="44.85416" lon="5.25875">
        <ele>1420</ele>
        <time>2020-07-23T11:50:11.000Z</time>
      </trkpt>
      <trkpt lat="44.85408" lon="5.25867">
        <ele>1420.9</ele>
        <time>2020-07-23T11:50:21.000Z</time>
      </trkpt>
      <trkpt lat="44.85401" lon="5.25859">
        <ele>1421.9</ele>
        <time>2020-07-23T11:50:30.000Z</time>
      </trkpt>
      <trkpt lat="44.85395" lon="5.25848">
        <ele>1423.1</ele>
        <time>2020-07-23T11:50:39.000Z</time>
      </trkpt>
      <trkpt lat="44.85389" lon="5.25837">
        <ele>1424.7</ele>
        <time>2020-07-23T11:50:48.000Z</time>
      </trkpt>
      <trkpt lat="44.85385" lon="5.25825">
        <ele>1426</ele>
        <time>2020-07-23T11:50:57.000Z</time>
      </trkpt>
      <trkpt lat="44.8538" lon="5.25814">
        <ele>1427.6</ele>
        <time>2020-07-23T11:51:06.000Z</time>
      </trkpt>
      <trkpt lat="44.85375" lon="5.25804">
        <ele>1429.6</ele>
        <time>2020-07-23T11:51:15.000Z</time>
      </trkpt>
      <trkpt lat="44.8537" lon="5.25794">
        <ele>1431.9</ele>
        <time>2020-07-23T11:51:25.000Z</time>
      </trkpt>
      <trkpt lat="44.85367" lon="5.25782">
        <ele>1433.7</ele>
        <time>2020-07-23T11:51:35.000Z</time>
      </trkpt>
      <trkpt lat="44.85363" lon="5.25768">
        <ele>1435.2</ele>
        <time>2020-07-23T11:51:44.000Z</time>
      </trkpt>
      <trkpt lat="44.85356" lon="5.25759">
        <ele>1438.4</ele>
        <time>2020-07-23T11:51:55.000Z</time>
      </trkpt>
      <trkpt lat="44.85349" lon="5.2575">
        <ele>1441.1</ele>
        <time>2020-07-23T11:52:05.000Z</time>
      </trkpt>
      <trkpt lat="44.85345" lon="5.25739">
        <ele>1445.5</ele>
        <time>2020-07-23T11:53:29.000Z</time>
      </trkpt>
      <trkpt lat="44.85353" lon="5.25731">
        <ele>1446.5</ele>
        <time>2020-07-23T11:55:51.000Z</time>
      </trkpt>
      <trkpt lat="44.8536" lon="5.25722">
        <ele>1446.6</ele>
        <time>2020-07-23T11:56:00.000Z</time>
      </trkpt>
      <trkpt lat="44.85367" lon="5.25713">
        <ele>1446.8</ele>
        <time>2020-07-23T11:56:08.000Z</time>
      </trkpt>
      <trkpt lat="44.85376" lon="5.25707">
        <ele>1446.8</ele>
        <time>2020-07-23T11:56:15.000Z</time>
      </trkpt>
      <trkpt lat="44.85382" lon="5.25698">
        <ele>1446.9</ele>
        <time>2020-07-23T11:56:23.000Z</time>
      </trkpt>
      <trkpt lat="44.8539" lon="5.2569">
        <ele>1447.1</ele>
        <time>2020-07-23T11:56:31.000Z</time>
      </trkpt>
      <trkpt lat="44.85397" lon="5.25681">
        <ele>1447.3</ele>
        <time>2020-07-23T11:56:39.000Z</time>
      </trkpt>
      <trkpt lat="44.85405" lon="5.25674">
        <ele>1447.9</ele>
        <time>2020-07-23T11:56:47.000Z</time>
      </trkpt>
      <trkpt lat="44.85412" lon="5.25666">
        <ele>1448.6</ele>
        <time>2020-07-23T11:56:55.000Z</time>
      </trkpt>
      <trkpt lat="44.85419" lon="5.25658">
        <ele>1449.1</ele>
        <time>2020-07-23T11:57:03.000Z</time>
      </trkpt>
      <trkpt lat="44.85427" lon="5.25649">
        <ele>1449.5</ele>
        <time>2020-07-23T11:57:11.000Z</time>
      </trkpt>
      <trkpt lat="44.85434" lon="5.25641">
        <ele>1450.2</ele>
        <time>2020-07-23T11:57:19.000Z</time>
      </trkpt>
      <trkpt lat="44.85441" lon="5.25633">
        <ele>1451</ele>
        <time>2020-07-23T11:57:27.000Z</time>
      </trkpt>
      <trkpt lat="44.85448" lon="5.25624">
        <ele>1451.7</ele>
        <time>2020-07-23T11:57:34.000Z</time>
      </trkpt>
      <trkpt lat="44.85456" lon="5.25615">
        <ele>1452.4</ele>
        <time>2020-07-23T11:57:38.000Z</time>
      </trkpt>
      <trkpt lat="44.85466" lon="5.2561">
        <ele>1454.3</ele>
        <time>2020-07-23T11:57:48.000Z</time>
      </trkpt>
      <trkpt lat="44.85474" lon="5.25603">
        <ele>1456.3</ele>
        <time>2020-07-23T11:58:01.000Z</time>
      </trkpt>
      <trkpt lat="44.85482" lon="5.25597">
        <ele>1458.1</ele>
        <time>2020-07-23T11:58:11.000Z</time>
      </trkpt>
      <trkpt lat="44.85492" lon="5.25592">
        <ele>1458.7</ele>
        <time>2020-07-23T11:58:19.000Z</time>
      </trkpt>
      <trkpt lat="44.855" lon="5.25588">
        <ele>1462.8</ele>
        <time>2020-07-23T11:58:28.000Z</time>
      </trkpt>
      <trkpt lat="44.8551" lon="5.25584">
        <ele>1466</ele>
        <time>2020-07-23T11:58:38.000Z</time>
      </trkpt>
      <trkpt lat="44.85519" lon="5.2558">
        <ele>1467.9</ele>
        <time>2020-07-23T11:58:47.000Z</time>
      </trkpt>
      <trkpt lat="44.85526" lon="5.25569">
        <ele>1470.5</ele>
        <time>2020-07-23T11:58:56.000Z</time>
      </trkpt>
      <trkpt lat="44.85535" lon="5.25566">
        <ele>1473</ele>
        <time>2020-07-23T11:59:04.000Z</time>
      </trkpt>
      <trkpt lat="44.85543" lon="5.25558">
        <ele>1476.4</ele>
        <time>2020-07-23T11:59:15.000Z</time>
      </trkpt>
      <trkpt lat="44.85549" lon="5.25548">
        <ele>1478</ele>
        <time>2020-07-23T11:59:24.000Z</time>
      </trkpt>
      <trkpt lat="44.85554" lon="5.25537">
        <ele>1480</ele>
        <time>2020-07-23T11:59:34.000Z</time>
      </trkpt>
      <trkpt lat="44.85561" lon="5.25527">
        <ele>1482.1</ele>
        <time>2020-07-23T11:59:44.000Z</time>
      </trkpt>
      <trkpt lat="44.85567" lon="5.25517">
        <ele>1484.1</ele>
        <time>2020-07-23T11:59:54.000Z</time>
      </trkpt>
      <trkpt lat="44.85569" lon="5.25504">
        <ele>1486.6</ele>
        <time>2020-07-23T12:02:42.000Z</time>
      </trkpt>
      <trkpt lat="44.85578" lon="5.25497">
        <ele>1487.9</ele>
        <time>2020-07-23T12:02:51.000Z</time>
      </trkpt>
      <trkpt lat="44.85584" lon="5.25487">
        <ele>1489.2</ele>
        <time>2020-07-23T12:03:00.000Z</time>
      </trkpt>
      <trkpt lat="44.85592" lon="5.25479">
        <ele>1490.3</ele>
        <time>2020-07-23T12:03:09.000Z</time>
      </trkpt>
      <trkpt lat="44.85598" lon="5.2547">
        <ele>1490.9</ele>
        <time>2020-07-23T12:03:19.000Z</time>
      </trkpt>
      <trkpt lat="44.85604" lon="5.2546">
        <ele>1491.9</ele>
        <time>2020-07-23T12:03:28.000Z</time>
      </trkpt>
      <trkpt lat="44.85612" lon="5.25453">
        <ele>1492.6</ele>
        <time>2020-07-23T12:03:37.000Z</time>
      </trkpt>
      <trkpt lat="44.85619" lon="5.25443">
        <ele>1493.6</ele>
        <time>2020-07-23T12:03:47.000Z</time>
      </trkpt>
      <trkpt lat="44.85623" lon="5.2543">
        <ele>1494.6</ele>
        <time>2020-07-23T12:03:57.000Z</time>
      </trkpt>
      <trkpt lat="44.85625" lon="5.25418">
        <ele>1496.9</ele>
        <time>2020-07-23T12:04:08.000Z</time>
      </trkpt>
      <trkpt lat="44.85632" lon="5.25407">
        <ele>1499.5</ele>
        <time>2020-07-23T12:04:21.000Z</time>
      </trkpt>
      <trkpt lat="44.8564" lon="5.254">
        <ele>1501</ele>
        <time>2020-07-23T12:04:30.000Z</time>
      </trkpt>
      <trkpt lat="44.85649" lon="5.25392">
        <ele>1502.4</ele>
        <time>2020-07-23T12:04:40.000Z</time>
      </trkpt>
      <trkpt lat="44.85657" lon="5.25385">
        <ele>1503.2</ele>
        <time>2020-07-23T12:04:49.000Z</time>
      </trkpt>
      <trkpt lat="44.85665" lon="5.25377">
        <ele>1503.6</ele>
        <time>2020-07-23T12:04:58.000Z</time>
      </trkpt>
      <trkpt lat="44.85673" lon="5.2537">
        <ele>1503.7</ele>
        <time>2020-07-23T12:05:06.000Z</time>
      </trkpt>
      <trkpt lat="44.8568" lon="5.25362">
        <ele>1504.2</ele>
        <time>2020-07-23T12:05:15.000Z</time>
      </trkpt>
      <trkpt lat="44.85688" lon="5.25355">
        <ele>1504.5</ele>
        <time>2020-07-23T12:05:24.000Z</time>
      </trkpt>
      <trkpt lat="44.85696" lon="5.25348">
        <ele>1505</ele>
        <time>2020-07-23T12:05:34.000Z</time>
      </trkpt>
      <trkpt lat="44.85705" lon="5.25343">
        <ele>1505.6</ele>
        <time>2020-07-23T12:05:44.000Z</time>
      </trkpt>
      <trkpt lat="44.85714" lon="5.25338">
        <ele>1506.5</ele>
        <time>2020-07-23T12:05:54.000Z</time>
      </trkpt>
      <trkpt lat="44.85723" lon="5.25334">
        <ele>1507.5</ele>
        <time>2020-07-23T12:06:04.000Z</time>
      </trkpt>
      <trkpt lat="44.85732" lon="5.25331">
        <ele>1508.3</ele>
        <time>2020-07-23T12:06:13.000Z</time>
      </trkpt>
      <trkpt lat="44.85742" lon="5.25328">
        <ele>1509.2</ele>
        <time>2020-07-23T12:06:23.000Z</time>
      </trkpt>
      <trkpt lat="44.8575" lon="5.25326">
        <ele>1510.1</ele>
        <time>2020-07-23T12:08:00.000Z</time>
      </trkpt>
      <trkpt lat="44.85759" lon="5.25326">
        <ele>1510.1</ele>
        <time>2020-07-23T12:13:28.000Z</time>
      </trkpt>
      <trkpt lat="44.85769" lon="5.25325">
        <ele>1509.3</ele>
        <time>2020-07-23T12:13:39.000Z</time>
      </trkpt>
      <trkpt lat="44.85779" lon="5.25324">
        <ele>1508.2</ele>
        <time>2020-07-23T12:13:48.000Z</time>
      </trkpt>
      <trkpt lat="44.85785" lon="5.25333">
        <ele>1506.6</ele>
        <time>2020-07-23T12:13:59.000Z</time>
      </trkpt>
      <trkpt lat="44.85792" lon="5.25343">
        <ele>1504.6</ele>
        <time>2020-07-23T12:14:10.000Z</time>
      </trkpt>
      <trkpt lat="44.85798" lon="5.25353">
        <ele>1502.1</ele>
        <time>2020-07-23T12:14:19.000Z</time>
      </trkpt>
      <trkpt lat="44.85806" lon="5.25358">
        <ele>1499.6</ele>
        <time>2020-07-23T12:14:27.000Z</time>
      </trkpt>
      <trkpt lat="44.85812" lon="5.25369">
        <ele>1497.3</ele>
        <time>2020-07-23T12:14:36.000Z</time>
      </trkpt>
      <trkpt lat="44.85821" lon="5.25374">
        <ele>1494.7</ele>
        <time>2020-07-23T12:14:45.000Z</time>
      </trkpt>
      <trkpt lat="44.85827" lon="5.25385">
        <ele>1492</ele>
        <time>2020-07-23T12:14:55.000Z</time>
      </trkpt>
      <trkpt lat="44.85833" lon="5.25395">
        <ele>1489.7</ele>
        <time>2020-07-23T12:15:04.000Z</time>
      </trkpt>
      <trkpt lat="44.85839" lon="5.25406">
        <ele>1486.7</ele>
        <time>2020-07-23T12:15:15.000Z</time>
      </trkpt>
      <trkpt lat="44.85844" lon="5.25417">
        <ele>1483.4</ele>
        <time>2020-07-23T12:15:26.000Z</time>
      </trkpt>
      <trkpt lat="44.85851" lon="5.25425">
        <ele>1480.6</ele>
        <time>2020-07-23T12:15:36.000Z</time>
      </trkpt>
      <trkpt lat="44.85856" lon="5.25436">
        <ele>1477.7</ele>
        <time>2020-07-23T12:15:46.000Z</time>
      </trkpt>
      <trkpt lat="44.85864" lon="5.25444">
        <ele>1474.6</ele>
        <time>2020-07-23T12:15:56.000Z</time>
      </trkpt>
      <trkpt lat="44.8587" lon="5.25452">
        <ele>1471.7</ele>
        <time>2020-07-23T12:16:07.000Z</time>
      </trkpt>
      <trkpt lat="44.85876" lon="5.25463">
        <ele>1469.6</ele>
        <time>2020-07-23T12:16:16.000Z</time>
      </trkpt>
      <trkpt lat="44.85881" lon="5.25473">
        <ele>1466.7</ele>
        <time>2020-07-23T12:16:26.000Z</time>
      </trkpt>
      <trkpt lat="44.85887" lon="5.25484">
        <ele>1462.4</ele>
        <time>2020-07-23T12:16:44.000Z</time>
      </trkpt>
      <trkpt lat="44.85895" lon="5.25492">
        <ele>1461.1</ele>
        <time>2020-07-23T12:16:53.000Z</time>
      </trkpt>
      <trkpt lat="44.85901" lon="5.25502">
        <ele>1459.5</ele>
        <time>2020-07-23T12:17:01.000Z</time>
      </trkpt>
      <trkpt lat="44.85908" lon="5.25511">
        <ele>1457.4</ele>
        <time>2020-07-23T12:17:10.000Z</time>
      </trkpt>
      <trkpt lat="44.85915" lon="5.25522">
        <ele>1455.8</ele>
        <time>2020-07-23T12:17:18.000Z</time>
      </trkpt>
      <trkpt lat="44.85922" lon="5.25532">
        <ele>1453.3</ele>
        <time>2020-07-23T12:17:27.000Z</time>
      </trkpt>
      <trkpt lat="44.85929" lon="5.2554">
        <ele>1451.3</ele>
        <time>2020-07-23T12:17:35.000Z</time>
      </trkpt>
      <trkpt lat="44.85935" lon="5.25552">
        <ele>1449.8</ele>
        <time>2020-07-23T12:17:43.000Z</time>
      </trkpt>
      <trkpt lat="44.85942" lon="5.25562">
        <ele>1447.9</ele>
        <time>2020-07-23T12:17:52.000Z</time>
      </trkpt>
      <trkpt lat="44.85948" lon="5.25573">
        <ele>1446.1</ele>
        <time>2020-07-23T12:18:00.000Z</time>
      </trkpt>
      <trkpt lat="44.85954" lon="5.25583">
        <ele>1444.4</ele>
        <time>2020-07-23T12:18:08.000Z</time>
      </trkpt>
      <trkpt lat="44.85961" lon="5.25592">
        <ele>1442.8</ele>
        <time>2020-07-23T12:18:16.000Z</time>
      </trkpt>
      <trkpt lat="44.85971" lon="5.25595">
        <ele>1440.9</ele>
        <time>2020-07-23T12:18:26.000Z</time>
      </trkpt>
      <trkpt lat="44.85972" lon="5.25582">
        <ele>1438.5</ele>
        <time>2020-07-23T12:19:53.000Z</time>
      </trkpt>
      <trkpt lat="44.8597" lon="5.25568">
        <ele>1438.8</ele>
        <time>2020-07-23T12:20:02.000Z</time>
      </trkpt>
      <trkpt lat="44.85969" lon="5.25554">
        <ele>1439.3</ele>
        <time>2020-07-23T12:20:11.000Z</time>
      </trkpt>
      <trkpt lat="44.85969" lon="5.2554">
        <ele>1440</ele>
        <time>2020-07-23T12:20:20.000Z</time>
      </trkpt>
      <trkpt lat="44.8597" lon="5.25527">
        <ele>1440.8</ele>
        <time>2020-07-23T12:20:28.000Z</time>
      </trkpt>
      <trkpt lat="44.85971" lon="5.25514">
        <ele>1441.2</ele>
        <time>2020-07-23T12:20:36.000Z</time>
      </trkpt>
      <trkpt lat="44.85971" lon="5.25501">
        <ele>1442.2</ele>
        <time>2020-07-23T12:20:45.000Z</time>
      </trkpt>
      <trkpt lat="44.85971" lon="5.25487">
        <ele>1443.4</ele>
        <time>2020-07-23T12:20:54.000Z</time>
      </trkpt>
      <trkpt lat="44.85973" lon="5.25474">
        <ele>1444.8</ele>
        <time>2020-07-23T12:21:02.000Z</time>
      </trkpt>
      <trkpt lat="44.85977" lon="5.25461">
        <ele>1446.6</ele>
        <time>2020-07-23T12:21:11.000Z</time>
      </trkpt>
      <trkpt lat="44.8598" lon="5.25449">
        <ele>1447.9</ele>
        <time>2020-07-23T12:21:19.000Z</time>
      </trkpt>
      <trkpt lat="44.85983" lon="5.25437">
        <ele>1449.4</ele>
        <time>2020-07-23T12:21:28.000Z</time>
      </trkpt>
      <trkpt lat="44.85986" lon="5.25424">
        <ele>1451.2</ele>
        <time>2020-07-23T12:21:37.000Z</time>
      </trkpt>
      <trkpt lat="44.8599" lon="5.25413">
        <ele>1453</ele>
        <time>2020-07-23T12:21:45.000Z</time>
      </trkpt>
      <trkpt lat="44.85991" lon="5.25399">
        <ele>1455.4</ele>
        <time>2020-07-23T12:21:55.000Z</time>
      </trkpt>
      <trkpt lat="44.85993" lon="5.25386">
        <ele>1457.7</ele>
        <time>2020-07-23T12:22:04.000Z</time>
      </trkpt>
      <trkpt lat="44.85998" lon="5.25375">
        <ele>1461.2</ele>
        <time>2020-07-23T12:22:13.000Z</time>
      </trkpt>
      <trkpt lat="44.86002" lon="5.25364">
        <ele>1463.8</ele>
        <time>2020-07-23T12:22:22.000Z</time>
      </trkpt>
      <trkpt lat="44.86007" lon="5.25352">
        <ele>1466.2</ele>
        <time>2020-07-23T12:22:32.000Z</time>
      </trkpt>
      <trkpt lat="44.8601" lon="5.2534">
        <ele>1468.5</ele>
        <time>2020-07-23T12:22:42.000Z</time>
      </trkpt>
      <trkpt lat="44.86014" lon="5.25328">
        <ele>1470.2</ele>
        <time>2020-07-23T12:22:51.000Z</time>
      </trkpt>
      <trkpt lat="44.86019" lon="5.25317">
        <ele>1472.1</ele>
        <time>2020-07-23T12:23:00.000Z</time>
      </trkpt>
      <trkpt lat="44.86025" lon="5.25306">
        <ele>1473.9</ele>
        <time>2020-07-23T12:23:10.000Z</time>
      </trkpt>
      <trkpt lat="44.8603" lon="5.25294">
        <ele>1475.9</ele>
        <time>2020-07-23T12:23:20.000Z</time>
      </trkpt>
      <trkpt lat="44.86034" lon="5.25283">
        <ele>1477.6</ele>
        <time>2020-07-23T12:23:29.000Z</time>
      </trkpt>
      <trkpt lat="44.86039" lon="5.25273">
        <ele>1479.5</ele>
        <time>2020-07-23T12:23:39.000Z</time>
      </trkpt>
      <trkpt lat="44.86046" lon="5.25262">
        <ele>1481</ele>
        <time>2020-07-23T12:23:49.000Z</time>
      </trkpt>
      <trkpt lat="44.86052" lon="5.25253">
        <ele>1482.5</ele>
        <time>2020-07-23T12:23:59.000Z</time>
      </trkpt>
      <trkpt lat="44.86059" lon="5.25244">
        <ele>1483.8</ele>
        <time>2020-07-23T12:24:08.000Z</time>
      </trkpt>
      <trkpt lat="44.86066" lon="5.25235">
        <ele>1484.5</ele>
        <time>2020-07-23T12:24:17.000Z</time>
      </trkpt>
      <trkpt lat="44.86073" lon="5.25226">
        <ele>1484.8</ele>
        <time>2020-07-23T12:24:26.000Z</time>
      </trkpt>
      <trkpt lat="44.86079" lon="5.25216">
        <ele>1484.6</ele>
        <time>2020-07-23T12:24:34.000Z</time>
      </trkpt>
      <trkpt lat="44.86086" lon="5.25205">
        <ele>1483.7</ele>
        <time>2020-07-23T12:24:43.000Z</time>
      </trkpt>
      <trkpt lat="44.86091" lon="5.25194">
        <ele>1482.9</ele>
        <time>2020-07-23T12:24:51.000Z</time>
      </trkpt>
      <trkpt lat="44.86096" lon="5.25182">
        <ele>1482.4</ele>
        <time>2020-07-23T12:24:59.000Z</time>
      </trkpt>
      <trkpt lat="44.86102" lon="5.25172">
        <ele>1482.1</ele>
        <time>2020-07-23T12:25:07.000Z</time>
      </trkpt>
      <trkpt lat="44.86107" lon="5.2516">
        <ele>1481.7</ele>
        <time>2020-07-23T12:25:15.000Z</time>
      </trkpt>
      <trkpt lat="44.86111" lon="5.25148">
        <ele>1481</ele>
        <time>2020-07-23T12:25:23.000Z</time>
      </trkpt>
      <trkpt lat="44.86116" lon="5.25137">
        <ele>1481.2</ele>
        <time>2020-07-23T12:25:31.000Z</time>
      </trkpt>
      <trkpt lat="44.8612" lon="5.25124">
        <ele>1481.3</ele>
        <time>2020-07-23T12:25:40.000Z</time>
      </trkpt>
      <trkpt lat="44.86125" lon="5.25112">
        <ele>1481.3</ele>
        <time>2020-07-23T12:25:48.000Z</time>
      </trkpt>
      <trkpt lat="44.86129" lon="5.25099">
        <ele>1481.2</ele>
        <time>2020-07-23T12:25:56.000Z</time>
      </trkpt>
      <trkpt lat="44.86131" lon="5.25087">
        <ele>1480.9</ele>
        <time>2020-07-23T12:26:05.000Z</time>
      </trkpt>
      <trkpt lat="44.86132" lon="5.25073">
        <ele>1481</ele>
        <time>2020-07-23T12:26:14.000Z</time>
      </trkpt>
      <trkpt lat="44.86143" lon="5.25075">
        <ele>1482.8</ele>
        <time>2020-07-23T12:29:38.000Z</time>
      </trkpt>
      <trkpt lat="44.8615" lon="5.25082">
        <ele>1481.9</ele>
        <time>2020-07-23T12:29:45.000Z</time>
      </trkpt>
      <trkpt lat="44.8616" lon="5.25079">
        <ele>1480.9</ele>
        <time>2020-07-23T12:29:51.000Z</time>
      </trkpt>
      <trkpt lat="44.86169" lon="5.25075">
        <ele>1479.9</ele>
        <time>2020-07-23T12:29:58.000Z</time>
      </trkpt>
      <trkpt lat="44.86178" lon="5.2507">
        <ele>1479.1</ele>
        <time>2020-07-23T12:30:06.000Z</time>
      </trkpt>
      <trkpt lat="44.86186" lon="5.25064">
        <ele>1478.6</ele>
        <time>2020-07-23T12:30:13.000Z</time>
      </trkpt>
      <trkpt lat="44.86195" lon="5.2506">
        <ele>1478</ele>
        <time>2020-07-23T12:30:21.000Z</time>
      </trkpt>
      <trkpt lat="44.86204" lon="5.25061">
        <ele>1477.1</ele>
        <time>2020-07-23T12:30:29.000Z</time>
      </trkpt>
      <trkpt lat="44.86213" lon="5.2506">
        <ele>1476.5</ele>
        <time>2020-07-23T12:30:36.000Z</time>
      </trkpt>
      <trkpt lat="44.86223" lon="5.25058">
        <ele>1476.1</ele>
        <time>2020-07-23T12:30:44.000Z</time>
      </trkpt>
      <trkpt lat="44.86232" lon="5.2506">
        <ele>1475.6</ele>
        <time>2020-07-23T12:30:51.000Z</time>
      </trkpt>
      <trkpt lat="44.86241" lon="5.25057">
        <ele>1474.9</ele>
        <time>2020-07-23T12:30:58.000Z</time>
      </trkpt>
      <trkpt lat="44.8625" lon="5.25057">
        <ele>1474.5</ele>
        <time>2020-07-23T12:31:06.000Z</time>
      </trkpt>
      <trkpt lat="44.8626" lon="5.25058">
        <ele>1474.3</ele>
        <time>2020-07-23T12:31:14.000Z</time>
      </trkpt>
      <trkpt lat="44.86269" lon="5.25055">
        <ele>1474</ele>
        <time>2020-07-23T12:31:23.000Z</time>
      </trkpt>
      <trkpt lat="44.86277" lon="5.25048">
        <ele>1472.8</ele>
        <time>2020-07-23T12:31:34.000Z</time>
      </trkpt>
      <trkpt lat="44.86286" lon="5.2505">
        <ele>1470.8</ele>
        <time>2020-07-23T12:33:42.000Z</time>
      </trkpt>
      <trkpt lat="44.86296" lon="5.25047">
        <ele>1469.9</ele>
        <time>2020-07-23T12:33:52.000Z</time>
      </trkpt>
      <trkpt lat="44.86305" lon="5.25043">
        <ele>1469</ele>
        <time>2020-07-23T12:33:59.000Z</time>
      </trkpt>
      <trkpt lat="44.86314" lon="5.25039">
        <ele>1467.9</ele>
        <time>2020-07-23T12:34:08.000Z</time>
      </trkpt>
      <trkpt lat="44.86325" lon="5.25038">
        <ele>1466.7</ele>
        <time>2020-07-23T12:34:17.000Z</time>
      </trkpt>
      <trkpt lat="44.86334" lon="5.25035">
        <ele>1465.7</ele>
        <time>2020-07-23T12:34:25.000Z</time>
      </trkpt>
      <trkpt lat="44.86343" lon="5.2503">
        <ele>1464.6</ele>
        <time>2020-07-23T12:34:33.000Z</time>
      </trkpt>
      <trkpt lat="44.86352" lon="5.25026">
        <ele>1463.6</ele>
        <time>2020-07-23T12:34:41.000Z</time>
      </trkpt>
      <trkpt lat="44.86361" lon="5.25023">
        <ele>1462.6</ele>
        <time>2020-07-23T12:34:46.000Z</time>
      </trkpt>
      <trkpt lat="44.86369" lon="5.25018">
        <ele>1461.3</ele>
        <time>2020-07-23T12:34:53.000Z</time>
      </trkpt>
      <trkpt lat="44.86379" lon="5.25012">
        <ele>1460.2</ele>
        <time>2020-07-23T12:35:01.000Z</time>
      </trkpt>
      <trkpt lat="44.86387" lon="5.25006">
        <ele>1459.3</ele>
        <time>2020-07-23T12:35:08.000Z</time>
      </trkpt>
      <trkpt lat="44.86394" lon="5.24997">
        <ele>1457.8</ele>
        <time>2020-07-23T12:35:17.000Z</time>
      </trkpt>
      <trkpt lat="44.86389" lon="5.24983">
        <ele>1456.2</ele>
        <time>2020-07-23T12:35:26.000Z</time>
      </trkpt>
      <trkpt lat="44.86392" lon="5.24971">
        <ele>1453.1</ele>
        <time>2020-07-23T12:35:39.000Z</time>
      </trkpt>
      <trkpt lat="44.864" lon="5.24965">
        <ele>1450.7</ele>
        <time>2020-07-23T12:35:49.000Z</time>
      </trkpt>
      <trkpt lat="44.86395" lon="5.24953">
        <ele>1448.9</ele>
        <time>2020-07-23T12:35:57.000Z</time>
      </trkpt>
      <trkpt lat="44.86404" lon="5.24948">
        <ele>1445.8</ele>
        <time>2020-07-23T12:36:09.000Z</time>
      </trkpt>
      <trkpt lat="44.86406" lon="5.24936">
        <ele>1443</ele>
        <time>2020-07-23T12:36:22.000Z</time>
      </trkpt>
      <trkpt lat="44.864" lon="5.24925">
        <ele>1441.4</ele>
        <time>2020-07-23T12:36:30.000Z</time>
      </trkpt>
      <trkpt lat="44.86399" lon="5.24912">
        <ele>1439</ele>
        <time>2020-07-23T12:36:40.000Z</time>
      </trkpt>
      <trkpt lat="44.86396" lon="5.24899">
        <ele>1436.5</ele>
        <time>2020-07-23T12:36:50.000Z</time>
      </trkpt>
      <trkpt lat="44.864" lon="5.24887">
        <ele>1433.8</ele>
        <time>2020-07-23T12:37:01.000Z</time>
      </trkpt>
      <trkpt lat="44.86408" lon="5.2488">
        <ele>1431.6</ele>
        <time>2020-07-23T12:37:10.000Z</time>
      </trkpt>
      <trkpt lat="44.86411" lon="5.24867">
        <ele>1429.7</ele>
        <time>2020-07-23T12:37:19.000Z</time>
      </trkpt>
      <trkpt lat="44.8641" lon="5.24855">
        <ele>1427.3</ele>
        <time>2020-07-23T12:37:29.000Z</time>
      </trkpt>
      <trkpt lat="44.86417" lon="5.24846">
        <ele>1425.3</ele>
        <time>2020-07-23T12:37:38.000Z</time>
      </trkpt>
      <trkpt lat="44.86425" lon="5.24839">
        <ele>1423.8</ele>
        <time>2020-07-23T12:37:46.000Z</time>
      </trkpt>
      <trkpt lat="44.86433" lon="5.24832">
        <ele>1421.6</ele>
        <time>2020-07-23T12:37:55.000Z</time>
      </trkpt>
      <trkpt lat="44.8644" lon="5.24823">
        <ele>1420.1</ele>
        <time>2020-07-23T12:38:05.000Z</time>
      </trkpt>
      <trkpt lat="44.86447" lon="5.24813">
        <ele>1418</ele>
        <time>2020-07-23T12:38:13.000Z</time>
      </trkpt>
      <trkpt lat="44.86449" lon="5.24801">
        <ele>1416.3</ele>
        <time>2020-07-23T12:38:21.000Z</time>
      </trkpt>
      <trkpt lat="44.8645" lon="5.24787">
        <ele>1414.3</ele>
        <time>2020-07-23T12:38:29.000Z</time>
      </trkpt>
      <trkpt lat="44.86454" lon="5.24775">
        <ele>1412.9</ele>
        <time>2020-07-23T12:38:36.000Z</time>
      </trkpt>
      <trkpt lat="44.86457" lon="5.24761">
        <ele>1411.2</ele>
        <time>2020-07-23T12:38:44.000Z</time>
      </trkpt>
      <trkpt lat="44.86463" lon="5.24751">
        <ele>1410</ele>
        <time>2020-07-23T12:38:51.000Z</time>
      </trkpt>
      <trkpt lat="44.86468" lon="5.24739">
        <ele>1408.9</ele>
        <time>2020-07-23T12:38:58.000Z</time>
      </trkpt>
      <trkpt lat="44.8647" lon="5.24725">
        <ele>1406.9</ele>
        <time>2020-07-23T12:39:06.000Z</time>
      </trkpt>
      <trkpt lat="44.86475" lon="5.24714">
        <ele>1403.6</ele>
        <time>2020-07-23T12:39:14.000Z</time>
      </trkpt>
      <trkpt lat="44.86478" lon="5.24702">
        <ele>1408.1</ele>
        <time>2020-07-23T12:39:20.000Z</time>
      </trkpt>
      <trkpt lat="44.86481" lon="5.24689">
        <ele>1405</ele>
        <time>2020-07-23T12:39:29.000Z</time>
      </trkpt>
      <trkpt lat="44.86486" lon="5.24677">
        <ele>1404.4</ele>
        <time>2020-07-23T12:39:37.000Z</time>
      </trkpt>
      <trkpt lat="44.86492" lon="5.24666">
        <ele>1404.2</ele>
        <time>2020-07-23T12:39:45.000Z</time>
      </trkpt>
      <trkpt lat="44.86494" lon="5.24653">
        <ele>1404.1</ele>
        <time>2020-07-23T12:39:53.000Z</time>
      </trkpt>
      <trkpt lat="44.865" lon="5.24642">
        <ele>1404.1</ele>
        <time>2020-07-23T12:40:00.000Z</time>
      </trkpt>
      <trkpt lat="44.86505" lon="5.2463">
        <ele>1403.9</ele>
        <time>2020-07-23T12:40:08.000Z</time>
      </trkpt>
      <trkpt lat="44.8651" lon="5.24619">
        <ele>1403.7</ele>
        <time>2020-07-23T12:40:15.000Z</time>
      </trkpt>
      <trkpt lat="44.86516" lon="5.24609">
        <ele>1403.7</ele>
        <time>2020-07-23T12:40:22.000Z</time>
      </trkpt>
      <trkpt lat="44.86521" lon="5.24597">
        <ele>1403.6</ele>
        <time>2020-07-23T12:40:30.000Z</time>
      </trkpt>
      <trkpt lat="44.86526" lon="5.24585">
        <ele>1403.4</ele>
        <time>2020-07-23T12:40:37.000Z</time>
      </trkpt>
      <trkpt lat="44.86531" lon="5.24573">
        <ele>1402.9</ele>
        <time>2020-07-23T12:40:45.000Z</time>
      </trkpt>
      <trkpt lat="44.86536" lon="5.24562">
        <ele>1402.6</ele>
        <time>2020-07-23T12:40:52.000Z</time>
      </trkpt>
      <trkpt lat="44.86541" lon="5.2455">
        <ele>1402.3</ele>
        <time>2020-07-23T12:40:59.000Z</time>
      </trkpt>
      <trkpt lat="44.86547" lon="5.24539">
        <ele>1401.7</ele>
        <time>2020-07-23T12:41:06.000Z</time>
      </trkpt>
      <trkpt lat="44.86552" lon="5.24528">
        <ele>1400.8</ele>
        <time>2020-07-23T12:41:13.000Z</time>
      </trkpt>
      <trkpt lat="44.86555" lon="5.24515">
        <ele>1400</ele>
        <time>2020-07-23T12:41:21.000Z</time>
      </trkpt>
      <trkpt lat="44.8656" lon="5.24504">
        <ele>1399.5</ele>
        <time>2020-07-23T12:41:28.000Z</time>
      </trkpt>
      <trkpt lat="44.86565" lon="5.24493">
        <ele>1399.3</ele>
        <time>2020-07-23T12:41:35.000Z</time>
      </trkpt>
      <trkpt lat="44.86569" lon="5.24481">
        <ele>1398.7</ele>
        <time>2020-07-23T12:41:43.000Z</time>
      </trkpt>
      <trkpt lat="44.86575" lon="5.2447">
        <ele>1398.1</ele>
        <time>2020-07-23T12:41:51.000Z</time>
      </trkpt>
      <trkpt lat="44.86581" lon="5.24458">
        <ele>1397</ele>
        <time>2020-07-23T12:41:59.000Z</time>
      </trkpt>
      <trkpt lat="44.86585" lon="5.24446">
        <ele>1396.2</ele>
        <time>2020-07-23T12:42:06.000Z</time>
      </trkpt>
      <trkpt lat="44.86589" lon="5.24435">
        <ele>1395.3</ele>
        <time>2020-07-23T12:42:13.000Z</time>
      </trkpt>
      <trkpt lat="44.86583" lon="5.24425">
        <ele>1394.2</ele>
        <time>2020-07-23T12:42:59.000Z</time>
      </trkpt>
      <trkpt lat="44.86589" lon="5.24415">
        <ele>1395.4</ele>
        <time>2020-07-23T12:44:30.000Z</time>
      </trkpt>
      <trkpt lat="44.86596" lon="5.24405">
        <ele>1396.1</ele>
        <time>2020-07-23T12:44:41.000Z</time>
      </trkpt>
      <trkpt lat="44.86602" lon="5.24394">
        <ele>1397.2</ele>
        <time>2020-07-23T12:44:53.000Z</time>
      </trkpt>
      <trkpt lat="44.86608" lon="5.24382">
        <ele>1397.2</ele>
        <time>2020-07-23T12:45:02.000Z</time>
      </trkpt>
      <trkpt lat="44.86614" lon="5.24372">
        <ele>1396.5</ele>
        <time>2020-07-23T12:45:10.000Z</time>
      </trkpt>
      <trkpt lat="44.8662" lon="5.24363">
        <ele>1395.8</ele>
        <time>2020-07-23T12:45:18.000Z</time>
      </trkpt>
      <trkpt lat="44.86627" lon="5.24354">
        <ele>1395.1</ele>
        <time>2020-07-23T12:45:26.000Z</time>
      </trkpt>
      <trkpt lat="44.86634" lon="5.24345">
        <ele>1394.5</ele>
        <time>2020-07-23T12:45:34.000Z</time>
      </trkpt>
      <trkpt lat="44.86641" lon="5.24335">
        <ele>1393.8</ele>
        <time>2020-07-23T12:45:42.000Z</time>
      </trkpt>
      <trkpt lat="44.86649" lon="5.24325">
        <ele>1393.2</ele>
        <time>2020-07-23T12:45:50.000Z</time>
      </trkpt>
      <trkpt lat="44.86656" lon="5.24315">
        <ele>1392.9</ele>
        <time>2020-07-23T12:45:58.000Z</time>
      </trkpt>
      <trkpt lat="44.86663" lon="5.24305">
        <ele>1392.7</ele>
        <time>2020-07-23T12:46:06.000Z</time>
      </trkpt>
      <trkpt lat="44.86669" lon="5.24295">
        <ele>1392.4</ele>
        <time>2020-07-23T12:46:14.000Z</time>
      </trkpt>
      <trkpt lat="44.86677" lon="5.24285">
        <ele>1392.2</ele>
        <time>2020-07-23T12:46:22.000Z</time>
      </trkpt>
      <trkpt lat="44.86684" lon="5.24275">
        <ele>1391.7</ele>
        <time>2020-07-23T12:46:30.000Z</time>
      </trkpt>
      <trkpt lat="44.86691" lon="5.24266">
        <ele>1391.5</ele>
        <time>2020-07-23T12:46:37.000Z</time>
      </trkpt>
      <trkpt lat="44.86698" lon="5.24257">
        <ele>1391.1</ele>
        <time>2020-07-23T12:46:45.000Z</time>
      </trkpt>
      <trkpt lat="44.86705" lon="5.24247">
        <ele>1390.9</ele>
        <time>2020-07-23T12:46:53.000Z</time>
      </trkpt>
      <trkpt lat="44.86711" lon="5.24238">
        <ele>1390.4</ele>
        <time>2020-07-23T12:47:28.000Z</time>
      </trkpt>
      <trkpt lat="44.8672" lon="5.24234">
        <ele>1390.5</ele>
        <time>2020-07-23T12:47:45.000Z</time>
      </trkpt>
      <trkpt lat="44.8673" lon="5.24231">
        <ele>1390.1</ele>
        <time>2020-07-23T12:47:53.000Z</time>
      </trkpt>
      <trkpt lat="44.8674" lon="5.24228">
        <ele>1389.7</ele>
        <time>2020-07-23T12:48:01.000Z</time>
      </trkpt>
      <trkpt lat="44.86749" lon="5.24228">
        <ele>1389</ele>
        <time>2020-07-23T12:48:10.000Z</time>
      </trkpt>
      <trkpt lat="44.86758" lon="5.2423">
        <ele>1388.3</ele>
        <time>2020-07-23T12:48:19.000Z</time>
      </trkpt>
      <trkpt lat="44.86768" lon="5.24233">
        <ele>1387.1</ele>
        <time>2020-07-23T12:48:29.000Z</time>
      </trkpt>
      <trkpt lat="44.86777" lon="5.24234">
        <ele>1384.5</ele>
        <time>2020-07-23T12:48:42.000Z</time>
      </trkpt>
      <trkpt lat="44.86787" lon="5.24237">
        <ele>1382.7</ele>
        <time>2020-07-23T12:48:52.000Z</time>
      </trkpt>
      <trkpt lat="44.86796" lon="5.24239">
        <ele>1380.9</ele>
        <time>2020-07-23T12:49:02.000Z</time>
      </trkpt>
      <trkpt lat="44.86805" lon="5.24238">
        <ele>1379.1</ele>
        <time>2020-07-23T12:49:13.000Z</time>
      </trkpt>
      <trkpt lat="44.86815" lon="5.24239">
        <ele>1377.3</ele>
        <time>2020-07-23T12:49:26.000Z</time>
      </trkpt>
      <trkpt lat="44.86824" lon="5.2424">
        <ele>1375.4</ele>
        <time>2020-07-23T12:49:38.000Z</time>
      </trkpt>
      <trkpt lat="44.86834" lon="5.2424">
        <ele>1373.2</ele>
        <time>2020-07-23T12:49:48.000Z</time>
      </trkpt>
      <trkpt lat="44.86843" lon="5.24236">
        <ele>1371.4</ele>
        <time>2020-07-23T12:49:56.000Z</time>
      </trkpt>
      <trkpt lat="44.86851" lon="5.24231">
        <ele>1369.8</ele>
        <time>2020-07-23T12:50:04.000Z</time>
      </trkpt>
      <trkpt lat="44.86861" lon="5.24226">
        <ele>1368.8</ele>
        <time>2020-07-23T12:50:13.000Z</time>
      </trkpt>
      <trkpt lat="44.8687" lon="5.24222">
        <ele>1367.9</ele>
        <time>2020-07-23T12:50:21.000Z</time>
      </trkpt>
      <trkpt lat="44.86879" lon="5.24217">
        <ele>1367.1</ele>
        <time>2020-07-23T12:50:30.000Z</time>
      </trkpt>
      <trkpt lat="44.86888" lon="5.24211">
        <ele>1366.6</ele>
        <time>2020-07-23T12:50:39.000Z</time>
      </trkpt>
      <trkpt lat="44.86896" lon="5.24206">
        <ele>1366.2</ele>
        <time>2020-07-23T12:50:47.000Z</time>
      </trkpt>
      <trkpt lat="44.86905" lon="5.24202">
        <ele>1366.2</ele>
        <time>2020-07-23T12:50:55.000Z</time>
      </trkpt>
      <trkpt lat="44.86914" lon="5.24197">
        <ele>1366</ele>
        <time>2020-07-23T12:51:04.000Z</time>
      </trkpt>
      <trkpt lat="44.86923" lon="5.24192">
        <ele>1365.7</ele>
        <time>2020-07-23T12:51:14.000Z</time>
      </trkpt>
      <trkpt lat="44.86933" lon="5.24188">
        <ele>1365.3</ele>
        <time>2020-07-23T12:51:23.000Z</time>
      </trkpt>
      <trkpt lat="44.86942" lon="5.24186">
        <ele>1364.8</ele>
        <time>2020-07-23T12:51:33.000Z</time>
      </trkpt>
      <trkpt lat="44.86951" lon="5.24181">
        <ele>1364</ele>
        <time>2020-07-23T12:51:43.000Z</time>
      </trkpt>
      <trkpt lat="44.8696" lon="5.24177">
        <ele>1363.1</ele>
        <time>2020-07-23T12:51:53.000Z</time>
      </trkpt>
      <trkpt lat="44.86969" lon="5.24174">
        <ele>1361.3</ele>
        <time>2020-07-23T12:52:28.000Z</time>
      </trkpt>
      <trkpt lat="44.86978" lon="5.24171">
        <ele>1360.8</ele>
        <time>2020-07-23T12:52:36.000Z</time>
      </trkpt>
      <trkpt lat="44.86987" lon="5.24168">
        <ele>1360.2</ele>
        <time>2020-07-23T12:52:45.000Z</time>
      </trkpt>
      <trkpt lat="44.86997" lon="5.24167">
        <ele>1359.4</ele>
        <time>2020-07-23T12:52:53.000Z</time>
      </trkpt>
      <trkpt lat="44.87006" lon="5.24167">
        <ele>1358.6</ele>
        <time>2020-07-23T12:53:02.000Z</time>
      </trkpt>
      <trkpt lat="44.87016" lon="5.24167">
        <ele>1357.6</ele>
        <time>2020-07-23T12:53:11.000Z</time>
      </trkpt>
      <trkpt lat="44.87025" lon="5.24166">
        <ele>1356.7</ele>
        <time>2020-07-23T12:53:19.000Z</time>
      </trkpt>
      <trkpt lat="44.87035" lon="5.24166">
        <ele>1355.6</ele>
        <time>2020-07-23T12:53:28.000Z</time>
      </trkpt>
      <trkpt lat="44.87044" lon="5.24165">
        <ele>1354.4</ele>
        <time>2020-07-23T12:53:36.000Z</time>
      </trkpt>
      <trkpt lat="44.87053" lon="5.24165">
        <ele>1353.2</ele>
        <time>2020-07-23T12:53:46.000Z</time>
      </trkpt>
      <trkpt lat="44.87062" lon="5.24163">
        <ele>1352</ele>
        <time>2020-07-23T12:53:55.000Z</time>
      </trkpt>
      <trkpt lat="44.87072" lon="5.24163">
        <ele>1351.1</ele>
        <time>2020-07-23T12:54:04.000Z</time>
      </trkpt>
      <trkpt lat="44.87081" lon="5.24164">
        <ele>1350.2</ele>
        <time>2020-07-23T12:54:13.000Z</time>
      </trkpt>
      <trkpt lat="44.8709" lon="5.24164">
        <ele>1349.3</ele>
        <time>2020-07-23T12:54:22.000Z</time>
      </trkpt>
      <trkpt lat="44.87099" lon="5.24162">
        <ele>1348.3</ele>
        <time>2020-07-23T12:54:31.000Z</time>
      </trkpt>
      <trkpt lat="44.87108" lon="5.24161">
        <ele>1347</ele>
        <time>2020-07-23T12:54:41.000Z</time>
      </trkpt>
      <trkpt lat="44.87118" lon="5.24159">
        <ele>1345.7</ele>
        <time>2020-07-23T12:54:51.000Z</time>
      </trkpt>
      <trkpt lat="44.87127" lon="5.24158">
        <ele>1343.6</ele>
        <time>2020-07-23T12:55:04.000Z</time>
      </trkpt>
      <trkpt lat="44.87136" lon="5.24158">
        <ele>1341.7</ele>
        <time>2020-07-23T12:55:16.000Z</time>
      </trkpt>
      <trkpt lat="44.87146" lon="5.24157">
        <ele>1338.8</ele>
        <time>2020-07-23T12:55:30.000Z</time>
      </trkpt>
      <trkpt lat="44.87156" lon="5.24155">
        <ele>1336.3</ele>
        <time>2020-07-23T12:55:40.000Z</time>
      </trkpt>
      <trkpt lat="44.87163" lon="5.24147">
        <ele>1333.7</ele>
        <time>2020-07-23T12:56:08.000Z</time>
      </trkpt>
      <trkpt lat="44.87173" lon="5.24145">
        <ele>1332.3</ele>
        <time>2020-07-23T12:56:20.000Z</time>
      </trkpt>
      <trkpt lat="44.87183" lon="5.24142">
        <ele>1329.7</ele>
        <time>2020-07-23T12:56:43.000Z</time>
      </trkpt>
      <trkpt lat="44.87191" lon="5.24137">
        <ele>1328</ele>
        <time>2020-07-23T12:56:54.000Z</time>
      </trkpt>
      <trkpt lat="44.872" lon="5.24132">
        <ele>1326.7</ele>
        <time>2020-07-23T12:57:03.000Z</time>
      </trkpt>
      <trkpt lat="44.87208" lon="5.24126">
        <ele>1325.3</ele>
        <time>2020-07-23T12:57:12.000Z</time>
      </trkpt>
      <trkpt lat="44.87217" lon="5.24121">
        <ele>1323.2</ele>
        <time>2020-07-23T12:57:25.000Z</time>
      </trkpt>
      <trkpt lat="44.87226" lon="5.24117">
        <ele>1321.7</ele>
        <time>2020-07-23T12:57:35.000Z</time>
      </trkpt>
      <trkpt lat="44.87235" lon="5.24111">
        <ele>1320.9</ele>
        <time>2020-07-23T12:57:43.000Z</time>
      </trkpt>
      <trkpt lat="44.87243" lon="5.24106">
        <ele>1320.4</ele>
        <time>2020-07-23T12:57:51.000Z</time>
      </trkpt>
      <trkpt lat="44.87252" lon="5.24101">
        <ele>1320</ele>
        <time>2020-07-23T12:57:59.000Z</time>
      </trkpt>
      <trkpt lat="44.87262" lon="5.24097">
        <ele>1319.7</ele>
        <time>2020-07-23T12:58:07.000Z</time>
      </trkpt>
      <trkpt lat="44.87271" lon="5.24097">
        <ele>1319.5</ele>
        <time>2020-07-23T12:58:15.000Z</time>
      </trkpt>
      <trkpt lat="44.8728" lon="5.24096">
        <ele>1319.4</ele>
        <time>2020-07-23T12:58:23.000Z</time>
      </trkpt>
      <trkpt lat="44.8729" lon="5.24096">
        <ele>1319.4</ele>
        <time>2020-07-23T12:58:32.000Z</time>
      </trkpt>
      <trkpt lat="44.87299" lon="5.24097">
        <ele>1319.6</ele>
        <time>2020-07-23T12:58:40.000Z</time>
      </trkpt>
      <trkpt lat="44.87309" lon="5.24097">
        <ele>1319.9</ele>
        <time>2020-07-23T12:58:48.000Z</time>
      </trkpt>
      <trkpt lat="44.87318" lon="5.24099">
        <ele>1320.5</ele>
        <time>2020-07-23T12:58:57.000Z</time>
      </trkpt>
      <trkpt lat="44.87327" lon="5.24105">
        <ele>1321.4</ele>
        <time>2020-07-23T12:59:06.000Z</time>
      </trkpt>
      <trkpt lat="44.87336" lon="5.2411">
        <ele>1322.2</ele>
        <time>2020-07-23T12:59:16.000Z</time>
      </trkpt>
      <trkpt lat="44.87345" lon="5.2411">
        <ele>1322.6</ele>
        <time>2020-07-23T12:59:25.000Z</time>
      </trkpt>
      <trkpt lat="44.87355" lon="5.24111">
        <ele>1322.4</ele>
        <time>2020-07-23T12:59:33.000Z</time>
      </trkpt>
      <trkpt lat="44.87364" lon="5.24112">
        <ele>1322.3</ele>
        <time>2020-07-23T12:59:42.000Z</time>
      </trkpt>
      <trkpt lat="44.87374" lon="5.24114">
        <ele>1322.5</ele>
        <time>2020-07-23T12:59:51.000Z</time>
      </trkpt>
      <trkpt lat="44.87383" lon="5.24115">
        <ele>1323.1</ele>
        <time>2020-07-23T13:00:01.000Z</time>
      </trkpt>
      <trkpt lat="44.87393" lon="5.24115">
        <ele>1323.1</ele>
        <time>2020-07-23T13:00:10.000Z</time>
      </trkpt>
      <trkpt lat="44.87401" lon="5.24111">
        <ele>1323.4</ele>
        <time>2020-07-23T13:00:19.000Z</time>
      </trkpt>
      <trkpt lat="44.8741" lon="5.24106">
        <ele>1324.4</ele>
        <time>2020-07-23T13:00:29.000Z</time>
      </trkpt>
      <trkpt lat="44.87419" lon="5.24101">
        <ele>1325.6</ele>
        <time>2020-07-23T13:00:39.000Z</time>
      </trkpt>
      <trkpt lat="44.87429" lon="5.24097">
        <ele>1326.8</ele>
        <time>2020-07-23T13:00:49.000Z</time>
      </trkpt>
      <trkpt lat="44.87438" lon="5.24092">
        <ele>1328.2</ele>
        <time>2020-07-23T13:00:58.000Z</time>
      </trkpt>
      <trkpt lat="44.87446" lon="5.24086">
        <ele>1329</ele>
        <time>2020-07-23T13:01:06.000Z</time>
      </trkpt>
      <trkpt lat="44.87455" lon="5.2408">
        <ele>1329.7</ele>
        <time>2020-07-23T13:01:15.000Z</time>
      </trkpt>
      <trkpt lat="44.87464" lon="5.24075">
        <ele>1330.7</ele>
        <time>2020-07-23T13:01:24.000Z</time>
      </trkpt>
      <trkpt lat="44.87472" lon="5.2407">
        <ele>1331.8</ele>
        <time>2020-07-23T13:01:33.000Z</time>
      </trkpt>
      <trkpt lat="44.87481" lon="5.24064">
        <ele>1333.3</ele>
        <time>2020-07-23T13:01:43.000Z</time>
      </trkpt>
      <trkpt lat="44.87489" lon="5.24057">
        <ele>1334.5</ele>
        <time>2020-07-23T13:01:52.000Z</time>
      </trkpt>
      <trkpt lat="44.87498" lon="5.24052">
        <ele>1335.7</ele>
        <time>2020-07-23T13:02:01.000Z</time>
      </trkpt>
      <trkpt lat="44.87507" lon="5.24047">
        <ele>1336.9</ele>
        <time>2020-07-23T13:02:10.000Z</time>
      </trkpt>
      <trkpt lat="44.87516" lon="5.24041">
        <ele>1337.9</ele>
        <time>2020-07-23T13:02:19.000Z</time>
      </trkpt>
      <trkpt lat="44.87525" lon="5.24036">
        <ele>1338.7</ele>
        <time>2020-07-23T13:02:28.000Z</time>
      </trkpt>
      <trkpt lat="44.87533" lon="5.2403">
        <ele>1339.5</ele>
        <time>2020-07-23T13:02:36.000Z</time>
      </trkpt>
      <trkpt lat="44.87542" lon="5.24025">
        <ele>1339.9</ele>
        <time>2020-07-23T13:02:44.000Z</time>
      </trkpt>
      <trkpt lat="44.8755" lon="5.2402">
        <ele>1340.4</ele>
        <time>2020-07-23T13:02:52.000Z</time>
      </trkpt>
      <trkpt lat="44.87558" lon="5.24015">
        <ele>1340.9</ele>
        <time>2020-07-23T13:03:00.000Z</time>
      </trkpt>
      <trkpt lat="44.87567" lon="5.2401">
        <ele>1341.4</ele>
        <time>2020-07-23T13:03:09.000Z</time>
      </trkpt>
      <trkpt lat="44.87576" lon="5.24007">
        <ele>1341.7</ele>
        <time>2020-07-23T13:03:17.000Z</time>
      </trkpt>
      <trkpt lat="44.87586" lon="5.24004">
        <ele>1342</ele>
        <time>2020-07-23T13:03:26.000Z</time>
      </trkpt>
      <trkpt lat="44.87596" lon="5.24003">
        <ele>1342.3</ele>
        <time>2020-07-23T13:03:35.000Z</time>
      </trkpt>
      <trkpt lat="44.87606" lon="5.24004">
        <ele>1342.4</ele>
        <time>2020-07-23T13:03:44.000Z</time>
      </trkpt>
      <trkpt lat="44.87615" lon="5.24005">
        <ele>1342.5</ele>
        <time>2020-07-23T13:03:52.000Z</time>
      </trkpt>
      <trkpt lat="44.87625" lon="5.24005">
        <ele>1342.5</ele>
        <time>2020-07-23T13:04:01.000Z</time>
      </trkpt>
      <trkpt lat="44.87633" lon="5.24002">
        <ele>1342.5</ele>
        <time>2020-07-23T13:04:09.000Z</time>
      </trkpt>
      <trkpt lat="44.87643" lon="5.24002">
        <ele>1342.5</ele>
        <time>2020-07-23T13:04:18.000Z</time>
      </trkpt>
      <trkpt lat="44.87653" lon="5.24002">
        <ele>1342.5</ele>
        <time>2020-07-23T13:04:28.000Z</time>
      </trkpt>
      <trkpt lat="44.87663" lon="5.24003">
        <ele>1342.6</ele>
        <time>2020-07-23T13:04:37.000Z</time>
      </trkpt>
      <trkpt lat="44.87672" lon="5.24004">
        <ele>1342.7</ele>
        <time>2020-07-23T13:04:46.000Z</time>
      </trkpt>
      <trkpt lat="44.87682" lon="5.24003">
        <ele>1343.2</ele>
        <time>2020-07-23T13:04:56.000Z</time>
      </trkpt>
      <trkpt lat="44.87691" lon="5.24001">
        <ele>1343.9</ele>
        <time>2020-07-23T13:05:06.000Z</time>
      </trkpt>
      <trkpt lat="44.877" lon="5.23999">
        <ele>1344.9</ele>
        <time>2020-07-23T13:05:16.000Z</time>
      </trkpt>
      <trkpt lat="44.8771" lon="5.23999">
        <ele>1345.5</ele>
        <time>2020-07-23T13:05:25.000Z</time>
      </trkpt>
      <trkpt lat="44.87719" lon="5.23998">
        <ele>1346</ele>
        <time>2020-07-23T13:05:35.000Z</time>
      </trkpt>
      <trkpt lat="44.87729" lon="5.23998">
        <ele>1346.4</ele>
        <time>2020-07-23T13:05:44.000Z</time>
      </trkpt>
      <trkpt lat="44.87738" lon="5.23997">
        <ele>1346.3</ele>
        <time>2020-07-23T13:05:52.000Z</time>
      </trkpt>
      <trkpt lat="44.87748" lon="5.23997">
        <ele>1346.2</ele>
        <time>2020-07-23T13:06:01.000Z</time>
      </trkpt>
      <trkpt lat="44.87757" lon="5.24">
        <ele>1345.6</ele>
        <time>2020-07-23T13:06:11.000Z</time>
      </trkpt>
      <trkpt lat="44.87766" lon="5.23999">
        <ele>1344.6</ele>
        <time>2020-07-23T13:06:23.000Z</time>
      </trkpt>
      <trkpt lat="44.87776" lon="5.23997">
        <ele>1343.4</ele>
        <time>2020-07-23T13:06:36.000Z</time>
      </trkpt>
      <trkpt lat="44.87785" lon="5.23998">
        <ele>1342.6</ele>
        <time>2020-07-23T13:06:44.000Z</time>
      </trkpt>
      <trkpt lat="44.87794" lon="5.23998">
        <ele>1341.9</ele>
        <time>2020-07-23T13:06:52.000Z</time>
      </trkpt>
      <trkpt lat="44.87804" lon="5.23997">
        <ele>1341.5</ele>
        <time>2020-07-23T13:07:02.000Z</time>
      </trkpt>
      <trkpt lat="44.87813" lon="5.24002">
        <ele>1341.5</ele>
        <time>2020-07-23T13:07:11.000Z</time>
      </trkpt>
      <trkpt lat="44.8782" lon="5.24012">
        <ele>1341.8</ele>
        <time>2020-07-23T13:07:20.000Z</time>
      </trkpt>
      <trkpt lat="44.87826" lon="5.24022">
        <ele>1341.7</ele>
        <time>2020-07-23T13:07:28.000Z</time>
      </trkpt>
      <trkpt lat="44.87832" lon="5.24032">
        <ele>1341.3</ele>
        <time>2020-07-23T13:07:36.000Z</time>
      </trkpt>
      <trkpt lat="44.87836" lon="5.24043">
        <ele>1340.7</ele>
        <time>2020-07-23T13:07:44.000Z</time>
      </trkpt>
      <trkpt lat="44.8784" lon="5.24054">
        <ele>1340</ele>
        <time>2020-07-23T13:07:51.000Z</time>
      </trkpt>
      <trkpt lat="44.87843" lon="5.24067">
        <ele>1339.2</ele>
        <time>2020-07-23T13:08:00.000Z</time>
      </trkpt>
      <trkpt lat="44.87847" lon="5.24079">
        <ele>1338</ele>
        <time>2020-07-23T13:08:11.000Z</time>
      </trkpt>
      <trkpt lat="44.8785" lon="5.24092">
        <ele>1335.9</ele>
        <time>2020-07-23T13:09:24.000Z</time>
      </trkpt>
      <trkpt lat="44.87856" lon="5.24101">
        <ele>1335.7</ele>
        <time>2020-07-23T13:09:33.000Z</time>
      </trkpt>
      <trkpt lat="44.87862" lon="5.24112">
        <ele>1335.2</ele>
        <time>2020-07-23T13:09:43.000Z</time>
      </trkpt>
      <trkpt lat="44.87869" lon="5.24121">
        <ele>1334.7</ele>
        <time>2020-07-23T13:09:52.000Z</time>
      </trkpt>
      <trkpt lat="44.87876" lon="5.24131">
        <ele>1333.7</ele>
        <time>2020-07-23T13:10:03.000Z</time>
      </trkpt>
      <trkpt lat="44.87885" lon="5.24135">
        <ele>1332.7</ele>
        <time>2020-07-23T13:10:14.000Z</time>
      </trkpt>
      <trkpt lat="44.87893" lon="5.24143">
        <ele>1331.6</ele>
        <time>2020-07-23T13:10:25.000Z</time>
      </trkpt>
      <trkpt lat="44.87902" lon="5.24146">
        <ele>1331</ele>
        <time>2020-07-23T13:10:31.000Z</time>
      </trkpt>
      <trkpt lat="44.8791" lon="5.2415">
        <ele>1330.1</ele>
        <time>2020-07-23T13:10:40.000Z</time>
      </trkpt>
      <trkpt lat="44.87919" lon="5.24155">
        <ele>1329.3</ele>
        <time>2020-07-23T13:10:48.000Z</time>
      </trkpt>
      <trkpt lat="44.87928" lon="5.24158">
        <ele>1328.7</ele>
        <time>2020-07-23T13:10:56.000Z</time>
      </trkpt>
      <trkpt lat="44.87938" lon="5.24163">
        <ele>1327.6</ele>
        <time>2020-07-23T13:11:07.000Z</time>
      </trkpt>
      <trkpt lat="44.87947" lon="5.24168">
        <ele>1326.7</ele>
        <time>2020-07-23T13:11:15.000Z</time>
      </trkpt>
      <trkpt lat="44.87955" lon="5.24173">
        <ele>1325.6</ele>
        <time>2020-07-23T13:11:24.000Z</time>
      </trkpt>
      <trkpt lat="44.87964" lon="5.24176">
        <ele>1324.5</ele>
        <time>2020-07-23T13:11:33.000Z</time>
      </trkpt>
      <trkpt lat="44.87973" lon="5.2418">
        <ele>1323.5</ele>
        <time>2020-07-23T13:11:41.000Z</time>
      </trkpt>
      <trkpt lat="44.87981" lon="5.24187">
        <ele>1322.3</ele>
        <time>2020-07-23T13:11:49.000Z</time>
      </trkpt>
      <trkpt lat="44.87989" lon="5.24193">
        <ele>1320.6</ele>
        <time>2020-07-23T13:12:01.000Z</time>
      </trkpt>
      <trkpt lat="44.87998" lon="5.24198">
        <ele>1319.6</ele>
        <time>2020-07-23T13:12:08.000Z</time>
      </trkpt>
      <trkpt lat="44.88008" lon="5.24201">
        <ele>1318.6</ele>
        <time>2020-07-23T13:12:16.000Z</time>
      </trkpt>
      <trkpt lat="44.88017" lon="5.24205">
        <ele>1317.6</ele>
        <time>2020-07-23T13:12:24.000Z</time>
      </trkpt>
      <trkpt lat="44.88026" lon="5.24212">
        <ele>1316.6</ele>
        <time>2020-07-23T13:12:32.000Z</time>
      </trkpt>
      <trkpt lat="44.88036" lon="5.24216">
        <ele>1315.8</ele>
        <time>2020-07-23T13:12:39.000Z</time>
      </trkpt>
      <trkpt lat="44.88045" lon="5.24221">
        <ele>1314.8</ele>
        <time>2020-07-23T13:12:48.000Z</time>
      </trkpt>
      <trkpt lat="44.88054" lon="5.24224">
        <ele>1313.7</ele>
        <time>2020-07-23T13:12:57.000Z</time>
      </trkpt>
      <trkpt lat="44.88064" lon="5.24223">
        <ele>1312.9</ele>
        <time>2020-07-23T13:13:09.000Z</time>
      </trkpt>
      <trkpt lat="44.88072" lon="5.24229">
        <ele>1312</ele>
        <time>2020-07-23T13:13:19.000Z</time>
      </trkpt>
      <trkpt lat="44.88082" lon="5.24231">
        <ele>1311.5</ele>
        <time>2020-07-23T13:13:28.000Z</time>
      </trkpt>
      <trkpt lat="44.8809" lon="5.24234">
        <ele>1310.8</ele>
        <time>2020-07-23T13:13:35.000Z</time>
      </trkpt>
      <trkpt lat="44.88099" lon="5.24241">
        <ele>1309.9</ele>
        <time>2020-07-23T13:13:44.000Z</time>
      </trkpt>
      <trkpt lat="44.88107" lon="5.24246">
        <ele>1308.4</ele>
        <time>2020-07-23T13:13:59.000Z</time>
      </trkpt>
      <trkpt lat="44.88117" lon="5.24248">
        <ele>1307.6</ele>
        <time>2020-07-23T13:14:24.000Z</time>
      </trkpt>
      <trkpt lat="44.88126" lon="5.24251">
        <ele>1306.8</ele>
        <time>2020-07-23T13:15:16.000Z</time>
      </trkpt>
      <trkpt lat="44.88136" lon="5.24254">
        <ele>1306.1</ele>
        <time>2020-07-23T13:15:28.000Z</time>
      </trkpt>
      <trkpt lat="44.88146" lon="5.24257">
        <ele>1305.3</ele>
        <time>2020-07-23T13:15:37.000Z</time>
      </trkpt>
      <trkpt lat="44.88155" lon="5.24257">
        <ele>1304.1</ele>
        <time>2020-07-23T13:15:47.000Z</time>
      </trkpt>
      <trkpt lat="44.88164" lon="5.24259">
        <ele>1303</ele>
        <time>2020-07-23T13:15:56.000Z</time>
      </trkpt>
      <trkpt lat="44.88174" lon="5.24259">
        <ele>1302.1</ele>
        <time>2020-07-23T13:16:04.000Z</time>
      </trkpt>
      <trkpt lat="44.88183" lon="5.24259">
        <ele>1301.2</ele>
        <time>2020-07-23T13:16:11.000Z</time>
      </trkpt>
      <trkpt lat="44.88193" lon="5.2426">
        <ele>1300.5</ele>
        <time>2020-07-23T13:16:18.000Z</time>
      </trkpt>
      <trkpt lat="44.88202" lon="5.24263">
        <ele>1299.7</ele>
        <time>2020-07-23T13:16:26.000Z</time>
      </trkpt>
      <trkpt lat="44.88212" lon="5.24266">
        <ele>1298.9</ele>
        <time>2020-07-23T13:16:33.000Z</time>
      </trkpt>
      <trkpt lat="44.88221" lon="5.24265">
        <ele>1298.1</ele>
        <time>2020-07-23T13:16:40.000Z</time>
      </trkpt>
      <trkpt lat="44.8823" lon="5.24267">
        <ele>1297.2</ele>
        <time>2020-07-23T13:16:50.000Z</time>
      </trkpt>
      <trkpt lat="44.8824" lon="5.24267">
        <ele>1296.4</ele>
        <time>2020-07-23T13:16:56.000Z</time>
      </trkpt>
      <trkpt lat="44.88249" lon="5.2427">
        <ele>1295.4</ele>
        <time>2020-07-23T13:17:04.000Z</time>
      </trkpt>
      <trkpt lat="44.88258" lon="5.24277">
        <ele>1294.5</ele>
        <time>2020-07-23T13:17:12.000Z</time>
      </trkpt>
      <trkpt lat="44.88265" lon="5.24286">
        <ele>1293.2</ele>
        <time>2020-07-23T13:17:26.000Z</time>
      </trkpt>
      <trkpt lat="44.88275" lon="5.24288">
        <ele>1292.7</ele>
        <time>2020-07-23T13:17:32.000Z</time>
      </trkpt>
      <trkpt lat="44.88285" lon="5.24292">
        <ele>1291.6</ele>
        <time>2020-07-23T13:17:40.000Z</time>
      </trkpt>
      <trkpt lat="44.88294" lon="5.24295">
        <ele>1290.6</ele>
        <time>2020-07-23T13:17:48.000Z</time>
      </trkpt>
      <trkpt lat="44.88304" lon="5.243">
        <ele>1289.3</ele>
        <time>2020-07-23T13:17:58.000Z</time>
      </trkpt>
      <trkpt lat="44.88313" lon="5.24303">
        <ele>1288.5</ele>
        <time>2020-07-23T13:18:06.000Z</time>
      </trkpt>
      <trkpt lat="44.88322" lon="5.24306">
        <ele>1287.8</ele>
        <time>2020-07-23T13:18:12.000Z</time>
      </trkpt>
      <trkpt lat="44.88332" lon="5.24308">
        <ele>1286.7</ele>
        <time>2020-07-23T13:18:22.000Z</time>
      </trkpt>
      <trkpt lat="44.88339" lon="5.24316">
        <ele>1285.4</ele>
        <time>2020-07-23T13:18:33.000Z</time>
      </trkpt>
      <trkpt lat="44.88345" lon="5.24326">
        <ele>1283.1</ele>
        <time>2020-07-23T13:18:55.000Z</time>
      </trkpt>
      <trkpt lat="44.88346" lon="5.24339">
        <ele>1280.5</ele>
        <time>2020-07-23T13:19:11.000Z</time>
      </trkpt>
      <trkpt lat="44.88348" lon="5.24353">
        <ele>1278.2</ele>
        <time>2020-07-23T13:19:22.000Z</time>
      </trkpt>
      <trkpt lat="44.88345" lon="5.24365">
        <ele>1275.5</ele>
        <time>2020-07-23T13:19:35.000Z</time>
      </trkpt>
      <trkpt lat="44.88338" lon="5.24374">
        <ele>1272.4</ele>
        <time>2020-07-23T13:22:15.000Z</time>
      </trkpt>
      <trkpt lat="44.88333" lon="5.24386">
        <ele>1271.6</ele>
        <time>2020-07-23T13:22:26.000Z</time>
      </trkpt>
      <trkpt lat="44.88327" lon="5.24396">
        <ele>1270.7</ele>
        <time>2020-07-23T13:22:34.000Z</time>
      </trkpt>
      <trkpt lat="44.88324" lon="5.2441">
        <ele>1268.7</ele>
        <time>2020-07-23T13:22:44.000Z</time>
      </trkpt>
      <trkpt lat="44.88316" lon="5.24416">
        <ele>1267</ele>
        <time>2020-07-23T13:22:55.000Z</time>
      </trkpt>
      <trkpt lat="44.88313" lon="5.24428">
        <ele>1265.6</ele>
        <time>2020-07-23T13:23:03.000Z</time>
      </trkpt>
      <trkpt lat="44.8831" lon="5.24441">
        <ele>1263.4</ele>
        <time>2020-07-23T13:23:14.000Z</time>
      </trkpt>
      <trkpt lat="44.88312" lon="5.24453">
        <ele>1260.9</ele>
        <time>2020-07-23T13:23:27.000Z</time>
      </trkpt>
      <trkpt lat="44.88308" lon="5.24467">
        <ele>1259.3</ele>
        <time>2020-07-23T13:23:35.000Z</time>
      </trkpt>
      <trkpt lat="44.88305" lon="5.24481">
        <ele>1257.7</ele>
        <time>2020-07-23T13:23:42.000Z</time>
      </trkpt>
      <trkpt lat="44.88301" lon="5.24492">
        <ele>1255.9</ele>
        <time>2020-07-23T13:23:51.000Z</time>
      </trkpt>
      <trkpt lat="44.88298" lon="5.24506">
        <ele>1255</ele>
        <time>2020-07-23T13:23:58.000Z</time>
      </trkpt>
      <trkpt lat="44.88298" lon="5.24519">
        <ele>1253.9</ele>
        <time>2020-07-23T13:24:05.000Z</time>
      </trkpt>
      <trkpt lat="44.88303" lon="5.2453">
        <ele>1252.6</ele>
        <time>2020-07-23T13:24:14.000Z</time>
      </trkpt>
      <trkpt lat="44.88301" lon="5.24543">
        <ele>1251.4</ele>
        <time>2020-07-23T13:29:41.000Z</time>
      </trkpt>
      <trkpt lat="44.88302" lon="5.24556">
        <ele>1251</ele>
        <time>2020-07-23T13:29:50.000Z</time>
      </trkpt>
      <trkpt lat="44.88301" lon="5.24569">
        <ele>1249.8</ele>
        <time>2020-07-23T13:30:01.000Z</time>
      </trkpt>
      <trkpt lat="44.88301" lon="5.24582">
        <ele>1249.1</ele>
        <time>2020-07-23T13:30:09.000Z</time>
      </trkpt>
      <trkpt lat="44.88298" lon="5.24594">
        <ele>1248.2</ele>
        <time>2020-07-23T13:30:18.000Z</time>
      </trkpt>
      <trkpt lat="44.88293" lon="5.24605">
        <ele>1246.8</ele>
        <time>2020-07-23T13:30:30.000Z</time>
      </trkpt>
      <trkpt lat="44.88295" lon="5.24618">
        <ele>1245.5</ele>
        <time>2020-07-23T13:30:38.000Z</time>
      </trkpt>
      <trkpt lat="44.88296" lon="5.24631">
        <ele>1243.4</ele>
        <time>2020-07-23T13:30:54.000Z</time>
      </trkpt>
      <trkpt lat="44.88292" lon="5.24643">
        <ele>1242.3</ele>
        <time>2020-07-23T13:31:04.000Z</time>
      </trkpt>
      <trkpt lat="44.88283" lon="5.24653">
        <ele>1241.3</ele>
        <time>2020-07-23T13:31:13.000Z</time>
      </trkpt>
      <trkpt lat="44.88275" lon="5.24662">
        <ele>1240.2</ele>
        <time>2020-07-23T13:31:21.000Z</time>
      </trkpt>
      <trkpt lat="44.88267" lon="5.2467">
        <ele>1239.4</ele>
        <time>2020-07-23T13:31:29.000Z</time>
      </trkpt>
      <trkpt lat="44.88258" lon="5.24679">
        <ele>1238.8</ele>
        <time>2020-07-23T13:31:36.000Z</time>
      </trkpt>
      <trkpt lat="44.88251" lon="5.24687">
        <ele>1237.4</ele>
        <time>2020-07-23T13:31:49.000Z</time>
      </trkpt>
      <trkpt lat="44.88243" lon="5.24694">
        <ele>1236.9</ele>
        <time>2020-07-23T13:31:55.000Z</time>
      </trkpt>
      <trkpt lat="44.88236" lon="5.24703">
        <ele>1235.7</ele>
        <time>2020-07-23T13:32:02.000Z</time>
      </trkpt>
      <trkpt lat="44.88227" lon="5.2471">
        <ele>1234.5</ele>
        <time>2020-07-23T13:32:10.000Z</time>
      </trkpt>
      <trkpt lat="44.88219" lon="5.24717">
        <ele>1233.5</ele>
        <time>2020-07-23T13:32:17.000Z</time>
      </trkpt>
      <trkpt lat="44.88211" lon="5.24723">
        <ele>1232.5</ele>
        <time>2020-07-23T13:32:25.000Z</time>
      </trkpt>
      <trkpt lat="44.88203" lon="5.24731">
        <ele>1231.7</ele>
        <time>2020-07-23T13:32:32.000Z</time>
      </trkpt>
      <trkpt lat="44.88194" lon="5.24738">
        <ele>1231</ele>
        <time>2020-07-23T13:32:39.000Z</time>
      </trkpt>
      <trkpt lat="44.88186" lon="5.24746">
        <ele>1230.1</ele>
        <time>2020-07-23T13:32:47.000Z</time>
      </trkpt>
      <trkpt lat="44.88178" lon="5.24753">
        <ele>1229.4</ele>
        <time>2020-07-23T13:32:54.000Z</time>
      </trkpt>
      <trkpt lat="44.8817" lon="5.24762">
        <ele>1228.2</ele>
        <time>2020-07-23T13:33:02.000Z</time>
      </trkpt>
      <trkpt lat="44.88162" lon="5.2477">
        <ele>1227.3</ele>
        <time>2020-07-23T13:33:09.000Z</time>
      </trkpt>
      <trkpt lat="44.88156" lon="5.2478">
        <ele>1226.3</ele>
        <time>2020-07-23T13:33:16.000Z</time>
      </trkpt>
      <trkpt lat="44.88148" lon="5.24788">
        <ele>1225.1</ele>
        <time>2020-07-23T13:33:24.000Z</time>
      </trkpt>
      <trkpt lat="44.8814" lon="5.24797">
        <ele>1224.2</ele>
        <time>2020-07-23T13:33:31.000Z</time>
      </trkpt>
      <trkpt lat="44.88133" lon="5.24807">
        <ele>1223.5</ele>
        <time>2020-07-23T13:33:38.000Z</time>
      </trkpt>
      <trkpt lat="44.88124" lon="5.24815">
        <ele>1222.9</ele>
        <time>2020-07-23T13:33:45.000Z</time>
      </trkpt>
      <trkpt lat="44.88119" lon="5.24826">
        <ele>1222.3</ele>
        <time>2020-07-23T13:33:52.000Z</time>
      </trkpt>
      <trkpt lat="44.88113" lon="5.24839">
        <ele>1221.9</ele>
        <time>2020-07-23T13:33:59.000Z</time>
      </trkpt>
      <trkpt lat="44.8811" lon="5.24852">
        <ele>1221.7</ele>
        <time>2020-07-23T13:34:05.000Z</time>
      </trkpt>
      <trkpt lat="44.88106" lon="5.24864">
        <ele>1221.4</ele>
        <time>2020-07-23T13:34:11.000Z</time>
      </trkpt>
      <trkpt lat="44.88103" lon="5.24876">
        <ele>1221.4</ele>
        <time>2020-07-23T13:34:17.000Z</time>
      </trkpt>
      <trkpt lat="44.88098" lon="5.24889">
        <ele>1221.1</ele>
        <time>2020-07-23T13:34:23.000Z</time>
      </trkpt>
      <trkpt lat="44.88094" lon="5.24902">
        <ele>1220.9</ele>
        <time>2020-07-23T13:34:27.000Z</time>
      </trkpt>
      <trkpt lat="44.88092" lon="5.24916">
        <ele>1220.5</ele>
        <time>2020-07-23T13:34:34.000Z</time>
      </trkpt>
      <trkpt lat="44.88087" lon="5.24927">
        <ele>1220.3</ele>
        <time>2020-07-23T13:34:41.000Z</time>
      </trkpt>
      <trkpt lat="44.88081" lon="5.24937">
        <ele>1220.1</ele>
        <time>2020-07-23T13:34:48.000Z</time>
      </trkpt>
      <trkpt lat="44.88075" lon="5.2495">
        <ele>1220.1</ele>
        <time>2020-07-23T13:34:53.000Z</time>
      </trkpt>
      <trkpt lat="44.8807" lon="5.24963">
        <ele>1220.1</ele>
        <time>2020-07-23T13:34:58.000Z</time>
      </trkpt>
      <trkpt lat="44.88069" lon="5.24976">
        <ele>1220.5</ele>
        <time>2020-07-23T13:35:04.000Z</time>
      </trkpt>
      <trkpt lat="44.88068" lon="5.24988">
        <ele>1220.9</ele>
        <time>2020-07-23T13:35:20.000Z</time>
      </trkpt>
      <trkpt lat="44.88065" lon="5.25">
        <ele>1221.1</ele>
        <time>2020-07-23T13:35:45.000Z</time>
      </trkpt>
      <trkpt lat="44.88063" lon="5.25015">
        <ele>1221.3</ele>
        <time>2020-07-23T13:35:52.000Z</time>
      </trkpt>
      <trkpt lat="44.8806" lon="5.25028">
        <ele>1221.6</ele>
        <time>2020-07-23T13:36:00.000Z</time>
      </trkpt>
      <trkpt lat="44.88056" lon="5.2504">
        <ele>1222</ele>
        <time>2020-07-23T13:36:08.000Z</time>
      </trkpt>
      <trkpt lat="44.88054" lon="5.25053">
        <ele>1222.7</ele>
        <time>2020-07-23T13:36:18.000Z</time>
      </trkpt>
      <trkpt lat="44.88053" lon="5.25066">
        <ele>1224.5</ele>
        <time>2020-07-23T13:36:30.000Z</time>
      </trkpt>
      <trkpt lat="44.88053" lon="5.25079">
        <ele>1225.8</ele>
        <time>2020-07-23T13:36:38.000Z</time>
      </trkpt>
      <trkpt lat="44.8805" lon="5.25092">
        <ele>1227.1</ele>
        <time>2020-07-23T13:36:47.000Z</time>
      </trkpt>
      <trkpt lat="44.88048" lon="5.25105">
        <ele>1228.3</ele>
        <time>2020-07-23T13:36:56.000Z</time>
      </trkpt>
      <trkpt lat="44.88049" lon="5.25119">
        <ele>1229.6</ele>
        <time>2020-07-23T13:37:06.000Z</time>
      </trkpt>
      <trkpt lat="44.88049" lon="5.25132">
        <ele>1231.1</ele>
        <time>2020-07-23T13:37:16.000Z</time>
      </trkpt>
      <trkpt lat="44.88053" lon="5.25145">
        <ele>1232.3</ele>
        <time>2020-07-23T13:37:25.000Z</time>
      </trkpt>
      <trkpt lat="44.88056" lon="5.25156">
        <ele>1233.1</ele>
        <time>2020-07-23T13:37:32.000Z</time>
      </trkpt>
      <trkpt lat="44.8806" lon="5.25169">
        <ele>1233.6</ele>
        <time>2020-07-23T13:37:37.000Z</time>
      </trkpt>
      <trkpt lat="44.88063" lon="5.25182">
        <ele>1234.7</ele>
        <time>2020-07-23T13:39:24.000Z</time>
      </trkpt>
      <trkpt lat="44.88065" lon="5.25195">
        <ele>1235.4</ele>
        <time>2020-07-23T13:39:35.000Z</time>
      </trkpt>
      <trkpt lat="44.88066" lon="5.25208">
        <ele>1236.3</ele>
        <time>2020-07-23T13:39:48.000Z</time>
      </trkpt>
      <trkpt lat="44.8807" lon="5.25221">
        <ele>1237.2</ele>
        <time>2020-07-23T13:39:58.000Z</time>
      </trkpt>
      <trkpt lat="44.88074" lon="5.25234">
        <ele>1238</ele>
        <time>2020-07-23T13:40:06.000Z</time>
      </trkpt>
      <trkpt lat="44.88076" lon="5.25247">
        <ele>1238.7</ele>
        <time>2020-07-23T13:40:13.000Z</time>
      </trkpt>
      <trkpt lat="44.8808" lon="5.25259">
        <ele>1239.9</ele>
        <time>2020-07-23T13:40:24.000Z</time>
      </trkpt>
      <trkpt lat="44.88087" lon="5.25271">
        <ele>1240.9</ele>
        <time>2020-07-23T13:40:33.000Z</time>
      </trkpt>
      <trkpt lat="44.8809" lon="5.25285">
        <ele>1241.2</ele>
        <time>2020-07-23T13:40:36.000Z</time>
      </trkpt>
      <trkpt lat="44.88096" lon="5.25296">
        <ele>1242.3</ele>
        <time>2020-07-23T13:40:45.000Z</time>
      </trkpt>
      <trkpt lat="44.88103" lon="5.25307">
        <ele>1243.4</ele>
        <time>2020-07-23T13:40:55.000Z</time>
      </trkpt>
      <trkpt lat="44.88106" lon="5.25318">
        <ele>1244.7</ele>
        <time>2020-07-23T13:41:05.000Z</time>
      </trkpt>
      <trkpt lat="44.88111" lon="5.2533">
        <ele>1245.7</ele>
        <time>2020-07-23T13:41:11.000Z</time>
      </trkpt>
      <trkpt lat="44.88116" lon="5.2534">
        <ele>1246.4</ele>
        <time>2020-07-23T13:41:16.000Z</time>
      </trkpt>
      <trkpt lat="44.88122" lon="5.25351">
        <ele>1247.4</ele>
        <time>2020-07-23T13:41:24.000Z</time>
      </trkpt>
      <trkpt lat="44.88126" lon="5.25362">
        <ele>1249</ele>
        <time>2020-07-23T13:41:36.000Z</time>
      </trkpt>
      <trkpt lat="44.88131" lon="5.25375">
        <ele>1249.9</ele>
        <time>2020-07-23T13:41:44.000Z</time>
      </trkpt>
      <trkpt lat="44.8814" lon="5.25383">
        <ele>1250.8</ele>
        <time>2020-07-23T13:41:53.000Z</time>
      </trkpt>
      <trkpt lat="44.88146" lon="5.25393">
        <ele>1251.9</ele>
        <time>2020-07-23T13:42:02.000Z</time>
      </trkpt>
      <trkpt lat="44.88153" lon="5.25402">
        <ele>1253.1</ele>
        <time>2020-07-23T13:42:11.000Z</time>
      </trkpt>
      <trkpt lat="44.88162" lon="5.25416">
        <ele>1254.3</ele>
        <time>2020-07-23T13:42:18.000Z</time>
      </trkpt>
      <trkpt lat="44.88167" lon="5.25428">
        <ele>1255.5</ele>
        <time>2020-07-23T13:42:26.000Z</time>
      </trkpt>
      <trkpt lat="44.88173" lon="5.25438">
        <ele>1257</ele>
        <time>2020-07-23T13:42:34.000Z</time>
      </trkpt>
      <trkpt lat="44.88182" lon="5.25446">
        <ele>1259</ele>
        <time>2020-07-23T13:42:46.000Z</time>
      </trkpt>
      <trkpt lat="44.8819" lon="5.25455">
        <ele>1260.9</ele>
        <time>2020-07-23T13:42:57.000Z</time>
      </trkpt>
      <trkpt lat="44.88196" lon="5.25465">
        <ele>1263.1</ele>
        <time>2020-07-23T13:43:09.000Z</time>
      </trkpt>
      <trkpt lat="44.88202" lon="5.25476">
        <ele>1264.5</ele>
        <time>2020-07-23T13:43:21.000Z</time>
      </trkpt>
      <trkpt lat="44.88206" lon="5.25488">
        <ele>1265.9</ele>
        <time>2020-07-23T13:43:47.000Z</time>
      </trkpt>
      <trkpt lat="44.88206" lon="5.25501">
        <ele>1267.7</ele>
        <time>2020-07-23T13:43:58.000Z</time>
      </trkpt>
      <trkpt lat="44.8821" lon="5.25514">
        <ele>1270.4</ele>
        <time>2020-07-23T13:44:11.000Z</time>
      </trkpt>
      <trkpt lat="44.88213" lon="5.25526">
        <ele>1272.5</ele>
        <time>2020-07-23T13:44:21.000Z</time>
      </trkpt>
      <trkpt lat="44.88216" lon="5.2554">
        <ele>1273.7</ele>
        <time>2020-07-23T13:44:27.000Z</time>
      </trkpt>
      <trkpt lat="44.88217" lon="5.25553">
        <ele>1275.6</ele>
        <time>2020-07-23T13:44:36.000Z</time>
      </trkpt>
      <trkpt lat="44.88221" lon="5.25564">
        <ele>1276.9</ele>
        <time>2020-07-23T13:44:43.000Z</time>
      </trkpt>
      <trkpt lat="44.88222" lon="5.25577">
        <ele>1278.4</ele>
        <time>2020-07-23T13:44:52.000Z</time>
      </trkpt>
      <trkpt lat="44.88221" lon="5.2559">
        <ele>1280.2</ele>
        <time>2020-07-23T13:45:02.000Z</time>
      </trkpt>
      <trkpt lat="44.88221" lon="5.25603">
        <ele>1281.7</ele>
        <time>2020-07-23T13:45:12.000Z</time>
      </trkpt>
      <trkpt lat="44.88216" lon="5.25615">
        <ele>1282.8</ele>
        <time>2020-07-23T13:45:24.000Z</time>
      </trkpt>
      <trkpt lat="44.88212" lon="5.25627">
        <ele>1283</ele>
        <time>2020-07-23T13:45:34.000Z</time>
      </trkpt>
      <trkpt lat="44.88205" lon="5.25635">
        <ele>1282.4</ele>
        <time>2020-07-23T13:45:44.000Z</time>
      </trkpt>
      <trkpt lat="44.88195" lon="5.2564">
        <ele>1281.4</ele>
        <time>2020-07-23T13:45:54.000Z</time>
      </trkpt>
      <trkpt lat="44.88186" lon="5.25644">
        <ele>1280</ele>
        <time>2020-07-23T13:46:05.000Z</time>
      </trkpt>
      <trkpt lat="44.88178" lon="5.2565">
        <ele>1278.8</ele>
        <time>2020-07-23T13:46:13.000Z</time>
      </trkpt>
      <trkpt lat="44.88171" lon="5.25659">
        <ele>1276.7</ele>
        <time>2020-07-23T13:46:24.000Z</time>
      </trkpt>
      <trkpt lat="44.88164" lon="5.25668">
        <ele>1275.5</ele>
        <time>2020-07-23T13:46:31.000Z</time>
      </trkpt>
      <trkpt lat="44.88164" lon="5.25681">
        <ele>1274.3</ele>
        <time>2020-07-23T13:46:38.000Z</time>
      </trkpt>
      <trkpt lat="44.88166" lon="5.25693">
        <ele>1273.5</ele>
        <time>2020-07-23T13:46:49.000Z</time>
      </trkpt>
      <trkpt lat="44.88168" lon="5.25707">
        <ele>1274.3</ele>
        <time>2020-07-23T13:47:00.000Z</time>
      </trkpt>
      <trkpt lat="44.88172" lon="5.25719">
        <ele>1276.2</ele>
        <time>2020-07-23T13:47:11.000Z</time>
      </trkpt>
      <trkpt lat="44.88177" lon="5.25729">
        <ele>1278.7</ele>
        <time>2020-07-23T13:47:23.000Z</time>
      </trkpt>
      <trkpt lat="44.88184" lon="5.25739">
        <ele>1280.4</ele>
        <time>2020-07-23T13:47:30.000Z</time>
      </trkpt>
      <trkpt lat="44.88191" lon="5.25748">
        <ele>1281.9</ele>
        <time>2020-07-23T13:47:38.000Z</time>
      </trkpt>
      <trkpt lat="44.882" lon="5.25754">
        <ele>1284</ele>
        <time>2020-07-23T13:47:47.000Z</time>
      </trkpt>
      <trkpt lat="44.88209" lon="5.25762">
        <ele>1286.4</ele>
        <time>2020-07-23T13:47:56.000Z</time>
      </trkpt>
      <trkpt lat="44.88216" lon="5.25769">
        <ele>1289.4</ele>
        <time>2020-07-23T13:48:05.000Z</time>
      </trkpt>
      <trkpt lat="44.8822" lon="5.25781">
        <ele>1292.5</ele>
        <time>2020-07-23T13:48:16.000Z</time>
      </trkpt>
      <trkpt lat="44.88229" lon="5.25792">
        <ele>1295.2</ele>
        <time>2020-07-23T13:48:27.000Z</time>
      </trkpt>
      <trkpt lat="44.88237" lon="5.25799">
        <ele>1296.6</ele>
        <time>2020-07-23T13:48:34.000Z</time>
      </trkpt>
      <trkpt lat="44.88247" lon="5.25801">
        <ele>1298.1</ele>
        <time>2020-07-23T13:48:42.000Z</time>
      </trkpt>
      <trkpt lat="44.88253" lon="5.25809">
        <ele>1300.4</ele>
        <time>2020-07-23T13:48:59.000Z</time>
      </trkpt>
      <trkpt lat="44.88259" lon="5.25819">
        <ele>1301.2</ele>
        <time>2020-07-23T13:49:09.000Z</time>
      </trkpt>
      <trkpt lat="44.88265" lon="5.25829">
        <ele>1302.4</ele>
        <time>2020-07-23T13:49:20.000Z</time>
      </trkpt>
      <trkpt lat="44.88269" lon="5.25841">
        <ele>1303.3</ele>
        <time>2020-07-23T13:49:29.000Z</time>
      </trkpt>
      <trkpt lat="44.88273" lon="5.25853">
        <ele>1304.6</ele>
        <time>2020-07-23T13:49:41.000Z</time>
      </trkpt>
      <trkpt lat="44.88275" lon="5.25867">
        <ele>1305.3</ele>
        <time>2020-07-23T13:49:51.000Z</time>
      </trkpt>
      <trkpt lat="44.88277" lon="5.25879">
        <ele>1305.9</ele>
        <time>2020-07-23T13:49:59.000Z</time>
      </trkpt>
      <trkpt lat="44.88281" lon="5.25891">
        <ele>1306.9</ele>
        <time>2020-07-23T13:50:08.000Z</time>
      </trkpt>
      <trkpt lat="44.88286" lon="5.25901">
        <ele>1307.7</ele>
        <time>2020-07-23T13:50:17.000Z</time>
      </trkpt>
      <trkpt lat="44.88293" lon="5.25913">
        <ele>1308.6</ele>
        <time>2020-07-23T13:50:25.000Z</time>
      </trkpt>
      <trkpt lat="44.88298" lon="5.25924">
        <ele>1309.2</ele>
        <time>2020-07-23T13:50:34.000Z</time>
      </trkpt>
      <trkpt lat="44.88306" lon="5.25932">
        <ele>1309.8</ele>
        <time>2020-07-23T13:50:43.000Z</time>
      </trkpt>
      <trkpt lat="44.88314" lon="5.25941">
        <ele>1310.4</ele>
        <time>2020-07-23T13:50:53.000Z</time>
      </trkpt>
      <trkpt lat="44.88321" lon="5.25949">
        <ele>1310.6</ele>
        <time>2020-07-23T13:50:59.000Z</time>
      </trkpt>
      <trkpt lat="44.88328" lon="5.25958">
        <ele>1311</ele>
        <time>2020-07-23T13:51:10.000Z</time>
      </trkpt>
      <trkpt lat="44.88336" lon="5.25968">
        <ele>1311.4</ele>
        <time>2020-07-23T13:51:18.000Z</time>
      </trkpt>
      <trkpt lat="44.88343" lon="5.25978">
        <ele>1311.7</ele>
        <time>2020-07-23T13:51:24.000Z</time>
      </trkpt>
      <trkpt lat="44.88352" lon="5.25985">
        <ele>1312.3</ele>
        <time>2020-07-23T13:51:33.000Z</time>
      </trkpt>
      <trkpt lat="44.8836" lon="5.25992">
        <ele>1312.9</ele>
        <time>2020-07-23T13:51:43.000Z</time>
      </trkpt>
      <trkpt lat="44.88367" lon="5.26">
        <ele>1313.5</ele>
        <time>2020-07-23T13:51:51.000Z</time>
      </trkpt>
      <trkpt lat="44.88374" lon="5.26008">
        <ele>1314.1</ele>
        <time>2020-07-23T13:52:01.000Z</time>
      </trkpt>
      <trkpt lat="44.88381" lon="5.26018">
        <ele>1315.4</ele>
        <time>2020-07-23T13:52:12.000Z</time>
      </trkpt>
      <trkpt lat="44.88389" lon="5.26027">
        <ele>1316.4</ele>
        <time>2020-07-23T13:52:21.000Z</time>
      </trkpt>
      <trkpt lat="44.88397" lon="5.26035">
        <ele>1317.2</ele>
        <time>2020-07-23T13:52:30.000Z</time>
      </trkpt>
      <trkpt lat="44.88404" lon="5.26044">
        <ele>1317.8</ele>
        <time>2020-07-23T13:52:37.000Z</time>
      </trkpt>
      <trkpt lat="44.88411" lon="5.26052">
        <ele>1318.2</ele>
        <time>2020-07-23T13:52:46.000Z</time>
      </trkpt>
      <trkpt lat="44.88417" lon="5.26063">
        <ele>1318.8</ele>
        <time>2020-07-23T13:52:55.000Z</time>
      </trkpt>
      <trkpt lat="44.88424" lon="5.26072">
        <ele>1319.2</ele>
        <time>2020-07-23T13:53:02.000Z</time>
      </trkpt>
      <trkpt lat="44.88431" lon="5.26082">
        <ele>1319.6</ele>
        <time>2020-07-23T13:53:10.000Z</time>
      </trkpt>
      <trkpt lat="44.88437" lon="5.26093">
        <ele>1319.9</ele>
        <time>2020-07-23T13:53:17.000Z</time>
      </trkpt>
      <trkpt lat="44.88444" lon="5.26102">
        <ele>1320.2</ele>
        <time>2020-07-23T13:53:27.000Z</time>
      </trkpt>
      <trkpt lat="44.88452" lon="5.26111">
        <ele>1320.5</ele>
        <time>2020-07-23T13:53:37.000Z</time>
      </trkpt>
      <trkpt lat="44.88458" lon="5.26122">
        <ele>1320.9</ele>
        <time>2020-07-23T13:53:47.000Z</time>
      </trkpt>
      <trkpt lat="44.88463" lon="5.26133">
        <ele>1320.9</ele>
        <time>2020-07-23T13:53:51.000Z</time>
      </trkpt>
      <trkpt lat="44.88469" lon="5.26144">
        <ele>1315.5</ele>
        <time>2020-07-23T13:53:59.000Z</time>
      </trkpt>
      <trkpt lat="44.88476" lon="5.26155">
        <ele>1331.2</ele>
        <time>2020-07-23T13:54:07.000Z</time>
      </trkpt>
      <trkpt lat="44.88481" lon="5.26167">
        <ele>1329.4</ele>
        <time>2020-07-23T13:54:14.000Z</time>
      </trkpt>
      <trkpt lat="44.88486" lon="5.2618">
        <ele>1325.9</ele>
        <time>2020-07-23T13:54:21.000Z</time>
      </trkpt>
      <trkpt lat="44.8849" lon="5.26192">
        <ele>1324</ele>
        <time>2020-07-23T13:54:29.000Z</time>
      </trkpt>
      <trkpt lat="44.88496" lon="5.26203">
        <ele>1324.6</ele>
        <time>2020-07-23T13:54:37.000Z</time>
      </trkpt>
      <trkpt lat="44.88497" lon="5.26216">
        <ele>1321.6</ele>
        <time>2020-07-23T13:54:44.000Z</time>
      </trkpt>
      <trkpt lat="44.88503" lon="5.26227">
        <ele>1321.7</ele>
        <time>2020-07-23T13:54:51.000Z</time>
      </trkpt>
      <trkpt lat="44.88505" lon="5.26241">
        <ele>1328</ele>
        <time>2020-07-23T13:54:58.000Z</time>
      </trkpt>
      <trkpt lat="44.88507" lon="5.26254">
        <ele>1328.4</ele>
        <time>2020-07-23T13:55:06.000Z</time>
      </trkpt>
      <trkpt lat="44.88511" lon="5.26265">
        <ele>1327</ele>
        <time>2020-07-23T13:55:14.000Z</time>
      </trkpt>
      <trkpt lat="44.88515" lon="5.26278">
        <ele>1326.3</ele>
        <time>2020-07-23T13:55:23.000Z</time>
      </trkpt>
      <trkpt lat="44.88517" lon="5.26291">
        <ele>1326.2</ele>
        <time>2020-07-23T13:55:33.000Z</time>
      </trkpt>
      <trkpt lat="44.88519" lon="5.26305">
        <ele>1326.8</ele>
        <time>2020-07-23T13:55:43.000Z</time>
      </trkpt>
      <trkpt lat="44.88523" lon="5.26317">
        <ele>1327.6</ele>
        <time>2020-07-23T13:55:52.000Z</time>
      </trkpt>
      <trkpt lat="44.88528" lon="5.2633">
        <ele>1328</ele>
        <time>2020-07-23T13:56:00.000Z</time>
      </trkpt>
      <trkpt lat="44.88532" lon="5.26343">
        <ele>1328.6</ele>
        <time>2020-07-23T13:56:07.000Z</time>
      </trkpt>
      <trkpt lat="44.88536" lon="5.26355">
        <ele>1329.1</ele>
        <time>2020-07-23T13:56:15.000Z</time>
      </trkpt>
      <trkpt lat="44.88542" lon="5.26367">
        <ele>1330.4</ele>
        <time>2020-07-23T13:56:25.000Z</time>
      </trkpt>
      <trkpt lat="44.88546" lon="5.26378">
        <ele>1332</ele>
        <time>2020-07-23T13:56:36.000Z</time>
      </trkpt>
      <trkpt lat="44.88553" lon="5.26389">
        <ele>1333.2</ele>
        <time>2020-07-23T13:56:45.000Z</time>
      </trkpt>
      <trkpt lat="44.88556" lon="5.26401">
        <ele>1333.9</ele>
        <time>2020-07-23T13:56:53.000Z</time>
      </trkpt>
      <trkpt lat="44.88562" lon="5.2641">
        <ele>1334.3</ele>
        <time>2020-07-23T13:57:00.000Z</time>
      </trkpt>
      <trkpt lat="44.88567" lon="5.26421">
        <ele>1334.8</ele>
        <time>2020-07-23T13:57:08.000Z</time>
      </trkpt>
      <trkpt lat="44.88571" lon="5.26433">
        <ele>1335.4</ele>
        <time>2020-07-23T13:57:16.000Z</time>
      </trkpt>
      <trkpt lat="44.8857" lon="5.26446">
        <ele>1336</ele>
        <time>2020-07-23T13:57:25.000Z</time>
      </trkpt>
      <trkpt lat="44.88569" lon="5.26459">
        <ele>1337.1</ele>
        <time>2020-07-23T13:57:37.000Z</time>
      </trkpt>
      <trkpt lat="44.88563" lon="5.26469">
        <ele>1337.6</ele>
        <time>2020-07-23T13:58:12.000Z</time>
      </trkpt>
      <trkpt lat="44.88562" lon="5.26483">
        <ele>1338</ele>
        <time>2020-07-23T13:58:31.000Z</time>
      </trkpt>
      <trkpt lat="44.88564" lon="5.26495">
        <ele>1338</ele>
        <time>2020-07-23T13:58:38.000Z</time>
      </trkpt>
      <trkpt lat="44.88568" lon="5.26508">
        <ele>1337.3</ele>
        <time>2020-07-23T13:58:47.000Z</time>
      </trkpt>
      <trkpt lat="44.88569" lon="5.26521">
        <ele>1336.3</ele>
        <time>2020-07-23T13:58:54.000Z</time>
      </trkpt>
      <trkpt lat="44.8857" lon="5.26535">
        <ele>1335.5</ele>
        <time>2020-07-23T13:59:02.000Z</time>
      </trkpt>
      <trkpt lat="44.88569" lon="5.26548">
        <ele>1335.1</ele>
        <time>2020-07-23T13:59:11.000Z</time>
      </trkpt>
      <trkpt lat="44.88568" lon="5.26561">
        <ele>1334.9</ele>
        <time>2020-07-23T13:59:22.000Z</time>
      </trkpt>
      <trkpt lat="44.88567" lon="5.26575">
        <ele>1334.8</ele>
        <time>2020-07-23T13:59:32.000Z</time>
      </trkpt>
      <trkpt lat="44.88563" lon="5.26587">
        <ele>1334.4</ele>
        <time>2020-07-23T13:59:41.000Z</time>
      </trkpt>
      <trkpt lat="44.88562" lon="5.266">
        <ele>1333.7</ele>
        <time>2020-07-23T13:59:50.000Z</time>
      </trkpt>
      <trkpt lat="44.88567" lon="5.26611">
        <ele>1332</ele>
        <time>2020-07-23T14:00:01.000Z</time>
      </trkpt>
      <trkpt lat="44.88577" lon="5.26616">
        <ele>1330.3</ele>
        <time>2020-07-23T14:00:09.000Z</time>
      </trkpt>
      <trkpt lat="44.88585" lon="5.2662">
        <ele>1329</ele>
        <time>2020-07-23T14:00:17.000Z</time>
      </trkpt>
      <trkpt lat="44.88591" lon="5.2663">
        <ele>1327.5</ele>
        <time>2020-07-23T14:00:26.000Z</time>
      </trkpt>
      <trkpt lat="44.88599" lon="5.26639">
        <ele>1325.7</ele>
        <time>2020-07-23T14:00:35.000Z</time>
      </trkpt>
      <trkpt lat="44.88608" lon="5.26643">
        <ele>1323.5</ele>
        <time>2020-07-23T14:00:56.000Z</time>
      </trkpt>
      <trkpt lat="44.88617" lon="5.26644">
        <ele>1322</ele>
        <time>2020-07-23T14:01:06.000Z</time>
      </trkpt>
      <trkpt lat="44.88626" lon="5.26646">
        <ele>1320.4</ele>
        <time>2020-07-23T14:01:17.000Z</time>
      </trkpt>
      <trkpt lat="44.88636" lon="5.26649">
        <ele>1319</ele>
        <time>2020-07-23T14:01:25.000Z</time>
      </trkpt>
      <trkpt lat="44.88643" lon="5.26658">
        <ele>1317.8</ele>
        <time>2020-07-23T14:01:34.000Z</time>
      </trkpt>
      <trkpt lat="44.88647" lon="5.26671">
        <ele>1316.7</ele>
        <time>2020-07-23T14:01:44.000Z</time>
      </trkpt>
      <trkpt lat="44.8865" lon="5.26684">
        <ele>1315.1</ele>
        <time>2020-07-23T14:01:53.000Z</time>
      </trkpt>
      <trkpt lat="44.88655" lon="5.26696">
        <ele>1313.4</ele>
        <time>2020-07-23T14:02:02.000Z</time>
      </trkpt>
      <trkpt lat="44.88657" lon="5.2671">
        <ele>1311.8</ele>
        <time>2020-07-23T14:02:11.000Z</time>
      </trkpt>
      <trkpt lat="44.88657" lon="5.26723">
        <ele>1310.2</ele>
        <time>2020-07-23T14:02:20.000Z</time>
      </trkpt>
      <trkpt lat="44.88653" lon="5.26735">
        <ele>1308.8</ele>
        <time>2020-07-23T14:02:27.000Z</time>
      </trkpt>
      <trkpt lat="44.88658" lon="5.26746">
        <ele>1308</ele>
        <time>2020-07-23T14:02:34.000Z</time>
      </trkpt>
      <trkpt lat="44.88667" lon="5.26751">
        <ele>1307.3</ele>
        <time>2020-07-23T14:02:42.000Z</time>
      </trkpt>
      <trkpt lat="44.88668" lon="5.26766">
        <ele>1306.2</ele>
        <time>2020-07-23T14:02:51.000Z</time>
      </trkpt>
      <trkpt lat="44.88676" lon="5.26773">
        <ele>1305.3</ele>
        <time>2020-07-23T14:02:58.000Z</time>
      </trkpt>
      <trkpt lat="44.88683" lon="5.26781">
        <ele>1304.6</ele>
        <time>2020-07-23T14:03:06.000Z</time>
      </trkpt>
      <trkpt lat="44.8869" lon="5.2679">
        <ele>1303.4</ele>
        <time>2020-07-23T14:03:15.000Z</time>
      </trkpt>
      <trkpt lat="44.88692" lon="5.26803">
        <ele>1302.1</ele>
        <time>2020-07-23T14:03:25.000Z</time>
      </trkpt>
      <trkpt lat="44.88691" lon="5.26817">
        <ele>1300.8</ele>
        <time>2020-07-23T14:03:32.000Z</time>
      </trkpt>
      <trkpt lat="44.88692" lon="5.2683">
        <ele>1300</ele>
        <time>2020-07-23T14:03:39.000Z</time>
      </trkpt>
      <trkpt lat="44.88692" lon="5.26844">
        <ele>1299.4</ele>
        <time>2020-07-23T14:03:47.000Z</time>
      </trkpt>
      <trkpt lat="44.88692" lon="5.26858">
        <ele>1298.8</ele>
        <time>2020-07-23T14:03:56.000Z</time>
      </trkpt>
      <trkpt lat="44.88695" lon="5.26871">
        <ele>1297.7</ele>
        <time>2020-07-23T14:04:04.000Z</time>
      </trkpt>
      <trkpt lat="44.88698" lon="5.26884">
        <ele>1296.7</ele>
        <time>2020-07-23T14:04:12.000Z</time>
      </trkpt>
      <trkpt lat="44.88699" lon="5.26896">
        <ele>1295.8</ele>
        <time>2020-07-23T14:04:20.000Z</time>
      </trkpt>
      <trkpt lat="44.88699" lon="5.26909">
        <ele>1294.9</ele>
        <time>2020-07-23T14:04:28.000Z</time>
      </trkpt>
      <trkpt lat="44.88704" lon="5.26921">
        <ele>1294</ele>
        <time>2020-07-23T14:04:35.000Z</time>
      </trkpt>
      <trkpt lat="44.8871" lon="5.26932">
        <ele>1292.9</ele>
        <time>2020-07-23T14:04:43.000Z</time>
      </trkpt>
      <trkpt lat="44.88714" lon="5.26945">
        <ele>1292</ele>
        <time>2020-07-23T14:04:51.000Z</time>
      </trkpt>
      <trkpt lat="44.88717" lon="5.26957">
        <ele>1291.3</ele>
        <time>2020-07-23T14:04:58.000Z</time>
      </trkpt>
      <trkpt lat="44.88721" lon="5.26968">
        <ele>1290.6</ele>
        <time>2020-07-23T14:05:05.000Z</time>
      </trkpt>
      <trkpt lat="44.88721" lon="5.26982">
        <ele>1289.7</ele>
        <time>2020-07-23T14:05:26.000Z</time>
      </trkpt>
      <trkpt lat="44.88721" lon="5.26995">
        <ele>1290.9</ele>
        <time>2020-07-23T14:05:34.000Z</time>
      </trkpt>
      <trkpt lat="44.88721" lon="5.27008">
        <ele>1292.9</ele>
        <time>2020-07-23T14:05:43.000Z</time>
      </trkpt>
      <trkpt lat="44.8872" lon="5.27022">
        <ele>1294.7</ele>
        <time>2020-07-23T14:05:52.000Z</time>
      </trkpt>
      <trkpt lat="44.88717" lon="5.27035">
        <ele>1296.2</ele>
        <time>2020-07-23T14:06:01.000Z</time>
      </trkpt>
      <trkpt lat="44.88713" lon="5.27046">
        <ele>1297.6</ele>
        <time>2020-07-23T14:06:10.000Z</time>
      </trkpt>
      <trkpt lat="44.88709" lon="5.27059">
        <ele>1298.8</ele>
        <time>2020-07-23T14:06:19.000Z</time>
      </trkpt>
      <trkpt lat="44.88707" lon="5.27072">
        <ele>1300.2</ele>
        <time>2020-07-23T14:06:29.000Z</time>
      </trkpt>
      <trkpt lat="44.88704" lon="5.27085">
        <ele>1301.3</ele>
        <time>2020-07-23T14:06:37.000Z</time>
      </trkpt>
      <trkpt lat="44.88701" lon="5.27097">
        <ele>1302.6</ele>
        <time>2020-07-23T14:06:45.000Z</time>
      </trkpt>
      <trkpt lat="44.88698" lon="5.27109">
        <ele>1303.8</ele>
        <time>2020-07-23T14:06:53.000Z</time>
      </trkpt>
      <trkpt lat="44.88695" lon="5.27121">
        <ele>1305.1</ele>
        <time>2020-07-23T14:07:01.000Z</time>
      </trkpt>
      <trkpt lat="44.88692" lon="5.27134">
        <ele>1306.1</ele>
        <time>2020-07-23T14:07:09.000Z</time>
      </trkpt>
      <trkpt lat="44.88689" lon="5.27146">
        <ele>1307.6</ele>
        <time>2020-07-23T14:07:18.000Z</time>
      </trkpt>
      <trkpt lat="44.88687" lon="5.27159">
        <ele>1309.5</ele>
        <time>2020-07-23T14:07:28.000Z</time>
      </trkpt>
      <trkpt lat="44.88685" lon="5.27172">
        <ele>1310.9</ele>
        <time>2020-07-23T14:07:37.000Z</time>
      </trkpt>
      <trkpt lat="44.88683" lon="5.27185">
        <ele>1312.1</ele>
        <time>2020-07-23T14:07:46.000Z</time>
      </trkpt>
      <trkpt lat="44.88679" lon="5.27197">
        <ele>1312.9</ele>
        <time>2020-07-23T14:07:55.000Z</time>
      </trkpt>
      <trkpt lat="44.88678" lon="5.2721">
        <ele>1314</ele>
        <time>2020-07-23T14:08:04.000Z</time>
      </trkpt>
      <trkpt lat="44.88674" lon="5.27222">
        <ele>1315.5</ele>
        <time>2020-07-23T14:08:14.000Z</time>
      </trkpt>
      <trkpt lat="44.88682" lon="5.27229">
        <ele>1317.7</ele>
        <time>2020-07-23T14:09:15.000Z</time>
      </trkpt>
      <trkpt lat="44.8869" lon="5.27236">
        <ele>1318</ele>
        <time>2020-07-23T14:09:35.000Z</time>
      </trkpt>
      <trkpt lat="44.88697" lon="5.27245">
        <ele>1318.2</ele>
        <time>2020-07-23T14:09:43.000Z</time>
      </trkpt>
      <trkpt lat="44.88704" lon="5.27255">
        <ele>1318.6</ele>
        <time>2020-07-23T14:09:52.000Z</time>
      </trkpt>
      <trkpt lat="44.88711" lon="5.27263">
        <ele>1319.2</ele>
        <time>2020-07-23T14:10:01.000Z</time>
      </trkpt>
      <trkpt lat="44.88719" lon="5.2727">
        <ele>1319.9</ele>
        <time>2020-07-23T14:10:10.000Z</time>
      </trkpt>
      <trkpt lat="44.88725" lon="5.27279">
        <ele>1320.5</ele>
        <time>2020-07-23T14:10:19.000Z</time>
      </trkpt>
      <trkpt lat="44.8873" lon="5.2729">
        <ele>1321.1</ele>
        <time>2020-07-23T14:10:27.000Z</time>
      </trkpt>
      <trkpt lat="44.88733" lon="5.27302">
        <ele>1321.7</ele>
        <time>2020-07-23T14:10:36.000Z</time>
      </trkpt>
      <trkpt lat="44.88738" lon="5.27315">
        <ele>1322.1</ele>
        <time>2020-07-23T14:10:45.000Z</time>
      </trkpt>
      <trkpt lat="44.88744" lon="5.27324">
        <ele>1322.6</ele>
        <time>2020-07-23T14:10:53.000Z</time>
      </trkpt>
      <trkpt lat="44.88749" lon="5.27335">
        <ele>1323.1</ele>
        <time>2020-07-23T14:11:01.000Z</time>
      </trkpt>
      <trkpt lat="44.88756" lon="5.27345">
        <ele>1323.7</ele>
        <time>2020-07-23T14:11:10.000Z</time>
      </trkpt>
      <trkpt lat="44.88756" lon="5.27359">
        <ele>1324.8</ele>
        <time>2020-07-23T14:11:23.000Z</time>
      </trkpt>
      <trkpt lat="44.88747" lon="5.27366">
        <ele>1325.6</ele>
        <time>2020-07-23T14:11:32.000Z</time>
      </trkpt>
      <trkpt lat="44.88738" lon="5.27371">
        <ele>1326.3</ele>
        <time>2020-07-23T14:11:42.000Z</time>
      </trkpt>
      <trkpt lat="44.8873" lon="5.27379">
        <ele>1327.1</ele>
        <time>2020-07-23T14:11:52.000Z</time>
      </trkpt>
      <trkpt lat="44.88724" lon="5.27388">
        <ele>1327.6</ele>
        <time>2020-07-23T14:11:59.000Z</time>
      </trkpt>
      <trkpt lat="44.88716" lon="5.27396">
        <ele>1328.2</ele>
        <time>2020-07-23T14:12:07.000Z</time>
      </trkpt>
      <trkpt lat="44.88709" lon="5.27407">
        <ele>1328.8</ele>
        <time>2020-07-23T14:12:15.000Z</time>
      </trkpt>
      <trkpt lat="44.88705" lon="5.27419">
        <ele>1329.1</ele>
        <time>2020-07-23T14:12:23.000Z</time>
      </trkpt>
      <trkpt lat="44.88702" lon="5.27432">
        <ele>1329.8</ele>
        <time>2020-07-23T14:12:32.000Z</time>
      </trkpt>
      <trkpt lat="44.887" lon="5.27446">
        <ele>1330.4</ele>
        <time>2020-07-23T14:12:40.000Z</time>
      </trkpt>
      <trkpt lat="44.88695" lon="5.27458">
        <ele>1331.2</ele>
        <time>2020-07-23T14:12:49.000Z</time>
      </trkpt>
      <trkpt lat="44.8869" lon="5.27469">
        <ele>1331.8</ele>
        <time>2020-07-23T14:12:57.000Z</time>
      </trkpt>
      <trkpt lat="44.88685" lon="5.27482">
        <ele>1332.3</ele>
        <time>2020-07-23T14:13:05.000Z</time>
      </trkpt>
      <trkpt lat="44.8868" lon="5.27493">
        <ele>1332.8</ele>
        <time>2020-07-23T14:13:13.000Z</time>
      </trkpt>
      <trkpt lat="44.88675" lon="5.27505">
        <ele>1333.2</ele>
        <time>2020-07-23T14:13:21.000Z</time>
      </trkpt>
      <trkpt lat="44.8867" lon="5.27517">
        <ele>1333.5</ele>
        <time>2020-07-23T14:13:28.000Z</time>
      </trkpt>
      <trkpt lat="44.8867" lon="5.27531">
        <ele>1334.1</ele>
        <time>2020-07-23T14:13:35.000Z</time>
      </trkpt>
      <trkpt lat="44.88674" lon="5.27543">
        <ele>1334.5</ele>
        <time>2020-07-23T14:13:41.000Z</time>
      </trkpt>
      <trkpt lat="44.88676" lon="5.27555">
        <ele>1335.1</ele>
        <time>2020-07-23T14:13:48.000Z</time>
      </trkpt>
      <trkpt lat="44.8868" lon="5.27568">
        <ele>1335.7</ele>
        <time>2020-07-23T14:13:56.000Z</time>
      </trkpt>
      <trkpt lat="44.88685" lon="5.2758">
        <ele>1336.2</ele>
        <time>2020-07-23T14:14:04.000Z</time>
      </trkpt>
      <trkpt lat="44.88689" lon="5.27592">
        <ele>1336.8</ele>
        <time>2020-07-23T14:14:12.000Z</time>
      </trkpt>
      <trkpt lat="44.88696" lon="5.27602">
        <ele>1337.1</ele>
        <time>2020-07-23T14:14:19.000Z</time>
      </trkpt>
      <trkpt lat="44.88703" lon="5.27611">
        <ele>1337.5</ele>
        <time>2020-07-23T14:14:27.000Z</time>
      </trkpt>
      <trkpt lat="44.8871" lon="5.27621">
        <ele>1337.9</ele>
        <time>2020-07-23T14:14:35.000Z</time>
      </trkpt>
      <trkpt lat="44.88717" lon="5.27629">
        <ele>1338.4</ele>
        <time>2020-07-23T14:14:43.000Z</time>
      </trkpt>
      <trkpt lat="44.88724" lon="5.27639">
        <ele>1339.2</ele>
        <time>2020-07-23T14:14:52.000Z</time>
      </trkpt>
      <trkpt lat="44.8873" lon="5.2765">
        <ele>1339.9</ele>
        <time>2020-07-23T14:15:01.000Z</time>
      </trkpt>
      <trkpt lat="44.88737" lon="5.27661">
        <ele>1340.4</ele>
        <time>2020-07-23T14:15:10.000Z</time>
      </trkpt>
      <trkpt lat="44.88743" lon="5.27671">
        <ele>1340.7</ele>
        <time>2020-07-23T14:15:18.000Z</time>
      </trkpt>
      <trkpt lat="44.88747" lon="5.27682">
        <ele>1340.9</ele>
        <time>2020-07-23T14:15:28.000Z</time>
      </trkpt>
      <trkpt lat="44.88755" lon="5.2769">
        <ele>1341.3</ele>
        <time>2020-07-23T14:15:36.000Z</time>
      </trkpt>
      <trkpt lat="44.88763" lon="5.27697">
        <ele>1342</ele>
        <time>2020-07-23T14:15:44.000Z</time>
      </trkpt>
      <trkpt lat="44.88769" lon="5.27708">
        <ele>1342.4</ele>
        <time>2020-07-23T14:15:52.000Z</time>
      </trkpt>
      <trkpt lat="44.88766" lon="5.2772">
        <ele>1343.8</ele>
        <time>2020-07-23T14:16:03.000Z</time>
      </trkpt>
      <trkpt lat="44.88765" lon="5.27733">
        <ele>1345.4</ele>
        <time>2020-07-23T14:16:14.000Z</time>
      </trkpt>
      <trkpt lat="44.88756" lon="5.27737">
        <ele>1347.1</ele>
        <time>2020-07-23T14:16:29.000Z</time>
      </trkpt>
      <trkpt lat="44.88746" lon="5.27739">
        <ele>1347.6</ele>
        <time>2020-07-23T14:16:37.000Z</time>
      </trkpt>
      <trkpt lat="44.88737" lon="5.27742">
        <ele>1348.2</ele>
        <time>2020-07-23T14:16:46.000Z</time>
      </trkpt>
      <trkpt lat="44.88727" lon="5.27742">
        <ele>1348.7</ele>
        <time>2020-07-23T14:16:55.000Z</time>
      </trkpt>
      <trkpt lat="44.88718" lon="5.27741">
        <ele>1349.2</ele>
        <time>2020-07-23T14:17:03.000Z</time>
      </trkpt>
      <trkpt lat="44.88709" lon="5.2774">
        <ele>1349.7</ele>
        <time>2020-07-23T14:17:11.000Z</time>
      </trkpt>
      <trkpt lat="44.88699" lon="5.27737">
        <ele>1350.7</ele>
        <time>2020-07-23T14:17:20.000Z</time>
      </trkpt>
      <trkpt lat="44.8869" lon="5.27734">
        <ele>1351.4</ele>
        <time>2020-07-23T14:17:29.000Z</time>
      </trkpt>
      <trkpt lat="44.88681" lon="5.27732">
        <ele>1351.9</ele>
        <time>2020-07-23T14:17:37.000Z</time>
      </trkpt>
      <trkpt lat="44.88672" lon="5.27728">
        <ele>1352.4</ele>
        <time>2020-07-23T14:17:45.000Z</time>
      </trkpt>
      <trkpt lat="44.88662" lon="5.27727">
        <ele>1352.7</ele>
        <time>2020-07-23T14:17:53.000Z</time>
      </trkpt>
      <trkpt lat="44.88653" lon="5.27725">
        <ele>1353.1</ele>
        <time>2020-07-23T14:18:01.000Z</time>
      </trkpt>
      <trkpt lat="44.88644" lon="5.27724">
        <ele>1353.5</ele>
        <time>2020-07-23T14:18:09.000Z</time>
      </trkpt>
      <trkpt lat="44.88634" lon="5.27725">
        <ele>1354</ele>
        <time>2020-07-23T14:18:18.000Z</time>
      </trkpt>
      <trkpt lat="44.88624" lon="5.27723">
        <ele>1354.5</ele>
        <time>2020-07-23T14:18:27.000Z</time>
      </trkpt>
      <trkpt lat="44.88615" lon="5.2772">
        <ele>1355.1</ele>
        <time>2020-07-23T14:18:35.000Z</time>
      </trkpt>
      <trkpt lat="44.88606" lon="5.27715">
        <ele>1355.6</ele>
        <time>2020-07-23T14:18:43.000Z</time>
      </trkpt>
      <trkpt lat="44.88597" lon="5.27716">
        <ele>1356.5</ele>
        <time>2020-07-23T14:18:52.000Z</time>
      </trkpt>
      <trkpt lat="44.8859" lon="5.27725">
        <ele>1357.5</ele>
        <time>2020-07-23T14:19:01.000Z</time>
      </trkpt>
      <trkpt lat="44.88589" lon="5.27739">
        <ele>1358.6</ele>
        <time>2020-07-23T14:19:10.000Z</time>
      </trkpt>
      <trkpt lat="44.88591" lon="5.27752">
        <ele>1359.4</ele>
        <time>2020-07-23T14:19:19.000Z</time>
      </trkpt>
      <trkpt lat="44.886" lon="5.27757">
        <ele>1360.1</ele>
        <time>2020-07-23T14:19:27.000Z</time>
      </trkpt>
      <trkpt lat="44.88608" lon="5.27764">
        <ele>1360.5</ele>
        <time>2020-07-23T14:19:36.000Z</time>
      </trkpt>
      <trkpt lat="44.88616" lon="5.2777">
        <ele>1360.8</ele>
        <time>2020-07-23T14:19:44.000Z</time>
      </trkpt>
      <trkpt lat="44.88624" lon="5.27778">
        <ele>1361</ele>
        <time>2020-07-23T14:19:53.000Z</time>
      </trkpt>
      <trkpt lat="44.88632" lon="5.27786">
        <ele>1361.4</ele>
        <time>2020-07-23T14:20:00.000Z</time>
      </trkpt>
      <trkpt lat="44.88639" lon="5.27794">
        <ele>1361.5</ele>
        <time>2020-07-23T14:20:06.000Z</time>
      </trkpt>
      <trkpt lat="44.88646" lon="5.27802">
        <ele>1361.8</ele>
        <time>2020-07-23T14:20:20.000Z</time>
      </trkpt>
      <trkpt lat="44.88655" lon="5.27805">
        <ele>1362.4</ele>
        <time>2020-07-23T14:21:48.000Z</time>
      </trkpt>
      <trkpt lat="44.88663" lon="5.27813">
        <ele>1362.4</ele>
        <time>2020-07-23T14:21:56.000Z</time>
      </trkpt>
      <trkpt lat="44.88672" lon="5.27817">
        <ele>1362.5</ele>
        <time>2020-07-23T14:22:04.000Z</time>
      </trkpt>
      <trkpt lat="44.88679" lon="5.27825">
        <ele>1362.5</ele>
        <time>2020-07-23T14:22:12.000Z</time>
      </trkpt>
      <trkpt lat="44.88688" lon="5.27832">
        <ele>1362.8</ele>
        <time>2020-07-23T14:22:21.000Z</time>
      </trkpt>
      <trkpt lat="44.88696" lon="5.27839">
        <ele>1363</ele>
        <time>2020-07-23T14:22:30.000Z</time>
      </trkpt>
      <trkpt lat="44.88705" lon="5.27846">
        <ele>1363.2</ele>
        <time>2020-07-23T14:22:38.000Z</time>
      </trkpt>
      <trkpt lat="44.88714" lon="5.27852">
        <ele>1363.5</ele>
        <time>2020-07-23T14:22:46.000Z</time>
      </trkpt>
      <trkpt lat="44.88724" lon="5.27856">
        <ele>1364.2</ele>
        <time>2020-07-23T14:22:56.000Z</time>
      </trkpt>
      <trkpt lat="44.88733" lon="5.27858">
        <ele>1364.6</ele>
        <time>2020-07-23T14:23:02.000Z</time>
      </trkpt>
      <trkpt lat="44.88742" lon="5.27859">
        <ele>1364.9</ele>
        <time>2020-07-23T14:23:10.000Z</time>
      </trkpt>
      <trkpt lat="44.88752" lon="5.2786">
        <ele>1365.2</ele>
        <time>2020-07-23T14:23:17.000Z</time>
      </trkpt>
      <trkpt lat="44.88761" lon="5.27861">
        <ele>1365.7</ele>
        <time>2020-07-23T14:23:23.000Z</time>
      </trkpt>
      <trkpt lat="44.8877" lon="5.27861">
        <ele>1366.4</ele>
        <time>2020-07-23T14:23:29.000Z</time>
      </trkpt>
      <trkpt lat="44.8878" lon="5.27863">
        <ele>1367.3</ele>
        <time>2020-07-23T14:23:36.000Z</time>
      </trkpt>
      <trkpt lat="44.88789" lon="5.27862">
        <ele>1368</ele>
        <time>2020-07-23T14:23:43.000Z</time>
      </trkpt>
      <trkpt lat="44.88798" lon="5.27865">
        <ele>1368.7</ele>
        <time>2020-07-23T14:23:50.000Z</time>
      </trkpt>
      <trkpt lat="44.88808" lon="5.27867">
        <ele>1369.5</ele>
        <time>2020-07-23T14:23:59.000Z</time>
      </trkpt>
      <trkpt lat="44.88818" lon="5.27871">
        <ele>1370.2</ele>
        <time>2020-07-23T14:24:07.000Z</time>
      </trkpt>
      <trkpt lat="44.88827" lon="5.27874">
        <ele>1370.8</ele>
        <time>2020-07-23T14:24:16.000Z</time>
      </trkpt>
      <trkpt lat="44.88837" lon="5.27876">
        <ele>1371.5</ele>
        <time>2020-07-23T14:24:25.000Z</time>
      </trkpt>
      <trkpt lat="44.88846" lon="5.27877">
        <ele>1372.3</ele>
        <time>2020-07-23T14:24:35.000Z</time>
      </trkpt>
      <trkpt lat="44.88856" lon="5.27879">
        <ele>1373.3</ele>
        <time>2020-07-23T14:24:44.000Z</time>
      </trkpt>
      <trkpt lat="44.88866" lon="5.2788">
        <ele>1374.2</ele>
        <time>2020-07-23T14:24:52.000Z</time>
      </trkpt>
      <trkpt lat="44.88876" lon="5.27881">
        <ele>1374.7</ele>
        <time>2020-07-23T14:25:00.000Z</time>
      </trkpt>
      <trkpt lat="44.88886" lon="5.2788">
        <ele>1375.2</ele>
        <time>2020-07-23T14:25:09.000Z</time>
      </trkpt>
      <trkpt lat="44.88896" lon="5.2788">
        <ele>1375.4</ele>
        <time>2020-07-23T14:25:16.000Z</time>
      </trkpt>
      <trkpt lat="44.88906" lon="5.27882">
        <ele>1375.5</ele>
        <time>2020-07-23T14:25:21.000Z</time>
      </trkpt>
      <trkpt lat="44.88915" lon="5.2788">
        <ele>1375.6</ele>
        <time>2020-07-23T14:25:28.000Z</time>
      </trkpt>
      <trkpt lat="44.88925" lon="5.27881">
        <ele>1375.6</ele>
        <time>2020-07-23T14:25:39.000Z</time>
      </trkpt>
      <trkpt lat="44.88935" lon="5.2788">
        <ele>1375.8</ele>
        <time>2020-07-23T14:26:03.000Z</time>
      </trkpt>
      <trkpt lat="44.88946" lon="5.27882">
        <ele>1375.9</ele>
        <time>2020-07-23T14:26:10.000Z</time>
      </trkpt>
      <trkpt lat="44.88956" lon="5.27885">
        <ele>1375.8</ele>
        <time>2020-07-23T14:26:15.000Z</time>
      </trkpt>
      <trkpt lat="44.88965" lon="5.2789">
        <ele>1375.9</ele>
        <time>2020-07-23T14:26:20.000Z</time>
      </trkpt>
      <trkpt lat="44.88974" lon="5.27896">
        <ele>1376</ele>
        <time>2020-07-23T14:26:24.000Z</time>
      </trkpt>
      <trkpt lat="44.88982" lon="5.27901">
        <ele>1376.1</ele>
        <time>2020-07-23T14:26:29.000Z</time>
      </trkpt>
      <trkpt lat="44.88991" lon="5.27904">
        <ele>1376.5</ele>
        <time>2020-07-23T14:26:37.000Z</time>
      </trkpt>
      <trkpt lat="44.89" lon="5.2791">
        <ele>1376.9</ele>
        <time>2020-07-23T14:26:43.000Z</time>
      </trkpt>
      <trkpt lat="44.89009" lon="5.27917">
        <ele>1377.4</ele>
        <time>2020-07-23T14:26:47.000Z</time>
      </trkpt>
      <trkpt lat="44.89017" lon="5.27926">
        <ele>1377.9</ele>
        <time>2020-07-23T14:26:52.000Z</time>
      </trkpt>
      <trkpt lat="44.89027" lon="5.27935">
        <ele>1378.5</ele>
        <time>2020-07-23T14:26:58.000Z</time>
      </trkpt>
      <trkpt lat="44.89035" lon="5.27945">
        <ele>1379</ele>
        <time>2020-07-23T14:27:02.000Z</time>
      </trkpt>
      <trkpt lat="44.89044" lon="5.27951">
        <ele>1379.8</ele>
        <time>2020-07-23T14:27:09.000Z</time>
      </trkpt>
      <trkpt lat="44.89053" lon="5.27957">
        <ele>1380.2</ele>
        <time>2020-07-23T14:27:13.000Z</time>
      </trkpt>
      <trkpt lat="44.89061" lon="5.27965">
        <ele>1380.3</ele>
        <time>2020-07-23T14:27:16.000Z</time>
      </trkpt>
      <trkpt lat="44.89071" lon="5.27975">
        <ele>1380.3</ele>
        <time>2020-07-23T14:27:20.000Z</time>
      </trkpt>
      <trkpt lat="44.8908" lon="5.27986">
        <ele>1380.4</ele>
        <time>2020-07-23T14:27:24.000Z</time>
      </trkpt>
      <trkpt lat="44.89088" lon="5.27994">
        <ele>1380.4</ele>
        <time>2020-07-23T14:27:28.000Z</time>
      </trkpt>
      <trkpt lat="44.89096" lon="5.28002">
        <ele>1380.6</ele>
        <time>2020-07-23T14:27:32.000Z</time>
      </trkpt>
      <trkpt lat="44.89099" lon="5.28016">
        <ele>1380.7</ele>
        <time>2020-07-23T14:27:37.000Z</time>
      </trkpt>
      <trkpt lat="44.89102" lon="5.28028">
        <ele>1381.2</ele>
        <time>2020-07-23T14:27:46.000Z</time>
      </trkpt>
      <trkpt lat="44.89103" lon="5.28041">
        <ele>1381.9</ele>
        <time>2020-07-23T14:27:55.000Z</time>
      </trkpt>
      <trkpt lat="44.89109" lon="5.28051">
        <ele>1382.3</ele>
        <time>2020-07-23T14:28:03.000Z</time>
      </trkpt>
      <trkpt lat="44.89118" lon="5.28059">
        <ele>1382.5</ele>
        <time>2020-07-23T14:28:10.000Z</time>
      </trkpt>
      <trkpt lat="44.89124" lon="5.28068">
        <ele>1382.3</ele>
        <time>2020-07-23T14:28:16.000Z</time>
      </trkpt>
      <trkpt lat="44.89132" lon="5.28077">
        <ele>1381.8</ele>
        <time>2020-07-23T14:28:24.000Z</time>
      </trkpt>
      <trkpt lat="44.89138" lon="5.28088">
        <ele>1381.3</ele>
        <time>2020-07-23T14:28:31.000Z</time>
      </trkpt>
      <trkpt lat="44.89145" lon="5.28098">
        <ele>1380.7</ele>
        <time>2020-07-23T14:28:39.000Z</time>
      </trkpt>
      <trkpt lat="44.89152" lon="5.28109">
        <ele>1380.1</ele>
        <time>2020-07-23T14:28:48.000Z</time>
      </trkpt>
      <trkpt lat="44.89158" lon="5.28119">
        <ele>1379.4</ele>
        <time>2020-07-23T14:28:55.000Z</time>
      </trkpt>
      <trkpt lat="44.89165" lon="5.28129">
        <ele>1378.6</ele>
        <time>2020-07-23T14:29:02.000Z</time>
      </trkpt>
      <trkpt lat="44.89171" lon="5.2814">
        <ele>1377.9</ele>
        <time>2020-07-23T14:29:10.000Z</time>
      </trkpt>
      <trkpt lat="44.89177" lon="5.2815">
        <ele>1377.4</ele>
        <time>2020-07-23T14:29:18.000Z</time>
      </trkpt>
      <trkpt lat="44.89183" lon="5.2816">
        <ele>1376.7</ele>
        <time>2020-07-23T14:29:26.000Z</time>
      </trkpt>
      <trkpt lat="44.8919" lon="5.28169">
        <ele>1374.8</ele>
        <time>2020-07-23T14:29:55.000Z</time>
      </trkpt>
      <trkpt lat="44.89198" lon="5.28176">
        <ele>1374.7</ele>
        <time>2020-07-23T14:30:05.000Z</time>
      </trkpt>
      <trkpt lat="44.89205" lon="5.28186">
        <ele>1374.2</ele>
        <time>2020-07-23T14:30:13.000Z</time>
      </trkpt>
      <trkpt lat="44.89213" lon="5.28191">
        <ele>1373.8</ele>
        <time>2020-07-23T14:30:21.000Z</time>
      </trkpt>
      <trkpt lat="44.89221" lon="5.28198">
        <ele>1373.4</ele>
        <time>2020-07-23T14:30:28.000Z</time>
      </trkpt>
      <trkpt lat="44.89229" lon="5.28203">
        <ele>1372.9</ele>
        <time>2020-07-23T14:30:35.000Z</time>
      </trkpt>
      <trkpt lat="44.89238" lon="5.28209">
        <ele>1372.3</ele>
        <time>2020-07-23T14:30:42.000Z</time>
      </trkpt>
      <trkpt lat="44.89248" lon="5.28213">
        <ele>1371.6</ele>
        <time>2020-07-23T14:30:50.000Z</time>
      </trkpt>
      <trkpt lat="44.89257" lon="5.28214">
        <ele>1370.7</ele>
        <time>2020-07-23T14:30:57.000Z</time>
      </trkpt>
      <trkpt lat="44.89265" lon="5.28221">
        <ele>1370</ele>
        <time>2020-07-23T14:31:04.000Z</time>
      </trkpt>
      <trkpt lat="44.89272" lon="5.28232">
        <ele>1369.4</ele>
        <time>2020-07-23T14:31:12.000Z</time>
      </trkpt>
      <trkpt lat="44.89277" lon="5.28243">
        <ele>1369.1</ele>
        <time>2020-07-23T14:31:19.000Z</time>
      </trkpt>
      <trkpt lat="44.89283" lon="5.28254">
        <ele>1368.8</ele>
        <time>2020-07-23T14:31:26.000Z</time>
      </trkpt>
      <trkpt lat="44.89288" lon="5.28266">
        <ele>1368.6</ele>
        <time>2020-07-23T14:31:34.000Z</time>
      </trkpt>
      <trkpt lat="44.89292" lon="5.28278">
        <ele>1368.5</ele>
        <time>2020-07-23T14:31:41.000Z</time>
      </trkpt>
      <trkpt lat="44.89298" lon="5.28289">
        <ele>1368.2</ele>
        <time>2020-07-23T14:31:48.000Z</time>
      </trkpt>
      <trkpt lat="44.89303" lon="5.28301">
        <ele>1367.8</ele>
        <time>2020-07-23T14:31:55.000Z</time>
      </trkpt>
      <trkpt lat="44.89308" lon="5.28313">
        <ele>1367.4</ele>
        <time>2020-07-23T14:32:03.000Z</time>
      </trkpt>
      <trkpt lat="44.89315" lon="5.28323">
        <ele>1367.5</ele>
        <time>2020-07-23T14:32:10.000Z</time>
      </trkpt>
      <trkpt lat="44.89322" lon="5.28332">
        <ele>1367.5</ele>
        <time>2020-07-23T14:32:18.000Z</time>
      </trkpt>
      <trkpt lat="44.89329" lon="5.28341">
        <ele>1367.5</ele>
        <time>2020-07-23T14:32:24.000Z</time>
      </trkpt>
      <trkpt lat="44.89337" lon="5.28351">
        <ele>1367.7</ele>
        <time>2020-07-23T14:32:31.000Z</time>
      </trkpt>
      <trkpt lat="44.89345" lon="5.2836">
        <ele>1367.9</ele>
        <time>2020-07-23T14:32:38.000Z</time>
      </trkpt>
      <trkpt lat="44.89351" lon="5.2837">
        <ele>1368.3</ele>
        <time>2020-07-23T14:32:45.000Z</time>
      </trkpt>
      <trkpt lat="44.89358" lon="5.2838">
        <ele>1368.5</ele>
        <time>2020-07-23T14:32:52.000Z</time>
      </trkpt>
      <trkpt lat="44.89364" lon="5.28388">
        <ele>1368.9</ele>
        <time>2020-07-23T14:32:59.000Z</time>
      </trkpt>
      <trkpt lat="44.8937" lon="5.28399">
        <ele>1369.2</ele>
        <time>2020-07-23T14:33:06.000Z</time>
      </trkpt>
      <trkpt lat="44.89377" lon="5.28409">
        <ele>1369.6</ele>
        <time>2020-07-23T14:33:14.000Z</time>
      </trkpt>
      <trkpt lat="44.89384" lon="5.28418">
        <ele>1369.9</ele>
        <time>2020-07-23T14:33:21.000Z</time>
      </trkpt>
      <trkpt lat="44.89391" lon="5.28429">
        <ele>1369.9</ele>
        <time>2020-07-23T14:33:29.000Z</time>
      </trkpt>
      <trkpt lat="44.89398" lon="5.28439">
        <ele>1370.2</ele>
        <time>2020-07-23T14:33:37.000Z</time>
      </trkpt>
      <trkpt lat="44.89404" lon="5.28448">
        <ele>1370.1</ele>
        <time>2020-07-23T14:33:44.000Z</time>
      </trkpt>
      <trkpt lat="44.8941" lon="5.28458">
        <ele>1369.8</ele>
        <time>2020-07-23T14:33:51.000Z</time>
      </trkpt>
      <trkpt lat="44.89416" lon="5.28467">
        <ele>1369.5</ele>
        <time>2020-07-23T14:33:58.000Z</time>
      </trkpt>
      <trkpt lat="44.89424" lon="5.28477">
        <ele>1369.2</ele>
        <time>2020-07-23T14:34:06.000Z</time>
      </trkpt>
      <trkpt lat="44.89429" lon="5.28487">
        <ele>1368.9</ele>
        <time>2020-07-23T14:34:13.000Z</time>
      </trkpt>
      <trkpt lat="44.89435" lon="5.28497">
        <ele>1368.4</ele>
        <time>2020-07-23T14:34:20.000Z</time>
      </trkpt>
      <trkpt lat="44.89442" lon="5.28507">
        <ele>1367.9</ele>
        <time>2020-07-23T14:34:27.000Z</time>
      </trkpt>
      <trkpt lat="44.89449" lon="5.28517">
        <ele>1367.3</ele>
        <time>2020-07-23T14:34:35.000Z</time>
      </trkpt>
      <trkpt lat="44.89458" lon="5.28524">
        <ele>1366.6</ele>
        <time>2020-07-23T14:34:43.000Z</time>
      </trkpt>
      <trkpt lat="44.89466" lon="5.28532">
        <ele>1365.8</ele>
        <time>2020-07-23T14:34:51.000Z</time>
      </trkpt>
      <trkpt lat="44.89474" lon="5.2854">
        <ele>1365.1</ele>
        <time>2020-07-23T14:34:59.000Z</time>
      </trkpt>
      <trkpt lat="44.89481" lon="5.28549">
        <ele>1364.4</ele>
        <time>2020-07-23T14:35:06.000Z</time>
      </trkpt>
      <trkpt lat="44.89489" lon="5.28557">
        <ele>1363.7</ele>
        <time>2020-07-23T14:35:14.000Z</time>
      </trkpt>
      <trkpt lat="44.89497" lon="5.28566">
        <ele>1363.2</ele>
        <time>2020-07-23T14:35:22.000Z</time>
      </trkpt>
      <trkpt lat="44.89507" lon="5.28573">
        <ele>1362.3</ele>
        <time>2020-07-23T14:35:33.000Z</time>
      </trkpt>
      <trkpt lat="44.89516" lon="5.28577">
        <ele>1361.8</ele>
        <time>2020-07-23T14:35:40.000Z</time>
      </trkpt>
      <trkpt lat="44.89523" lon="5.28586">
        <ele>1361.3</ele>
        <time>2020-07-23T14:35:47.000Z</time>
      </trkpt>
      <trkpt lat="44.89533" lon="5.28592">
        <ele>1360.9</ele>
        <time>2020-07-23T14:35:56.000Z</time>
      </trkpt>
      <trkpt lat="44.89542" lon="5.28595">
        <ele>1360.4</ele>
        <time>2020-07-23T14:36:03.000Z</time>
      </trkpt>
      <trkpt lat="44.89552" lon="5.286">
        <ele>1360</ele>
        <time>2020-07-23T14:36:10.000Z</time>
      </trkpt>
      <trkpt lat="44.89562" lon="5.28604">
        <ele>1359.5</ele>
        <time>2020-07-23T14:36:17.000Z</time>
      </trkpt>
      <trkpt lat="44.89571" lon="5.28607">
        <ele>1358.8</ele>
        <time>2020-07-23T14:36:25.000Z</time>
      </trkpt>
      <trkpt lat="44.8958" lon="5.28611">
        <ele>1358.3</ele>
        <time>2020-07-23T14:36:32.000Z</time>
      </trkpt>
      <trkpt lat="44.8959" lon="5.28614">
        <ele>1357.5</ele>
        <time>2020-07-23T14:36:41.000Z</time>
      </trkpt>
      <trkpt lat="44.896" lon="5.28615">
        <ele>1356.9</ele>
        <time>2020-07-23T14:36:49.000Z</time>
      </trkpt>
      <trkpt lat="44.89609" lon="5.28618">
        <ele>1356.1</ele>
        <time>2020-07-23T14:36:59.000Z</time>
      </trkpt>
      <trkpt lat="44.89613" lon="5.2863">
        <ele>1355.5</ele>
        <time>2020-07-23T14:37:13.000Z</time>
      </trkpt>
      <trkpt lat="44.89623" lon="5.2863">
        <ele>1355.1</ele>
        <time>2020-07-23T14:37:53.000Z</time>
      </trkpt>
      <trkpt lat="44.89631" lon="5.28627">
        <ele>1354.9</ele>
        <time>2020-07-23T14:38:02.000Z</time>
      </trkpt>
      <trkpt lat="44.89641" lon="5.28629">
        <ele>1354.6</ele>
        <time>2020-07-23T14:38:11.000Z</time>
      </trkpt>
      <trkpt lat="44.89649" lon="5.28634">
        <ele>1354.3</ele>
        <time>2020-07-23T14:38:19.000Z</time>
      </trkpt>
      <trkpt lat="44.89657" lon="5.28641">
        <ele>1354.2</ele>
        <time>2020-07-23T14:38:27.000Z</time>
      </trkpt>
      <trkpt lat="44.89667" lon="5.28641">
        <ele>1354.3</ele>
        <time>2020-07-23T14:38:35.000Z</time>
      </trkpt>
      <trkpt lat="44.89675" lon="5.28649">
        <ele>1354.2</ele>
        <time>2020-07-23T14:38:44.000Z</time>
      </trkpt>
      <trkpt lat="44.89684" lon="5.28654">
        <ele>1354</ele>
        <time>2020-07-23T14:38:52.000Z</time>
      </trkpt>
      <trkpt lat="44.89692" lon="5.2866">
        <ele>1353.8</ele>
        <time>2020-07-23T14:39:00.000Z</time>
      </trkpt>
      <trkpt lat="44.89701" lon="5.28663">
        <ele>1353.3</ele>
        <time>2020-07-23T14:39:08.000Z</time>
      </trkpt>
      <trkpt lat="44.8971" lon="5.28666">
        <ele>1352.7</ele>
        <time>2020-07-23T14:39:16.000Z</time>
      </trkpt>
      <trkpt lat="44.89719" lon="5.28668">
        <ele>1352.4</ele>
        <time>2020-07-23T14:39:24.000Z</time>
      </trkpt>
      <trkpt lat="44.89729" lon="5.28668">
        <ele>1352</ele>
        <time>2020-07-23T14:39:32.000Z</time>
      </trkpt>
      <trkpt lat="44.89738" lon="5.28669">
        <ele>1351.4</ele>
        <time>2020-07-23T14:39:39.000Z</time>
      </trkpt>
      <trkpt lat="44.89747" lon="5.28672">
        <ele>1350.9</ele>
        <time>2020-07-23T14:39:46.000Z</time>
      </trkpt>
      <trkpt lat="44.89757" lon="5.28673">
        <ele>1350.3</ele>
        <time>2020-07-23T14:39:53.000Z</time>
      </trkpt>
      <trkpt lat="44.89767" lon="5.28675">
        <ele>1349.7</ele>
        <time>2020-07-23T14:40:00.000Z</time>
      </trkpt>
      <trkpt lat="44.89777" lon="5.28674">
        <ele>1349.1</ele>
        <time>2020-07-23T14:40:08.000Z</time>
      </trkpt>
      <trkpt lat="44.89787" lon="5.28671">
        <ele>1348.4</ele>
        <time>2020-07-23T14:40:16.000Z</time>
      </trkpt>
      <trkpt lat="44.89797" lon="5.2867">
        <ele>1347.9</ele>
        <time>2020-07-23T14:40:25.000Z</time>
      </trkpt>
      <trkpt lat="44.89807" lon="5.28667">
        <ele>1347.3</ele>
        <time>2020-07-23T14:40:33.000Z</time>
      </trkpt>
      <trkpt lat="44.89816" lon="5.28663">
        <ele>1346.6</ele>
        <time>2020-07-23T14:40:41.000Z</time>
      </trkpt>
      <trkpt lat="44.89826" lon="5.28661">
        <ele>1346.1</ele>
        <time>2020-07-23T14:40:50.000Z</time>
      </trkpt>
      <trkpt lat="44.89835" lon="5.28657">
        <ele>1345.2</ele>
        <time>2020-07-23T14:40:57.000Z</time>
      </trkpt>
      <trkpt lat="44.89844" lon="5.28655">
        <ele>1344.4</ele>
        <time>2020-07-23T14:41:05.000Z</time>
      </trkpt>
      <trkpt lat="44.89853" lon="5.28656">
        <ele>1343.8</ele>
        <time>2020-07-23T14:41:14.000Z</time>
      </trkpt>
      <trkpt lat="44.89863" lon="5.28657">
        <ele>1343.4</ele>
        <time>2020-07-23T14:41:21.000Z</time>
      </trkpt>
      <trkpt lat="44.89873" lon="5.28658">
        <ele>1342.8</ele>
        <time>2020-07-23T14:41:29.000Z</time>
      </trkpt>
      <trkpt lat="44.89882" lon="5.28655">
        <ele>1342.4</ele>
        <time>2020-07-23T14:41:36.000Z</time>
      </trkpt>
      <trkpt lat="44.89892" lon="5.28653">
        <ele>1342</ele>
        <time>2020-07-23T14:41:44.000Z</time>
      </trkpt>
      <trkpt lat="44.89903" lon="5.28653">
        <ele>1341.6</ele>
        <time>2020-07-23T14:41:52.000Z</time>
      </trkpt>
      <trkpt lat="44.89912" lon="5.28651">
        <ele>1341.1</ele>
        <time>2020-07-23T14:41:59.000Z</time>
      </trkpt>
      <trkpt lat="44.89921" lon="5.28649">
        <ele>1337.2</ele>
        <time>2020-07-23T14:42:07.000Z</time>
      </trkpt>
      <trkpt lat="44.89931" lon="5.28647">
        <ele>1341.3</ele>
        <time>2020-07-23T14:42:14.000Z</time>
      </trkpt>
      <trkpt lat="44.8994" lon="5.28643">
        <ele>1341.4</ele>
        <time>2020-07-23T14:42:21.000Z</time>
      </trkpt>
      <trkpt lat="44.8995" lon="5.28643">
        <ele>1339.4</ele>
        <time>2020-07-23T14:42:28.000Z</time>
      </trkpt>
      <trkpt lat="44.89959" lon="5.28643">
        <ele>1338.1</ele>
        <time>2020-07-23T14:42:36.000Z</time>
      </trkpt>
      <trkpt lat="44.89969" lon="5.28645">
        <ele>1337.4</ele>
        <time>2020-07-23T14:42:43.000Z</time>
      </trkpt>
      <trkpt lat="44.89978" lon="5.28648">
        <ele>1336.9</ele>
        <time>2020-07-23T14:42:52.000Z</time>
      </trkpt>
      <trkpt lat="44.89987" lon="5.28654">
        <ele>1336.6</ele>
        <time>2020-07-23T14:43:00.000Z</time>
      </trkpt>
      <trkpt lat="44.89996" lon="5.28657">
        <ele>1336.4</ele>
        <time>2020-07-23T14:43:07.000Z</time>
      </trkpt>
      <trkpt lat="44.90006" lon="5.28662">
        <ele>1335.8</ele>
        <time>2020-07-23T14:43:15.000Z</time>
      </trkpt>
      <trkpt lat="44.90015" lon="5.28667">
        <ele>1335.1</ele>
        <time>2020-07-23T14:43:21.000Z</time>
      </trkpt>
      <trkpt lat="44.90023" lon="5.28674">
        <ele>1334.4</ele>
        <time>2020-07-23T14:43:29.000Z</time>
      </trkpt>
      <trkpt lat="44.90033" lon="5.28677">
        <ele>1333.1</ele>
        <time>2020-07-23T14:43:38.000Z</time>
      </trkpt>
      <trkpt lat="44.90042" lon="5.28677">
        <ele>1332.8</ele>
        <time>2020-07-23T14:43:44.000Z</time>
      </trkpt>
      <trkpt lat="44.90051" lon="5.28682">
        <ele>1336.4</ele>
        <time>2020-07-23T14:43:51.000Z</time>
      </trkpt>
      <trkpt lat="44.9006" lon="5.28688">
        <ele>1337.8</ele>
        <time>2020-07-23T14:43:58.000Z</time>
      </trkpt>
      <trkpt lat="44.90069" lon="5.28692">
        <ele>1336.9</ele>
        <time>2020-07-23T14:44:05.000Z</time>
      </trkpt>
      <trkpt lat="44.90079" lon="5.28696">
        <ele>1336</ele>
        <time>2020-07-23T14:44:13.000Z</time>
      </trkpt>
      <trkpt lat="44.90088" lon="5.28699">
        <ele>1335.6</ele>
        <time>2020-07-23T14:44:21.000Z</time>
      </trkpt>
      <trkpt lat="44.90097" lon="5.28705">
        <ele>1335.3</ele>
        <time>2020-07-23T14:44:30.000Z</time>
      </trkpt>
      <trkpt lat="44.90106" lon="5.28709">
        <ele>1335.3</ele>
        <time>2020-07-23T14:44:39.000Z</time>
      </trkpt>
      <trkpt lat="44.90114" lon="5.28716">
        <ele>1335.3</ele>
        <time>2020-07-23T14:44:47.000Z</time>
      </trkpt>
      <trkpt lat="44.90123" lon="5.28723">
        <ele>1335.4</ele>
        <time>2020-07-23T14:44:56.000Z</time>
      </trkpt>
      <trkpt lat="44.9013" lon="5.28731">
        <ele>1335.5</ele>
        <time>2020-07-23T14:45:03.000Z</time>
      </trkpt>
      <trkpt lat="44.90137" lon="5.28741">
        <ele>1335.4</ele>
        <time>2020-07-23T14:45:10.000Z</time>
      </trkpt>
      <trkpt lat="44.90145" lon="5.28749">
        <ele>1335.2</ele>
        <time>2020-07-23T14:45:16.000Z</time>
      </trkpt>
      <trkpt lat="44.90152" lon="5.28756">
        <ele>1334.9</ele>
        <time>2020-07-23T14:45:22.000Z</time>
      </trkpt>
      <trkpt lat="44.9016" lon="5.28765">
        <ele>1334.7</ele>
        <time>2020-07-23T14:45:29.000Z</time>
      </trkpt>
      <trkpt lat="44.90168" lon="5.28772">
        <ele>1334.5</ele>
        <time>2020-07-23T14:45:36.000Z</time>
      </trkpt>
      <trkpt lat="44.90175" lon="5.28782">
        <ele>1334.1</ele>
        <time>2020-07-23T14:45:43.000Z</time>
      </trkpt>
      <trkpt lat="44.90182" lon="5.2879">
        <ele>1333.8</ele>
        <time>2020-07-23T14:45:50.000Z</time>
      </trkpt>
      <trkpt lat="44.90189" lon="5.28799">
        <ele>1333.3</ele>
        <time>2020-07-23T14:45:58.000Z</time>
      </trkpt>
      <trkpt lat="44.90197" lon="5.28807">
        <ele>1332.8</ele>
        <time>2020-07-23T14:46:06.000Z</time>
      </trkpt>
      <trkpt lat="44.90204" lon="5.28816">
        <ele>1332.3</ele>
        <time>2020-07-23T14:46:13.000Z</time>
      </trkpt>
      <trkpt lat="44.90212" lon="5.28823">
        <ele>1331.9</ele>
        <time>2020-07-23T14:46:20.000Z</time>
      </trkpt>
      <trkpt lat="44.9022" lon="5.28828">
        <ele>1331.7</ele>
        <time>2020-07-23T14:46:27.000Z</time>
      </trkpt>
      <trkpt lat="44.9023" lon="5.28832">
        <ele>1331.7</ele>
        <time>2020-07-23T14:46:37.000Z</time>
      </trkpt>
      <trkpt lat="44.90239" lon="5.28839">
        <ele>1331.2</ele>
        <time>2020-07-23T14:46:45.000Z</time>
      </trkpt>
      <trkpt lat="44.90249" lon="5.28838">
        <ele>1330.9</ele>
        <time>2020-07-23T14:46:51.000Z</time>
      </trkpt>
      <trkpt lat="44.90259" lon="5.28836">
        <ele>1330.7</ele>
        <time>2020-07-23T14:46:58.000Z</time>
      </trkpt>
      <trkpt lat="44.90268" lon="5.28836">
        <ele>1330.5</ele>
        <time>2020-07-23T14:47:05.000Z</time>
      </trkpt>
      <trkpt lat="44.90274" lon="5.28826">
        <ele>1330</ele>
        <time>2020-07-23T14:50:52.000Z</time>
      </trkpt>
      <trkpt lat="44.90283" lon="5.28825">
        <ele>1329.8</ele>
        <time>2020-07-23T14:51:18.000Z</time>
      </trkpt>
      <trkpt lat="44.90292" lon="5.28829">
        <ele>1329.6</ele>
        <time>2020-07-23T14:51:27.000Z</time>
      </trkpt>
      <trkpt lat="44.90301" lon="5.28832">
        <ele>1329.6</ele>
        <time>2020-07-23T14:51:34.000Z</time>
      </trkpt>
      <trkpt lat="44.90311" lon="5.28838">
        <ele>1329.6</ele>
        <time>2020-07-23T14:51:40.000Z</time>
      </trkpt>
      <trkpt lat="44.90321" lon="5.28843">
        <ele>1329.6</ele>
        <time>2020-07-23T14:51:45.000Z</time>
      </trkpt>
      <trkpt lat="44.90331" lon="5.2885">
        <ele>1329.6</ele>
        <time>2020-07-23T14:51:49.000Z</time>
      </trkpt>
      <trkpt lat="44.90341" lon="5.28859">
        <ele>1329.6</ele>
        <time>2020-07-23T14:51:53.000Z</time>
      </trkpt>
      <trkpt lat="44.90349" lon="5.28867">
        <ele>1329.6</ele>
        <time>2020-07-23T14:51:57.000Z</time>
      </trkpt>
      <trkpt lat="44.90357" lon="5.28878">
        <ele>1329.6</ele>
        <time>2020-07-23T14:52:01.000Z</time>
      </trkpt>
      <trkpt lat="44.90364" lon="5.28887">
        <ele>1329.6</ele>
        <time>2020-07-23T14:52:05.000Z</time>
      </trkpt>
      <trkpt lat="44.90374" lon="5.28895">
        <ele>1329.6</ele>
        <time>2020-07-23T14:52:09.000Z</time>
      </trkpt>
      <trkpt lat="44.90382" lon="5.28901">
        <ele>1329.7</ele>
        <time>2020-07-23T14:52:12.000Z</time>
      </trkpt>
      <trkpt lat="44.9039" lon="5.28909">
        <ele>1329.8</ele>
        <time>2020-07-23T14:52:16.000Z</time>
      </trkpt>
      <trkpt lat="44.90399" lon="5.28916">
        <ele>1330</ele>
        <time>2020-07-23T14:52:20.000Z</time>
      </trkpt>
      <trkpt lat="44.90409" lon="5.28922">
        <ele>1330.2</ele>
        <time>2020-07-23T14:52:25.000Z</time>
      </trkpt>
      <trkpt lat="44.90418" lon="5.28924">
        <ele>1330.2</ele>
        <time>2020-07-23T14:52:28.000Z</time>
      </trkpt>
      <trkpt lat="44.90429" lon="5.2893">
        <ele>1330.2</ele>
        <time>2020-07-23T14:52:32.000Z</time>
      </trkpt>
      <trkpt lat="44.9044" lon="5.28936">
        <ele>1330.3</ele>
        <time>2020-07-23T14:52:36.000Z</time>
      </trkpt>
      <trkpt lat="44.90449" lon="5.28941">
        <ele>1330.2</ele>
        <time>2020-07-23T14:52:40.000Z</time>
      </trkpt>
      <trkpt lat="44.90457" lon="5.28949">
        <ele>1330.2</ele>
        <time>2020-07-23T14:52:43.000Z</time>
      </trkpt>
      <trkpt lat="44.90467" lon="5.28953">
        <ele>1330.2</ele>
        <time>2020-07-23T14:52:47.000Z</time>
      </trkpt>
      <trkpt lat="44.90477" lon="5.28955">
        <ele>1330.2</ele>
        <time>2020-07-23T14:52:51.000Z</time>
      </trkpt>
      <trkpt lat="44.90488" lon="5.2895">
        <ele>1330.4</ele>
        <time>2020-07-23T14:52:55.000Z</time>
      </trkpt>
      <trkpt lat="44.90497" lon="5.28953">
        <ele>1330.5</ele>
        <time>2020-07-23T14:52:58.000Z</time>
      </trkpt>
      <trkpt lat="44.90506" lon="5.28956">
        <ele>1330.4</ele>
        <time>2020-07-23T14:53:01.000Z</time>
      </trkpt>
      <trkpt lat="44.90517" lon="5.28964">
        <ele>1330.2</ele>
        <time>2020-07-23T14:53:06.000Z</time>
      </trkpt>
      <trkpt lat="44.90527" lon="5.28971">
        <ele>1330</ele>
        <time>2020-07-23T14:53:10.000Z</time>
      </trkpt>
      <trkpt lat="44.90535" lon="5.28976">
        <ele>1329.7</ele>
        <time>2020-07-23T14:53:14.000Z</time>
      </trkpt>
      <trkpt lat="44.90544" lon="5.2898">
        <ele>1329.6</ele>
        <time>2020-07-23T14:53:19.000Z</time>
      </trkpt>
      <trkpt lat="44.90555" lon="5.28986">
        <ele>1329.6</ele>
        <time>2020-07-23T14:53:26.000Z</time>
      </trkpt>
      <trkpt lat="44.90564" lon="5.2899">
        <ele>1329.7</ele>
        <time>2020-07-23T14:53:31.000Z</time>
      </trkpt>
      <trkpt lat="44.90572" lon="5.29">
        <ele>1329.7</ele>
        <time>2020-07-23T14:53:35.000Z</time>
      </trkpt>
      <trkpt lat="44.90579" lon="5.29008">
        <ele>1329.7</ele>
        <time>2020-07-23T14:53:39.000Z</time>
      </trkpt>
      <trkpt lat="44.90588" lon="5.29012">
        <ele>1329.7</ele>
        <time>2020-07-23T14:53:42.000Z</time>
      </trkpt>
      <trkpt lat="44.90597" lon="5.29019">
        <ele>1329.7</ele>
        <time>2020-07-23T14:53:45.000Z</time>
      </trkpt>
      <trkpt lat="44.90608" lon="5.29026">
        <ele>1329.8</ele>
        <time>2020-07-23T14:53:49.000Z</time>
      </trkpt>
      <trkpt lat="44.90617" lon="5.29035">
        <ele>1329.8</ele>
        <time>2020-07-23T14:53:52.000Z</time>
      </trkpt>
      <trkpt lat="44.90626" lon="5.29039">
        <ele>1329.9</ele>
        <time>2020-07-23T14:53:56.000Z</time>
      </trkpt>
      <trkpt lat="44.90635" lon="5.29039">
        <ele>1328.2</ele>
        <time>2020-07-23T14:54:03.000Z</time>
      </trkpt>
      <trkpt lat="44.90645" lon="5.29036">
        <ele>1329.8</ele>
        <time>2020-07-23T14:54:11.000Z</time>
      </trkpt>
      <trkpt lat="44.90653" lon="5.29041">
        <ele>1334.2</ele>
        <time>2020-07-23T14:54:22.000Z</time>
      </trkpt>
      <trkpt lat="44.90663" lon="5.29043">
        <ele>1331.8</ele>
        <time>2020-07-23T14:54:30.000Z</time>
      </trkpt>
      <trkpt lat="44.9067" lon="5.29051">
        <ele>1330.9</ele>
        <time>2020-07-23T14:54:37.000Z</time>
      </trkpt>
      <trkpt lat="44.90681" lon="5.29057">
        <ele>1330.2</ele>
        <time>2020-07-23T14:54:43.000Z</time>
      </trkpt>
      <trkpt lat="44.90692" lon="5.2906">
        <ele>1329.9</ele>
        <time>2020-07-23T14:54:47.000Z</time>
      </trkpt>
      <trkpt lat="44.90701" lon="5.29064">
        <ele>1330</ele>
        <time>2020-07-23T14:54:51.000Z</time>
      </trkpt>
      <trkpt lat="44.90712" lon="5.29067">
        <ele>1329.9</ele>
        <time>2020-07-23T14:54:55.000Z</time>
      </trkpt>
      <trkpt lat="44.90722" lon="5.29072">
        <ele>1329.9</ele>
        <time>2020-07-23T14:54:58.000Z</time>
      </trkpt>
      <trkpt lat="44.90731" lon="5.2908">
        <ele>1330.3</ele>
        <time>2020-07-23T14:55:02.000Z</time>
      </trkpt>
      <trkpt lat="44.90741" lon="5.29087">
        <ele>1330.7</ele>
        <time>2020-07-23T14:55:05.000Z</time>
      </trkpt>
      <trkpt lat="44.90753" lon="5.2909">
        <ele>1331</ele>
        <time>2020-07-23T14:55:09.000Z</time>
      </trkpt>
      <trkpt lat="44.90762" lon="5.2909">
        <ele>1331.3</ele>
        <time>2020-07-23T14:55:12.000Z</time>
      </trkpt>
      <trkpt lat="44.90773" lon="5.29087">
        <ele>1331.6</ele>
        <time>2020-07-23T14:55:16.000Z</time>
      </trkpt>
      <trkpt lat="44.90783" lon="5.29085">
        <ele>1331.7</ele>
        <time>2020-07-23T14:55:21.000Z</time>
      </trkpt>
      <trkpt lat="44.90792" lon="5.29083">
        <ele>1331.8</ele>
        <time>2020-07-23T14:55:32.000Z</time>
      </trkpt>
      <trkpt lat="44.90801" lon="5.29083">
        <ele>1331.8</ele>
        <time>2020-07-23T14:55:41.000Z</time>
      </trkpt>
      <trkpt lat="44.90792" lon="5.29081">
        <ele>1331.8</ele>
        <time>2020-07-23T14:56:14.000Z</time>
      </trkpt>
      <trkpt lat="44.90782" lon="5.29086">
        <ele>1331.6</ele>
        <time>2020-07-23T14:56:23.000Z</time>
      </trkpt>
      <trkpt lat="44.90773" lon="5.29089">
        <ele>1331.7</ele>
        <time>2020-07-23T14:56:31.000Z</time>
      </trkpt>
      <trkpt lat="44.90764" lon="5.29092">
        <ele>1331.4</ele>
        <time>2020-07-23T14:56:39.000Z</time>
      </trkpt>
      <trkpt lat="44.90754" lon="5.29094">
        <ele>1330.8</ele>
        <time>2020-07-23T14:56:47.000Z</time>
      </trkpt>
      <trkpt lat="44.90764" lon="5.29095">
        <ele>1331</ele>
        <time>2020-07-23T14:58:53.000Z</time>
      </trkpt>
      <trkpt lat="44.90775" lon="5.29092">
        <ele>1331</ele>
        <time>2020-07-23T14:59:00.000Z</time>
      </trkpt>
      <trkpt lat="44.90787" lon="5.2909">
        <ele>1331</ele>
        <time>2020-07-23T14:59:05.000Z</time>
      </trkpt>
      <trkpt lat="44.90796" lon="5.2909">
        <ele>1330.9</ele>
        <time>2020-07-23T14:59:08.000Z</time>
      </trkpt>
      <trkpt lat="44.90807" lon="5.29093">
        <ele>1330.9</ele>
        <time>2020-07-23T14:59:11.000Z</time>
      </trkpt>
      <trkpt lat="44.90818" lon="5.29092">
        <ele>1330.8</ele>
        <time>2020-07-23T14:59:15.000Z</time>
      </trkpt>
      <trkpt lat="44.90828" lon="5.29095">
        <ele>1330.8</ele>
        <time>2020-07-23T14:59:18.000Z</time>
      </trkpt>
      <trkpt lat="44.90838" lon="5.29099">
        <ele>1330.8</ele>
        <time>2020-07-23T14:59:21.000Z</time>
      </trkpt>
      <trkpt lat="44.90849" lon="5.29102">
        <ele>1330.7</ele>
        <time>2020-07-23T14:59:24.000Z</time>
      </trkpt>
      <trkpt lat="44.9086" lon="5.29102">
        <ele>1330.8</ele>
        <time>2020-07-23T14:59:27.000Z</time>
      </trkpt>
      <trkpt lat="44.90871" lon="5.291">
        <ele>1330.9</ele>
        <time>2020-07-23T14:59:30.000Z</time>
      </trkpt>
      <trkpt lat="44.9088" lon="5.29098">
        <ele>1330.7</ele>
        <time>2020-07-23T14:59:33.000Z</time>
      </trkpt>
      <trkpt lat="44.9089" lon="5.29096">
        <ele>1330.8</ele>
        <time>2020-07-23T14:59:37.000Z</time>
      </trkpt>
      <trkpt lat="44.90902" lon="5.29096">
        <ele>1330.8</ele>
        <time>2020-07-23T14:59:40.000Z</time>
      </trkpt>
      <trkpt lat="44.90911" lon="5.29097">
        <ele>1330.9</ele>
        <time>2020-07-23T14:59:43.000Z</time>
      </trkpt>
      <trkpt lat="44.9092" lon="5.291">
        <ele>1330.9</ele>
        <time>2020-07-23T14:59:46.000Z</time>
      </trkpt>
      <trkpt lat="44.90932" lon="5.29105">
        <ele>1330.8</ele>
        <time>2020-07-23T14:59:49.000Z</time>
      </trkpt>
      <trkpt lat="44.90943" lon="5.29108">
        <ele>1331</ele>
        <time>2020-07-23T14:59:52.000Z</time>
      </trkpt>
      <trkpt lat="44.90952" lon="5.29112">
        <ele>1331</ele>
        <time>2020-07-23T14:59:54.000Z</time>
      </trkpt>
      <trkpt lat="44.90961" lon="5.29115">
        <ele>1331.2</ele>
        <time>2020-07-23T14:59:56.000Z</time>
      </trkpt>
      <trkpt lat="44.9097" lon="5.29117">
        <ele>1331.2</ele>
        <time>2020-07-23T14:59:58.000Z</time>
      </trkpt>
      <trkpt lat="44.90979" lon="5.29123">
        <ele>1331.2</ele>
        <time>2020-07-23T14:59:59.000Z</time>
      </trkpt>
      <trkpt lat="44.9099" lon="5.29127">
        <ele>1331.3</ele>
        <time>2020-07-23T15:00:01.000Z</time>
      </trkpt>
      <trkpt lat="44.90999" lon="5.29129">
        <ele>1331.4</ele>
        <time>2020-07-23T15:00:04.000Z</time>
      </trkpt>
      <trkpt lat="44.91009" lon="5.29127">
        <ele>1331.4</ele>
        <time>2020-07-23T15:00:08.000Z</time>
      </trkpt>
      <trkpt lat="44.91019" lon="5.2913">
        <ele>1331.3</ele>
        <time>2020-07-23T15:00:11.000Z</time>
      </trkpt>
      <trkpt lat="44.91028" lon="5.29133">
        <ele>1331.3</ele>
        <time>2020-07-23T15:00:15.000Z</time>
      </trkpt>
      <trkpt lat="44.91039" lon="5.29126">
        <ele>1331.3</ele>
        <time>2020-07-23T15:00:18.000Z</time>
      </trkpt>
      <trkpt lat="44.91048" lon="5.29119">
        <ele>1331.4</ele>
        <time>2020-07-23T15:00:21.000Z</time>
      </trkpt>
      <trkpt lat="44.91059" lon="5.2912">
        <ele>1331.4</ele>
        <time>2020-07-23T15:00:24.000Z</time>
      </trkpt>
      <trkpt lat="44.91067" lon="5.29125">
        <ele>1331.5</ele>
        <time>2020-07-23T15:00:26.000Z</time>
      </trkpt>
      <trkpt lat="44.91079" lon="5.29129">
        <ele>1331.4</ele>
        <time>2020-07-23T15:00:30.000Z</time>
      </trkpt>
      <trkpt lat="44.91091" lon="5.29135">
        <ele>1331.4</ele>
        <time>2020-07-23T15:00:32.000Z</time>
      </trkpt>
      <trkpt lat="44.91101" lon="5.29135">
        <ele>1331.2</ele>
        <time>2020-07-23T15:00:34.000Z</time>
      </trkpt>
      <trkpt lat="44.91114" lon="5.29136">
        <ele>1331.4</ele>
        <time>2020-07-23T15:00:36.000Z</time>
      </trkpt>
      <trkpt lat="44.91123" lon="5.29133">
        <ele>1331.7</ele>
        <time>2020-07-23T15:00:38.000Z</time>
      </trkpt>
      <trkpt lat="44.91134" lon="5.29133">
        <ele>1332</ele>
        <time>2020-07-23T15:00:41.000Z</time>
      </trkpt>
      <trkpt lat="44.91142" lon="5.29127">
        <ele>1331.9</ele>
        <time>2020-07-23T15:00:44.000Z</time>
      </trkpt>
      <trkpt lat="44.91151" lon="5.29133">
        <ele>1332</ele>
        <time>2020-07-23T15:00:47.000Z</time>
      </trkpt>
      <trkpt lat="44.91161" lon="5.29139">
        <ele>1332</ele>
        <time>2020-07-23T15:00:50.000Z</time>
      </trkpt>
      <trkpt lat="44.9117" lon="5.29139">
        <ele>1332.1</ele>
        <time>2020-07-23T15:00:53.000Z</time>
      </trkpt>
      <trkpt lat="44.91183" lon="5.29139">
        <ele>1332.2</ele>
        <time>2020-07-23T15:00:57.000Z</time>
      </trkpt>
      <trkpt lat="44.91193" lon="5.29141">
        <ele>1332.2</ele>
        <time>2020-07-23T15:01:00.000Z</time>
      </trkpt>
      <trkpt lat="44.91202" lon="5.29139">
        <ele>1332.2</ele>
        <time>2020-07-23T15:01:03.000Z</time>
      </trkpt>
      <trkpt lat="44.91212" lon="5.2914">
        <ele>1332.4</ele>
        <time>2020-07-23T15:01:07.000Z</time>
      </trkpt>
      <trkpt lat="44.91221" lon="5.29147">
        <ele>1333.2</ele>
        <time>2020-07-23T15:01:18.000Z</time>
      </trkpt>
      <trkpt lat="44.9123" lon="5.29151">
        <ele>1333.6</ele>
        <time>2020-07-23T15:01:25.000Z</time>
      </trkpt>
      <trkpt lat="44.91239" lon="5.29153">
        <ele>1333.9</ele>
        <time>2020-07-23T15:01:32.000Z</time>
      </trkpt>
      <trkpt lat="44.91249" lon="5.29146">
        <ele>1334.1</ele>
        <time>2020-07-23T15:01:41.000Z</time>
      </trkpt>
      <trkpt lat="44.91258" lon="5.29148">
        <ele>1334</ele>
        <time>2020-07-23T15:01:47.000Z</time>
      </trkpt>
      <trkpt lat="44.91268" lon="5.29151">
        <ele>1333.8</ele>
        <time>2020-07-23T15:01:53.000Z</time>
      </trkpt>
      <trkpt lat="44.91279" lon="5.29155">
        <ele>1333.6</ele>
        <time>2020-07-23T15:01:58.000Z</time>
      </trkpt>
      <trkpt lat="44.91291" lon="5.29163">
        <ele>1333.6</ele>
        <time>2020-07-23T15:02:01.000Z</time>
      </trkpt>
      <trkpt lat="44.913" lon="5.29175">
        <ele>1333.5</ele>
        <time>2020-07-23T15:02:04.000Z</time>
      </trkpt>
      <trkpt lat="44.91308" lon="5.29182">
        <ele>1333.1</ele>
        <time>2020-07-23T15:02:07.000Z</time>
      </trkpt>
      <trkpt lat="44.91317" lon="5.29187">
        <ele>1332.7</ele>
        <time>2020-07-23T15:02:11.000Z</time>
      </trkpt>
      <trkpt lat="44.91327" lon="5.29189">
        <ele>1332.3</ele>
        <time>2020-07-23T15:02:15.000Z</time>
      </trkpt>
      <trkpt lat="44.91336" lon="5.29195">
        <ele>1332.1</ele>
        <time>2020-07-23T15:02:18.000Z</time>
      </trkpt>
      <trkpt lat="44.91347" lon="5.29198">
        <ele>1331.4</ele>
        <time>2020-07-23T15:02:22.000Z</time>
      </trkpt>
      <trkpt lat="44.91356" lon="5.29202">
        <ele>1331.1</ele>
        <time>2020-07-23T15:02:25.000Z</time>
      </trkpt>
      <trkpt lat="44.91365" lon="5.29208">
        <ele>1331</ele>
        <time>2020-07-23T15:02:29.000Z</time>
      </trkpt>
      <trkpt lat="44.91374" lon="5.29215">
        <ele>1330.7</ele>
        <time>2020-07-23T15:02:34.000Z</time>
      </trkpt>
      <trkpt lat="44.91384" lon="5.29216">
        <ele>1325.8</ele>
        <time>2020-07-23T15:02:42.000Z</time>
      </trkpt>
      <trkpt lat="44.91393" lon="5.29212">
        <ele>1325.6</ele>
        <time>2020-07-23T15:02:49.000Z</time>
      </trkpt>
      <trkpt lat="44.91401" lon="5.29206">
        <ele>1332.1</ele>
        <time>2020-07-23T15:02:55.000Z</time>
      </trkpt>
      <trkpt lat="44.91411" lon="5.292">
        <ele>1331.4</ele>
        <time>2020-07-23T15:03:03.000Z</time>
      </trkpt>
      <trkpt lat="44.91419" lon="5.29194">
        <ele>1330.2</ele>
        <time>2020-07-23T15:03:10.000Z</time>
      </trkpt>
      <trkpt lat="44.9143" lon="5.29193">
        <ele>1329.4</ele>
        <time>2020-07-23T15:03:18.000Z</time>
      </trkpt>
      <trkpt lat="44.91439" lon="5.29197">
        <ele>1332.2</ele>
        <time>2020-07-23T15:03:24.000Z</time>
      </trkpt>
      <trkpt lat="44.91447" lon="5.29205">
        <ele>1331.1</ele>
        <time>2020-07-23T15:03:30.000Z</time>
      </trkpt>
      <trkpt lat="44.91454" lon="5.29215">
        <ele>1329.6</ele>
        <time>2020-07-23T15:03:38.000Z</time>
      </trkpt>
      <trkpt lat="44.91461" lon="5.29223">
        <ele>1328.5</ele>
        <time>2020-07-23T15:03:45.000Z</time>
      </trkpt>
      <trkpt lat="44.91468" lon="5.29231">
        <ele>1327.7</ele>
        <time>2020-07-23T15:03:54.000Z</time>
      </trkpt>
      <trkpt lat="44.91476" lon="5.29236">
        <ele>1327.1</ele>
        <time>2020-07-23T15:04:03.000Z</time>
      </trkpt>
      <trkpt lat="44.91484" lon="5.29247">
        <ele>1326.9</ele>
        <time>2020-07-23T15:04:09.000Z</time>
      </trkpt>
      <trkpt lat="44.91492" lon="5.29253">
        <ele>1326.5</ele>
        <time>2020-07-23T15:04:15.000Z</time>
      </trkpt>
      <trkpt lat="44.91502" lon="5.29259">
        <ele>1326.2</ele>
        <time>2020-07-23T15:04:23.000Z</time>
      </trkpt>
      <trkpt lat="44.9151" lon="5.29267">
        <ele>1326</ele>
        <time>2020-07-23T15:04:31.000Z</time>
      </trkpt>
      <trkpt lat="44.91516" lon="5.29278">
        <ele>1325.7</ele>
        <time>2020-07-23T15:04:40.000Z</time>
      </trkpt>
      <trkpt lat="44.91522" lon="5.29288">
        <ele>1325.4</ele>
        <time>2020-07-23T15:04:48.000Z</time>
      </trkpt>
      <trkpt lat="44.9153" lon="5.29297">
        <ele>1324.9</ele>
        <time>2020-07-23T15:04:58.000Z</time>
      </trkpt>
      <trkpt lat="44.9152" lon="5.293">
        <ele>1324.8</ele>
        <time>2020-07-23T15:05:09.000Z</time>
      </trkpt>
      <trkpt lat="44.91511" lon="5.29302">
        <ele>1325.5</ele>
        <time>2020-07-23T15:05:19.000Z</time>
      </trkpt>
      <trkpt lat="44.91501" lon="5.293">
        <ele>1326.7</ele>
        <time>2020-07-23T15:05:29.000Z</time>
      </trkpt>
      <trkpt lat="44.91491" lon="5.29299">
        <ele>1327.8</ele>
        <time>2020-07-23T15:05:39.000Z</time>
      </trkpt>
      <trkpt lat="44.91482" lon="5.29296">
        <ele>1328.6</ele>
        <time>2020-07-23T15:05:47.000Z</time>
      </trkpt>
      <trkpt lat="44.91472" lon="5.29295">
        <ele>1329.5</ele>
        <time>2020-07-23T15:05:56.000Z</time>
      </trkpt>
      <trkpt lat="44.91464" lon="5.29292">
        <ele>1330.3</ele>
        <time>2020-07-23T15:06:04.000Z</time>
      </trkpt>
      <trkpt lat="44.91454" lon="5.2929">
        <ele>1331.3</ele>
        <time>2020-07-23T15:06:13.000Z</time>
      </trkpt>
      <trkpt lat="44.91446" lon="5.29286">
        <ele>1332.4</ele>
        <time>2020-07-23T15:06:23.000Z</time>
      </trkpt>
      <trkpt lat="44.91436" lon="5.29285">
        <ele>1333.3</ele>
        <time>2020-07-23T15:06:31.000Z</time>
      </trkpt>
      <trkpt lat="44.91427" lon="5.29285">
        <ele>1334.4</ele>
        <time>2020-07-23T15:06:40.000Z</time>
      </trkpt>
      <trkpt lat="44.91417" lon="5.29287">
        <ele>1334.8</ele>
        <time>2020-07-23T15:06:43.000Z</time>
      </trkpt>
      <trkpt lat="44.91408" lon="5.29289">
        <ele>1335.5</ele>
        <time>2020-07-23T15:06:48.000Z</time>
      </trkpt>
      <trkpt lat="44.91399" lon="5.29292">
        <ele>1336</ele>
        <time>2020-07-23T15:06:54.000Z</time>
      </trkpt>
      <trkpt lat="44.9139" lon="5.29296">
        <ele>1336.6</ele>
        <time>2020-07-23T15:07:00.000Z</time>
      </trkpt>
      <trkpt lat="44.91381" lon="5.29299">
        <ele>1337.2</ele>
        <time>2020-07-23T15:07:06.000Z</time>
      </trkpt>
      <trkpt lat="44.91372" lon="5.29303">
        <ele>1337.9</ele>
        <time>2020-07-23T15:07:13.000Z</time>
      </trkpt>
      <trkpt lat="44.91364" lon="5.29307">
        <ele>1338.6</ele>
        <time>2020-07-23T15:07:19.000Z</time>
      </trkpt>
      <trkpt lat="44.91355" lon="5.29311">
        <ele>1339.3</ele>
        <time>2020-07-23T15:07:26.000Z</time>
      </trkpt>
      <trkpt lat="44.91345" lon="5.29315">
        <ele>1340.3</ele>
        <time>2020-07-23T15:07:34.000Z</time>
      </trkpt>
      <trkpt lat="44.91336" lon="5.29319">
        <ele>1341.2</ele>
        <time>2020-07-23T15:07:41.000Z</time>
      </trkpt>
      <trkpt lat="44.91327" lon="5.29324">
        <ele>1342.4</ele>
        <time>2020-07-23T15:07:50.000Z</time>
      </trkpt>
      <trkpt lat="44.91318" lon="5.29326">
        <ele>1343.6</ele>
        <time>2020-07-23T15:07:59.000Z</time>
      </trkpt>
      <trkpt lat="44.91309" lon="5.29329">
        <ele>1344.7</ele>
        <time>2020-07-23T15:08:07.000Z</time>
      </trkpt>
      <trkpt lat="44.913" lon="5.29331">
        <ele>1345.8</ele>
        <time>2020-07-23T15:08:16.000Z</time>
      </trkpt>
      <trkpt lat="44.9129" lon="5.29334">
        <ele>1346.6</ele>
        <time>2020-07-23T15:08:24.000Z</time>
      </trkpt>
      <trkpt lat="44.91282" lon="5.29339">
        <ele>1347.3</ele>
        <time>2020-07-23T15:08:30.000Z</time>
      </trkpt>
      <trkpt lat="44.91272" lon="5.29345">
        <ele>1347.9</ele>
        <time>2020-07-23T15:08:35.000Z</time>
      </trkpt>
      <trkpt lat="44.91263" lon="5.29349">
        <ele>1348.4</ele>
        <time>2020-07-23T15:08:39.000Z</time>
      </trkpt>
      <trkpt lat="44.91253" lon="5.29348">
        <ele>1350</ele>
        <time>2020-07-23T15:08:48.000Z</time>
      </trkpt>
      <trkpt lat="44.91244" lon="5.29345">
        <ele>1351.5</ele>
        <time>2020-07-23T15:08:59.000Z</time>
      </trkpt>
      <trkpt lat="44.91234" lon="5.29344">
        <ele>1352.5</ele>
        <time>2020-07-23T15:09:07.000Z</time>
      </trkpt>
      <trkpt lat="44.91224" lon="5.29346">
        <ele>1353.4</ele>
        <time>2020-07-23T15:09:14.000Z</time>
      </trkpt>
      <trkpt lat="44.91215" lon="5.29344">
        <ele>1354.2</ele>
        <time>2020-07-23T15:09:22.000Z</time>
      </trkpt>
      <trkpt lat="44.91206" lon="5.29344">
        <ele>1355</ele>
        <time>2020-07-23T15:09:29.000Z</time>
      </trkpt>
      <trkpt lat="44.91196" lon="5.29344">
        <ele>1355.8</ele>
        <time>2020-07-23T15:09:37.000Z</time>
      </trkpt>
      <trkpt lat="44.91186" lon="5.29345">
        <ele>1356.3</ele>
        <time>2020-07-23T15:09:43.000Z</time>
      </trkpt>
      <trkpt lat="44.91177" lon="5.29344">
        <ele>1356.7</ele>
        <time>2020-07-23T15:09:50.000Z</time>
      </trkpt>
      <trkpt lat="44.91166" lon="5.29344">
        <ele>1352.4</ele>
        <time>2020-07-23T15:09:58.000Z</time>
      </trkpt>
      <trkpt lat="44.91157" lon="5.29341">
        <ele>1361.9</ele>
        <time>2020-07-23T15:10:05.000Z</time>
      </trkpt>
      <trkpt lat="44.91147" lon="5.29341">
        <ele>1361.8</ele>
        <time>2020-07-23T15:10:14.000Z</time>
      </trkpt>
      <trkpt lat="44.91139" lon="5.29338">
        <ele>1360.5</ele>
        <time>2020-07-23T15:10:20.000Z</time>
      </trkpt>
      <trkpt lat="44.91128" lon="5.29336">
        <ele>1356.5</ele>
        <time>2020-07-23T15:10:30.000Z</time>
      </trkpt>
      <trkpt lat="44.91119" lon="5.29338">
        <ele>1365.9</ele>
        <time>2020-07-23T15:10:36.000Z</time>
      </trkpt>
      <trkpt lat="44.91109" lon="5.29338">
        <ele>1366</ele>
        <time>2020-07-23T15:10:44.000Z</time>
      </trkpt>
      <trkpt lat="44.91099" lon="5.29336">
        <ele>1365.1</ele>
        <time>2020-07-23T15:10:54.000Z</time>
      </trkpt>
      <trkpt lat="44.9109" lon="5.29333">
        <ele>1365.4</ele>
        <time>2020-07-23T15:11:04.000Z</time>
      </trkpt>
      <trkpt lat="44.91081" lon="5.29327">
        <ele>1366.5</ele>
        <time>2020-07-23T15:11:14.000Z</time>
      </trkpt>
      <trkpt lat="44.91074" lon="5.29317">
        <ele>1367.6</ele>
        <time>2020-07-23T15:11:24.000Z</time>
      </trkpt>
      <trkpt lat="44.91067" lon="5.29307">
        <ele>1368.6</ele>
        <time>2020-07-23T15:11:32.000Z</time>
      </trkpt>
      <trkpt lat="44.91056" lon="5.29303">
        <ele>1369.3</ele>
        <time>2020-07-23T15:11:39.000Z</time>
      </trkpt>
      <trkpt lat="44.91047" lon="5.29301">
        <ele>1369.7</ele>
        <time>2020-07-23T15:11:45.000Z</time>
      </trkpt>
      <trkpt lat="44.91038" lon="5.293">
        <ele>1370.1</ele>
        <time>2020-07-23T15:11:51.000Z</time>
      </trkpt>
      <trkpt lat="44.91029" lon="5.29298">
        <ele>1370.7</ele>
        <time>2020-07-23T15:11:58.000Z</time>
      </trkpt>
      <trkpt lat="44.91019" lon="5.29298">
        <ele>1371.3</ele>
        <time>2020-07-23T15:12:04.000Z</time>
      </trkpt>
      <trkpt lat="44.91009" lon="5.29301">
        <ele>1372.2</ele>
        <time>2020-07-23T15:12:12.000Z</time>
      </trkpt>
      <trkpt lat="44.91" lon="5.29302">
        <ele>1373.1</ele>
        <time>2020-07-23T15:12:19.000Z</time>
      </trkpt>
      <trkpt lat="44.9099" lon="5.29304">
        <ele>1374.3</ele>
        <time>2020-07-23T15:12:27.000Z</time>
      </trkpt>
      <trkpt lat="44.90981" lon="5.29308">
        <ele>1375.3</ele>
        <time>2020-07-23T15:12:35.000Z</time>
      </trkpt>
      <trkpt lat="44.90972" lon="5.29311">
        <ele>1376.3</ele>
        <time>2020-07-23T15:12:43.000Z</time>
      </trkpt>
      <trkpt lat="44.90963" lon="5.29313">
        <ele>1377.2</ele>
        <time>2020-07-23T15:12:51.000Z</time>
      </trkpt>
      <trkpt lat="44.90953" lon="5.29315">
        <ele>1378</ele>
        <time>2020-07-23T15:12:59.000Z</time>
      </trkpt>
      <trkpt lat="44.90944" lon="5.29319">
        <ele>1378.9</ele>
        <time>2020-07-23T15:13:08.000Z</time>
      </trkpt>
      <trkpt lat="44.90935" lon="5.29324">
        <ele>1379.6</ele>
        <time>2020-07-23T15:13:16.000Z</time>
      </trkpt>
      <trkpt lat="44.90925" lon="5.29329">
        <ele>1380.3</ele>
        <time>2020-07-23T15:13:24.000Z</time>
      </trkpt>
      <trkpt lat="44.90915" lon="5.29331">
        <ele>1380.8</ele>
        <time>2020-07-23T15:13:31.000Z</time>
      </trkpt>
      <trkpt lat="44.90905" lon="5.29334">
        <ele>1381.4</ele>
        <time>2020-07-23T15:13:39.000Z</time>
      </trkpt>
      <trkpt lat="44.90896" lon="5.29336">
        <ele>1382.3</ele>
        <time>2020-07-23T15:13:47.000Z</time>
      </trkpt>
      <trkpt lat="44.90886" lon="5.29337">
        <ele>1383.2</ele>
        <time>2020-07-23T15:13:56.000Z</time>
      </trkpt>
      <trkpt lat="44.90876" lon="5.29339">
        <ele>1384.1</ele>
        <time>2020-07-23T15:14:04.000Z</time>
      </trkpt>
      <trkpt lat="44.90867" lon="5.29342">
        <ele>1385</ele>
        <time>2020-07-23T15:14:13.000Z</time>
      </trkpt>
      <trkpt lat="44.90857" lon="5.29344">
        <ele>1385.8</ele>
        <time>2020-07-23T15:14:21.000Z</time>
      </trkpt>
      <trkpt lat="44.90848" lon="5.29346">
        <ele>1386.7</ele>
        <time>2020-07-23T15:14:29.000Z</time>
      </trkpt>
      <trkpt lat="44.90838" lon="5.29349">
        <ele>1387.6</ele>
        <time>2020-07-23T15:14:37.000Z</time>
      </trkpt>
      <trkpt lat="44.90829" lon="5.29352">
        <ele>1388.4</ele>
        <time>2020-07-23T15:14:45.000Z</time>
      </trkpt>
      <trkpt lat="44.9082" lon="5.29355">
        <ele>1389.1</ele>
        <time>2020-07-23T15:14:53.000Z</time>
      </trkpt>
      <trkpt lat="44.90811" lon="5.29357">
        <ele>1390</ele>
        <time>2020-07-23T15:15:01.000Z</time>
      </trkpt>
      <trkpt lat="44.90801" lon="5.2936">
        <ele>1390.8</ele>
        <time>2020-07-23T15:15:09.000Z</time>
      </trkpt>
      <trkpt lat="44.90792" lon="5.29364">
        <ele>1391.8</ele>
        <time>2020-07-23T15:15:17.000Z</time>
      </trkpt>
      <trkpt lat="44.90783" lon="5.29367">
        <ele>1392.8</ele>
        <time>2020-07-23T15:15:25.000Z</time>
      </trkpt>
      <trkpt lat="44.90774" lon="5.29371">
        <ele>1393.6</ele>
        <time>2020-07-23T15:15:33.000Z</time>
      </trkpt>
      <trkpt lat="44.90765" lon="5.29374">
        <ele>1394.4</ele>
        <time>2020-07-23T15:15:41.000Z</time>
      </trkpt>
      <trkpt lat="44.90756" lon="5.29378">
        <ele>1395.2</ele>
        <time>2020-07-23T15:15:48.000Z</time>
      </trkpt>
      <trkpt lat="44.90746" lon="5.29381">
        <ele>1396.2</ele>
        <time>2020-07-23T15:15:56.000Z</time>
      </trkpt>
      <trkpt lat="44.90737" lon="5.29385">
        <ele>1397.2</ele>
        <time>2020-07-23T15:16:05.000Z</time>
      </trkpt>
      <trkpt lat="44.90727" lon="5.29388">
        <ele>1398.2</ele>
        <time>2020-07-23T15:16:12.000Z</time>
      </trkpt>
      <trkpt lat="44.90718" lon="5.29391">
        <ele>1399.1</ele>
        <time>2020-07-23T15:16:19.000Z</time>
      </trkpt>
      <trkpt lat="44.90709" lon="5.29394">
        <ele>1400</ele>
        <time>2020-07-23T15:16:26.000Z</time>
      </trkpt>
      <trkpt lat="44.907" lon="5.294">
        <ele>1400.9</ele>
        <time>2020-07-23T15:16:35.000Z</time>
      </trkpt>
      <trkpt lat="44.9069" lon="5.29403">
        <ele>1402</ele>
        <time>2020-07-23T15:16:43.000Z</time>
      </trkpt>
      <trkpt lat="44.9068" lon="5.29405">
        <ele>1403</ele>
        <time>2020-07-23T15:16:51.000Z</time>
      </trkpt>
      <trkpt lat="44.90671" lon="5.29407">
        <ele>1404.1</ele>
        <time>2020-07-23T15:16:59.000Z</time>
      </trkpt>
      <trkpt lat="44.90661" lon="5.29409">
        <ele>1405.3</ele>
        <time>2020-07-23T15:17:08.000Z</time>
      </trkpt>
      <trkpt lat="44.90655" lon="5.29419">
        <ele>1406.3</ele>
        <time>2020-07-23T15:17:16.000Z</time>
      </trkpt>
      <trkpt lat="44.9066" lon="5.29431">
        <ele>1407.2</ele>
        <time>2020-07-23T15:17:25.000Z</time>
      </trkpt>
      <trkpt lat="44.90669" lon="5.29436">
        <ele>1408.2</ele>
        <time>2020-07-23T15:17:34.000Z</time>
      </trkpt>
      <trkpt lat="44.90678" lon="5.29438">
        <ele>1409.7</ele>
        <time>2020-07-23T15:17:44.000Z</time>
      </trkpt>
      <trkpt lat="44.90688" lon="5.29441">
        <ele>1411.1</ele>
        <time>2020-07-23T15:17:53.000Z</time>
      </trkpt>
      <trkpt lat="44.90697" lon="5.29443">
        <ele>1412</ele>
        <time>2020-07-23T15:18:02.000Z</time>
      </trkpt>
      <trkpt lat="44.90706" lon="5.29447">
        <ele>1413.2</ele>
        <time>2020-07-23T15:18:12.000Z</time>
      </trkpt>
      <trkpt lat="44.90715" lon="5.29452">
        <ele>1413.9</ele>
        <time>2020-07-23T15:18:20.000Z</time>
      </trkpt>
      <trkpt lat="44.90724" lon="5.29456">
        <ele>1414.6</ele>
        <time>2020-07-23T15:18:28.000Z</time>
      </trkpt>
      <trkpt lat="44.90733" lon="5.29459">
        <ele>1415.4</ele>
        <time>2020-07-23T15:18:37.000Z</time>
      </trkpt>
      <trkpt lat="44.90743" lon="5.29463">
        <ele>1416.2</ele>
        <time>2020-07-23T15:18:46.000Z</time>
      </trkpt>
      <trkpt lat="44.90752" lon="5.29465">
        <ele>1416.9</ele>
        <time>2020-07-23T15:18:54.000Z</time>
      </trkpt>
      <trkpt lat="44.90762" lon="5.29466">
        <ele>1417.6</ele>
        <time>2020-07-23T15:19:02.000Z</time>
      </trkpt>
      <trkpt lat="44.90771" lon="5.2947">
        <ele>1418.2</ele>
        <time>2020-07-23T15:19:10.000Z</time>
      </trkpt>
      <trkpt lat="44.9078" lon="5.29474">
        <ele>1418.8</ele>
        <time>2020-07-23T15:19:19.000Z</time>
      </trkpt>
      <trkpt lat="44.90789" lon="5.29478">
        <ele>1419.3</ele>
        <time>2020-07-23T15:19:26.000Z</time>
      </trkpt>
      <trkpt lat="44.90798" lon="5.29482">
        <ele>1420.1</ele>
        <time>2020-07-23T15:19:34.000Z</time>
      </trkpt>
      <trkpt lat="44.90806" lon="5.29488">
        <ele>1420.7</ele>
        <time>2020-07-23T15:19:43.000Z</time>
      </trkpt>
      <trkpt lat="44.90815" lon="5.29493">
        <ele>1421.4</ele>
        <time>2020-07-23T15:19:50.000Z</time>
      </trkpt>
      <trkpt lat="44.90823" lon="5.295">
        <ele>1422.2</ele>
        <time>2020-07-23T15:19:57.000Z</time>
      </trkpt>
      <trkpt lat="44.90831" lon="5.29506">
        <ele>1423.2</ele>
        <time>2020-07-23T15:20:05.000Z</time>
      </trkpt>
      <trkpt lat="44.90839" lon="5.29513">
        <ele>1424.3</ele>
        <time>2020-07-23T15:20:13.000Z</time>
      </trkpt>
      <trkpt lat="44.90848" lon="5.2952">
        <ele>1423.4</ele>
        <time>2020-07-23T15:20:21.000Z</time>
      </trkpt>
      <trkpt lat="44.90856" lon="5.29528">
        <ele>1425.4</ele>
        <time>2020-07-23T15:20:29.000Z</time>
      </trkpt>
      <trkpt lat="44.90865" lon="5.29534">
        <ele>1427.9</ele>
        <time>2020-07-23T15:20:36.000Z</time>
      </trkpt>
      <trkpt lat="44.90874" lon="5.29541">
        <ele>1428.1</ele>
        <time>2020-07-23T15:20:45.000Z</time>
      </trkpt>
      <trkpt lat="44.90882" lon="5.29548">
        <ele>1427.9</ele>
        <time>2020-07-23T15:20:53.000Z</time>
      </trkpt>
      <trkpt lat="44.90889" lon="5.29556">
        <ele>1424.7</ele>
        <time>2020-07-23T15:21:02.000Z</time>
      </trkpt>
      <trkpt lat="44.90897" lon="5.29564">
        <ele>1430.7</ele>
        <time>2020-07-23T15:21:10.000Z</time>
      </trkpt>
      <trkpt lat="44.90905" lon="5.29571">
        <ele>1431</ele>
        <time>2020-07-23T15:21:19.000Z</time>
      </trkpt>
      <trkpt lat="44.90913" lon="5.29578">
        <ele>1431.3</ele>
        <time>2020-07-23T15:21:28.000Z</time>
      </trkpt>
      <trkpt lat="44.90921" lon="5.29587">
        <ele>1432.1</ele>
        <time>2020-07-23T15:21:39.000Z</time>
      </trkpt>
      <trkpt lat="44.90929" lon="5.29595">
        <ele>1432.9</ele>
        <time>2020-07-23T15:21:49.000Z</time>
      </trkpt>
      <trkpt lat="44.90937" lon="5.29601">
        <ele>1434</ele>
        <time>2020-07-23T15:21:58.000Z</time>
      </trkpt>
      <trkpt lat="44.90945" lon="5.29607">
        <ele>1434.8</ele>
        <time>2020-07-23T15:22:07.000Z</time>
      </trkpt>
      <trkpt lat="44.90954" lon="5.29612">
        <ele>1435.7</ele>
        <time>2020-07-23T15:22:15.000Z</time>
      </trkpt>
      <trkpt lat="44.90962" lon="5.29617">
        <ele>1439.2</ele>
        <time>2020-07-23T15:22:21.000Z</time>
      </trkpt>
      <trkpt lat="44.9097" lon="5.29625">
        <ele>1435.1</ele>
        <time>2020-07-23T15:22:29.000Z</time>
      </trkpt>
      <trkpt lat="44.90978" lon="5.29633">
        <ele>1438.1</ele>
        <time>2020-07-23T15:22:37.000Z</time>
      </trkpt>
      <trkpt lat="44.90987" lon="5.29639">
        <ele>1439.5</ele>
        <time>2020-07-23T15:23:01.000Z</time>
      </trkpt>
      <trkpt lat="44.90995" lon="5.29645">
        <ele>1439.7</ele>
        <time>2020-07-23T15:23:09.000Z</time>
      </trkpt>
      <trkpt lat="44.91003" lon="5.29653">
        <ele>1440.2</ele>
        <time>2020-07-23T15:23:20.000Z</time>
      </trkpt>
      <trkpt lat="44.91011" lon="5.29661">
        <ele>1440.6</ele>
        <time>2020-07-23T15:23:29.000Z</time>
      </trkpt>
      <trkpt lat="44.91019" lon="5.29668">
        <ele>1441.3</ele>
        <time>2020-07-23T15:23:38.000Z</time>
      </trkpt>
      <trkpt lat="44.91027" lon="5.29676">
        <ele>1442</ele>
        <time>2020-07-23T15:23:46.000Z</time>
      </trkpt>
      <trkpt lat="44.91033" lon="5.29686">
        <ele>1442.9</ele>
        <time>2020-07-23T15:23:54.000Z</time>
      </trkpt>
      <trkpt lat="44.91039" lon="5.29697">
        <ele>1444</ele>
        <time>2020-07-23T15:24:02.000Z</time>
      </trkpt>
      <trkpt lat="44.91043" lon="5.2971">
        <ele>1444.9</ele>
        <time>2020-07-23T15:24:10.000Z</time>
      </trkpt>
      <trkpt lat="44.91048" lon="5.29721">
        <ele>1445.8</ele>
        <time>2020-07-23T15:24:18.000Z</time>
      </trkpt>
      <trkpt lat="44.91053" lon="5.29731">
        <ele>1446.8</ele>
        <time>2020-07-23T15:24:29.000Z</time>
      </trkpt>
      <trkpt lat="44.9106" lon="5.29741">
        <ele>1447.5</ele>
        <time>2020-07-23T15:24:45.000Z</time>
      </trkpt>
      <trkpt lat="44.91067" lon="5.29751">
        <ele>1448</ele>
        <time>2020-07-23T15:24:53.000Z</time>
      </trkpt>
      <trkpt lat="44.91076" lon="5.29758">
        <ele>1448.3</ele>
        <time>2020-07-23T15:25:02.000Z</time>
      </trkpt>
      <trkpt lat="44.91084" lon="5.29765">
        <ele>1448.7</ele>
        <time>2020-07-23T15:25:10.000Z</time>
      </trkpt>
      <trkpt lat="44.91092" lon="5.29773">
        <ele>1449.3</ele>
        <time>2020-07-23T15:25:18.000Z</time>
      </trkpt>
      <trkpt lat="44.911" lon="5.2978">
        <ele>1450.1</ele>
        <time>2020-07-23T15:25:26.000Z</time>
      </trkpt>
      <trkpt lat="44.91109" lon="5.29788">
        <ele>1451.1</ele>
        <time>2020-07-23T15:25:34.000Z</time>
      </trkpt>
      <trkpt lat="44.91117" lon="5.29795">
        <ele>1452</ele>
        <time>2020-07-23T15:25:41.000Z</time>
      </trkpt>
      <trkpt lat="44.91125" lon="5.29802">
        <ele>1453</ele>
        <time>2020-07-23T15:25:49.000Z</time>
      </trkpt>
      <trkpt lat="44.91134" lon="5.29806">
        <ele>1453.8</ele>
        <time>2020-07-23T15:25:56.000Z</time>
      </trkpt>
      <trkpt lat="44.91143" lon="5.2981">
        <ele>1454.7</ele>
        <time>2020-07-23T15:26:04.000Z</time>
      </trkpt>
      <trkpt lat="44.91153" lon="5.29812">
        <ele>1455.4</ele>
        <time>2020-07-23T15:26:11.000Z</time>
      </trkpt>
      <trkpt lat="44.91162" lon="5.29813">
        <ele>1456.1</ele>
        <time>2020-07-23T15:26:19.000Z</time>
      </trkpt>
      <trkpt lat="44.91172" lon="5.29815">
        <ele>1456.8</ele>
        <time>2020-07-23T15:26:28.000Z</time>
      </trkpt>
      <trkpt lat="44.91182" lon="5.29816">
        <ele>1457.4</ele>
        <time>2020-07-23T15:26:37.000Z</time>
      </trkpt>
      <trkpt lat="44.91191" lon="5.29815">
        <ele>1458.1</ele>
        <time>2020-07-23T15:26:45.000Z</time>
      </trkpt>
      <trkpt lat="44.912" lon="5.29815">
        <ele>1458.9</ele>
        <time>2020-07-23T15:26:53.000Z</time>
      </trkpt>
      <trkpt lat="44.9121" lon="5.29816">
        <ele>1459.7</ele>
        <time>2020-07-23T15:27:02.000Z</time>
      </trkpt>
      <trkpt lat="44.91219" lon="5.29817">
        <ele>1460.7</ele>
        <time>2020-07-23T15:27:09.000Z</time>
      </trkpt>
      <trkpt lat="44.91228" lon="5.29817">
        <ele>1461.5</ele>
        <time>2020-07-23T15:27:17.000Z</time>
      </trkpt>
      <trkpt lat="44.91237" lon="5.29817">
        <ele>1462.6</ele>
        <time>2020-07-23T15:27:25.000Z</time>
      </trkpt>
      <trkpt lat="44.91247" lon="5.29814">
        <ele>1463.6</ele>
        <time>2020-07-23T15:27:34.000Z</time>
      </trkpt>
      <trkpt lat="44.91256" lon="5.29812">
        <ele>1464.4</ele>
        <time>2020-07-23T15:27:41.000Z</time>
      </trkpt>
      <trkpt lat="44.91266" lon="5.29806">
        <ele>1465.2</ele>
        <time>2020-07-23T15:27:49.000Z</time>
      </trkpt>
      <trkpt lat="44.91275" lon="5.29801">
        <ele>1466</ele>
        <time>2020-07-23T15:27:57.000Z</time>
      </trkpt>
      <trkpt lat="44.91285" lon="5.29797">
        <ele>1466.6</ele>
        <time>2020-07-23T15:28:04.000Z</time>
      </trkpt>
      <trkpt lat="44.91294" lon="5.29798">
        <ele>1466.8</ele>
        <time>2020-07-23T15:28:14.000Z</time>
      </trkpt>
      <trkpt lat="44.91303" lon="5.29797">
        <ele>1466.8</ele>
        <time>2020-07-23T15:28:22.000Z</time>
      </trkpt>
      <trkpt lat="44.91313" lon="5.29797">
        <ele>1467</ele>
        <time>2020-07-23T15:28:30.000Z</time>
      </trkpt>
      <trkpt lat="44.91322" lon="5.29799">
        <ele>1467.1</ele>
        <time>2020-07-23T15:28:37.000Z</time>
      </trkpt>
      <trkpt lat="44.91331" lon="5.29803">
        <ele>1467.2</ele>
        <time>2020-07-23T15:28:45.000Z</time>
      </trkpt>
      <trkpt lat="44.9134" lon="5.29807">
        <ele>1467.5</ele>
        <time>2020-07-23T15:28:52.000Z</time>
      </trkpt>
      <trkpt lat="44.91348" lon="5.29813">
        <ele>1468</ele>
        <time>2020-07-23T15:28:59.000Z</time>
      </trkpt>
      <trkpt lat="44.91358" lon="5.29819">
        <ele>1468.4</ele>
        <time>2020-07-23T15:29:07.000Z</time>
      </trkpt>
      <trkpt lat="44.91367" lon="5.29822">
        <ele>1468.6</ele>
        <time>2020-07-23T15:29:15.000Z</time>
      </trkpt>
      <trkpt lat="44.91375" lon="5.29823">
        <ele>1468.7</ele>
        <time>2020-07-23T15:29:22.000Z</time>
      </trkpt>
      <trkpt lat="44.91386" lon="5.29823">
        <ele>1468.9</ele>
        <time>2020-07-23T15:29:30.000Z</time>
      </trkpt>
      <trkpt lat="44.91395" lon="5.29823">
        <ele>1469.3</ele>
        <time>2020-07-23T15:29:38.000Z</time>
      </trkpt>
      <trkpt lat="44.91405" lon="5.29823">
        <ele>1470</ele>
        <time>2020-07-23T15:29:47.000Z</time>
      </trkpt>
      <trkpt lat="44.91414" lon="5.29822">
        <ele>1470.6</ele>
        <time>2020-07-23T15:29:54.000Z</time>
      </trkpt>
      <trkpt lat="44.91424" lon="5.29818">
        <ele>1471.1</ele>
        <time>2020-07-23T15:30:02.000Z</time>
      </trkpt>
      <trkpt lat="44.91433" lon="5.29814">
        <ele>1471.3</ele>
        <time>2020-07-23T15:30:10.000Z</time>
      </trkpt>
      <trkpt lat="44.91443" lon="5.29811">
        <ele>1471.3</ele>
        <time>2020-07-23T15:30:19.000Z</time>
      </trkpt>
      <trkpt lat="44.91453" lon="5.29811">
        <ele>1471.1</ele>
        <time>2020-07-23T15:30:27.000Z</time>
      </trkpt>
      <trkpt lat="44.91463" lon="5.29813">
        <ele>1470.7</ele>
        <time>2020-07-23T15:30:34.000Z</time>
      </trkpt>
      <trkpt lat="44.91473" lon="5.29813">
        <ele>1470.2</ele>
        <time>2020-07-23T15:30:42.000Z</time>
      </trkpt>
      <trkpt lat="44.91483" lon="5.29813">
        <ele>1469.9</ele>
        <time>2020-07-23T15:30:50.000Z</time>
      </trkpt>
      <trkpt lat="44.91493" lon="5.29812">
        <ele>1469.7</ele>
        <time>2020-07-23T15:30:58.000Z</time>
      </trkpt>
      <trkpt lat="44.91502" lon="5.29814">
        <ele>1469.6</ele>
        <time>2020-07-23T15:31:06.000Z</time>
      </trkpt>
      <trkpt lat="44.91512" lon="5.29817">
        <ele>1469.6</ele>
        <time>2020-07-23T15:31:13.000Z</time>
      </trkpt>
      <trkpt lat="44.91522" lon="5.2982">
        <ele>1469.5</ele>
        <time>2020-07-23T15:31:21.000Z</time>
      </trkpt>
      <trkpt lat="44.9153" lon="5.29822">
        <ele>1469.4</ele>
        <time>2020-07-23T15:31:28.000Z</time>
      </trkpt>
      <trkpt lat="44.9154" lon="5.29823">
        <ele>1469.3</ele>
        <time>2020-07-23T15:31:36.000Z</time>
      </trkpt>
      <trkpt lat="44.9155" lon="5.29824">
        <ele>1469.2</ele>
        <time>2020-07-23T15:31:44.000Z</time>
      </trkpt>
      <trkpt lat="44.91558" lon="5.29828">
        <ele>1468.8</ele>
        <time>2020-07-23T15:32:10.000Z</time>
      </trkpt>
      <trkpt lat="44.91568" lon="5.29827">
        <ele>1468.2</ele>
        <time>2020-07-23T15:33:10.000Z</time>
      </trkpt>
      <trkpt lat="44.91577" lon="5.29831">
        <ele>1467.7</ele>
        <time>2020-07-23T15:33:21.000Z</time>
      </trkpt>
      <trkpt lat="44.91586" lon="5.29835">
        <ele>1467.2</ele>
        <time>2020-07-23T15:33:31.000Z</time>
      </trkpt>
      <trkpt lat="44.91595" lon="5.29839">
        <ele>1466.6</ele>
        <time>2020-07-23T15:33:39.000Z</time>
      </trkpt>
      <trkpt lat="44.91604" lon="5.2984">
        <ele>1465.3</ele>
        <time>2020-07-23T15:34:36.000Z</time>
      </trkpt>
      <trkpt lat="44.91612" lon="5.29848">
        <ele>1464.4</ele>
        <time>2020-07-23T15:35:51.000Z</time>
      </trkpt>
      <trkpt lat="44.91621" lon="5.29851">
        <ele>1464.3</ele>
        <time>2020-07-23T15:36:02.000Z</time>
      </trkpt>
      <trkpt lat="44.9163" lon="5.29854">
        <ele>1464.2</ele>
        <time>2020-07-23T15:36:13.000Z</time>
      </trkpt>
      <trkpt lat="44.9164" lon="5.29857">
        <ele>1463.8</ele>
        <time>2020-07-23T15:36:22.000Z</time>
      </trkpt>
      <trkpt lat="44.91649" lon="5.29861">
        <ele>1463.6</ele>
        <time>2020-07-23T15:36:32.000Z</time>
      </trkpt>
      <trkpt lat="44.91658" lon="5.29863">
        <ele>1463.1</ele>
        <time>2020-07-23T15:36:41.000Z</time>
      </trkpt>
      <trkpt lat="44.91668" lon="5.29865">
        <ele>1462.8</ele>
        <time>2020-07-23T15:36:48.000Z</time>
      </trkpt>
      <trkpt lat="44.91677" lon="5.29863">
        <ele>1462.8</ele>
        <time>2020-07-23T15:36:55.000Z</time>
      </trkpt>
      <trkpt lat="44.91686" lon="5.29861">
        <ele>1462.8</ele>
        <time>2020-07-23T15:37:03.000Z</time>
      </trkpt>
      <trkpt lat="44.91697" lon="5.29862">
        <ele>1462.8</ele>
        <time>2020-07-23T15:37:10.000Z</time>
      </trkpt>
      <trkpt lat="44.91706" lon="5.29862">
        <ele>1462.8</ele>
        <time>2020-07-23T15:37:16.000Z</time>
      </trkpt>
      <trkpt lat="44.91715" lon="5.29862">
        <ele>1462.8</ele>
        <time>2020-07-23T15:37:23.000Z</time>
      </trkpt>
      <trkpt lat="44.91725" lon="5.29861">
        <ele>1462.8</ele>
        <time>2020-07-23T15:37:30.000Z</time>
      </trkpt>
      <trkpt lat="44.91735" lon="5.29861">
        <ele>1463</ele>
        <time>2020-07-23T15:37:37.000Z</time>
      </trkpt>
      <trkpt lat="44.91744" lon="5.29862">
        <ele>1463.1</ele>
        <time>2020-07-23T15:37:44.000Z</time>
      </trkpt>
      <trkpt lat="44.91753" lon="5.29862">
        <ele>1463</ele>
        <time>2020-07-23T15:37:52.000Z</time>
      </trkpt>
      <trkpt lat="44.91762" lon="5.29863">
        <ele>1462.8</ele>
        <time>2020-07-23T15:37:59.000Z</time>
      </trkpt>
      <trkpt lat="44.91772" lon="5.29865">
        <ele>1462.7</ele>
        <time>2020-07-23T15:38:07.000Z</time>
      </trkpt>
      <trkpt lat="44.91781" lon="5.29865">
        <ele>1462.6</ele>
        <time>2020-07-23T15:38:15.000Z</time>
      </trkpt>
      <trkpt lat="44.91791" lon="5.29866">
        <ele>1462.3</ele>
        <time>2020-07-23T15:38:24.000Z</time>
      </trkpt>
      <trkpt lat="44.918" lon="5.29869">
        <ele>1462.2</ele>
        <time>2020-07-23T15:38:31.000Z</time>
      </trkpt>
      <trkpt lat="44.91809" lon="5.29869">
        <ele>1462</ele>
        <time>2020-07-23T15:38:37.000Z</time>
      </trkpt>
      <trkpt lat="44.9182" lon="5.29871">
        <ele>1461.8</ele>
        <time>2020-07-23T15:38:43.000Z</time>
      </trkpt>
      <trkpt lat="44.91829" lon="5.29871">
        <ele>1461.6</ele>
        <time>2020-07-23T15:38:48.000Z</time>
      </trkpt>
      <trkpt lat="44.91839" lon="5.29872">
        <ele>1461.6</ele>
        <time>2020-07-23T15:38:53.000Z</time>
      </trkpt>
      <trkpt lat="44.9185" lon="5.29874">
        <ele>1461.2</ele>
        <time>2020-07-23T15:38:58.000Z</time>
      </trkpt>
      <trkpt lat="44.91859" lon="5.29876">
        <ele>1461</ele>
        <time>2020-07-23T15:39:02.000Z</time>
      </trkpt>
      <trkpt lat="44.91869" lon="5.2988">
        <ele>1460.8</ele>
        <time>2020-07-23T15:39:07.000Z</time>
      </trkpt>
      <trkpt lat="44.91879" lon="5.29881">
        <ele>1460.6</ele>
        <time>2020-07-23T15:39:13.000Z</time>
      </trkpt>
      <trkpt lat="44.91889" lon="5.29883">
        <ele>1460.1</ele>
        <time>2020-07-23T15:39:20.000Z</time>
      </trkpt>
      <trkpt lat="44.91899" lon="5.29883">
        <ele>1459.8</ele>
        <time>2020-07-23T15:39:28.000Z</time>
      </trkpt>
      <trkpt lat="44.91908" lon="5.29887">
        <ele>1459.2</ele>
        <time>2020-07-23T15:39:35.000Z</time>
      </trkpt>
      <trkpt lat="44.91919" lon="5.29889">
        <ele>1458.8</ele>
        <time>2020-07-23T15:39:42.000Z</time>
      </trkpt>
      <trkpt lat="44.91928" lon="5.29891">
        <ele>1458.4</ele>
        <time>2020-07-23T15:39:46.000Z</time>
      </trkpt>
      <trkpt lat="44.91937" lon="5.29893">
        <ele>1458.1</ele>
        <time>2020-07-23T15:39:50.000Z</time>
      </trkpt>
      <trkpt lat="44.91948" lon="5.29894">
        <ele>1458.1</ele>
        <time>2020-07-23T15:39:54.000Z</time>
      </trkpt>
      <trkpt lat="44.91959" lon="5.29894">
        <ele>1458.1</ele>
        <time>2020-07-23T15:39:58.000Z</time>
      </trkpt>
      <trkpt lat="44.9197" lon="5.29894">
        <ele>1458</ele>
        <time>2020-07-23T15:40:02.000Z</time>
      </trkpt>
      <trkpt lat="44.91982" lon="5.29894">
        <ele>1458</ele>
        <time>2020-07-23T15:40:06.000Z</time>
      </trkpt>
      <trkpt lat="44.91992" lon="5.29893">
        <ele>1458</ele>
        <time>2020-07-23T15:40:10.000Z</time>
      </trkpt>
      <trkpt lat="44.92003" lon="5.29893">
        <ele>1457.9</ele>
        <time>2020-07-23T15:40:14.000Z</time>
      </trkpt>
      <trkpt lat="44.92014" lon="5.29889">
        <ele>1457.7</ele>
        <time>2020-07-23T15:40:18.000Z</time>
      </trkpt>
      <trkpt lat="44.92023" lon="5.29886">
        <ele>1457.6</ele>
        <time>2020-07-23T15:40:25.000Z</time>
      </trkpt>
      <trkpt lat="44.92032" lon="5.29883">
        <ele>1457.5</ele>
        <time>2020-07-23T15:40:32.000Z</time>
      </trkpt>
      <trkpt lat="44.92041" lon="5.2988">
        <ele>1457.5</ele>
        <time>2020-07-23T15:40:38.000Z</time>
      </trkpt>
      <trkpt lat="44.9205" lon="5.29875">
        <ele>1457.4</ele>
        <time>2020-07-23T15:40:46.000Z</time>
      </trkpt>
      <trkpt lat="44.92059" lon="5.29871">
        <ele>1457.1</ele>
        <time>2020-07-23T15:40:55.000Z</time>
      </trkpt>
      <trkpt lat="44.92069" lon="5.29871">
        <ele>1456.8</ele>
        <time>2020-07-23T15:41:03.000Z</time>
      </trkpt>
      <trkpt lat="44.92078" lon="5.29869">
        <ele>1456.3</ele>
        <time>2020-07-23T15:41:11.000Z</time>
      </trkpt>
      <trkpt lat="44.92087" lon="5.29864">
        <ele>1455.7</ele>
        <time>2020-07-23T15:41:18.000Z</time>
      </trkpt>
      <trkpt lat="44.92096" lon="5.29864">
        <ele>1452.2</ele>
        <time>2020-07-23T15:41:26.000Z</time>
      </trkpt>
      <trkpt lat="44.92104" lon="5.29856">
        <ele>1453.8</ele>
        <time>2020-07-23T15:41:30.000Z</time>
      </trkpt>
      <trkpt lat="44.92112" lon="5.2985">
        <ele>1454.1</ele>
        <time>2020-07-23T15:41:36.000Z</time>
      </trkpt>
      <trkpt lat="44.92121" lon="5.29847">
        <ele>1455.9</ele>
        <time>2020-07-23T15:41:44.000Z</time>
      </trkpt>
      <trkpt lat="44.9213" lon="5.29846">
        <ele>1457.6</ele>
        <time>2020-07-23T15:41:51.000Z</time>
      </trkpt>
      <trkpt lat="44.9214" lon="5.29849">
        <ele>1452.4</ele>
        <time>2020-07-23T15:41:59.000Z</time>
      </trkpt>
      <trkpt lat="44.92149" lon="5.29847">
        <ele>1449.9</ele>
        <time>2020-07-23T15:42:07.000Z</time>
      </trkpt>
      <trkpt lat="44.92159" lon="5.29847">
        <ele>1455.2</ele>
        <time>2020-07-23T15:42:15.000Z</time>
      </trkpt>
      <trkpt lat="44.92167" lon="5.29841">
        <ele>1454.2</ele>
        <time>2020-07-23T15:42:24.000Z</time>
      </trkpt>
      <trkpt lat="44.92175" lon="5.29834">
        <ele>1453.3</ele>
        <time>2020-07-23T15:42:32.000Z</time>
      </trkpt>
      <trkpt lat="44.92184" lon="5.29828">
        <ele>1452.8</ele>
        <time>2020-07-23T15:42:39.000Z</time>
      </trkpt>
      <trkpt lat="44.92193" lon="5.29821">
        <ele>1452.2</ele>
        <time>2020-07-23T15:42:46.000Z</time>
      </trkpt>
      <trkpt lat="44.92202" lon="5.29814">
        <ele>1451.9</ele>
        <time>2020-07-23T15:42:53.000Z</time>
      </trkpt>
      <trkpt lat="44.9221" lon="5.29804">
        <ele>1451.5</ele>
        <time>2020-07-23T15:43:00.000Z</time>
      </trkpt>
      <trkpt lat="44.92217" lon="5.29797">
        <ele>1451.1</ele>
        <time>2020-07-23T15:43:07.000Z</time>
      </trkpt>
      <trkpt lat="44.92225" lon="5.29791">
        <ele>1450.7</ele>
        <time>2020-07-23T15:43:14.000Z</time>
      </trkpt>
      <trkpt lat="44.92234" lon="5.29785">
        <ele>1449.9</ele>
        <time>2020-07-23T15:43:22.000Z</time>
      </trkpt>
      <trkpt lat="44.92243" lon="5.29782">
        <ele>1449.5</ele>
        <time>2020-07-23T15:43:31.000Z</time>
      </trkpt>
      <trkpt lat="44.92252" lon="5.29784">
        <ele>1449.2</ele>
        <time>2020-07-23T15:43:37.000Z</time>
      </trkpt>
      <trkpt lat="44.92261" lon="5.29787">
        <ele>1448.8</ele>
        <time>2020-07-23T15:43:43.000Z</time>
      </trkpt>
      <trkpt lat="44.92269" lon="5.29793">
        <ele>1448.5</ele>
        <time>2020-07-23T15:43:50.000Z</time>
      </trkpt>
      <trkpt lat="44.92277" lon="5.298">
        <ele>1448.1</ele>
        <time>2020-07-23T15:43:57.000Z</time>
      </trkpt>
      <trkpt lat="44.92286" lon="5.29805">
        <ele>1447.6</ele>
        <time>2020-07-23T15:44:04.000Z</time>
      </trkpt>
      <trkpt lat="44.92294" lon="5.29812">
        <ele>1447.1</ele>
        <time>2020-07-23T15:44:12.000Z</time>
      </trkpt>
      <trkpt lat="44.92301" lon="5.29826">
        <ele>1446.7</ele>
        <time>2020-07-23T15:44:17.000Z</time>
      </trkpt>
      <trkpt lat="44.92307" lon="5.29838">
        <ele>1446.3</ele>
        <time>2020-07-23T15:44:21.000Z</time>
      </trkpt>
      <trkpt lat="44.92311" lon="5.29848">
        <ele>1446</ele>
        <time>2020-07-23T15:44:25.000Z</time>
      </trkpt>
      <trkpt lat="44.92317" lon="5.29862">
        <ele>1445.4</ele>
        <time>2020-07-23T15:44:30.000Z</time>
      </trkpt>
      <trkpt lat="44.92323" lon="5.29876">
        <ele>1444.6</ele>
        <time>2020-07-23T15:44:34.000Z</time>
      </trkpt>
      <trkpt lat="44.92328" lon="5.29888">
        <ele>1444.2</ele>
        <time>2020-07-23T15:44:37.000Z</time>
      </trkpt>
      <trkpt lat="44.92334" lon="5.29903">
        <ele>1443.6</ele>
        <time>2020-07-23T15:44:41.000Z</time>
      </trkpt>
      <trkpt lat="44.9234" lon="5.29914">
        <ele>1443.1</ele>
        <time>2020-07-23T15:44:44.000Z</time>
      </trkpt>
      <trkpt lat="44.92346" lon="5.29924">
        <ele>1442.5</ele>
        <time>2020-07-23T15:44:47.000Z</time>
      </trkpt>
      <trkpt lat="44.92354" lon="5.29935">
        <ele>1442.1</ele>
        <time>2020-07-23T15:44:50.000Z</time>
      </trkpt>
      <trkpt lat="44.9236" lon="5.29944">
        <ele>1441.6</ele>
        <time>2020-07-23T15:44:53.000Z</time>
      </trkpt>
      <trkpt lat="44.92368" lon="5.29956">
        <ele>1441</ele>
        <time>2020-07-23T15:44:57.000Z</time>
      </trkpt>
      <trkpt lat="44.92375" lon="5.29966">
        <ele>1440.6</ele>
        <time>2020-07-23T15:45:00.000Z</time>
      </trkpt>
      <trkpt lat="44.92381" lon="5.29977">
        <ele>1440.1</ele>
        <time>2020-07-23T15:45:03.000Z</time>
      </trkpt>
      <trkpt lat="44.92388" lon="5.29989">
        <ele>1439.5</ele>
        <time>2020-07-23T15:45:07.000Z</time>
      </trkpt>
      <trkpt lat="44.92395" lon="5.30002">
        <ele>1438.8</ele>
        <time>2020-07-23T15:45:11.000Z</time>
      </trkpt>
      <trkpt lat="44.924" lon="5.30014">
        <ele>1438.2</ele>
        <time>2020-07-23T15:45:14.000Z</time>
      </trkpt>
      <trkpt lat="44.92404" lon="5.30027">
        <ele>1437.6</ele>
        <time>2020-07-23T15:45:17.000Z</time>
      </trkpt>
      <trkpt lat="44.92408" lon="5.30039">
        <ele>1437</ele>
        <time>2020-07-23T15:45:20.000Z</time>
      </trkpt>
      <trkpt lat="44.92413" lon="5.3005">
        <ele>1436.3</ele>
        <time>2020-07-23T15:45:24.000Z</time>
      </trkpt>
      <trkpt lat="44.92419" lon="5.30063">
        <ele>1435.8</ele>
        <time>2020-07-23T15:45:29.000Z</time>
      </trkpt>
      <trkpt lat="44.92425" lon="5.30075">
        <ele>1435.5</ele>
        <time>2020-07-23T15:45:32.000Z</time>
      </trkpt>
      <trkpt lat="44.92432" lon="5.30088">
        <ele>1435.4</ele>
        <time>2020-07-23T15:45:35.000Z</time>
      </trkpt>
      <trkpt lat="44.92439" lon="5.30098">
        <ele>1435.3</ele>
        <time>2020-07-23T15:45:37.000Z</time>
      </trkpt>
      <trkpt lat="44.92447" lon="5.30111">
        <ele>1435</ele>
        <time>2020-07-23T15:45:40.000Z</time>
      </trkpt>
      <trkpt lat="44.92455" lon="5.30124">
        <ele>1434.6</ele>
        <time>2020-07-23T15:45:44.000Z</time>
      </trkpt>
      <trkpt lat="44.9246" lon="5.30135">
        <ele>1434.2</ele>
        <time>2020-07-23T15:45:47.000Z</time>
      </trkpt>
      <trkpt lat="44.92464" lon="5.30149">
        <ele>1433.8</ele>
        <time>2020-07-23T15:45:51.000Z</time>
      </trkpt>
      <trkpt lat="44.9247" lon="5.30162">
        <ele>1433.7</ele>
        <time>2020-07-23T15:45:54.000Z</time>
      </trkpt>
      <trkpt lat="44.92474" lon="5.30174">
        <ele>1433.5</ele>
        <time>2020-07-23T15:45:57.000Z</time>
      </trkpt>
      <trkpt lat="44.92476" lon="5.3019">
        <ele>1433.3</ele>
        <time>2020-07-23T15:46:01.000Z</time>
      </trkpt>
      <trkpt lat="44.92478" lon="5.30204">
        <ele>1433</ele>
        <time>2020-07-23T15:46:04.000Z</time>
      </trkpt>
      <trkpt lat="44.92483" lon="5.30219">
        <ele>1433.1</ele>
        <time>2020-07-23T15:46:07.000Z</time>
      </trkpt>
      <trkpt lat="44.92488" lon="5.30232">
        <ele>1433</ele>
        <time>2020-07-23T15:46:10.000Z</time>
      </trkpt>
      <trkpt lat="44.92492" lon="5.30244">
        <ele>1433</ele>
        <time>2020-07-23T15:46:13.000Z</time>
      </trkpt>
      <trkpt lat="44.92498" lon="5.30256">
        <ele>1432.9</ele>
        <time>2020-07-23T15:46:16.000Z</time>
      </trkpt>
      <trkpt lat="44.92503" lon="5.30269">
        <ele>1432.5</ele>
        <time>2020-07-23T15:46:19.000Z</time>
      </trkpt>
      <trkpt lat="44.92507" lon="5.30283">
        <ele>1432.2</ele>
        <time>2020-07-23T15:46:22.000Z</time>
      </trkpt>
      <trkpt lat="44.92512" lon="5.303">
        <ele>1432</ele>
        <time>2020-07-23T15:46:26.000Z</time>
      </trkpt>
      <trkpt lat="44.92516" lon="5.30313">
        <ele>1431.6</ele>
        <time>2020-07-23T15:46:30.000Z</time>
      </trkpt>
      <trkpt lat="44.92521" lon="5.30327">
        <ele>1431.1</ele>
        <time>2020-07-23T15:46:36.000Z</time>
      </trkpt>
      <trkpt lat="44.92525" lon="5.30339">
        <ele>1430.5</ele>
        <time>2020-07-23T15:46:42.000Z</time>
      </trkpt>
      <trkpt lat="44.92531" lon="5.3035">
        <ele>1430.2</ele>
        <time>2020-07-23T15:46:48.000Z</time>
      </trkpt>
      <trkpt lat="44.92539" lon="5.30359">
        <ele>1429.8</ele>
        <time>2020-07-23T15:46:54.000Z</time>
      </trkpt>
      <trkpt lat="44.92545" lon="5.30369">
        <ele>1429.4</ele>
        <time>2020-07-23T15:47:02.000Z</time>
      </trkpt>
      <trkpt lat="44.92551" lon="5.3038">
        <ele>1429</ele>
        <time>2020-07-23T15:47:10.000Z</time>
      </trkpt>
      <trkpt lat="44.92554" lon="5.30392">
        <ele>1428.5</ele>
        <time>2020-07-23T15:47:18.000Z</time>
      </trkpt>
      <trkpt lat="44.92559" lon="5.30404">
        <ele>1427.7</ele>
        <time>2020-07-23T15:47:26.000Z</time>
      </trkpt>
      <trkpt lat="44.9256" lon="5.30417">
        <ele>1427.1</ele>
        <time>2020-07-23T15:47:34.000Z</time>
      </trkpt>
      <trkpt lat="44.9256" lon="5.30431">
        <ele>1426.3</ele>
        <time>2020-07-23T15:47:42.000Z</time>
      </trkpt>
      <trkpt lat="44.92559" lon="5.30445">
        <ele>1425.5</ele>
        <time>2020-07-23T15:47:50.000Z</time>
      </trkpt>
      <trkpt lat="44.92562" lon="5.30457">
        <ele>1424.9</ele>
        <time>2020-07-23T15:47:57.000Z</time>
      </trkpt>
      <trkpt lat="44.92565" lon="5.30469">
        <ele>1424.3</ele>
        <time>2020-07-23T15:48:04.000Z</time>
      </trkpt>
      <trkpt lat="44.92571" lon="5.30481">
        <ele>1423.8</ele>
        <time>2020-07-23T15:48:08.000Z</time>
      </trkpt>
      <trkpt lat="44.92577" lon="5.30493">
        <ele>1423.4</ele>
        <time>2020-07-23T15:48:13.000Z</time>
      </trkpt>
      <trkpt lat="44.92585" lon="5.30504">
        <ele>1422.8</ele>
        <time>2020-07-23T15:48:17.000Z</time>
      </trkpt>
      <trkpt lat="44.92593" lon="5.30512">
        <ele>1422.2</ele>
        <time>2020-07-23T15:48:21.000Z</time>
      </trkpt>
      <trkpt lat="44.926" lon="5.30521">
        <ele>1421.7</ele>
        <time>2020-07-23T15:48:25.000Z</time>
      </trkpt>
      <trkpt lat="44.92609" lon="5.30529">
        <ele>1421.2</ele>
        <time>2020-07-23T15:48:29.000Z</time>
      </trkpt>
      <trkpt lat="44.92617" lon="5.30538">
        <ele>1420.8</ele>
        <time>2020-07-23T15:48:33.000Z</time>
      </trkpt>
      <trkpt lat="44.92625" lon="5.30547">
        <ele>1420.2</ele>
        <time>2020-07-23T15:48:37.000Z</time>
      </trkpt>
      <trkpt lat="44.92632" lon="5.30558">
        <ele>1419.5</ele>
        <time>2020-07-23T15:48:41.000Z</time>
      </trkpt>
      <trkpt lat="44.9264" lon="5.30568">
        <ele>1418.8</ele>
        <time>2020-07-23T15:48:45.000Z</time>
      </trkpt>
      <trkpt lat="44.92647" lon="5.30576">
        <ele>1418.4</ele>
        <time>2020-07-23T15:48:48.000Z</time>
      </trkpt>
      <trkpt lat="44.92657" lon="5.30588">
        <ele>1417.8</ele>
        <time>2020-07-23T15:48:51.000Z</time>
      </trkpt>
      <trkpt lat="44.92664" lon="5.30596">
        <ele>1417.4</ele>
        <time>2020-07-23T15:48:53.000Z</time>
      </trkpt>
      <trkpt lat="44.92672" lon="5.30604">
        <ele>1417.2</ele>
        <time>2020-07-23T15:48:55.000Z</time>
      </trkpt>
      <trkpt lat="44.9268" lon="5.30614">
        <ele>1417.1</ele>
        <time>2020-07-23T15:48:57.000Z</time>
      </trkpt>
      <trkpt lat="44.92689" lon="5.30622">
        <ele>1416.8</ele>
        <time>2020-07-23T15:48:59.000Z</time>
      </trkpt>
      <trkpt lat="44.92698" lon="5.30633">
        <ele>1416.4</ele>
        <time>2020-07-23T15:49:02.000Z</time>
      </trkpt>
      <trkpt lat="44.92706" lon="5.30643">
        <ele>1416.1</ele>
        <time>2020-07-23T15:49:05.000Z</time>
      </trkpt>
      <trkpt lat="44.92714" lon="5.30653">
        <ele>1415.8</ele>
        <time>2020-07-23T15:49:08.000Z</time>
      </trkpt>
      <trkpt lat="44.9272" lon="5.30662">
        <ele>1415.6</ele>
        <time>2020-07-23T15:49:10.000Z</time>
      </trkpt>
      <trkpt lat="44.92725" lon="5.30674">
        <ele>1415.5</ele>
        <time>2020-07-23T15:49:12.000Z</time>
      </trkpt>
      <trkpt lat="44.92731" lon="5.30686">
        <ele>1415.3</ele>
        <time>2020-07-23T15:49:14.000Z</time>
      </trkpt>
      <trkpt lat="44.92736" lon="5.30698">
        <ele>1415.1</ele>
        <time>2020-07-23T15:49:16.000Z</time>
      </trkpt>
      <trkpt lat="44.92741" lon="5.3071">
        <ele>1414.9</ele>
        <time>2020-07-23T15:49:18.000Z</time>
      </trkpt>
      <trkpt lat="44.92743" lon="5.30724">
        <ele>1414.8</ele>
        <time>2020-07-23T15:49:20.000Z</time>
      </trkpt>
      <trkpt lat="44.92746" lon="5.3074">
        <ele>1414.8</ele>
        <time>2020-07-23T15:49:22.000Z</time>
      </trkpt>
      <trkpt lat="44.92752" lon="5.30758">
        <ele>1414.9</ele>
        <time>2020-07-23T15:49:24.000Z</time>
      </trkpt>
      <trkpt lat="44.92756" lon="5.30771">
        <ele>1414.9</ele>
        <time>2020-07-23T15:49:26.000Z</time>
      </trkpt>
      <trkpt lat="44.92759" lon="5.30785">
        <ele>1414.9</ele>
        <time>2020-07-23T15:49:29.000Z</time>
      </trkpt>
      <trkpt lat="44.92762" lon="5.30799">
        <ele>1414.7</ele>
        <time>2020-07-23T15:49:32.000Z</time>
      </trkpt>
      <trkpt lat="44.92764" lon="5.30813">
        <ele>1414.5</ele>
        <time>2020-07-23T15:49:35.000Z</time>
      </trkpt>
      <trkpt lat="44.92768" lon="5.30825">
        <ele>1414.2</ele>
        <time>2020-07-23T15:49:38.000Z</time>
      </trkpt>
      <trkpt lat="44.92771" lon="5.30841">
        <ele>1413.9</ele>
        <time>2020-07-23T15:49:41.000Z</time>
      </trkpt>
      <trkpt lat="44.92777" lon="5.30858">
        <ele>1413.8</ele>
        <time>2020-07-23T15:49:44.000Z</time>
      </trkpt>
      <trkpt lat="44.92783" lon="5.3087">
        <ele>1413.7</ele>
        <time>2020-07-23T15:49:46.000Z</time>
      </trkpt>
      <trkpt lat="44.9279" lon="5.30881">
        <ele>1413.7</ele>
        <time>2020-07-23T15:49:48.000Z</time>
      </trkpt>
      <trkpt lat="44.92798" lon="5.30892">
        <ele>1413.8</ele>
        <time>2020-07-23T15:49:51.000Z</time>
      </trkpt>
      <trkpt lat="44.92806" lon="5.30901">
        <ele>1413.7</ele>
        <time>2020-07-23T15:49:55.000Z</time>
      </trkpt>
      <trkpt lat="44.92814" lon="5.30909">
        <ele>1413.9</ele>
        <time>2020-07-23T15:49:59.000Z</time>
      </trkpt>
      <trkpt lat="44.92822" lon="5.30916">
        <ele>1413.9</ele>
        <time>2020-07-23T15:50:04.000Z</time>
      </trkpt>
      <trkpt lat="44.92829" lon="5.30924">
        <ele>1414</ele>
        <time>2020-07-23T15:50:11.000Z</time>
      </trkpt>
      <trkpt lat="44.92835" lon="5.30934">
        <ele>1414.1</ele>
        <time>2020-07-23T15:50:18.000Z</time>
      </trkpt>
      <trkpt lat="44.92843" lon="5.30942">
        <ele>1414.1</ele>
        <time>2020-07-23T15:50:26.000Z</time>
      </trkpt>
      <trkpt lat="44.92849" lon="5.30952">
        <ele>1411.8</ele>
        <time>2020-07-23T15:50:34.000Z</time>
      </trkpt>
      <trkpt lat="44.92856" lon="5.30962">
        <ele>1416.3</ele>
        <time>2020-07-23T15:50:44.000Z</time>
      </trkpt>
      <trkpt lat="44.92862" lon="5.30973">
        <ele>1414.8</ele>
        <time>2020-07-23T15:50:52.000Z</time>
      </trkpt>
      <trkpt lat="44.92869" lon="5.30983">
        <ele>1415.2</ele>
        <time>2020-07-23T15:51:00.000Z</time>
      </trkpt>
      <trkpt lat="44.92875" lon="5.30995">
        <ele>1406.7</ele>
        <time>2020-07-23T15:51:07.000Z</time>
      </trkpt>
      <trkpt lat="44.92878" lon="5.31008">
        <ele>1415.8</ele>
        <time>2020-07-23T15:51:17.000Z</time>
      </trkpt>
      <trkpt lat="44.92882" lon="5.31019">
        <ele>1418.9</ele>
        <time>2020-07-23T15:51:25.000Z</time>
      </trkpt>
      <trkpt lat="44.92886" lon="5.31032">
        <ele>1416.4</ele>
        <time>2020-07-23T15:51:35.000Z</time>
      </trkpt>
      <trkpt lat="44.92889" lon="5.31044">
        <ele>1415.1</ele>
        <time>2020-07-23T15:51:42.000Z</time>
      </trkpt>
      <trkpt lat="44.92888" lon="5.31058">
        <ele>1414</ele>
        <time>2020-07-23T15:51:50.000Z</time>
      </trkpt>
      <trkpt lat="44.92882" lon="5.31068">
        <ele>1413.3</ele>
        <time>2020-07-23T15:51:58.000Z</time>
      </trkpt>
      <trkpt lat="44.92874" lon="5.31075">
        <ele>1412.7</ele>
        <time>2020-07-23T15:52:06.000Z</time>
      </trkpt>
      <trkpt lat="44.92864" lon="5.31077">
        <ele>1412.2</ele>
        <time>2020-07-23T15:52:14.000Z</time>
      </trkpt>
      <trkpt lat="44.92855" lon="5.31079">
        <ele>1411.9</ele>
        <time>2020-07-23T15:52:22.000Z</time>
      </trkpt>
      <trkpt lat="44.92846" lon="5.31086">
        <ele>1411.6</ele>
        <time>2020-07-23T15:52:29.000Z</time>
      </trkpt>
      <trkpt lat="44.9284" lon="5.31095">
        <ele>1411.5</ele>
        <time>2020-07-23T15:52:36.000Z</time>
      </trkpt>
      <trkpt lat="44.92831" lon="5.31102">
        <ele>1411.4</ele>
        <time>2020-07-23T15:52:45.000Z</time>
      </trkpt>
      <trkpt lat="44.92823" lon="5.31109">
        <ele>1411.2</ele>
        <time>2020-07-23T15:52:52.000Z</time>
      </trkpt>
      <trkpt lat="44.92813" lon="5.3111">
        <ele>1411</ele>
        <time>2020-07-23T15:52:59.000Z</time>
      </trkpt>
      <trkpt lat="44.92804" lon="5.31105">
        <ele>1410.8</ele>
        <time>2020-07-23T15:53:06.000Z</time>
      </trkpt>
      <trkpt lat="44.92796" lon="5.311">
        <ele>1410.5</ele>
        <time>2020-07-23T15:53:12.000Z</time>
      </trkpt>
      <trkpt lat="44.92787" lon="5.31096">
        <ele>1410.4</ele>
        <time>2020-07-23T15:53:19.000Z</time>
      </trkpt>
      <trkpt lat="44.92778" lon="5.31103">
        <ele>1410.4</ele>
        <time>2020-07-23T15:53:26.000Z</time>
      </trkpt>
      <trkpt lat="44.92772" lon="5.31112">
        <ele>1410.3</ele>
        <time>2020-07-23T15:53:33.000Z</time>
      </trkpt>
      <trkpt lat="44.92767" lon="5.31124">
        <ele>1410.3</ele>
        <time>2020-07-23T15:53:40.000Z</time>
      </trkpt>
      <trkpt lat="44.92763" lon="5.31135">
        <ele>1410.1</ele>
        <time>2020-07-23T15:53:47.000Z</time>
      </trkpt>
      <trkpt lat="44.9276" lon="5.31149">
        <ele>1409.8</ele>
        <time>2020-07-23T15:53:55.000Z</time>
      </trkpt>
      <trkpt lat="44.92757" lon="5.31161">
        <ele>1409.3</ele>
        <time>2020-07-23T15:54:03.000Z</time>
      </trkpt>
      <trkpt lat="44.92754" lon="5.31174">
        <ele>1408.7</ele>
        <time>2020-07-23T15:54:11.000Z</time>
      </trkpt>
      <trkpt lat="44.92751" lon="5.31187">
        <ele>1408</ele>
        <time>2020-07-23T15:54:19.000Z</time>
      </trkpt>
      <trkpt lat="44.92748" lon="5.31201">
        <ele>1407.3</ele>
        <time>2020-07-23T15:54:27.000Z</time>
      </trkpt>
      <trkpt lat="44.92745" lon="5.31214">
        <ele>1406.9</ele>
        <time>2020-07-23T15:54:33.000Z</time>
      </trkpt>
      <trkpt lat="44.92741" lon="5.31225">
        <ele>1406.5</ele>
        <time>2020-07-23T15:54:37.000Z</time>
      </trkpt>
      <trkpt lat="44.92737" lon="5.31238">
        <ele>1406.2</ele>
        <time>2020-07-23T15:54:41.000Z</time>
      </trkpt>
      <trkpt lat="44.92731" lon="5.31248">
        <ele>1406.1</ele>
        <time>2020-07-23T15:54:45.000Z</time>
      </trkpt>
      <trkpt lat="44.92726" lon="5.31259">
        <ele>1406</ele>
        <time>2020-07-23T15:54:49.000Z</time>
      </trkpt>
      <trkpt lat="44.9272" lon="5.31269">
        <ele>1405.9</ele>
        <time>2020-07-23T15:54:53.000Z</time>
      </trkpt>
      <trkpt lat="44.92713" lon="5.3128">
        <ele>1405.8</ele>
        <time>2020-07-23T15:54:58.000Z</time>
      </trkpt>
      <trkpt lat="44.92705" lon="5.3129">
        <ele>1405.3</ele>
        <time>2020-07-23T15:55:05.000Z</time>
      </trkpt>
      <trkpt lat="44.92696" lon="5.31296">
        <ele>1405</ele>
        <time>2020-07-23T15:55:12.000Z</time>
      </trkpt>
      <trkpt lat="44.92686" lon="5.31299">
        <ele>1404.6</ele>
        <time>2020-07-23T15:55:16.000Z</time>
      </trkpt>
      <trkpt lat="44.92675" lon="5.31302">
        <ele>1404.3</ele>
        <time>2020-07-23T15:55:20.000Z</time>
      </trkpt>
      <trkpt lat="44.92666" lon="5.31301">
        <ele>1404</ele>
        <time>2020-07-23T15:55:23.000Z</time>
      </trkpt>
      <trkpt lat="44.92655" lon="5.31304">
        <ele>1403.7</ele>
        <time>2020-07-23T15:55:26.000Z</time>
      </trkpt>
      <trkpt lat="44.92644" lon="5.31308">
        <ele>1403.6</ele>
        <time>2020-07-23T15:55:29.000Z</time>
      </trkpt>
      <trkpt lat="44.92634" lon="5.31311">
        <ele>1403.4</ele>
        <time>2020-07-23T15:55:32.000Z</time>
      </trkpt>
      <trkpt lat="44.92623" lon="5.31316">
        <ele>1403.2</ele>
        <time>2020-07-23T15:55:35.000Z</time>
      </trkpt>
      <trkpt lat="44.92613" lon="5.31322">
        <ele>1403.1</ele>
        <time>2020-07-23T15:55:38.000Z</time>
      </trkpt>
      <trkpt lat="44.92603" lon="5.31325">
        <ele>1403.1</ele>
        <time>2020-07-23T15:55:41.000Z</time>
      </trkpt>
      <trkpt lat="44.92593" lon="5.31327">
        <ele>1403</ele>
        <time>2020-07-23T15:55:44.000Z</time>
      </trkpt>
      <trkpt lat="44.92583" lon="5.31327">
        <ele>1402.9</ele>
        <time>2020-07-23T15:55:47.000Z</time>
      </trkpt>
      <trkpt lat="44.92572" lon="5.31327">
        <ele>1402.7</ele>
        <time>2020-07-23T15:55:51.000Z</time>
      </trkpt>
      <trkpt lat="44.92563" lon="5.31326">
        <ele>1402.6</ele>
        <time>2020-07-23T15:55:54.000Z</time>
      </trkpt>
      <trkpt lat="44.92551" lon="5.31325">
        <ele>1402.5</ele>
        <time>2020-07-23T15:55:58.000Z</time>
      </trkpt>
      <trkpt lat="44.92542" lon="5.31326">
        <ele>1402.5</ele>
        <time>2020-07-23T15:56:01.000Z</time>
      </trkpt>
      <trkpt lat="44.92531" lon="5.31331">
        <ele>1402.2</ele>
        <time>2020-07-23T15:56:05.000Z</time>
      </trkpt>
      <trkpt lat="44.92523" lon="5.31337">
        <ele>1402</ele>
        <time>2020-07-23T15:56:08.000Z</time>
      </trkpt>
      <trkpt lat="44.92514" lon="5.31343">
        <ele>1401.9</ele>
        <time>2020-07-23T15:56:11.000Z</time>
      </trkpt>
      <trkpt lat="44.92504" lon="5.31351">
        <ele>1401.9</ele>
        <time>2020-07-23T15:56:15.000Z</time>
      </trkpt>
      <trkpt lat="44.92494" lon="5.31359">
        <ele>1402</ele>
        <time>2020-07-23T15:56:19.000Z</time>
      </trkpt>
      <trkpt lat="44.92486" lon="5.31365">
        <ele>1401.9</ele>
        <time>2020-07-23T15:56:23.000Z</time>
      </trkpt>
      <trkpt lat="44.92477" lon="5.3137">
        <ele>1402</ele>
        <time>2020-07-23T15:56:29.000Z</time>
      </trkpt>
      <trkpt lat="44.92468" lon="5.31368">
        <ele>1402.1</ele>
        <time>2020-07-23T15:56:36.000Z</time>
      </trkpt>
      <trkpt lat="44.92459" lon="5.31364">
        <ele>1401.9</ele>
        <time>2020-07-23T15:56:43.000Z</time>
      </trkpt>
      <trkpt lat="44.92451" lon="5.31355">
        <ele>1401.8</ele>
        <time>2020-07-23T15:56:52.000Z</time>
      </trkpt>
      <trkpt lat="44.92443" lon="5.31348">
        <ele>1401.8</ele>
        <time>2020-07-23T15:56:59.000Z</time>
      </trkpt>
      <trkpt lat="44.92438" lon="5.31338">
        <ele>1401.7</ele>
        <time>2020-07-23T15:57:08.000Z</time>
      </trkpt>
      <trkpt lat="44.9243" lon="5.3133">
        <ele>1401.6</ele>
        <time>2020-07-23T15:57:14.000Z</time>
      </trkpt>
      <trkpt lat="44.9242" lon="5.31326">
        <ele>1401.4</ele>
        <time>2020-07-23T15:57:19.000Z</time>
      </trkpt>
      <trkpt lat="44.9241" lon="5.31325">
        <ele>1401.2</ele>
        <time>2020-07-23T15:57:26.000Z</time>
      </trkpt>
      <trkpt lat="44.92401" lon="5.31323">
        <ele>1401</ele>
        <time>2020-07-23T15:57:32.000Z</time>
      </trkpt>
      <trkpt lat="44.92391" lon="5.31325">
        <ele>1400.9</ele>
        <time>2020-07-23T15:57:40.000Z</time>
      </trkpt>
      <trkpt lat="44.9238" lon="5.31321">
        <ele>1400.9</ele>
        <time>2020-07-23T15:57:47.000Z</time>
      </trkpt>
      <trkpt lat="44.9237" lon="5.31324">
        <ele>1400.9</ele>
        <time>2020-07-23T15:57:54.000Z</time>
      </trkpt>
      <trkpt lat="44.92361" lon="5.3133">
        <ele>1400.9</ele>
        <time>2020-07-23T15:58:02.000Z</time>
      </trkpt>
      <trkpt lat="44.92352" lon="5.31335">
        <ele>1400.9</ele>
        <time>2020-07-23T15:58:10.000Z</time>
      </trkpt>
      <trkpt lat="44.92343" lon="5.31338">
        <ele>1400.6</ele>
        <time>2020-07-23T15:58:17.000Z</time>
      </trkpt>
      <trkpt lat="44.92335" lon="5.31346">
        <ele>1400.6</ele>
        <time>2020-07-23T15:58:24.000Z</time>
      </trkpt>
      <trkpt lat="44.92328" lon="5.31357">
        <ele>1400.6</ele>
        <time>2020-07-23T15:58:31.000Z</time>
      </trkpt>
      <trkpt lat="44.92319" lon="5.31362">
        <ele>1400.8</ele>
        <time>2020-07-23T15:58:38.000Z</time>
      </trkpt>
      <trkpt lat="44.92312" lon="5.31368">
        <ele>1400.9</ele>
        <time>2020-07-23T15:58:45.000Z</time>
      </trkpt>
      <trkpt lat="44.92302" lon="5.31368">
        <ele>1400.9</ele>
        <time>2020-07-23T15:58:53.000Z</time>
      </trkpt>
      <trkpt lat="44.92292" lon="5.31366">
        <ele>1400.9</ele>
        <time>2020-07-23T15:59:00.000Z</time>
      </trkpt>
      <trkpt lat="44.92283" lon="5.31362">
        <ele>1400.8</ele>
        <time>2020-07-23T15:59:08.000Z</time>
      </trkpt>
      <trkpt lat="44.92273" lon="5.31357">
        <ele>1400.7</ele>
        <time>2020-07-23T15:59:16.000Z</time>
      </trkpt>
      <trkpt lat="44.92264" lon="5.31352">
        <ele>1400.5</ele>
        <time>2020-07-23T15:59:23.000Z</time>
      </trkpt>
      <trkpt lat="44.92254" lon="5.3135">
        <ele>1400.2</ele>
        <time>2020-07-23T15:59:32.000Z</time>
      </trkpt>
      <trkpt lat="44.92246" lon="5.31354">
        <ele>1399.3</ele>
        <time>2020-07-23T15:59:59.000Z</time>
      </trkpt>
      <trkpt lat="44.9224" lon="5.31365">
        <ele>1399.3</ele>
        <time>2020-07-23T16:00:07.000Z</time>
      </trkpt>
      <trkpt lat="44.92233" lon="5.31372">
        <ele>1399.2</ele>
        <time>2020-07-23T16:00:15.000Z</time>
      </trkpt>
      <trkpt lat="44.92224" lon="5.3138">
        <ele>1399.2</ele>
        <time>2020-07-23T16:00:22.000Z</time>
      </trkpt>
      <trkpt lat="44.92216" lon="5.3139">
        <ele>1399.3</ele>
        <time>2020-07-23T16:00:27.000Z</time>
      </trkpt>
      <trkpt lat="44.92206" lon="5.31395">
        <ele>1399.4</ele>
        <time>2020-07-23T16:00:31.000Z</time>
      </trkpt>
      <trkpt lat="44.92197" lon="5.31401">
        <ele>1399.2</ele>
        <time>2020-07-23T16:00:35.000Z</time>
      </trkpt>
      <trkpt lat="44.92187" lon="5.31403">
        <ele>1399.1</ele>
        <time>2020-07-23T16:00:39.000Z</time>
      </trkpt>
      <trkpt lat="44.92176" lon="5.31404">
        <ele>1399.1</ele>
        <time>2020-07-23T16:00:43.000Z</time>
      </trkpt>
      <trkpt lat="44.92165" lon="5.31406">
        <ele>1399.1</ele>
        <time>2020-07-23T16:00:47.000Z</time>
      </trkpt>
      <trkpt lat="44.92155" lon="5.31414">
        <ele>1399</ele>
        <time>2020-07-23T16:00:51.000Z</time>
      </trkpt>
      <trkpt lat="44.92145" lon="5.31423">
        <ele>1398.5</ele>
        <time>2020-07-23T16:00:55.000Z</time>
      </trkpt>
      <trkpt lat="44.92135" lon="5.31431">
        <ele>1398.3</ele>
        <time>2020-07-23T16:00:59.000Z</time>
      </trkpt>
      <trkpt lat="44.92125" lon="5.31434">
        <ele>1398.3</ele>
        <time>2020-07-23T16:01:03.000Z</time>
      </trkpt>
      <trkpt lat="44.92116" lon="5.31438">
        <ele>1398.1</ele>
        <time>2020-07-23T16:01:07.000Z</time>
      </trkpt>
      <trkpt lat="44.92108" lon="5.31443">
        <ele>1398.1</ele>
        <time>2020-07-23T16:01:12.000Z</time>
      </trkpt>
      <trkpt lat="44.921" lon="5.3145">
        <ele>1398</ele>
        <time>2020-07-23T16:01:15.000Z</time>
      </trkpt>
      <trkpt lat="44.92095" lon="5.31461">
        <ele>1397.9</ele>
        <time>2020-07-23T16:01:18.000Z</time>
      </trkpt>
      <trkpt lat="44.92092" lon="5.31475">
        <ele>1397.7</ele>
        <time>2020-07-23T16:01:22.000Z</time>
      </trkpt>
      <trkpt lat="44.9209" lon="5.31491">
        <ele>1397.7</ele>
        <time>2020-07-23T16:01:26.000Z</time>
      </trkpt>
      <trkpt lat="44.92091" lon="5.31507">
        <ele>1397.5</ele>
        <time>2020-07-23T16:01:30.000Z</time>
      </trkpt>
      <trkpt lat="44.92092" lon="5.31522">
        <ele>1397.6</ele>
        <time>2020-07-23T16:01:34.000Z</time>
      </trkpt>
      <trkpt lat="44.92091" lon="5.31535">
        <ele>1397.5</ele>
        <time>2020-07-23T16:01:38.000Z</time>
      </trkpt>
      <trkpt lat="44.92089" lon="5.31548">
        <ele>1397.3</ele>
        <time>2020-07-23T16:01:42.000Z</time>
      </trkpt>
      <trkpt lat="44.92087" lon="5.3156">
        <ele>1397</ele>
        <time>2020-07-23T16:01:48.000Z</time>
      </trkpt>
      <trkpt lat="44.92084" lon="5.31573">
        <ele>1391.2</ele>
        <time>2020-07-23T16:01:55.000Z</time>
      </trkpt>
      <trkpt lat="44.92082" lon="5.31589">
        <ele>1397.2</ele>
        <time>2020-07-23T16:02:03.000Z</time>
      </trkpt>
      <trkpt lat="44.9208" lon="5.31604">
        <ele>1397.7</ele>
        <time>2020-07-23T16:02:12.000Z</time>
      </trkpt>
      <trkpt lat="44.92077" lon="5.31616">
        <ele>1396.2</ele>
        <time>2020-07-23T16:02:19.000Z</time>
      </trkpt>
      <trkpt lat="44.92077" lon="5.31629">
        <ele>1396.1</ele>
        <time>2020-07-23T16:02:26.000Z</time>
      </trkpt>
      <trkpt lat="44.92076" lon="5.31643">
        <ele>1395.1</ele>
        <time>2020-07-23T16:02:35.000Z</time>
      </trkpt>
      <trkpt lat="44.92074" lon="5.31656">
        <ele>1391.4</ele>
        <time>2020-07-23T16:02:42.000Z</time>
      </trkpt>
      <trkpt lat="44.92073" lon="5.31669">
        <ele>1399.7</ele>
        <time>2020-07-23T16:02:48.000Z</time>
      </trkpt>
      <trkpt lat="44.92069" lon="5.31682">
        <ele>1398.8</ele>
        <time>2020-07-23T16:02:55.000Z</time>
      </trkpt>
      <trkpt lat="44.92065" lon="5.31694">
        <ele>1397.2</ele>
        <time>2020-07-23T16:03:02.000Z</time>
      </trkpt>
      <trkpt lat="44.92059" lon="5.31706">
        <ele>1396.1</ele>
        <time>2020-07-23T16:03:10.000Z</time>
      </trkpt>
      <trkpt lat="44.92053" lon="5.31717">
        <ele>1395.6</ele>
        <time>2020-07-23T16:03:18.000Z</time>
      </trkpt>
      <trkpt lat="44.92047" lon="5.31726">
        <ele>1395.3</ele>
        <time>2020-07-23T16:03:25.000Z</time>
      </trkpt>
      <trkpt lat="44.9204" lon="5.31735">
        <ele>1395.1</ele>
        <time>2020-07-23T16:03:32.000Z</time>
      </trkpt>
      <trkpt lat="44.92031" lon="5.31741">
        <ele>1394.9</ele>
        <time>2020-07-23T16:03:40.000Z</time>
      </trkpt>
      <trkpt lat="44.92023" lon="5.31749">
        <ele>1394.7</ele>
        <time>2020-07-23T16:03:48.000Z</time>
      </trkpt>
      <trkpt lat="44.92013" lon="5.3175">
        <ele>1394.7</ele>
        <time>2020-07-23T16:03:56.000Z</time>
      </trkpt>
      <trkpt lat="44.92004" lon="5.31752">
        <ele>1394.5</ele>
        <time>2020-07-23T16:04:04.000Z</time>
      </trkpt>
      <trkpt lat="44.91994" lon="5.31752">
        <ele>1394.3</ele>
        <time>2020-07-23T16:04:11.000Z</time>
      </trkpt>
      <trkpt lat="44.91985" lon="5.31751">
        <ele>1394.3</ele>
        <time>2020-07-23T16:04:17.000Z</time>
      </trkpt>
      <trkpt lat="44.91976" lon="5.31746">
        <ele>1394.2</ele>
        <time>2020-07-23T16:04:22.000Z</time>
      </trkpt>
      <trkpt lat="44.91967" lon="5.3174">
        <ele>1394.4</ele>
        <time>2020-07-23T16:04:26.000Z</time>
      </trkpt>
      <trkpt lat="44.9196" lon="5.31732">
        <ele>1394.6</ele>
        <time>2020-07-23T16:04:30.000Z</time>
      </trkpt>
      <trkpt lat="44.91949" lon="5.31725">
        <ele>1394.6</ele>
        <time>2020-07-23T16:04:34.000Z</time>
      </trkpt>
      <trkpt lat="44.9194" lon="5.31717">
        <ele>1394.9</ele>
        <time>2020-07-23T16:04:38.000Z</time>
      </trkpt>
      <trkpt lat="44.91931" lon="5.31712">
        <ele>1394.9</ele>
        <time>2020-07-23T16:04:41.000Z</time>
      </trkpt>
      <trkpt lat="44.91919" lon="5.31708">
        <ele>1395.2</ele>
        <time>2020-07-23T16:04:45.000Z</time>
      </trkpt>
      <trkpt lat="44.9191" lon="5.31705">
        <ele>1395.4</ele>
        <time>2020-07-23T16:04:49.000Z</time>
      </trkpt>
      <trkpt lat="44.919" lon="5.31704">
        <ele>1395.8</ele>
        <time>2020-07-23T16:04:56.000Z</time>
      </trkpt>
      <trkpt lat="44.9189" lon="5.31707">
        <ele>1396.4</ele>
        <time>2020-07-23T16:05:03.000Z</time>
      </trkpt>
      <trkpt lat="44.91881" lon="5.31713">
        <ele>1396.8</ele>
        <time>2020-07-23T16:05:11.000Z</time>
      </trkpt>
      <trkpt lat="44.91872" lon="5.31714">
        <ele>1397.2</ele>
        <time>2020-07-23T16:05:18.000Z</time>
      </trkpt>
      <trkpt lat="44.91862" lon="5.31716">
        <ele>1398</ele>
        <time>2020-07-23T16:05:25.000Z</time>
      </trkpt>
      <trkpt lat="44.91853" lon="5.31719">
        <ele>1398.6</ele>
        <time>2020-07-23T16:05:33.000Z</time>
      </trkpt>
      <trkpt lat="44.91844" lon="5.31726">
        <ele>1399.4</ele>
        <time>2020-07-23T16:05:41.000Z</time>
      </trkpt>
      <trkpt lat="44.91835" lon="5.31727">
        <ele>1400</ele>
        <time>2020-07-23T16:05:49.000Z</time>
      </trkpt>
      <trkpt lat="44.91825" lon="5.31727">
        <ele>1400.8</ele>
        <time>2020-07-23T16:05:57.000Z</time>
      </trkpt>
      <trkpt lat="44.91816" lon="5.31728">
        <ele>1401.5</ele>
        <time>2020-07-23T16:06:05.000Z</time>
      </trkpt>
      <trkpt lat="44.91806" lon="5.3173">
        <ele>1402.2</ele>
        <time>2020-07-23T16:06:13.000Z</time>
      </trkpt>
      <trkpt lat="44.91797" lon="5.31732">
        <ele>1403.1</ele>
        <time>2020-07-23T16:06:21.000Z</time>
      </trkpt>
      <trkpt lat="44.91787" lon="5.31734">
        <ele>1404</ele>
        <time>2020-07-23T16:06:29.000Z</time>
      </trkpt>
      <trkpt lat="44.91778" lon="5.31738">
        <ele>1405</ele>
        <time>2020-07-23T16:06:38.000Z</time>
      </trkpt>
      <trkpt lat="44.91769" lon="5.31742">
        <ele>1406.1</ele>
        <time>2020-07-23T16:06:46.000Z</time>
      </trkpt>
      <trkpt lat="44.9176" lon="5.31743">
        <ele>1407.2</ele>
        <time>2020-07-23T16:06:55.000Z</time>
      </trkpt>
      <trkpt lat="44.9175" lon="5.31746">
        <ele>1408</ele>
        <time>2020-07-23T16:07:02.000Z</time>
      </trkpt>
      <trkpt lat="44.9174" lon="5.31748">
        <ele>1408.9</ele>
        <time>2020-07-23T16:07:11.000Z</time>
      </trkpt>
      <trkpt lat="44.91732" lon="5.31755">
        <ele>1409.6</ele>
        <time>2020-07-23T16:07:18.000Z</time>
      </trkpt>
      <trkpt lat="44.91725" lon="5.31763">
        <ele>1410.3</ele>
        <time>2020-07-23T16:07:25.000Z</time>
      </trkpt>
      <trkpt lat="44.91717" lon="5.31769">
        <ele>1411</ele>
        <time>2020-07-23T16:07:33.000Z</time>
      </trkpt>
      <trkpt lat="44.9171" lon="5.31779">
        <ele>1411.8</ele>
        <time>2020-07-23T16:07:41.000Z</time>
      </trkpt>
      <trkpt lat="44.91701" lon="5.31782">
        <ele>1412.6</ele>
        <time>2020-07-23T16:07:49.000Z</time>
      </trkpt>
      <trkpt lat="44.91691" lon="5.31783">
        <ele>1413.6</ele>
        <time>2020-07-23T16:07:58.000Z</time>
      </trkpt>
      <trkpt lat="44.91682" lon="5.31782">
        <ele>1414.5</ele>
        <time>2020-07-23T16:08:06.000Z</time>
      </trkpt>
      <trkpt lat="44.91672" lon="5.31781">
        <ele>1415.6</ele>
        <time>2020-07-23T16:08:15.000Z</time>
      </trkpt>
      <trkpt lat="44.91663" lon="5.31773">
        <ele>1417</ele>
        <time>2020-07-23T16:08:25.000Z</time>
      </trkpt>
      <trkpt lat="44.91654" lon="5.31772">
        <ele>1418.1</ele>
        <time>2020-07-23T16:08:34.000Z</time>
      </trkpt>
      <trkpt lat="44.91645" lon="5.31766">
        <ele>1419.1</ele>
        <time>2020-07-23T16:08:43.000Z</time>
      </trkpt>
      <trkpt lat="44.91636" lon="5.31762">
        <ele>1420</ele>
        <time>2020-07-23T16:08:51.000Z</time>
      </trkpt>
      <trkpt lat="44.9163" lon="5.31753">
        <ele>1420.7</ele>
        <time>2020-07-23T16:08:58.000Z</time>
      </trkpt>
      <trkpt lat="44.91621" lon="5.31748">
        <ele>1421.4</ele>
        <time>2020-07-23T16:09:06.000Z</time>
      </trkpt>
      <trkpt lat="44.91613" lon="5.31742">
        <ele>1422</ele>
        <time>2020-07-23T16:09:14.000Z</time>
      </trkpt>
      <trkpt lat="44.91604" lon="5.31738">
        <ele>1422.5</ele>
        <time>2020-07-23T16:09:21.000Z</time>
      </trkpt>
      <trkpt lat="44.91594" lon="5.31739">
        <ele>1423.3</ele>
        <time>2020-07-23T16:09:45.000Z</time>
      </trkpt>
      <trkpt lat="44.91586" lon="5.31732">
        <ele>1423.4</ele>
        <time>2020-07-23T16:09:54.000Z</time>
      </trkpt>
      <trkpt lat="44.91577" lon="5.31727">
        <ele>1423.6</ele>
        <time>2020-07-23T16:10:03.000Z</time>
      </trkpt>
      <trkpt lat="44.91569" lon="5.3172">
        <ele>1423.8</ele>
        <time>2020-07-23T16:10:11.000Z</time>
      </trkpt>
      <trkpt lat="44.91562" lon="5.31712">
        <ele>1424.2</ele>
        <time>2020-07-23T16:10:20.000Z</time>
      </trkpt>
      <trkpt lat="44.91554" lon="5.31704">
        <ele>1424.5</ele>
        <time>2020-07-23T16:10:28.000Z</time>
      </trkpt>
      <trkpt lat="44.91547" lon="5.31695">
        <ele>1425.1</ele>
        <time>2020-07-23T16:10:37.000Z</time>
      </trkpt>
      <trkpt lat="44.91538" lon="5.31689">
        <ele>1425.9</ele>
        <time>2020-07-23T16:10:47.000Z</time>
      </trkpt>
      <trkpt lat="44.9153" lon="5.31682">
        <ele>1426.5</ele>
        <time>2020-07-23T16:10:55.000Z</time>
      </trkpt>
      <trkpt lat="44.91523" lon="5.31675">
        <ele>1427.1</ele>
        <time>2020-07-23T16:11:03.000Z</time>
      </trkpt>
      <trkpt lat="44.91514" lon="5.31671">
        <ele>1427.7</ele>
        <time>2020-07-23T16:11:12.000Z</time>
      </trkpt>
      <trkpt lat="44.91504" lon="5.31668">
        <ele>1428.5</ele>
        <time>2020-07-23T16:11:21.000Z</time>
      </trkpt>
      <trkpt lat="44.91494" lon="5.31668">
        <ele>1429.2</ele>
        <time>2020-07-23T16:11:30.000Z</time>
      </trkpt>
      <trkpt lat="44.91485" lon="5.31674">
        <ele>1429.6</ele>
        <time>2020-07-23T16:11:38.000Z</time>
      </trkpt>
      <trkpt lat="44.91477" lon="5.31679">
        <ele>1430</ele>
        <time>2020-07-23T16:11:46.000Z</time>
      </trkpt>
      <trkpt lat="44.91468" lon="5.31685">
        <ele>1430.7</ele>
        <time>2020-07-23T16:11:55.000Z</time>
      </trkpt>
      <trkpt lat="44.91458" lon="5.3169">
        <ele>1431.3</ele>
        <time>2020-07-23T16:12:04.000Z</time>
      </trkpt>
      <trkpt lat="44.91451" lon="5.31699">
        <ele>1431.8</ele>
        <time>2020-07-23T16:12:12.000Z</time>
      </trkpt>
      <trkpt lat="44.91443" lon="5.31706">
        <ele>1432.1</ele>
        <time>2020-07-23T16:12:20.000Z</time>
      </trkpt>
      <trkpt lat="44.91434" lon="5.31714">
        <ele>1432.5</ele>
        <time>2020-07-23T16:12:29.000Z</time>
      </trkpt>
      <trkpt lat="44.91427" lon="5.31722">
        <ele>1432.8</ele>
        <time>2020-07-23T16:12:37.000Z</time>
      </trkpt>
      <trkpt lat="44.91419" lon="5.3173">
        <ele>1433.1</ele>
        <time>2020-07-23T16:12:45.000Z</time>
      </trkpt>
      <trkpt lat="44.91411" lon="5.31738">
        <ele>1433.3</ele>
        <time>2020-07-23T16:12:53.000Z</time>
      </trkpt>
      <trkpt lat="44.91402" lon="5.31745">
        <ele>1433.2</ele>
        <time>2020-07-23T16:13:01.000Z</time>
      </trkpt>
      <trkpt lat="44.91394" lon="5.3175">
        <ele>1433.1</ele>
        <time>2020-07-23T16:13:08.000Z</time>
      </trkpt>
      <trkpt lat="44.91385" lon="5.31754">
        <ele>1432.9</ele>
        <time>2020-07-23T16:13:15.000Z</time>
      </trkpt>
      <trkpt lat="44.91376" lon="5.31758">
        <ele>1432.6</ele>
        <time>2020-07-23T16:13:23.000Z</time>
      </trkpt>
      <trkpt lat="44.91366" lon="5.31762">
        <ele>1432.2</ele>
        <time>2020-07-23T16:13:31.000Z</time>
      </trkpt>
      <trkpt lat="44.91357" lon="5.31764">
        <ele>1431.9</ele>
        <time>2020-07-23T16:13:39.000Z</time>
      </trkpt>
      <trkpt lat="44.91347" lon="5.31767">
        <ele>1431.6</ele>
        <time>2020-07-23T16:13:47.000Z</time>
      </trkpt>
      <trkpt lat="44.91338" lon="5.3177">
        <ele>1431.4</ele>
        <time>2020-07-23T16:13:54.000Z</time>
      </trkpt>
      <trkpt lat="44.91329" lon="5.31775">
        <ele>1431.2</ele>
        <time>2020-07-23T16:14:01.000Z</time>
      </trkpt>
      <trkpt lat="44.9132" lon="5.31782">
        <ele>1430.8</ele>
        <time>2020-07-23T16:14:10.000Z</time>
      </trkpt>
      <trkpt lat="44.91311" lon="5.31786">
        <ele>1430.6</ele>
        <time>2020-07-23T16:14:16.000Z</time>
      </trkpt>
      <trkpt lat="44.91302" lon="5.3179">
        <ele>1430.2</ele>
        <time>2020-07-23T16:14:22.000Z</time>
      </trkpt>
      <trkpt lat="44.91292" lon="5.31793">
        <ele>1429.8</ele>
        <time>2020-07-23T16:14:29.000Z</time>
      </trkpt>
      <trkpt lat="44.91283" lon="5.31796">
        <ele>1429.7</ele>
        <time>2020-07-23T16:14:37.000Z</time>
      </trkpt>
      <trkpt lat="44.91274" lon="5.31797">
        <ele>1429.6</ele>
        <time>2020-07-23T16:14:44.000Z</time>
      </trkpt>
      <trkpt lat="44.91264" lon="5.318">
        <ele>1429.6</ele>
        <time>2020-07-23T16:14:52.000Z</time>
      </trkpt>
      <trkpt lat="44.91255" lon="5.31804">
        <ele>1429.6</ele>
        <time>2020-07-23T16:14:59.000Z</time>
      </trkpt>
      <trkpt lat="44.91246" lon="5.31806">
        <ele>1429.7</ele>
        <time>2020-07-23T16:15:06.000Z</time>
      </trkpt>
      <trkpt lat="44.91238" lon="5.31812">
        <ele>1429.6</ele>
        <time>2020-07-23T16:15:14.000Z</time>
      </trkpt>
      <trkpt lat="44.91229" lon="5.31819">
        <ele>1429.5</ele>
        <time>2020-07-23T16:15:21.000Z</time>
      </trkpt>
      <trkpt lat="44.91221" lon="5.31825">
        <ele>1429.4</ele>
        <time>2020-07-23T16:15:28.000Z</time>
      </trkpt>
      <trkpt lat="44.91213" lon="5.31833">
        <ele>1429.2</ele>
        <time>2020-07-23T16:15:35.000Z</time>
      </trkpt>
      <trkpt lat="44.91205" lon="5.31839">
        <ele>1428.9</ele>
        <time>2020-07-23T16:15:42.000Z</time>
      </trkpt>
      <trkpt lat="44.91197" lon="5.31847">
        <ele>1428.5</ele>
        <time>2020-07-23T16:15:50.000Z</time>
      </trkpt>
      <trkpt lat="44.91189" lon="5.31855">
        <ele>1428</ele>
        <time>2020-07-23T16:15:57.000Z</time>
      </trkpt>
      <trkpt lat="44.91181" lon="5.31863">
        <ele>1427.6</ele>
        <time>2020-07-23T16:16:05.000Z</time>
      </trkpt>
      <trkpt lat="44.91173" lon="5.31871">
        <ele>1427.4</ele>
        <time>2020-07-23T16:16:13.000Z</time>
      </trkpt>
      <trkpt lat="44.91164" lon="5.31878">
        <ele>1427.1</ele>
        <time>2020-07-23T16:16:21.000Z</time>
      </trkpt>
      <trkpt lat="44.91155" lon="5.31883">
        <ele>1426.9</ele>
        <time>2020-07-23T16:16:29.000Z</time>
      </trkpt>
      <trkpt lat="44.91145" lon="5.31885">
        <ele>1426.7</ele>
        <time>2020-07-23T16:16:37.000Z</time>
      </trkpt>
      <trkpt lat="44.91136" lon="5.31889">
        <ele>1426.5</ele>
        <time>2020-07-23T16:16:45.000Z</time>
      </trkpt>
      <trkpt lat="44.91127" lon="5.31893">
        <ele>1426.3</ele>
        <time>2020-07-23T16:16:52.000Z</time>
      </trkpt>
      <trkpt lat="44.91118" lon="5.319">
        <ele>1426</ele>
        <time>2020-07-23T16:16:58.000Z</time>
      </trkpt>
      <trkpt lat="44.9111" lon="5.31907">
        <ele>1425.6</ele>
        <time>2020-07-23T16:17:06.000Z</time>
      </trkpt>
      <trkpt lat="44.91102" lon="5.31914">
        <ele>1425.4</ele>
        <time>2020-07-23T16:17:13.000Z</time>
      </trkpt>
      <trkpt lat="44.91093" lon="5.3192">
        <ele>1425.1</ele>
        <time>2020-07-23T16:17:21.000Z</time>
      </trkpt>
      <trkpt lat="44.91084" lon="5.31926">
        <ele>1424.6</ele>
        <time>2020-07-23T16:17:29.000Z</time>
      </trkpt>
      <trkpt lat="44.91076" lon="5.31934">
        <ele>1424.1</ele>
        <time>2020-07-23T16:17:36.000Z</time>
      </trkpt>
      <trkpt lat="44.91068" lon="5.31942">
        <ele>1423.4</ele>
        <time>2020-07-23T16:17:44.000Z</time>
      </trkpt>
      <trkpt lat="44.91061" lon="5.31952">
        <ele>1422.4</ele>
        <time>2020-07-23T16:17:52.000Z</time>
      </trkpt>
      <trkpt lat="44.91055" lon="5.31962">
        <ele>1421.6</ele>
        <time>2020-07-23T16:17:59.000Z</time>
      </trkpt>
      <trkpt lat="44.9105" lon="5.31972">
        <ele>1420.8</ele>
        <time>2020-07-23T16:18:07.000Z</time>
      </trkpt>
      <trkpt lat="44.91043" lon="5.31981">
        <ele>1420</ele>
        <time>2020-07-23T16:18:15.000Z</time>
      </trkpt>
      <trkpt lat="44.91036" lon="5.31993">
        <ele>1419.4</ele>
        <time>2020-07-23T16:18:23.000Z</time>
      </trkpt>
      <trkpt lat="44.91029" lon="5.32001">
        <ele>1418.8</ele>
        <time>2020-07-23T16:18:30.000Z</time>
      </trkpt>
      <trkpt lat="44.91023" lon="5.32012">
        <ele>1418.4</ele>
        <time>2020-07-23T16:18:38.000Z</time>
      </trkpt>
      <trkpt lat="44.91015" lon="5.32021">
        <ele>1418</ele>
        <time>2020-07-23T16:18:46.000Z</time>
      </trkpt>
      <trkpt lat="44.91007" lon="5.32027">
        <ele>1417.6</ele>
        <time>2020-07-23T16:18:53.000Z</time>
      </trkpt>
      <trkpt lat="44.90998" lon="5.32035">
        <ele>1417.1</ele>
        <time>2020-07-23T16:19:01.000Z</time>
      </trkpt>
      <trkpt lat="44.9099" lon="5.32042">
        <ele>1416.6</ele>
        <time>2020-07-23T16:19:08.000Z</time>
      </trkpt>
      <trkpt lat="44.90983" lon="5.32051">
        <ele>1416.2</ele>
        <time>2020-07-23T16:19:15.000Z</time>
      </trkpt>
      <trkpt lat="44.90976" lon="5.3206">
        <ele>1415.9</ele>
        <time>2020-07-23T16:19:22.000Z</time>
      </trkpt>
      <trkpt lat="44.90969" lon="5.3207">
        <ele>1415.7</ele>
        <time>2020-07-23T16:19:30.000Z</time>
      </trkpt>
      <trkpt lat="44.9096" lon="5.32076">
        <ele>1415.6</ele>
        <time>2020-07-23T16:19:39.000Z</time>
      </trkpt>
      <trkpt lat="44.9095" lon="5.32079">
        <ele>1415.3</ele>
        <time>2020-07-23T16:19:47.000Z</time>
      </trkpt>
      <trkpt lat="44.9094" lon="5.32081">
        <ele>1414.8</ele>
        <time>2020-07-23T16:19:55.000Z</time>
      </trkpt>
      <trkpt lat="44.90931" lon="5.32083">
        <ele>1414.3</ele>
        <time>2020-07-23T16:20:03.000Z</time>
      </trkpt>
      <trkpt lat="44.90921" lon="5.32085">
        <ele>1413.8</ele>
        <time>2020-07-23T16:20:11.000Z</time>
      </trkpt>
      <trkpt lat="44.90912" lon="5.32087">
        <ele>1413.4</ele>
        <time>2020-07-23T16:20:18.000Z</time>
      </trkpt>
      <trkpt lat="44.90902" lon="5.32088">
        <ele>1412.8</ele>
        <time>2020-07-23T16:20:26.000Z</time>
      </trkpt>
      <trkpt lat="44.90892" lon="5.32091">
        <ele>1412.8</ele>
        <time>2020-07-23T16:20:34.000Z</time>
      </trkpt>
      <trkpt lat="44.90883" lon="5.32093">
        <ele>1412.6</ele>
        <time>2020-07-23T16:20:42.000Z</time>
      </trkpt>
      <trkpt lat="44.90873" lon="5.32092">
        <ele>1412.6</ele>
        <time>2020-07-23T16:20:51.000Z</time>
      </trkpt>
      <trkpt lat="44.90864" lon="5.32087">
        <ele>1412.4</ele>
        <time>2020-07-23T16:20:58.000Z</time>
      </trkpt>
      <trkpt lat="44.90856" lon="5.32079">
        <ele>1411.8</ele>
        <time>2020-07-23T16:21:06.000Z</time>
      </trkpt>
      <trkpt lat="44.90848" lon="5.32073">
        <ele>1411.1</ele>
        <time>2020-07-23T16:21:14.000Z</time>
      </trkpt>
      <trkpt lat="44.90839" lon="5.3207">
        <ele>1410.7</ele>
        <time>2020-07-23T16:21:21.000Z</time>
      </trkpt>
      <trkpt lat="44.90829" lon="5.32074">
        <ele>1410.4</ele>
        <time>2020-07-23T16:21:29.000Z</time>
      </trkpt>
      <trkpt lat="44.90821" lon="5.32082">
        <ele>1410.4</ele>
        <time>2020-07-23T16:21:36.000Z</time>
      </trkpt>
      <trkpt lat="44.90813" lon="5.32089">
        <ele>1410.6</ele>
        <time>2020-07-23T16:21:44.000Z</time>
      </trkpt>
      <trkpt lat="44.90803" lon="5.32091">
        <ele>1410.9</ele>
        <time>2020-07-23T16:21:52.000Z</time>
      </trkpt>
      <trkpt lat="44.90794" lon="5.32093">
        <ele>1411.1</ele>
        <time>2020-07-23T16:22:00.000Z</time>
      </trkpt>
      <trkpt lat="44.90786" lon="5.321">
        <ele>1411.1</ele>
        <time>2020-07-23T16:22:07.000Z</time>
      </trkpt>
      <trkpt lat="44.90779" lon="5.32108">
        <ele>1411</ele>
        <time>2020-07-23T16:22:14.000Z</time>
      </trkpt>
      <trkpt lat="44.90774" lon="5.3212">
        <ele>1410.9</ele>
        <time>2020-07-23T16:22:22.000Z</time>
      </trkpt>
      <trkpt lat="44.9077" lon="5.32133">
        <ele>1411</ele>
        <time>2020-07-23T16:22:30.000Z</time>
      </trkpt>
      <trkpt lat="44.90768" lon="5.32146">
        <ele>1411.1</ele>
        <time>2020-07-23T16:22:38.000Z</time>
      </trkpt>
      <trkpt lat="44.90768" lon="5.32159">
        <ele>1411.1</ele>
        <time>2020-07-23T16:22:46.000Z</time>
      </trkpt>
      <trkpt lat="44.90767" lon="5.32172">
        <ele>1410.3</ele>
        <time>2020-07-23T16:23:36.000Z</time>
      </trkpt>
      <trkpt lat="44.9077" lon="5.32186">
        <ele>1411.8</ele>
        <time>2020-07-23T16:25:24.000Z</time>
      </trkpt>
      <trkpt lat="44.90774" lon="5.32198">
        <ele>1411</ele>
        <time>2020-07-23T16:25:32.000Z</time>
      </trkpt>
      <trkpt lat="44.90778" lon="5.32211">
        <ele>1410.3</ele>
        <time>2020-07-23T16:25:40.000Z</time>
      </trkpt>
      <trkpt lat="44.90781" lon="5.32223">
        <ele>1410</ele>
        <time>2020-07-23T16:25:48.000Z</time>
      </trkpt>
      <trkpt lat="44.90785" lon="5.32235">
        <ele>1409.7</ele>
        <time>2020-07-23T16:25:56.000Z</time>
      </trkpt>
      <trkpt lat="44.90787" lon="5.32249">
        <ele>1409.4</ele>
        <time>2020-07-23T16:26:04.000Z</time>
      </trkpt>
      <trkpt lat="44.90792" lon="5.32261">
        <ele>1409.1</ele>
        <time>2020-07-23T16:26:12.000Z</time>
      </trkpt>
      <trkpt lat="44.90796" lon="5.32275">
        <ele>1408.8</ele>
        <time>2020-07-23T16:26:20.000Z</time>
      </trkpt>
      <trkpt lat="44.90799" lon="5.32288">
        <ele>1408.7</ele>
        <time>2020-07-23T16:26:28.000Z</time>
      </trkpt>
      <trkpt lat="44.90802" lon="5.32301">
        <ele>1408.7</ele>
        <time>2020-07-23T16:26:35.000Z</time>
      </trkpt>
      <trkpt lat="44.90806" lon="5.32313">
        <ele>1409</ele>
        <time>2020-07-23T16:26:43.000Z</time>
      </trkpt>
      <trkpt lat="44.9081" lon="5.32325">
        <ele>1409.3</ele>
        <time>2020-07-23T16:26:51.000Z</time>
      </trkpt>
      <trkpt lat="44.90813" lon="5.32337">
        <ele>1409.7</ele>
        <time>2020-07-23T16:26:59.000Z</time>
      </trkpt>
      <trkpt lat="44.90817" lon="5.3235">
        <ele>1409.8</ele>
        <time>2020-07-23T16:27:07.000Z</time>
      </trkpt>
      <trkpt lat="44.90821" lon="5.32361">
        <ele>1409.8</ele>
        <time>2020-07-23T16:27:13.000Z</time>
      </trkpt>
      <trkpt lat="44.90826" lon="5.32373">
        <ele>1409.7</ele>
        <time>2020-07-23T16:27:20.000Z</time>
      </trkpt>
      <trkpt lat="44.90828" lon="5.32386">
        <ele>1409.4</ele>
        <time>2020-07-23T16:27:29.000Z</time>
      </trkpt>
      <trkpt lat="44.90828" lon="5.324">
        <ele>1409</ele>
        <time>2020-07-23T16:27:39.000Z</time>
      </trkpt>
      <trkpt lat="44.90829" lon="5.32414">
        <ele>1408.4</ele>
        <time>2020-07-23T16:27:47.000Z</time>
      </trkpt>
      <trkpt lat="44.90831" lon="5.32428">
        <ele>1407.6</ele>
        <time>2020-07-23T16:27:54.000Z</time>
      </trkpt>
      <trkpt lat="44.90832" lon="5.32442">
        <ele>1407</ele>
        <time>2020-07-23T16:28:00.000Z</time>
      </trkpt>
      <trkpt lat="44.90834" lon="5.32455">
        <ele>1406.3</ele>
        <time>2020-07-23T16:28:08.000Z</time>
      </trkpt>
      <trkpt lat="44.90837" lon="5.32468">
        <ele>1405.4</ele>
        <time>2020-07-23T16:28:16.000Z</time>
      </trkpt>
      <trkpt lat="44.90841" lon="5.32481">
        <ele>1404.3</ele>
        <time>2020-07-23T16:28:25.000Z</time>
      </trkpt>
      <trkpt lat="44.90842" lon="5.32494">
        <ele>1403.5</ele>
        <time>2020-07-23T16:28:33.000Z</time>
      </trkpt>
      <trkpt lat="44.90843" lon="5.32507">
        <ele>1402.7</ele>
        <time>2020-07-23T16:28:41.000Z</time>
      </trkpt>
      <trkpt lat="44.90845" lon="5.32521">
        <ele>1402.1</ele>
        <time>2020-07-23T16:28:49.000Z</time>
      </trkpt>
      <trkpt lat="44.90844" lon="5.32535">
        <ele>1401.7</ele>
        <time>2020-07-23T16:28:57.000Z</time>
      </trkpt>
      <trkpt lat="44.90841" lon="5.32548">
        <ele>1401.4</ele>
        <time>2020-07-23T16:29:05.000Z</time>
      </trkpt>
      <trkpt lat="44.90838" lon="5.32561">
        <ele>1401.2</ele>
        <time>2020-07-23T16:29:13.000Z</time>
      </trkpt>
      <trkpt lat="44.90832" lon="5.32571">
        <ele>1400.7</ele>
        <time>2020-07-23T16:29:21.000Z</time>
      </trkpt>
      <trkpt lat="44.90824" lon="5.3258">
        <ele>1400.3</ele>
        <time>2020-07-23T16:29:30.000Z</time>
      </trkpt>
      <trkpt lat="44.90817" lon="5.32589">
        <ele>1399.7</ele>
        <time>2020-07-23T16:29:38.000Z</time>
      </trkpt>
      <trkpt lat="44.9081" lon="5.32596">
        <ele>1398.8</ele>
        <time>2020-07-23T16:29:46.000Z</time>
      </trkpt>
      <trkpt lat="44.90803" lon="5.32607">
        <ele>1397.8</ele>
        <time>2020-07-23T16:29:54.000Z</time>
      </trkpt>
      <trkpt lat="44.90796" lon="5.32618">
        <ele>1396.7</ele>
        <time>2020-07-23T16:30:02.000Z</time>
      </trkpt>
      <trkpt lat="44.90789" lon="5.32628">
        <ele>1395.4</ele>
        <time>2020-07-23T16:30:09.000Z</time>
      </trkpt>
      <trkpt lat="44.90784" lon="5.32639">
        <ele>1394.6</ele>
        <time>2020-07-23T16:30:15.000Z</time>
      </trkpt>
      <trkpt lat="44.90778" lon="5.3265">
        <ele>1393.7</ele>
        <time>2020-07-23T16:30:22.000Z</time>
      </trkpt>
      <trkpt lat="44.90772" lon="5.3266">
        <ele>1393.1</ele>
        <time>2020-07-23T16:30:29.000Z</time>
      </trkpt>
      <trkpt lat="44.90765" lon="5.32671">
        <ele>1392.6</ele>
        <time>2020-07-23T16:30:36.000Z</time>
      </trkpt>
      <trkpt lat="44.90759" lon="5.3268">
        <ele>1392.1</ele>
        <time>2020-07-23T16:30:42.000Z</time>
      </trkpt>
      <trkpt lat="44.90751" lon="5.3269">
        <ele>1391.4</ele>
        <time>2020-07-23T16:30:50.000Z</time>
      </trkpt>
      <trkpt lat="44.90743" lon="5.32699">
        <ele>1390.6</ele>
        <time>2020-07-23T16:30:58.000Z</time>
      </trkpt>
      <trkpt lat="44.90734" lon="5.32705">
        <ele>1390.1</ele>
        <time>2020-07-23T16:31:05.000Z</time>
      </trkpt>
      <trkpt lat="44.90727" lon="5.32712">
        <ele>1389.9</ele>
        <time>2020-07-23T16:31:12.000Z</time>
      </trkpt>
      <trkpt lat="44.90719" lon="5.3272">
        <ele>1389.9</ele>
        <time>2020-07-23T16:31:19.000Z</time>
      </trkpt>
      <trkpt lat="44.90712" lon="5.32727">
        <ele>1390.2</ele>
        <time>2020-07-23T16:31:27.000Z</time>
      </trkpt>
      <trkpt lat="44.90703" lon="5.32731">
        <ele>1390.3</ele>
        <time>2020-07-23T16:31:35.000Z</time>
      </trkpt>
      <trkpt lat="44.90694" lon="5.32736">
        <ele>1390.6</ele>
        <time>2020-07-23T16:31:42.000Z</time>
      </trkpt>
      <trkpt lat="44.90685" lon="5.32741">
        <ele>1391</ele>
        <time>2020-07-23T16:31:50.000Z</time>
      </trkpt>
      <trkpt lat="44.90676" lon="5.32746">
        <ele>1391.7</ele>
        <time>2020-07-23T16:31:59.000Z</time>
      </trkpt>
      <trkpt lat="44.90668" lon="5.32752">
        <ele>1392.4</ele>
        <time>2020-07-23T16:32:08.000Z</time>
      </trkpt>
      <trkpt lat="44.9066" lon="5.32758">
        <ele>1392.9</ele>
        <time>2020-07-23T16:32:16.000Z</time>
      </trkpt>
      <trkpt lat="44.90651" lon="5.32764">
        <ele>1393.5</ele>
        <time>2020-07-23T16:32:25.000Z</time>
      </trkpt>
      <trkpt lat="44.90643" lon="5.32771">
        <ele>1393.9</ele>
        <time>2020-07-23T16:32:33.000Z</time>
      </trkpt>
      <trkpt lat="44.90634" lon="5.32776">
        <ele>1394.2</ele>
        <time>2020-07-23T16:32:41.000Z</time>
      </trkpt>
      <trkpt lat="44.90625" lon="5.32779">
        <ele>1394.7</ele>
        <time>2020-07-23T16:32:49.000Z</time>
      </trkpt>
      <trkpt lat="44.90615" lon="5.32783">
        <ele>1395.6</ele>
        <time>2020-07-23T16:32:58.000Z</time>
      </trkpt>
      <trkpt lat="44.90606" lon="5.32782">
        <ele>1396.3</ele>
        <time>2020-07-23T16:33:06.000Z</time>
      </trkpt>
      <trkpt lat="44.90597" lon="5.3278">
        <ele>1397</ele>
        <time>2020-07-23T16:33:14.000Z</time>
      </trkpt>
      <trkpt lat="44.90587" lon="5.32779">
        <ele>1397.4</ele>
        <time>2020-07-23T16:33:23.000Z</time>
      </trkpt>
      <trkpt lat="44.90577" lon="5.32778">
        <ele>1398.3</ele>
        <time>2020-07-23T16:33:33.000Z</time>
      </trkpt>
      <trkpt lat="44.90568" lon="5.32777">
        <ele>1399.7</ele>
        <time>2020-07-23T16:33:42.000Z</time>
      </trkpt>
      <trkpt lat="44.90558" lon="5.32774">
        <ele>1401.5</ele>
        <time>2020-07-23T16:33:51.000Z</time>
      </trkpt>
      <trkpt lat="44.90549" lon="5.32776">
        <ele>1402.6</ele>
        <time>2020-07-23T16:33:58.000Z</time>
      </trkpt>
      <trkpt lat="44.9054" lon="5.32776">
        <ele>1403.2</ele>
        <time>2020-07-23T16:34:05.000Z</time>
      </trkpt>
      <trkpt lat="44.9053" lon="5.32773">
        <ele>1404.3</ele>
        <time>2020-07-23T16:34:46.000Z</time>
      </trkpt>
      <trkpt lat="44.90522" lon="5.32768">
        <ele>1404.4</ele>
        <time>2020-07-23T16:34:51.000Z</time>
      </trkpt>
      <trkpt lat="44.90513" lon="5.32759">
        <ele>1404.4</ele>
        <time>2020-07-23T16:34:55.000Z</time>
      </trkpt>
      <trkpt lat="44.90504" lon="5.32748">
        <ele>1404.7</ele>
        <time>2020-07-23T16:34:59.000Z</time>
      </trkpt>
      <trkpt lat="44.90498" lon="5.32739">
        <ele>1404.9</ele>
        <time>2020-07-23T16:35:02.000Z</time>
      </trkpt>
      <trkpt lat="44.90491" lon="5.3273">
        <ele>1405.3</ele>
        <time>2020-07-23T16:35:05.000Z</time>
      </trkpt>
      <trkpt lat="44.90485" lon="5.32718">
        <ele>1406.1</ele>
        <time>2020-07-23T16:35:09.000Z</time>
      </trkpt>
      <trkpt lat="44.90478" lon="5.3271">
        <ele>1406.7</ele>
        <time>2020-07-23T16:35:13.000Z</time>
      </trkpt>
      <trkpt lat="44.90468" lon="5.32703">
        <ele>1407.3</ele>
        <time>2020-07-23T16:35:17.000Z</time>
      </trkpt>
      <trkpt lat="44.9046" lon="5.32692">
        <ele>1408</ele>
        <time>2020-07-23T16:35:21.000Z</time>
      </trkpt>
      <trkpt lat="44.9045" lon="5.32683">
        <ele>1408.7</ele>
        <time>2020-07-23T16:35:25.000Z</time>
      </trkpt>
      <trkpt lat="44.90442" lon="5.32675">
        <ele>1409.4</ele>
        <time>2020-07-23T16:35:29.000Z</time>
      </trkpt>
      <trkpt lat="44.90432" lon="5.32667">
        <ele>1410.1</ele>
        <time>2020-07-23T16:35:33.000Z</time>
      </trkpt>
      <trkpt lat="44.90423" lon="5.32658">
        <ele>1410.8</ele>
        <time>2020-07-23T16:35:37.000Z</time>
      </trkpt>
      <trkpt lat="44.90415" lon="5.32651">
        <ele>1411.6</ele>
        <time>2020-07-23T16:35:42.000Z</time>
      </trkpt>
      <trkpt lat="44.90409" lon="5.3264">
        <ele>1413.3</ele>
        <time>2020-07-23T16:35:50.000Z</time>
      </trkpt>
      <trkpt lat="44.90401" lon="5.32629">
        <ele>1413.9</ele>
        <time>2020-07-23T16:35:55.000Z</time>
      </trkpt>
      <trkpt lat="44.90394" lon="5.32619">
        <ele>1414.5</ele>
        <time>2020-07-23T16:35:59.000Z</time>
      </trkpt>
      <trkpt lat="44.90385" lon="5.32609">
        <ele>1415.3</ele>
        <time>2020-07-23T16:36:03.000Z</time>
      </trkpt>
      <trkpt lat="44.90374" lon="5.32602">
        <ele>1415.9</ele>
        <time>2020-07-23T16:36:07.000Z</time>
      </trkpt>
      <trkpt lat="44.90364" lon="5.32598">
        <ele>1416.5</ele>
        <time>2020-07-23T16:36:11.000Z</time>
      </trkpt>
      <trkpt lat="44.90351" lon="5.32596">
        <ele>1417.3</ele>
        <time>2020-07-23T16:36:15.000Z</time>
      </trkpt>
      <trkpt lat="44.90342" lon="5.32596">
        <ele>1417.7</ele>
        <time>2020-07-23T16:36:18.000Z</time>
      </trkpt>
      <trkpt lat="44.90332" lon="5.32596">
        <ele>1418.4</ele>
        <time>2020-07-23T16:36:21.000Z</time>
      </trkpt>
      <trkpt lat="44.90322" lon="5.32595">
        <ele>1419.4</ele>
        <time>2020-07-23T16:36:25.000Z</time>
      </trkpt>
      <trkpt lat="44.90312" lon="5.32593">
        <ele>1422.1</ele>
        <time>2020-07-23T16:36:33.000Z</time>
      </trkpt>
      <trkpt lat="44.90303" lon="5.32588">
        <ele>1423.9</ele>
        <time>2020-07-23T16:36:41.000Z</time>
      </trkpt>
      <trkpt lat="44.90294" lon="5.32585">
        <ele>1425.1</ele>
        <time>2020-07-23T16:36:49.000Z</time>
      </trkpt>
      <trkpt lat="44.90284" lon="5.32582">
        <ele>1426</ele>
        <time>2020-07-23T16:36:57.000Z</time>
      </trkpt>
      <trkpt lat="44.90274" lon="5.32579">
        <ele>1427</ele>
        <time>2020-07-23T16:37:05.000Z</time>
      </trkpt>
      <trkpt lat="44.90265" lon="5.32578">
        <ele>1419.9</ele>
        <time>2020-07-23T16:37:12.000Z</time>
      </trkpt>
      <trkpt lat="44.90256" lon="5.32575">
        <ele>1429.9</ele>
        <time>2020-07-23T16:37:20.000Z</time>
      </trkpt>
      <trkpt lat="44.90248" lon="5.32572">
        <ele>1431.7</ele>
        <time>2020-07-23T16:37:29.000Z</time>
      </trkpt>
      <trkpt lat="44.90238" lon="5.32568">
        <ele>1430.6</ele>
        <time>2020-07-23T16:37:37.000Z</time>
      </trkpt>
      <trkpt lat="44.90229" lon="5.32565">
        <ele>1430.2</ele>
        <time>2020-07-23T16:37:45.000Z</time>
      </trkpt>
      <trkpt lat="44.9022" lon="5.3256">
        <ele>1430.5</ele>
        <time>2020-07-23T16:37:53.000Z</time>
      </trkpt>
      <trkpt lat="44.90211" lon="5.32556">
        <ele>1431</ele>
        <time>2020-07-23T16:38:01.000Z</time>
      </trkpt>
      <trkpt lat="44.90201" lon="5.32553">
        <ele>1431.9</ele>
        <time>2020-07-23T16:38:09.000Z</time>
      </trkpt>
      <trkpt lat="44.90192" lon="5.32549">
        <ele>1433.1</ele>
        <time>2020-07-23T16:38:18.000Z</time>
      </trkpt>
      <trkpt lat="44.90182" lon="5.32546">
        <ele>1434.1</ele>
        <time>2020-07-23T16:38:26.000Z</time>
      </trkpt>
      <trkpt lat="44.90173" lon="5.32541">
        <ele>1435.7</ele>
        <time>2020-07-23T16:38:35.000Z</time>
      </trkpt>
      <trkpt lat="44.90163" lon="5.32542">
        <ele>1437.7</ele>
        <time>2020-07-23T16:38:44.000Z</time>
      </trkpt>
      <trkpt lat="44.90154" lon="5.32546">
        <ele>1438.7</ele>
        <time>2020-07-23T16:38:52.000Z</time>
      </trkpt>
      <trkpt lat="44.90145" lon="5.32551">
        <ele>1438.8</ele>
        <time>2020-07-23T16:39:00.000Z</time>
      </trkpt>
      <trkpt lat="44.90137" lon="5.32555">
        <ele>1439.7</ele>
        <time>2020-07-23T16:39:07.000Z</time>
      </trkpt>
      <trkpt lat="44.90127" lon="5.32555">
        <ele>1440.1</ele>
        <time>2020-07-23T16:39:15.000Z</time>
      </trkpt>
      <trkpt lat="44.90117" lon="5.32555">
        <ele>1441.1</ele>
        <time>2020-07-23T16:39:23.000Z</time>
      </trkpt>
      <trkpt lat="44.90108" lon="5.32553">
        <ele>1441.8</ele>
        <time>2020-07-23T16:39:31.000Z</time>
      </trkpt>
      <trkpt lat="44.90099" lon="5.32547">
        <ele>1442.8</ele>
        <time>2020-07-23T16:39:39.000Z</time>
      </trkpt>
      <trkpt lat="44.9009" lon="5.32541">
        <ele>1442.9</ele>
        <time>2020-07-23T16:39:47.000Z</time>
      </trkpt>
      <trkpt lat="44.90081" lon="5.32534">
        <ele>1443.5</ele>
        <time>2020-07-23T16:39:55.000Z</time>
      </trkpt>
      <trkpt lat="44.90073" lon="5.32529">
        <ele>1444.4</ele>
        <time>2020-07-23T16:40:03.000Z</time>
      </trkpt>
      <trkpt lat="44.90068" lon="5.32518">
        <ele>1446.1</ele>
        <time>2020-07-23T16:40:22.000Z</time>
      </trkpt>
      <trkpt lat="44.90071" lon="5.32504">
        <ele>1446.4</ele>
        <time>2020-07-23T16:40:31.000Z</time>
      </trkpt>
      <trkpt lat="44.90071" lon="5.32491">
        <ele>1446.3</ele>
        <time>2020-07-23T16:40:40.000Z</time>
      </trkpt>
      <trkpt lat="44.9007" lon="5.32477">
        <ele>1446.9</ele>
        <time>2020-07-23T16:40:48.000Z</time>
      </trkpt>
      <trkpt lat="44.90067" lon="5.32464">
        <ele>1446.6</ele>
        <time>2020-07-23T16:40:55.000Z</time>
      </trkpt>
      <trkpt lat="44.90064" lon="5.32451">
        <ele>1446.2</ele>
        <time>2020-07-23T16:41:02.000Z</time>
      </trkpt>
      <trkpt lat="44.90063" lon="5.32437">
        <ele>1439.1</ele>
        <time>2020-07-23T16:41:10.000Z</time>
      </trkpt>
      <trkpt lat="44.90062" lon="5.32423">
        <ele>1447.9</ele>
        <time>2020-07-23T16:41:18.000Z</time>
      </trkpt>
      <trkpt lat="44.90062" lon="5.3241">
        <ele>1448.5</ele>
        <time>2020-07-23T16:41:24.000Z</time>
      </trkpt>
      <trkpt lat="44.90061" lon="5.32396">
        <ele>1447.8</ele>
        <time>2020-07-23T16:41:32.000Z</time>
      </trkpt>
      <trkpt lat="44.9006" lon="5.32383">
        <ele>1446.5</ele>
        <time>2020-07-23T16:41:39.000Z</time>
      </trkpt>
      <trkpt lat="44.90058" lon="5.3237">
        <ele>1447.4</ele>
        <time>2020-07-23T16:41:47.000Z</time>
      </trkpt>
      <trkpt lat="44.90055" lon="5.32356">
        <ele>1446.7</ele>
        <time>2020-07-23T16:41:56.000Z</time>
      </trkpt>
      <trkpt lat="44.90049" lon="5.32345">
        <ele>1445.9</ele>
        <time>2020-07-23T16:42:05.000Z</time>
      </trkpt>
      <trkpt lat="44.90041" lon="5.32339">
        <ele>1444.9</ele>
        <time>2020-07-23T16:42:13.000Z</time>
      </trkpt>
      <trkpt lat="44.90031" lon="5.32334">
        <ele>1443.7</ele>
        <time>2020-07-23T16:42:21.000Z</time>
      </trkpt>
      <trkpt lat="44.90024" lon="5.32325">
        <ele>1443.4</ele>
        <time>2020-07-23T16:42:29.000Z</time>
      </trkpt>
      <trkpt lat="44.90015" lon="5.3232">
        <ele>1442.4</ele>
        <time>2020-07-23T16:42:36.000Z</time>
      </trkpt>
      <trkpt lat="44.90007" lon="5.32313">
        <ele>1442</ele>
        <time>2020-07-23T16:42:44.000Z</time>
      </trkpt>
      <trkpt lat="44.89999" lon="5.32305">
        <ele>1442</ele>
        <time>2020-07-23T16:42:52.000Z</time>
      </trkpt>
      <trkpt lat="44.8999" lon="5.32299">
        <ele>1441.1</ele>
        <time>2020-07-23T16:43:00.000Z</time>
      </trkpt>
      <trkpt lat="44.89981" lon="5.32298">
        <ele>1441.1</ele>
        <time>2020-07-23T16:43:08.000Z</time>
      </trkpt>
      <trkpt lat="44.89971" lon="5.32298">
        <ele>1440.4</ele>
        <time>2020-07-23T16:43:16.000Z</time>
      </trkpt>
      <trkpt lat="44.89962" lon="5.32299">
        <ele>1441.7</ele>
        <time>2020-07-23T16:43:23.000Z</time>
      </trkpt>
      <trkpt lat="44.89952" lon="5.323">
        <ele>1441.5</ele>
        <time>2020-07-23T16:43:30.000Z</time>
      </trkpt>
      <trkpt lat="44.89943" lon="5.32294">
        <ele>1441.5</ele>
        <time>2020-07-23T16:43:38.000Z</time>
      </trkpt>
      <trkpt lat="44.89941" lon="5.32281">
        <ele>1441.6</ele>
        <time>2020-07-23T16:43:45.000Z</time>
      </trkpt>
      <trkpt lat="44.89939" lon="5.32268">
        <ele>1441.1</ele>
        <time>2020-07-23T16:43:52.000Z</time>
      </trkpt>
      <trkpt lat="44.89936" lon="5.32255">
        <ele>1441.1</ele>
        <time>2020-07-23T16:43:59.000Z</time>
      </trkpt>
      <trkpt lat="44.89932" lon="5.32242">
        <ele>1440.3</ele>
        <time>2020-07-23T16:44:07.000Z</time>
      </trkpt>
      <trkpt lat="44.89927" lon="5.3223">
        <ele>1441.6</ele>
        <time>2020-07-23T16:44:15.000Z</time>
      </trkpt>
      <trkpt lat="44.8992" lon="5.3222">
        <ele>1442.9</ele>
        <time>2020-07-23T16:44:22.000Z</time>
      </trkpt>
      <trkpt lat="44.89915" lon="5.32208">
        <ele>1439.3</ele>
        <time>2020-07-23T16:44:29.000Z</time>
      </trkpt>
      <trkpt lat="44.89909" lon="5.32196">
        <ele>1444.4</ele>
        <time>2020-07-23T16:44:37.000Z</time>
      </trkpt>
      <trkpt lat="44.89903" lon="5.32185">
        <ele>1443.5</ele>
        <time>2020-07-23T16:44:46.000Z</time>
      </trkpt>
      <trkpt lat="44.89898" lon="5.32175">
        <ele>1443.1</ele>
        <time>2020-07-23T16:44:53.000Z</time>
      </trkpt>
      <trkpt lat="44.89893" lon="5.32162">
        <ele>1443.1</ele>
        <time>2020-07-23T16:45:01.000Z</time>
      </trkpt>
      <trkpt lat="44.89888" lon="5.32152">
        <ele>1443.3</ele>
        <time>2020-07-23T16:45:08.000Z</time>
      </trkpt>
      <trkpt lat="44.89884" lon="5.32139">
        <ele>1443.8</ele>
        <time>2020-07-23T16:45:16.000Z</time>
      </trkpt>
      <trkpt lat="44.89881" lon="5.3213">
        <ele>1443.3</ele>
        <time>2020-07-23T16:45:22.000Z</time>
      </trkpt>
    </trkseg>
  </trk>
</gpx>